﻿<?xml version="1.0" encoding="utf-8"?><gpx creator="Garmin Desktop App" version="1.1" xsi:schemaLocation="http://www.topografix.com/GPX/1/1 http://www.topografix.com/GPX/1/1/gpx.xsd http://www.garmin.com/xmlschemas/WaypointExtension/v1 http://www8.garmin.com/xmlschemas/WaypointExtensionv1.xsd http://www.garmin.com/xmlschemas/TrackPointExtension/v1 http://www.garmin.com/xmlschemas/TrackPointExtensionv1.xsd http://www.garmin.com/xmlschemas/GpxExtensions/v3 http://www8.garmin.com/xmlschemas/GpxExtensionsv3.xsd http://www.garmin.com/xmlschemas/ActivityExtension/v1 http://www8.garmin.com/xmlschemas/ActivityExtensionv1.xsd http://www.garmin.com/xmlschemas/AdventuresExtensions/v1 http://www8.garmin.com/xmlschemas/AdventuresExtensionv1.xsd" xmlns="http://www.topografix.com/GPX/1/1" xmlns:xsi="http://www.w3.org/2001/XMLSchema-instance" xmlns:wptx1="http://www.garmin.com/xmlschemas/WaypointExtension/v1" xmlns:gpxtrx="http://www.garmin.com/xmlschemas/GpxExtensions/v3" xmlns:gpxtpx="http://www.garmin.com/xmlschemas/TrackPointExtension/v1" xmlns:gpxx="http://www.garmin.com/xmlschemas/GpxExtensions/v3" xmlns:trp="http://www.garmin.com/xmlschemas/TripExtensions/v1" xmlns:adv="http://www.garmin.com/xmlschemas/AdventuresExtensions/v1">

  <metadata>
    <link href="http://www.garmin.com">
      <text>Garmin International</text>
    </link>
    <time>2012-06-16T16:09:03Z</time>
    <bounds maxlat="46.396634699776769" maxlon="7.163471756502986" minlat="46.321110147982836" minlon="7.07386476919055" />
  </metadata>

  <trk>
    <name>Tracé actuel: 16 JUIN 2012 09:34</name>
    <extensions>
      <gpxx:TrackExtension>
        <gpxx:DisplayColor>DarkGray</gpxx:DisplayColor>
      </gpxx:TrackExtension>
    </extensions>
    <trkseg>
      <trkpt lat="46.395902372896671" lon="7.10227120667696">
        <ele>1449.8099999999999</ele>
        <time>2012-06-16T07:34:02Z</time>
      </trkpt>
      <trkpt lat="46.395903965458274" lon="7.102274475619197">
        <ele>1447.4000000000001</ele>
        <time>2012-06-16T07:34:14Z</time>
      </trkpt>
      <trkpt lat="46.395887872204185" lon="7.102288473397493">
        <ele>1447.4000000000001</ele>
        <time>2012-06-16T07:34:15Z</time>
      </trkpt>
      <trkpt lat="46.395873622968793" lon="7.102315882220864">
        <ele>1447.4000000000001</ele>
        <time>2012-06-16T07:34:16Z</time>
      </trkpt>
      <trkpt lat="46.395859373733401" lon="7.102351589128375">
        <ele>1447.4000000000001</ele>
        <time>2012-06-16T07:34:17Z</time>
      </trkpt>
      <trkpt lat="46.395846381783485" lon="7.102385787293315">
        <ele>1447.8800000000001</ele>
        <time>2012-06-16T07:34:18Z</time>
      </trkpt>
      <trkpt lat="46.395805729553103" lon="7.102887192741036">
        <ele>1448.3599999999999</ele>
        <time>2012-06-16T07:34:32Z</time>
      </trkpt>
      <trkpt lat="46.395902959629893" lon="7.103092549368739">
        <ele>1450.77</ele>
        <time>2012-06-16T07:34:39Z</time>
      </trkpt>
      <trkpt lat="46.395924920216203" lon="7.103117778897286">
        <ele>1451.25</ele>
        <time>2012-06-16T07:34:40Z</time>
      </trkpt>
      <trkpt lat="46.395943528041244" lon="7.103147283196449">
        <ele>1451.73</ele>
        <time>2012-06-16T07:34:41Z</time>
      </trkpt>
      <trkpt lat="46.396292801946402" lon="7.103581884875894">
        <ele>1456.05</ele>
        <time>2012-06-16T07:34:59Z</time>
      </trkpt>
      <trkpt lat="46.396558843553066" lon="7.103947335854173">
        <ele>1460.3800000000001</ele>
        <time>2012-06-16T07:35:15Z</time>
      </trkpt>
      <trkpt lat="46.396634699776769" lon="7.104466008022428">
        <ele>1465.1900000000001</ele>
        <time>2012-06-16T07:35:32Z</time>
      </trkpt>
      <trkpt lat="46.39636698178947" lon="7.104658707976341">
        <ele>1468.0699999999999</ele>
        <time>2012-06-16T07:35:45Z</time>
      </trkpt>
      <trkpt lat="46.395732304081321" lon="7.10444362834096">
        <ele>1466.6300000000001</ele>
        <time>2012-06-16T07:36:03Z</time>
      </trkpt>
      <trkpt lat="46.395110450685024" lon="7.104275403544307">
        <ele>1468.55</ele>
        <time>2012-06-16T07:36:20Z</time>
      </trkpt>
      <trkpt lat="46.394374435767531" lon="7.104212958365679">
        <ele>1470.95</ele>
        <time>2012-06-16T07:36:39Z</time>
      </trkpt>
      <trkpt lat="46.394331268966198" lon="7.104196781292558">
        <ele>1470.95</ele>
        <time>2012-06-16T07:36:40Z</time>
      </trkpt>
      <trkpt lat="46.394312074407935" lon="7.104182532057166">
        <ele>1471.4400000000001</ele>
        <time>2012-06-16T07:36:41Z</time>
      </trkpt>
      <trkpt lat="46.393882837146521" lon="7.104140957817435">
        <ele>1475.76</ele>
        <time>2012-06-16T07:36:57Z</time>
      </trkpt>
      <trkpt lat="46.393412444740534" lon="7.104058144614101">
        <ele>1479.6099999999999</ele>
        <time>2012-06-16T07:37:15Z</time>
      </trkpt>
      <trkpt lat="46.393230641260743" lon="7.104175239801407">
        <ele>1482.01</ele>
        <time>2012-06-16T07:37:23Z</time>
      </trkpt>
      <trkpt lat="46.393205663189292" lon="7.104179179295898">
        <ele>1482.49</ele>
        <time>2012-06-16T07:37:24Z</time>
      </trkpt>
      <trkpt lat="46.393178841099143" lon="7.104173228144646">
        <ele>1482.49</ele>
        <time>2012-06-16T07:37:25Z</time>
      </trkpt>
      <trkpt lat="46.392694115638733" lon="7.103931745514274">
        <ele>1482.01</ele>
        <time>2012-06-16T07:37:41Z</time>
      </trkpt>
      <trkpt lat="46.392187178134918" lon="7.103652795776725">
        <ele>1483.9300000000001</ele>
        <time>2012-06-16T07:37:59Z</time>
      </trkpt>
      <trkpt lat="46.391841927543283" lon="7.103452133014798">
        <ele>1487.3</ele>
        <time>2012-06-16T07:38:14Z</time>
      </trkpt>
      <trkpt lat="46.391443703323603" lon="7.103219283744693">
        <ele>1491.1400000000001</ele>
        <time>2012-06-16T07:38:32Z</time>
      </trkpt>
      <trkpt lat="46.391063751652837" lon="7.102980650961399">
        <ele>1495.47</ele>
        <time>2012-06-16T07:38:49Z</time>
      </trkpt>
      <trkpt lat="46.390701318159699" lon="7.102902447804809">
        <ele>1499.3099999999999</ele>
        <time>2012-06-16T07:39:05Z</time>
      </trkpt>
      <trkpt lat="46.390246683731675" lon="7.102957936003804">
        <ele>1504.1199999999999</ele>
        <time>2012-06-16T07:39:26Z</time>
      </trkpt>
      <trkpt lat="46.389832198619843" lon="7.10296749137342">
        <ele>1509.4100000000001</ele>
        <time>2012-06-16T07:39:45Z</time>
      </trkpt>
      <trkpt lat="46.389491474255919" lon="7.10280429571867">
        <ele>1513.25</ele>
        <time>2012-06-16T07:40:01Z</time>
      </trkpt>
      <trkpt lat="46.389110516756773" lon="7.102647135034204">
        <ele>1517.0999999999999</ele>
        <time>2012-06-16T07:40:18Z</time>
      </trkpt>
      <trkpt lat="46.38904488645494" lon="7.102629952132702">
        <ele>1518.0599999999999</ele>
        <time>2012-06-16T07:40:21Z</time>
      </trkpt>
      <trkpt lat="46.389020914211869" lon="7.102624755352736">
        <ele>1518.54</ele>
        <time>2012-06-16T07:40:22Z</time>
      </trkpt>
      <trkpt lat="46.38867256231606" lon="7.102490477263928">
        <ele>1521.9000000000001</ele>
        <time>2012-06-16T07:40:38Z</time>
      </trkpt>
      <trkpt lat="46.388279115781188" lon="7.102165929973126">
        <ele>1525.27</ele>
        <time>2012-06-16T07:40:57Z</time>
      </trkpt>
      <trkpt lat="46.387918693944812" lon="7.101910952478647">
        <ele>1528.6300000000001</ele>
        <time>2012-06-16T07:41:14Z</time>
      </trkpt>
      <trkpt lat="46.387583920732141" lon="7.101758904755116">
        <ele>1531.52</ele>
        <time>2012-06-16T07:41:29Z</time>
      </trkpt>
      <trkpt lat="46.387215116992593" lon="7.101524965837598">
        <ele>1534.8800000000001</ele>
        <time>2012-06-16T07:41:46Z</time>
      </trkpt>
      <trkpt lat="46.386809349060059" lon="7.101241573691368">
        <ele>1538.73</ele>
        <time>2012-06-16T07:42:05Z</time>
      </trkpt>
      <trkpt lat="46.386439958587289" lon="7.100924570113421">
        <ele>1543.05</ele>
        <time>2012-06-16T07:42:23Z</time>
      </trkpt>
      <trkpt lat="46.386049445718527" lon="7.100602202117443">
        <ele>1546.4200000000001</ele>
        <time>2012-06-16T07:42:42Z</time>
      </trkpt>
      <trkpt lat="46.385596320033073" lon="7.10017254576087">
        <ele>1548.3399999999999</ele>
        <time>2012-06-16T07:43:00Z</time>
      </trkpt>
      <trkpt lat="46.385124251246452" lon="7.099784463644028">
        <ele>1549.78</ele>
        <time>2012-06-16T07:43:17Z</time>
      </trkpt>
      <trkpt lat="46.384644974023104" lon="7.099644150584936">
        <ele>1553.1500000000001</ele>
        <time>2012-06-16T07:43:33Z</time>
      </trkpt>
      <trkpt lat="46.384158823639154" lon="7.099168812856078">
        <ele>1554.5899999999999</ele>
        <time>2012-06-16T07:43:49Z</time>
      </trkpt>
      <trkpt lat="46.383472681045532" lon="7.098520388826728">
        <ele>1547.8599999999999</ele>
        <time>2012-06-16T07:43:59Z</time>
      </trkpt>
      <trkpt lat="46.383014526218176" lon="7.098238673061132">
        <ele>1544.98</ele>
        <time>2012-06-16T07:44:04Z</time>
      </trkpt>
      <trkpt lat="46.382139706984162" lon="7.097483463585377">
        <ele>1543.53</ele>
        <time>2012-06-16T07:44:16Z</time>
      </trkpt>
      <trkpt lat="46.381889842450619" lon="7.097209710627794">
        <ele>1543.53</ele>
        <time>2012-06-16T07:44:20Z</time>
      </trkpt>
      <trkpt lat="46.381838545203209" lon="7.097138967365027">
        <ele>1544.01</ele>
        <time>2012-06-16T07:44:21Z</time>
      </trkpt>
      <trkpt lat="46.38134996406734" lon="7.096578637138009">
        <ele>1546.9000000000001</ele>
        <time>2012-06-16T07:44:32Z</time>
      </trkpt>
      <trkpt lat="46.381269916892052" lon="7.096480652689934">
        <ele>1547.3800000000001</ele>
        <time>2012-06-16T07:44:34Z</time>
      </trkpt>
      <trkpt lat="46.381225408986211" lon="7.09644234739244">
        <ele>1547.3800000000001</ele>
        <time>2012-06-16T07:44:35Z</time>
      </trkpt>
      <trkpt lat="46.381178302690387" lon="7.096417034044862">
        <ele>1547.3800000000001</ele>
        <time>2012-06-16T07:44:36Z</time>
      </trkpt>
      <trkpt lat="46.380710592493415" lon="7.096215784549713">
        <ele>1552.6700000000001</ele>
        <time>2012-06-16T07:44:49Z</time>
      </trkpt>
      <trkpt lat="46.38035268522799" lon="7.096275547519326">
        <ele>1556.99</ele>
        <time>2012-06-16T07:45:01Z</time>
      </trkpt>
      <trkpt lat="46.379965273663402" lon="7.096467493101955">
        <ele>1562.28</ele>
        <time>2012-06-16T07:45:16Z</time>
      </trkpt>
      <trkpt lat="46.379679031670094" lon="7.096622977405787">
        <ele>1567.5699999999999</ele>
        <time>2012-06-16T07:45:28Z</time>
      </trkpt>
      <trkpt lat="46.379331769421697" lon="7.096729930490255">
        <ele>1568.53</ele>
        <time>2012-06-16T07:45:43Z</time>
      </trkpt>
      <trkpt lat="46.378939161077142" lon="7.096681399270892">
        <ele>1573.3299999999999</ele>
        <time>2012-06-16T07:45:59Z</time>
      </trkpt>
      <trkpt lat="46.378657529130578" lon="7.096718866378069">
        <ele>1577.6600000000001</ele>
        <time>2012-06-16T07:46:13Z</time>
      </trkpt>
      <trkpt lat="46.378447897732258" lon="7.09691634401679">
        <ele>1581.99</ele>
        <time>2012-06-16T07:46:25Z</time>
      </trkpt>
      <trkpt lat="46.378373801708221" lon="7.097007790580392">
        <ele>1584.3900000000001</ele>
        <time>2012-06-16T07:46:30Z</time>
      </trkpt>
      <trkpt lat="46.378353098407388" lon="7.097017681226134">
        <ele>1584.8699999999999</ele>
        <time>2012-06-16T07:46:31Z</time>
      </trkpt>
      <trkpt lat="46.378043135628104" lon="7.097055735066533">
        <ele>1584.3900000000001</ele>
        <time>2012-06-16T07:46:45Z</time>
      </trkpt>
      <trkpt lat="46.377716744318604" lon="7.096929755061865">
        <ele>1586.3099999999999</ele>
        <time>2012-06-16T07:46:59Z</time>
      </trkpt>
      <trkpt lat="46.377445422112942" lon="7.096666898578405">
        <ele>1585.3499999999999</ele>
        <time>2012-06-16T07:47:12Z</time>
      </trkpt>
      <trkpt lat="46.377164209261537" lon="7.096341261640191">
        <ele>1585.8299999999999</ele>
        <time>2012-06-16T07:47:27Z</time>
      </trkpt>
      <trkpt lat="46.377053903415799" lon="7.09584035910666">
        <ele>1587.27</ele>
        <time>2012-06-16T07:47:41Z</time>
      </trkpt>
      <trkpt lat="46.3770089764148" lon="7.095452193170786">
        <ele>1591.5999999999999</ele>
        <time>2012-06-16T07:47:55Z</time>
      </trkpt>
      <trkpt lat="46.37696891091764" lon="7.095060925930738">
        <ele>1594</ele>
        <time>2012-06-16T07:48:10Z</time>
      </trkpt>
      <trkpt lat="46.376950386911631" lon="7.094829501584172">
        <ele>1598.8099999999999</ele>
        <time>2012-06-16T07:48:18Z</time>
      </trkpt>
      <trkpt lat="46.376959858462214" lon="7.094809133559465">
        <ele>1598.8099999999999</ele>
        <time>2012-06-16T07:48:19Z</time>
      </trkpt>
      <trkpt lat="46.376967737451196" lon="7.094787508249283">
        <ele>1598.8099999999999</ele>
        <time>2012-06-16T07:48:20Z</time>
      </trkpt>
      <trkpt lat="46.376965474337339" lon="7.09475171752274">
        <ele>1598.8099999999999</ele>
        <time>2012-06-16T07:48:21Z</time>
      </trkpt>
      <trkpt lat="46.376960445195436" lon="7.094704443588853">
        <ele>1598.8099999999999</ele>
        <time>2012-06-16T07:48:22Z</time>
      </trkpt>
      <trkpt lat="46.37695868499577" lon="7.094653816893697">
        <ele>1598.8099999999999</ele>
        <time>2012-06-16T07:48:23Z</time>
      </trkpt>
      <trkpt lat="46.376963965594769" lon="7.094587683677673">
        <ele>1598.8099999999999</ele>
        <time>2012-06-16T07:48:25Z</time>
      </trkpt>
      <trkpt lat="46.376962456852198" lon="7.094557592645288">
        <ele>1598.8099999999999</ele>
        <time>2012-06-16T07:48:26Z</time>
      </trkpt>
      <trkpt lat="46.376950554549694" lon="7.094509564340115">
        <ele>1599.29</ele>
        <time>2012-06-16T07:48:27Z</time>
      </trkpt>
      <trkpt lat="46.376933958381414" lon="7.094464804977179">
        <ele>1599.29</ele>
        <time>2012-06-16T07:48:28Z</time>
      </trkpt>
      <trkpt lat="46.376921385526657" lon="7.094432367011905">
        <ele>1599.77</ele>
        <time>2012-06-16T07:48:29Z</time>
      </trkpt>
      <trkpt lat="46.376911327242851" lon="7.094400431960821">
        <ele>1599.77</ele>
        <time>2012-06-16T07:48:30Z</time>
      </trkpt>
      <trkpt lat="46.376729691401124" lon="7.09396205842495">
        <ele>1608.9000000000001</ele>
        <time>2012-06-16T07:48:45Z</time>
      </trkpt>
      <trkpt lat="46.376416124403477" lon="7.093845717608929">
        <ele>1616.1099999999999</ele>
        <time>2012-06-16T07:48:59Z</time>
      </trkpt>
      <trkpt lat="46.376119321212173" lon="7.093950742855668">
        <ele>1616.1099999999999</ele>
        <time>2012-06-16T07:49:11Z</time>
      </trkpt>
      <trkpt lat="46.375741632655263" lon="7.093873545527458">
        <ele>1614.6700000000001</ele>
        <time>2012-06-16T07:49:24Z</time>
      </trkpt>
      <trkpt lat="46.375380791723728" lon="7.093961304053664">
        <ele>1614.6700000000001</ele>
        <time>2012-06-16T07:49:38Z</time>
      </trkpt>
      <trkpt lat="46.375294793397188" lon="7.093770448118448">
        <ele>1616.5899999999999</ele>
        <time>2012-06-16T07:49:46Z</time>
      </trkpt>
      <trkpt lat="46.375295715406537" lon="7.093738513067365">
        <ele>1616.5899999999999</ele>
        <time>2012-06-16T07:49:47Z</time>
      </trkpt>
      <trkpt lat="46.375393783673644" lon="7.093368619680405">
        <ele>1619</ele>
        <time>2012-06-16T07:50:00Z</time>
      </trkpt>
      <trkpt lat="46.375406691804528" lon="7.093341881409288">
        <ele>1619</ele>
        <time>2012-06-16T07:50:01Z</time>
      </trkpt>
      <trkpt lat="46.37541557662189" lon="7.093317154794931">
        <ele>1619</ele>
        <time>2012-06-16T07:50:02Z</time>
      </trkpt>
      <trkpt lat="46.375425299629569" lon="7.093289075419307">
        <ele>1619</ele>
        <time>2012-06-16T07:50:03Z</time>
      </trkpt>
      <trkpt lat="46.375436699017882" lon="7.093264181166887">
        <ele>1619</ele>
        <time>2012-06-16T07:50:04Z</time>
      </trkpt>
      <trkpt lat="46.375617077574134" lon="7.092951033264399">
        <ele>1620.4400000000001</ele>
        <time>2012-06-16T07:50:18Z</time>
      </trkpt>
      <trkpt lat="46.375769963487983" lon="7.092632353305817">
        <ele>1622.8399999999999</ele>
        <time>2012-06-16T07:50:33Z</time>
      </trkpt>
      <trkpt lat="46.375799300149083" lon="7.092602010816336">
        <ele>1624.28</ele>
        <time>2012-06-16T07:50:36Z</time>
      </trkpt>
      <trkpt lat="46.375805838033557" lon="7.092584995552898">
        <ele>1624.77</ele>
        <time>2012-06-16T07:50:37Z</time>
      </trkpt>
      <trkpt lat="46.375815141946077" lon="7.092571668326855">
        <ele>1625.25</ele>
        <time>2012-06-16T07:50:38Z</time>
      </trkpt>
      <trkpt lat="46.375827211886644" lon="7.092557838186622">
        <ele>1624.77</ele>
        <time>2012-06-16T07:50:39Z</time>
      </trkpt>
      <trkpt lat="46.375838192179799" lon="7.092538475990295">
        <ele>1624.77</ele>
        <time>2012-06-16T07:50:40Z</time>
      </trkpt>
      <trkpt lat="46.375849256291986" lon="7.092513330280781">
        <ele>1624.28</ele>
        <time>2012-06-16T07:50:41Z</time>
      </trkpt>
      <trkpt lat="46.375860990956426" lon="7.092487262561917">
        <ele>1624.77</ele>
        <time>2012-06-16T07:50:42Z</time>
      </trkpt>
      <trkpt lat="46.375779267400503" lon="7.092183670029044">
        <ele>1624.77</ele>
        <time>2012-06-16T07:50:54Z</time>
      </trkpt>
      <trkpt lat="46.375728137791157" lon="7.092153243720532">
        <ele>1627.1700000000001</ele>
        <time>2012-06-16T07:50:58Z</time>
      </trkpt>
      <trkpt lat="46.375712966546416" lon="7.092149220407009">
        <ele>1627.6500000000001</ele>
        <time>2012-06-16T07:50:59Z</time>
      </trkpt>
      <trkpt lat="46.375697124749422" lon="7.092146119102836">
        <ele>1628.6099999999999</ele>
        <time>2012-06-16T07:51:00Z</time>
      </trkpt>
      <trkpt lat="46.375681953504682" lon="7.092140335589647">
        <ele>1629.0899999999999</ele>
        <time>2012-06-16T07:51:01Z</time>
      </trkpt>
      <trkpt lat="46.375666195526719" lon="7.092133210971952">
        <ele>1629.5699999999999</ele>
        <time>2012-06-16T07:51:02Z</time>
      </trkpt>
      <trkpt lat="46.375650689005852" lon="7.092126924544573">
        <ele>1629.5699999999999</ele>
        <time>2012-06-16T07:51:03Z</time>
      </trkpt>
      <trkpt lat="46.375634763389826" lon="7.092125583440065">
        <ele>1630.05</ele>
        <time>2012-06-16T07:51:04Z</time>
      </trkpt>
      <trkpt lat="46.375619089230895" lon="7.092125918716192">
        <ele>1630.53</ele>
        <time>2012-06-16T07:51:05Z</time>
      </trkpt>
      <trkpt lat="46.37540677562356" lon="7.092090966179967">
        <ele>1635.3399999999999</ele>
        <time>2012-06-16T07:51:20Z</time>
      </trkpt>
      <trkpt lat="46.375154899433255" lon="7.092086104676127">
        <ele>1635.3399999999999</ele>
        <time>2012-06-16T07:51:37Z</time>
      </trkpt>
      <trkpt lat="46.374959098175168" lon="7.092088367789984">
        <ele>1637.74</ele>
        <time>2012-06-16T07:51:51Z</time>
      </trkpt>
      <trkpt lat="46.375012658536434" lon="7.092282827943564">
        <ele>1637.26</ele>
        <time>2012-06-16T07:52:01Z</time>
      </trkpt>
      <trkpt lat="46.375013832002878" lon="7.092302860692143">
        <ele>1637.26</ele>
        <time>2012-06-16T07:52:02Z</time>
      </trkpt>
      <trkpt lat="46.374969994649291" lon="7.092505702748895">
        <ele>1641.1099999999999</ele>
        <time>2012-06-16T07:52:12Z</time>
      </trkpt>
      <trkpt lat="46.374849881976843" lon="7.092766631394625">
        <ele>1647.8399999999999</ele>
        <time>2012-06-16T07:52:27Z</time>
      </trkpt>
      <trkpt lat="46.374675706028938" lon="7.092919098213315">
        <ele>1652.1600000000001</ele>
        <time>2012-06-16T07:52:42Z</time>
      </trkpt>
      <trkpt lat="46.374487448483706" lon="7.093020854517818">
        <ele>1653.5999999999999</ele>
        <time>2012-06-16T07:52:57Z</time>
      </trkpt>
      <trkpt lat="46.37431955896318" lon="7.093094950541854">
        <ele>1656.97</ele>
        <time>2012-06-16T07:53:12Z</time>
      </trkpt>
      <trkpt lat="46.374133145436645" lon="7.093164268881083">
        <ele>1661.78</ele>
        <time>2012-06-16T07:53:28Z</time>
      </trkpt>
      <trkpt lat="46.373949246481061" lon="7.093238867819309">
        <ele>1663.7</ele>
        <time>2012-06-16T07:53:44Z</time>
      </trkpt>
      <trkpt lat="46.37389107607305" lon="7.093238113448024">
        <ele>1661.3</ele>
        <time>2012-06-16T07:54:00Z</time>
      </trkpt>
      <trkpt lat="46.373813292011619" lon="7.093277592211962">
        <ele>1665.1400000000001</ele>
        <time>2012-06-16T07:54:12Z</time>
      </trkpt>
      <trkpt lat="46.373659651726484" lon="7.093328470364213">
        <ele>1669.47</ele>
        <time>2012-06-16T07:54:26Z</time>
      </trkpt>
      <trkpt lat="46.373635595664382" lon="7.093325788155198">
        <ele>1669.95</ele>
        <time>2012-06-16T07:54:28Z</time>
      </trkpt>
      <trkpt lat="46.373599888756871" lon="7.093321932479739">
        <ele>1671.3900000000001</ele>
        <time>2012-06-16T07:54:31Z</time>
      </trkpt>
      <trkpt lat="46.373520344495773" lon="7.093344898894429">
        <ele>1673.79</ele>
        <time>2012-06-16T07:54:38Z</time>
      </trkpt>
      <trkpt lat="46.373457899317145" lon="7.093385802581906">
        <ele>1674.75</ele>
        <time>2012-06-16T07:54:43Z</time>
      </trkpt>
      <trkpt lat="46.373396962881088" lon="7.093488983809948">
        <ele>1677.1600000000001</ele>
        <time>2012-06-16T07:54:52Z</time>
      </trkpt>
      <trkpt lat="46.373307192698121" lon="7.093597194179893">
        <ele>1680.04</ele>
        <time>2012-06-16T07:55:03Z</time>
      </trkpt>
      <trkpt lat="46.373292775824666" lon="7.093641450628638">
        <ele>1681</ele>
        <time>2012-06-16T07:55:06Z</time>
      </trkpt>
      <trkpt lat="46.373297050595284" lon="7.093700962141156">
        <ele>1681</ele>
        <time>2012-06-16T07:55:09Z</time>
      </trkpt>
      <trkpt lat="46.37312438338995" lon="7.09386189468205">
        <ele>1681</ele>
        <time>2012-06-16T07:55:21Z</time>
      </trkpt>
      <trkpt lat="46.373089095577598" lon="7.093878407031298">
        <ele>1681.96</ele>
        <time>2012-06-16T07:55:24Z</time>
      </trkpt>
      <trkpt lat="46.372929587960243" lon="7.094066245481372">
        <ele>1684.8499999999999</ele>
        <time>2012-06-16T07:55:40Z</time>
      </trkpt>
      <trkpt lat="46.372857419773936" lon="7.094220221042633">
        <ele>1687.25</ele>
        <time>2012-06-16T07:55:50Z</time>
      </trkpt>
      <trkpt lat="46.372858844697475" lon="7.094248132780194">
        <ele>1687.25</ele>
        <time>2012-06-16T07:55:52Z</time>
      </trkpt>
      <trkpt lat="46.372822634875774" lon="7.094336980953813">
        <ele>1688.21</ele>
        <time>2012-06-16T07:55:59Z</time>
      </trkpt>
      <trkpt lat="46.372819785028696" lon="7.094388781115413">
        <ele>1688.6900000000001</ele>
        <time>2012-06-16T07:56:02Z</time>
      </trkpt>
      <trkpt lat="46.372733619064093" lon="7.094673682004213">
        <ele>1691.0999999999999</ele>
        <time>2012-06-16T07:56:19Z</time>
      </trkpt>
      <trkpt lat="46.372672514989972" lon="7.094891695305705">
        <ele>1693.5</ele>
        <time>2012-06-16T07:56:31Z</time>
      </trkpt>
      <trkpt lat="46.372622726485133" lon="7.094995882362127">
        <ele>1695.9000000000001</ele>
        <time>2012-06-16T07:56:44Z</time>
      </trkpt>
      <trkpt lat="46.372535554692149" lon="7.095070984214544">
        <ele>1697.8299999999999</ele>
        <time>2012-06-16T07:56:55Z</time>
      </trkpt>
      <trkpt lat="46.37245156802237" lon="7.095119180157781">
        <ele>1697.8299999999999</ele>
        <time>2012-06-16T07:57:10Z</time>
      </trkpt>
      <trkpt lat="46.372407730668783" lon="7.095365356653929">
        <ele>1700.23</ele>
        <time>2012-06-16T07:57:28Z</time>
      </trkpt>
      <trkpt lat="46.372403036803007" lon="7.095377678051591">
        <ele>1700.71</ele>
        <time>2012-06-16T07:57:29Z</time>
      </trkpt>
      <trkpt lat="46.372272949665785" lon="7.095594434067607">
        <ele>1704.0699999999999</ele>
        <time>2012-06-16T07:57:47Z</time>
      </trkpt>
      <trkpt lat="46.372221233323216" lon="7.095721168443561">
        <ele>1704.0699999999999</ele>
        <time>2012-06-16T07:57:58Z</time>
      </trkpt>
      <trkpt lat="46.372039178386331" lon="7.096113441511989">
        <ele>1704.0699999999999</ele>
        <time>2012-06-16T07:58:14Z</time>
      </trkpt>
      <trkpt lat="46.371889561414719" lon="7.096411166712642">
        <ele>1701.6700000000001</ele>
        <time>2012-06-16T07:58:26Z</time>
      </trkpt>
      <trkpt lat="46.371861901134253" lon="7.096378644928336">
        <ele>1701.1900000000001</ele>
        <time>2012-06-16T07:58:40Z</time>
      </trkpt>
      <trkpt lat="46.371824601665139" lon="7.096330113708973">
        <ele>1700.23</ele>
        <time>2012-06-16T07:58:54Z</time>
      </trkpt>
      <trkpt lat="46.371816303580999" lon="7.096303123980761">
        <ele>1698.3099999999999</ele>
        <time>2012-06-16T07:58:59Z</time>
      </trkpt>
      <trkpt lat="46.371781518682837" lon="7.096338495612145">
        <ele>1694.46</ele>
        <time>2012-06-16T07:59:07Z</time>
      </trkpt>
      <trkpt lat="46.371751008555293" lon="7.096369341015816">
        <ele>1693.98</ele>
        <time>2012-06-16T07:59:11Z</time>
      </trkpt>
      <trkpt lat="46.371706249192357" lon="7.096390798687935">
        <ele>1694.46</ele>
        <time>2012-06-16T07:59:15Z</time>
      </trkpt>
      <trkpt lat="46.37160575017333" lon="7.096581319347024">
        <ele>1697.3399999999999</ele>
        <time>2012-06-16T07:59:31Z</time>
      </trkpt>
      <trkpt lat="46.371512124314904" lon="7.096774270758033">
        <ele>1698.79</ele>
        <time>2012-06-16T07:59:46Z</time>
      </trkpt>
      <trkpt lat="46.371478596702218" lon="7.09696127101779">
        <ele>1701.6700000000001</ele>
        <time>2012-06-16T08:00:00Z</time>
      </trkpt>
      <trkpt lat="46.371452612802386" lon="7.097056237980723">
        <ele>1706.48</ele>
        <time>2012-06-16T08:00:13Z</time>
      </trkpt>
      <trkpt lat="46.371394107118249" lon="7.09721339866519">
        <ele>1706.96</ele>
        <time>2012-06-16T08:00:27Z</time>
      </trkpt>
      <trkpt lat="46.371373068541288" lon="7.097234353423119">
        <ele>1707.4400000000001</ele>
        <time>2012-06-16T08:00:29Z</time>
      </trkpt>
      <trkpt lat="46.37124415487051" lon="7.097402662038803">
        <ele>1711.76</ele>
        <time>2012-06-16T08:00:41Z</time>
      </trkpt>
      <trkpt lat="46.371193695813417" lon="7.097509615123272">
        <ele>1713.21</ele>
        <time>2012-06-16T08:00:46Z</time>
      </trkpt>
      <trkpt lat="46.371115995571017" lon="7.097896356135607">
        <ele>1713.21</ele>
        <time>2012-06-16T08:00:56Z</time>
      </trkpt>
      <trkpt lat="46.371080875396729" lon="7.097975313663483">
        <ele>1716.0899999999999</ele>
        <time>2012-06-16T08:01:08Z</time>
      </trkpt>
      <trkpt lat="46.371053550392389" lon="7.097997860983014">
        <ele>1718.49</ele>
        <time>2012-06-16T08:01:22Z</time>
      </trkpt>
      <trkpt lat="46.37107165530324" lon="7.098033903166652">
        <ele>1720.9000000000001</ele>
        <time>2012-06-16T08:01:36Z</time>
      </trkpt>
      <trkpt lat="46.371069559827447" lon="7.09806215018034">
        <ele>1720.9000000000001</ele>
        <time>2012-06-16T08:01:46Z</time>
      </trkpt>
      <trkpt lat="46.371057322248816" lon="7.098078243434429">
        <ele>1722.3399999999999</ele>
        <time>2012-06-16T08:02:00Z</time>
      </trkpt>
      <trkpt lat="46.37102915905416" lon="7.09809978492558">
        <ele>1720.4200000000001</ele>
        <time>2012-06-16T08:02:12Z</time>
      </trkpt>
      <trkpt lat="46.371005270630121" lon="7.098149070516229">
        <ele>1717.53</ele>
        <time>2012-06-16T08:02:17Z</time>
      </trkpt>
      <trkpt lat="46.370940562337637" lon="7.098394157364965">
        <ele>1716.0899999999999</ele>
        <time>2012-06-16T08:02:31Z</time>
      </trkpt>
      <trkpt lat="46.37093922123313" lon="7.098425924777985">
        <ele>1716.0899999999999</ele>
        <time>2012-06-16T08:02:33Z</time>
      </trkpt>
      <trkpt lat="46.370919942855835" lon="7.098487699404359">
        <ele>1716.0899999999999</ele>
        <time>2012-06-16T08:02:36Z</time>
      </trkpt>
      <trkpt lat="46.370895048603415" lon="7.098638657480478">
        <ele>1719.9400000000001</ele>
        <time>2012-06-16T08:02:49Z</time>
      </trkpt>
      <trkpt lat="46.370863616466522" lon="7.098638489842415">
        <ele>1722.8199999999999</ele>
        <time>2012-06-16T08:03:02Z</time>
      </trkpt>
      <trkpt lat="46.370850540697575" lon="7.098698923364282">
        <ele>1723.3</ele>
        <time>2012-06-16T08:03:10Z</time>
      </trkpt>
      <trkpt lat="46.370824724435806" lon="7.098806463181973">
        <ele>1722.3399999999999</ele>
        <time>2012-06-16T08:03:19Z</time>
      </trkpt>
      <trkpt lat="46.3707559928298" lon="7.099128495901823">
        <ele>1719.46</ele>
        <time>2012-06-16T08:03:32Z</time>
      </trkpt>
      <trkpt lat="46.370621547102928" lon="7.099461760371923">
        <ele>1717.53</ele>
        <time>2012-06-16T08:03:44Z</time>
      </trkpt>
      <trkpt lat="46.370430691167712" lon="7.099878760054708">
        <ele>1720.4200000000001</ele>
        <time>2012-06-16T08:03:55Z</time>
      </trkpt>
      <trkpt lat="46.370405377820134" lon="7.099997280165553">
        <ele>1720.4200000000001</ele>
        <time>2012-06-16T08:03:57Z</time>
      </trkpt>
      <trkpt lat="46.370398085564375" lon="7.100332891568542">
        <ele>1718.97</ele>
        <time>2012-06-16T08:04:03Z</time>
      </trkpt>
      <trkpt lat="46.370398588478565" lon="7.100374130532146">
        <ele>1718.49</ele>
        <time>2012-06-16T08:04:04Z</time>
      </trkpt>
      <trkpt lat="46.370395487174392" lon="7.100423332303762">
        <ele>1718.49</ele>
        <time>2012-06-16T08:04:05Z</time>
      </trkpt>
      <trkpt lat="46.370392637327313" lon="7.100477144122124">
        <ele>1717.53</ele>
        <time>2012-06-16T08:04:06Z</time>
      </trkpt>
      <trkpt lat="46.370385093614459" lon="7.100530872121453">
        <ele>1717.53</ele>
        <time>2012-06-16T08:04:07Z</time>
      </trkpt>
      <trkpt lat="46.370346117764711" lon="7.100642351433635">
        <ele>1717.05</ele>
        <time>2012-06-16T08:04:09Z</time>
      </trkpt>
      <trkpt lat="46.370308231562376" lon="7.100698091089726">
        <ele>1717.05</ele>
        <time>2012-06-16T08:04:10Z</time>
      </trkpt>
      <trkpt lat="46.370266657322645" lon="7.100742934271693">
        <ele>1717.05</ele>
        <time>2012-06-16T08:04:11Z</time>
      </trkpt>
      <trkpt lat="46.370140006765723" lon="7.100948626175523">
        <ele>1716.0899999999999</ele>
        <time>2012-06-16T08:04:16Z</time>
      </trkpt>
      <trkpt lat="46.36986717581749" lon="7.101212153211236">
        <ele>1714.6500000000001</ele>
        <time>2012-06-16T08:04:26Z</time>
      </trkpt>
      <trkpt lat="46.369677158072591" lon="7.101658824831247">
        <ele>1712.73</ele>
        <time>2012-06-16T08:04:38Z</time>
      </trkpt>
      <trkpt lat="46.369479345157743" lon="7.102168444544077">
        <ele>1707.4400000000001</ele>
        <time>2012-06-16T08:04:50Z</time>
      </trkpt>
      <trkpt lat="46.36942989192903" lon="7.102606734260917">
        <ele>1700.71</ele>
        <time>2012-06-16T08:05:01Z</time>
      </trkpt>
      <trkpt lat="46.369426622986794" lon="7.102643363177776">
        <ele>1700.23</ele>
        <time>2012-06-16T08:05:02Z</time>
      </trkpt>
      <trkpt lat="46.369412541389465" lon="7.102669682353735">
        <ele>1700.23</ele>
        <time>2012-06-16T08:05:03Z</time>
      </trkpt>
      <trkpt lat="46.369188409298658" lon="7.103186678141356">
        <ele>1696.3800000000001</ele>
        <time>2012-06-16T08:05:17Z</time>
      </trkpt>
      <trkpt lat="46.369163682684302" lon="7.103238310664892">
        <ele>1691.5799999999999</ele>
        <time>2012-06-16T08:05:24Z</time>
      </trkpt>
      <trkpt lat="46.3691689632833" lon="7.103275526314974">
        <ele>1689.6500000000001</ele>
        <time>2012-06-16T08:05:52Z</time>
      </trkpt>
      <trkpt lat="46.369155887514353" lon="7.103241831064224">
        <ele>1688.6900000000001</ele>
        <time>2012-06-16T08:06:24Z</time>
      </trkpt>
      <trkpt lat="46.369183883070946" lon="7.103251134976745">
        <ele>1689.6500000000001</ele>
        <time>2012-06-16T08:06:49Z</time>
      </trkpt>
      <trkpt lat="46.369126634672284" lon="7.103484570980072">
        <ele>1684.8499999999999</ele>
        <time>2012-06-16T08:07:04Z</time>
      </trkpt>
      <trkpt lat="46.36910785920918" lon="7.103563277050853">
        <ele>1684.3699999999999</ele>
        <time>2012-06-16T08:07:05Z</time>
      </trkpt>
      <trkpt lat="46.369083551689982" lon="7.103644162416458">
        <ele>1683.4100000000001</ele>
        <time>2012-06-16T08:07:06Z</time>
      </trkpt>
      <trkpt lat="46.368839554488659" lon="7.104253945872188">
        <ele>1674.75</ele>
        <time>2012-06-16T08:07:17Z</time>
      </trkpt>
      <trkpt lat="46.36867593973875" lon="7.104683769866824">
        <ele>1667.54</ele>
        <time>2012-06-16T08:07:26Z</time>
      </trkpt>
      <trkpt lat="46.368646519258618" lon="7.10473095998168">
        <ele>1666.5799999999999</ele>
        <time>2012-06-16T08:07:27Z</time>
      </trkpt>
      <trkpt lat="46.368612740188837" lon="7.104772115126252">
        <ele>1665.6199999999999</ele>
        <time>2012-06-16T08:07:28Z</time>
      </trkpt>
      <trkpt lat="46.368576027452946" lon="7.104807570576668">
        <ele>1664.6600000000001</ele>
        <time>2012-06-16T08:07:29Z</time>
      </trkpt>
      <trkpt lat="46.368536297231913" lon="7.104838248342276">
        <ele>1663.7</ele>
        <time>2012-06-16T08:07:30Z</time>
      </trkpt>
      <trkpt lat="46.368493800982833" lon="7.104864064604044">
        <ele>1663.22</ele>
        <time>2012-06-16T08:07:31Z</time>
      </trkpt>
      <trkpt lat="46.368450382724404" lon="7.104883678257465">
        <ele>1662.26</ele>
        <time>2012-06-16T08:07:32Z</time>
      </trkpt>
      <trkpt lat="46.368406042456627" lon="7.104897843673825">
        <ele>1661.3</ele>
        <time>2012-06-16T08:07:33Z</time>
      </trkpt>
      <trkpt lat="46.368355499580503" lon="7.104910667985678">
        <ele>1660.8099999999999</ele>
        <time>2012-06-16T08:07:34Z</time>
      </trkpt>
      <trkpt lat="46.36818484403193" lon="7.104960037395358">
        <ele>1658.8900000000001</ele>
        <time>2012-06-16T08:07:38Z</time>
      </trkpt>
      <trkpt lat="46.368166655302048" lon="7.104989290237427">
        <ele>1658.8900000000001</ele>
        <time>2012-06-16T08:07:39Z</time>
      </trkpt>
      <trkpt lat="46.368156597018242" lon="7.105021309107542">
        <ele>1658.4100000000001</ele>
        <time>2012-06-16T08:07:40Z</time>
      </trkpt>
      <trkpt lat="46.368161207064986" lon="7.105199424549937">
        <ele>1658.4100000000001</ele>
        <time>2012-06-16T08:07:50Z</time>
      </trkpt>
      <trkpt lat="46.368156177923083" lon="7.105377288535237">
        <ele>1657.9300000000001</ele>
        <time>2012-06-16T08:07:55Z</time>
      </trkpt>
      <trkpt lat="46.368129104375839" lon="7.105427160859108">
        <ele>1657.45</ele>
        <time>2012-06-16T08:07:56Z</time>
      </trkpt>
      <trkpt lat="46.368086105212569" lon="7.105470579117537">
        <ele>1657.45</ele>
        <time>2012-06-16T08:07:57Z</time>
      </trkpt>
      <trkpt lat="46.368035562336445" lon="7.105496395379305">
        <ele>1656.97</ele>
        <time>2012-06-16T08:07:58Z</time>
      </trkpt>
      <trkpt lat="46.367993569001555" lon="7.105508632957935">
        <ele>1656.01</ele>
        <time>2012-06-16T08:07:59Z</time>
      </trkpt>
      <trkpt lat="46.367936907336116" lon="7.105529168620706">
        <ele>1655.53</ele>
        <time>2012-06-16T08:08:03Z</time>
      </trkpt>
      <trkpt lat="46.367938332259655" lon="7.105544256046414">
        <ele>1655.53</ele>
        <time>2012-06-16T08:08:04Z</time>
      </trkpt>
      <trkpt lat="46.367948893457651" lon="7.105544004589319">
        <ele>1655.53</ele>
        <time>2012-06-16T08:08:05Z</time>
      </trkpt>
      <trkpt lat="46.367960460484028" lon="7.10554014891386">
        <ele>1655.53</ele>
        <time>2012-06-16T08:08:06Z</time>
      </trkpt>
      <trkpt lat="46.367971692234278" lon="7.105532269924879">
        <ele>1656.01</ele>
        <time>2012-06-16T08:08:07Z</time>
      </trkpt>
      <trkpt lat="46.367985187098384" lon="7.105521289631724">
        <ele>1656.01</ele>
        <time>2012-06-16T08:08:08Z</time>
      </trkpt>
      <trkpt lat="46.368004884570837" lon="7.105507291853428">
        <ele>1656.01</ele>
        <time>2012-06-16T08:08:09Z</time>
      </trkpt>
      <trkpt lat="46.368154836818576" lon="7.105540819466114">
        <ele>1657.45</ele>
        <time>2012-06-16T08:08:15Z</time>
      </trkpt>
      <trkpt lat="46.368175372481346" lon="7.105580633506179">
        <ele>1657.45</ele>
        <time>2012-06-16T08:08:16Z</time>
      </trkpt>
      <trkpt lat="46.368188448250294" lon="7.10563737899065">
        <ele>1656.97</ele>
        <time>2012-06-16T08:08:17Z</time>
      </trkpt>
      <trkpt lat="46.368194315582514" lon="7.10570921190083">
        <ele>1656.49</ele>
        <time>2012-06-16T08:08:18Z</time>
      </trkpt>
      <trkpt lat="46.368198338896036" lon="7.105791522189975">
        <ele>1656.01</ele>
        <time>2012-06-16T08:08:19Z</time>
      </trkpt>
      <trkpt lat="46.368229854851961" lon="7.106327377259731">
        <ele>1652.1600000000001</ele>
        <time>2012-06-16T08:08:24Z</time>
      </trkpt>
      <trkpt lat="46.368258101865649" lon="7.106443298980594">
        <ele>1651.6800000000001</ele>
        <time>2012-06-16T08:08:25Z</time>
      </trkpt>
      <trkpt lat="46.368528082966805" lon="7.107168417423964">
        <ele>1656.49</ele>
        <time>2012-06-16T08:08:34Z</time>
      </trkpt>
      <trkpt lat="46.368571165949106" lon="7.107616513967514">
        <ele>1660.3299999999999</ele>
        <time>2012-06-16T08:08:46Z</time>
      </trkpt>
      <trkpt lat="46.36851467192173" lon="7.10802236571908">
        <ele>1664.6600000000001</ele>
        <time>2012-06-16T08:09:00Z</time>
      </trkpt>
      <trkpt lat="46.368466392159462" lon="7.108461996540427">
        <ele>1668.99</ele>
        <time>2012-06-16T08:09:16Z</time>
      </trkpt>
      <trkpt lat="46.368535961955786" lon="7.108969856053591">
        <ele>1672.8299999999999</ele>
        <time>2012-06-16T08:09:35Z</time>
      </trkpt>
      <trkpt lat="46.368621122092009" lon="7.109154090285301">
        <ele>1674.75</ele>
        <time>2012-06-16T08:09:43Z</time>
      </trkpt>
      <trkpt lat="46.368633778765798" lon="7.109171189367771">
        <ele>1674.75</ele>
        <time>2012-06-16T08:09:44Z</time>
      </trkpt>
      <trkpt lat="46.368801165372133" lon="7.109460029751062">
        <ele>1677.6400000000001</ele>
        <time>2012-06-16T08:09:59Z</time>
      </trkpt>
      <trkpt lat="46.368819605559111" lon="7.109840316697955">
        <ele>1681.48</ele>
        <time>2012-06-16T08:10:14Z</time>
      </trkpt>
      <trkpt lat="46.368701504543424" lon="7.11028958670795">
        <ele>1686.29</ele>
        <time>2012-06-16T08:10:32Z</time>
      </trkpt>
      <trkpt lat="46.368563789874315" lon="7.110683536157012">
        <ele>1691.0999999999999</ele>
        <time>2012-06-16T08:10:48Z</time>
      </trkpt>
      <trkpt lat="46.368475947529078" lon="7.111180666834116">
        <ele>1694.46</ele>
        <time>2012-06-16T08:11:06Z</time>
      </trkpt>
      <trkpt lat="46.368414424359798" lon="7.111703027039766">
        <ele>1697.8299999999999</ele>
        <time>2012-06-16T08:11:25Z</time>
      </trkpt>
      <trkpt lat="46.368539817631245" lon="7.112094797194004">
        <ele>1701.6700000000001</ele>
        <time>2012-06-16T08:11:41Z</time>
      </trkpt>
      <trkpt lat="46.368645681068301" lon="7.11250115185976">
        <ele>1704.55</ele>
        <time>2012-06-16T08:11:57Z</time>
      </trkpt>
      <trkpt lat="46.368767637759447" lon="7.11290180683136">
        <ele>1707.9200000000001</ele>
        <time>2012-06-16T08:12:14Z</time>
      </trkpt>
      <trkpt lat="46.368792783468962" lon="7.112990822643042">
        <ele>1708.8800000000001</ele>
        <time>2012-06-16T08:12:18Z</time>
      </trkpt>
      <trkpt lat="46.368875848129392" lon="7.113367673009634">
        <ele>1710.8</ele>
        <time>2012-06-16T08:12:34Z</time>
      </trkpt>
      <trkpt lat="46.369013814255595" lon="7.113822223618627">
        <ele>1715.6099999999999</ele>
        <time>2012-06-16T08:12:54Z</time>
      </trkpt>
      <trkpt lat="46.369040887802839" lon="7.114213490858674">
        <ele>1719.46</ele>
        <time>2012-06-16T08:13:10Z</time>
      </trkpt>
      <trkpt lat="46.369118252769113" lon="7.114624539390206">
        <ele>1713.6900000000001</ele>
        <time>2012-06-16T08:13:26Z</time>
      </trkpt>
      <trkpt lat="46.369155719876289" lon="7.114925114437938">
        <ele>1711.28</ele>
        <time>2012-06-16T08:13:38Z</time>
      </trkpt>
      <trkpt lat="46.369166616350412" lon="7.115314537659288">
        <ele>1712.73</ele>
        <time>2012-06-16T08:13:53Z</time>
      </trkpt>
      <trkpt lat="46.369238533079624" lon="7.115677306428552">
        <ele>1712.25</ele>
        <time>2012-06-16T08:14:08Z</time>
      </trkpt>
      <trkpt lat="46.369317825883627" lon="7.116069495677948">
        <ele>1708.8800000000001</ele>
        <time>2012-06-16T08:14:21Z</time>
      </trkpt>
      <trkpt lat="46.369472220540047" lon="7.116496888920665">
        <ele>1703.5899999999999</ele>
        <time>2012-06-16T08:14:36Z</time>
      </trkpt>
      <trkpt lat="46.369480937719345" lon="7.117002820596099">
        <ele>1705.04</ele>
        <time>2012-06-16T08:14:52Z</time>
      </trkpt>
      <trkpt lat="46.369409607723355" lon="7.117277160286903">
        <ele>1728.1099999999999</ele>
        <time>2012-06-16T08:15:04Z</time>
      </trkpt>
      <trkpt lat="46.369549501687288" lon="7.117642778903246">
        <ele>1738.6800000000001</ele>
        <time>2012-06-16T08:15:17Z</time>
      </trkpt>
      <trkpt lat="46.369676319882274" lon="7.118084421381354">
        <ele>1744.9300000000001</ele>
        <time>2012-06-16T08:15:34Z</time>
      </trkpt>
      <trkpt lat="46.369821578264236" lon="7.118529081344605">
        <ele>1748.78</ele>
        <time>2012-06-16T08:15:52Z</time>
      </trkpt>
      <trkpt lat="46.369965160265565" lon="7.118918169289827">
        <ele>1751.1800000000001</ele>
        <time>2012-06-16T08:16:08Z</time>
      </trkpt>
      <trkpt lat="46.370103461667895" lon="7.119390238076448">
        <ele>1754.0599999999999</ele>
        <time>2012-06-16T08:16:26Z</time>
      </trkpt>
      <trkpt lat="46.370182503014803" lon="7.119855936616659">
        <ele>1757.4300000000001</ele>
        <time>2012-06-16T08:16:42Z</time>
      </trkpt>
      <trkpt lat="46.370158782228827" lon="7.120312247425318">
        <ele>1759.3499999999999</ele>
        <time>2012-06-16T08:16:55Z</time>
      </trkpt>
      <trkpt lat="46.370072951540351" lon="7.120815077796578">
        <ele>1762.23</ele>
        <time>2012-06-16T08:17:10Z</time>
      </trkpt>
      <trkpt lat="46.370050739496946" lon="7.121271472424269">
        <ele>1764.1600000000001</ele>
        <time>2012-06-16T08:17:23Z</time>
      </trkpt>
      <trkpt lat="46.370047889649868" lon="7.121813865378499">
        <ele>1767.52</ele>
        <time>2012-06-16T08:17:42Z</time>
      </trkpt>
      <trkpt lat="46.370030706748366" lon="7.122302111238241">
        <ele>1770.8900000000001</ele>
        <time>2012-06-16T08:17:59Z</time>
      </trkpt>
      <trkpt lat="46.369993407279253" lon="7.12281072512269">
        <ele>1774.73</ele>
        <time>2012-06-16T08:18:17Z</time>
      </trkpt>
      <trkpt lat="46.369925932958722" lon="7.123320009559393">
        <ele>1777.6099999999999</ele>
        <time>2012-06-16T08:18:35Z</time>
      </trkpt>
      <trkpt lat="46.369814034551382" lon="7.123805908486247">
        <ele>1780.5</ele>
        <time>2012-06-16T08:18:52Z</time>
      </trkpt>
      <trkpt lat="46.369721163064241" lon="7.124226512387395">
        <ele>1781.9400000000001</ele>
        <time>2012-06-16T08:19:05Z</time>
      </trkpt>
      <trkpt lat="46.369743542745709" lon="7.124821040779352">
        <ele>1783.8599999999999</ele>
        <time>2012-06-16T08:19:19Z</time>
      </trkpt>
      <trkpt lat="46.369847729802132" lon="7.125606676563621">
        <ele>1783.8599999999999</ele>
        <time>2012-06-16T08:19:35Z</time>
      </trkpt>
      <trkpt lat="46.369953257963061" lon="7.126446375623345">
        <ele>1785.79</ele>
        <time>2012-06-16T08:19:51Z</time>
      </trkpt>
      <trkpt lat="46.370078483596444" lon="7.127381125465035">
        <ele>1788.6700000000001</ele>
        <time>2012-06-16T08:20:09Z</time>
      </trkpt>
      <trkpt lat="46.370165571570396" lon="7.128103645518422">
        <ele>1791.55</ele>
        <time>2012-06-16T08:20:23Z</time>
      </trkpt>
      <trkpt lat="46.370184179395437" lon="7.128899926319718">
        <ele>1793.48</ele>
        <time>2012-06-16T08:20:38Z</time>
      </trkpt>
      <trkpt lat="46.370339412242174" lon="7.130012372508645">
        <ele>1795.4000000000001</ele>
        <time>2012-06-16T08:20:56Z</time>
      </trkpt>
      <trkpt lat="46.37037243694067" lon="7.130127791315317">
        <ele>1795.8800000000001</ele>
        <time>2012-06-16T08:20:58Z</time>
      </trkpt>
      <trkpt lat="46.370396828278899" lon="7.130178585648537">
        <ele>1795.8800000000001</ele>
        <time>2012-06-16T08:20:59Z</time>
      </trkpt>
      <trkpt lat="46.370424404740334" lon="7.130228290334344">
        <ele>1795.8800000000001</ele>
        <time>2012-06-16T08:21:00Z</time>
      </trkpt>
      <trkpt lat="46.370451813563704" lon="7.13028084486723">
        <ele>1796.3599999999999</ele>
        <time>2012-06-16T08:21:01Z</time>
      </trkpt>
      <trkpt lat="46.3704779651016" lon="7.130335327237845">
        <ele>1796.3599999999999</ele>
        <time>2012-06-16T08:21:02Z</time>
      </trkpt>
      <trkpt lat="46.370524987578392" lon="7.130446638911963">
        <ele>1796.8399999999999</ele>
        <time>2012-06-16T08:21:04Z</time>
      </trkpt>
      <trkpt lat="46.370540242642164" lon="7.130506234243512">
        <ele>1796.8399999999999</ele>
        <time>2012-06-16T08:21:05Z</time>
      </trkpt>
      <trkpt lat="46.370548540726304" lon="7.130567170679569">
        <ele>1796.8399999999999</ele>
        <time>2012-06-16T08:21:06Z</time>
      </trkpt>
      <trkpt lat="46.370562789961696" lon="7.130878390744329">
        <ele>1798.28</ele>
        <time>2012-06-16T08:21:11Z</time>
      </trkpt>
      <trkpt lat="46.370574608445168" lon="7.130938153713942">
        <ele>1798.28</ele>
        <time>2012-06-16T08:21:12Z</time>
      </trkpt>
      <trkpt lat="46.370593383908272" lon="7.130993055179715">
        <ele>1798.76</ele>
        <time>2012-06-16T08:21:13Z</time>
      </trkpt>
      <trkpt lat="46.370615344494581" lon="7.131043681874871">
        <ele>1798.76</ele>
        <time>2012-06-16T08:21:14Z</time>
      </trkpt>
      <trkpt lat="46.370638059452176" lon="7.131092129275203">
        <ele>1798.76</ele>
        <time>2012-06-16T08:21:15Z</time>
      </trkpt>
      <trkpt lat="46.37100032530725" lon="7.131916154175997">
        <ele>1800.21</ele>
        <time>2012-06-16T08:21:32Z</time>
      </trkpt>
      <trkpt lat="46.371240299195051" lon="7.132446812465787">
        <ele>1802.1300000000001</ele>
        <time>2012-06-16T08:21:46Z</time>
      </trkpt>
      <trkpt lat="46.371268630027771" lon="7.13298736140132">
        <ele>1802.1300000000001</ele>
        <time>2012-06-16T08:21:59Z</time>
      </trkpt>
      <trkpt lat="46.371255973353982" lon="7.133049471303821">
        <ele>1802.1300000000001</ele>
        <time>2012-06-16T08:22:02Z</time>
      </trkpt>
      <trkpt lat="46.371245244517922" lon="7.133062463253737">
        <ele>1802.1300000000001</ele>
        <time>2012-06-16T08:22:03Z</time>
      </trkpt>
      <trkpt lat="46.371229654178023" lon="7.133075036108494">
        <ele>1802.1300000000001</ele>
        <time>2012-06-16T08:22:04Z</time>
      </trkpt>
      <trkpt lat="46.37120945379138" lon="7.133084842935205">
        <ele>1801.6500000000001</ele>
        <time>2012-06-16T08:22:05Z</time>
      </trkpt>
      <trkpt lat="46.37118648737669" lon="7.133099175989628">
        <ele>1801.1700000000001</ele>
        <time>2012-06-16T08:22:06Z</time>
      </trkpt>
      <trkpt lat="46.371025135740638" lon="7.133326912298799">
        <ele>1796.8399999999999</ele>
        <time>2012-06-16T08:22:17Z</time>
      </trkpt>
      <trkpt lat="46.371036618947983" lon="7.133581219241023">
        <ele>1793.48</ele>
        <time>2012-06-16T08:22:27Z</time>
      </trkpt>
      <trkpt lat="46.371096046641469" lon="7.133732764050365">
        <ele>1790.5899999999999</ele>
        <time>2012-06-16T08:22:38Z</time>
      </trkpt>
      <trkpt lat="46.371136028319597" lon="7.133892439305782">
        <ele>1788.1900000000001</ele>
        <time>2012-06-16T08:22:47Z</time>
      </trkpt>
      <trkpt lat="46.371126724407077" lon="7.133911130949855">
        <ele>1788.1900000000001</ele>
        <time>2012-06-16T08:22:48Z</time>
      </trkpt>
      <trkpt lat="46.371094873175025" lon="7.133961254730821">
        <ele>1787.23</ele>
        <time>2012-06-16T08:22:50Z</time>
      </trkpt>
      <trkpt lat="46.371078277006745" lon="7.133998721837997">
        <ele>1786.75</ele>
        <time>2012-06-16T08:22:51Z</time>
      </trkpt>
      <trkpt lat="46.371068637818098" lon="7.134038032963872">
        <ele>1786.75</ele>
        <time>2012-06-16T08:22:52Z</time>
      </trkpt>
      <trkpt lat="46.371069056913257" lon="7.134077847003937">
        <ele>1786.27</ele>
        <time>2012-06-16T08:22:53Z</time>
      </trkpt>
      <trkpt lat="46.371067380532622" lon="7.134118415415287">
        <ele>1785.79</ele>
        <time>2012-06-16T08:22:54Z</time>
      </trkpt>
      <trkpt lat="46.371061680838466" lon="7.134159235283732">
        <ele>1785.79</ele>
        <time>2012-06-16T08:22:55Z</time>
      </trkpt>
      <trkpt lat="46.371055226773024" lon="7.134198127314448">
        <ele>1785.3099999999999</ele>
        <time>2012-06-16T08:22:56Z</time>
      </trkpt>
      <trkpt lat="46.371049946174026" lon="7.134234085679054">
        <ele>1785.3099999999999</ele>
        <time>2012-06-16T08:22:57Z</time>
      </trkpt>
      <trkpt lat="46.371048269793391" lon="7.134258560836315">
        <ele>1785.3099999999999</ele>
        <time>2012-06-16T08:22:58Z</time>
      </trkpt>
      <trkpt lat="46.371044833213091" lon="7.134308097884059">
        <ele>1785.79</ele>
        <time>2012-06-16T08:23:08Z</time>
      </trkpt>
      <trkpt lat="46.371022872626781" lon="7.134441453963518">
        <ele>1786.75</ele>
        <time>2012-06-16T08:23:19Z</time>
      </trkpt>
      <trkpt lat="46.371027650311589" lon="7.134846802800894">
        <ele>1782.9000000000001</ele>
        <time>2012-06-16T08:23:29Z</time>
      </trkpt>
      <trkpt lat="46.371018849313259" lon="7.135366229340434">
        <ele>1780.5</ele>
        <time>2012-06-16T08:23:39Z</time>
      </trkpt>
      <trkpt lat="46.371050784364343" lon="7.135641407221556">
        <ele>1780.5</ele>
        <time>2012-06-16T08:23:46Z</time>
      </trkpt>
      <trkpt lat="46.371057825163007" lon="7.135688848793507">
        <ele>1780.5</ele>
        <time>2012-06-16T08:23:47Z</time>
      </trkpt>
      <trkpt lat="46.371055310592055" lon="7.135739224031568">
        <ele>1780.02</ele>
        <time>2012-06-16T08:23:48Z</time>
      </trkpt>
      <trkpt lat="46.371091268956661" lon="7.135948603972793">
        <ele>1779.54</ele>
        <time>2012-06-16T08:23:57Z</time>
      </trkpt>
      <trkpt lat="46.371110966429114" lon="7.136014150455594">
        <ele>1779.54</ele>
        <time>2012-06-16T08:24:07Z</time>
      </trkpt>
      <trkpt lat="46.371124293655157" lon="7.136028902605176">
        <ele>1780.02</ele>
        <time>2012-06-16T08:24:09Z</time>
      </trkpt>
      <trkpt lat="46.371135273948312" lon="7.136035524308682">
        <ele>1780.02</ele>
        <time>2012-06-16T08:24:10Z</time>
      </trkpt>
      <trkpt lat="46.371164862066507" lon="7.13608137331903">
        <ele>1780.02</ele>
        <time>2012-06-16T08:24:21Z</time>
      </trkpt>
      <trkpt lat="46.371166370809078" lon="7.136100986972451">
        <ele>1779.54</ele>
        <time>2012-06-16T08:24:22Z</time>
      </trkpt>
      <trkpt lat="46.371170394122601" lon="7.13617566972971">
        <ele>1780.5</ele>
        <time>2012-06-16T08:24:26Z</time>
      </trkpt>
      <trkpt lat="46.371189337223768" lon="7.136469958350062">
        <ele>1779.0599999999999</ele>
        <time>2012-06-16T08:24:36Z</time>
      </trkpt>
      <trkpt lat="46.371200485154986" lon="7.136559225618839">
        <ele>1778.5799999999999</ele>
        <time>2012-06-16T08:24:40Z</time>
      </trkpt>
      <trkpt lat="46.371204005554318" lon="7.136579006910324">
        <ele>1778.5799999999999</ele>
        <time>2012-06-16T08:24:41Z</time>
      </trkpt>
      <trkpt lat="46.371219847351313" lon="7.136607086285949">
        <ele>1779.0599999999999</ele>
        <time>2012-06-16T08:24:43Z</time>
      </trkpt>
      <trkpt lat="46.371222445741296" lon="7.136627873405814">
        <ele>1778.5799999999999</ele>
        <time>2012-06-16T08:24:44Z</time>
      </trkpt>
      <trkpt lat="46.371220517903566" lon="7.136651929467917">
        <ele>1778.5799999999999</ele>
        <time>2012-06-16T08:24:45Z</time>
      </trkpt>
      <trkpt lat="46.371220517903566" lon="7.136680679395795">
        <ele>1778.5799999999999</ele>
        <time>2012-06-16T08:24:46Z</time>
      </trkpt>
      <trkpt lat="46.37122604995966" lon="7.136707166209817">
        <ele>1778.5799999999999</ele>
        <time>2012-06-16T08:24:47Z</time>
      </trkpt>
      <trkpt lat="46.371232001110911" lon="7.136735832318664">
        <ele>1778.0999999999999</ele>
        <time>2012-06-16T08:24:48Z</time>
      </trkpt>
      <trkpt lat="46.371239377185702" lon="7.136770533397794">
        <ele>1777.6099999999999</ele>
        <time>2012-06-16T08:24:49Z</time>
      </trkpt>
      <trkpt lat="46.371364519000053" lon="7.13711578398943">
        <ele>1775.21</ele>
        <time>2012-06-16T08:24:58Z</time>
      </trkpt>
      <trkpt lat="46.371371392160654" lon="7.137141264975071">
        <ele>1775.21</ele>
        <time>2012-06-16T08:24:59Z</time>
      </trkpt>
      <trkpt lat="46.371392095461488" lon="7.137286020442843">
        <ele>1775.6900000000001</ele>
        <time>2012-06-16T08:25:07Z</time>
      </trkpt>
      <trkpt lat="46.371403578668833" lon="7.137306137010455">
        <ele>1775.6900000000001</ele>
        <time>2012-06-16T08:25:08Z</time>
      </trkpt>
      <trkpt lat="46.371420426294208" lon="7.137326756492257">
        <ele>1775.6900000000001</ele>
        <time>2012-06-16T08:25:09Z</time>
      </trkpt>
      <trkpt lat="46.371435346081853" lon="7.13735131546855">
        <ele>1775.21</ele>
        <time>2012-06-16T08:25:10Z</time>
      </trkpt>
      <trkpt lat="46.37144548818469" lon="7.137376293540001">
        <ele>1775.21</ele>
        <time>2012-06-16T08:25:11Z</time>
      </trkpt>
      <trkpt lat="46.371452277526259" lon="7.137399092316628">
        <ele>1774.73</ele>
        <time>2012-06-16T08:25:12Z</time>
      </trkpt>
      <trkpt lat="46.371458396315575" lon="7.137425914406776">
        <ele>1774.73</ele>
        <time>2012-06-16T08:25:13Z</time>
      </trkpt>
      <trkpt lat="46.371473232284188" lon="7.137460196390748">
        <ele>1774.25</ele>
        <time>2012-06-16T08:25:14Z</time>
      </trkpt>
      <trkpt lat="46.371493181213737" lon="7.137491125613451">
        <ele>1774.73</ele>
        <time>2012-06-16T08:25:15Z</time>
      </trkpt>
      <trkpt lat="46.371507598087192" lon="7.137513421475887">
        <ele>1774.73</ele>
        <time>2012-06-16T08:25:16Z</time>
      </trkpt>
      <trkpt lat="46.371518243104219" lon="7.137530604377389">
        <ele>1774.73</ele>
        <time>2012-06-16T08:25:17Z</time>
      </trkpt>
      <trkpt lat="46.371526625007391" lon="7.137546613812447">
        <ele>1774.73</ele>
        <time>2012-06-16T08:25:18Z</time>
      </trkpt>
      <trkpt lat="46.371544729918242" lon="7.137579051777721">
        <ele>1774.73</ele>
        <time>2012-06-16T08:25:20Z</time>
      </trkpt>
      <trkpt lat="46.371544813737273" lon="7.137602437287569">
        <ele>1774.73</ele>
        <time>2012-06-16T08:25:21Z</time>
      </trkpt>
      <trkpt lat="46.371543472632766" lon="7.13762448169291">
        <ele>1774.73</ele>
        <time>2012-06-16T08:25:22Z</time>
      </trkpt>
      <trkpt lat="46.371543724089861" lon="7.137649208307266">
        <ele>1774.25</ele>
        <time>2012-06-16T08:25:23Z</time>
      </trkpt>
      <trkpt lat="46.3715451490134" lon="7.137677874416113">
        <ele>1774.25</ele>
        <time>2012-06-16T08:25:24Z</time>
      </trkpt>
      <trkpt lat="46.371544143185019" lon="7.137714000418782">
        <ele>1774.25</ele>
        <time>2012-06-16T08:25:25Z</time>
      </trkpt>
      <trkpt lat="46.371544394642115" lon="7.137884991243482">
        <ele>1771.8499999999999</ele>
        <time>2012-06-16T08:25:32Z</time>
      </trkpt>
      <trkpt lat="46.371542047709227" lon="7.137906113639474">
        <ele>1771.3699999999999</ele>
        <time>2012-06-16T08:25:33Z</time>
      </trkpt>
      <trkpt lat="46.371526625007391" lon="7.137977611273527">
        <ele>1770.4100000000001</ele>
        <time>2012-06-16T08:25:38Z</time>
      </trkpt>
      <trkpt lat="46.37152167968452" lon="7.137998901307583">
        <ele>1770.4100000000001</ele>
        <time>2012-06-16T08:25:39Z</time>
      </trkpt>
      <trkpt lat="46.371518913656473" lon="7.138023963198066">
        <ele>1769.9200000000001</ele>
        <time>2012-06-16T08:25:40Z</time>
      </trkpt>
      <trkpt lat="46.371517740190029" lon="7.13804567232728">
        <ele>1769.9200000000001</ele>
        <time>2012-06-16T08:25:41Z</time>
      </trkpt>
      <trkpt lat="46.371516650542617" lon="7.138067381456494">
        <ele>1769.4400000000001</ele>
        <time>2012-06-16T08:25:42Z</time>
      </trkpt>
      <trkpt lat="46.371516650542617" lon="7.138095460832119">
        <ele>1768.96</ele>
        <time>2012-06-16T08:25:43Z</time>
      </trkpt>
      <trkpt lat="46.371520673856139" lon="7.138125468045473">
        <ele>1768.48</ele>
        <time>2012-06-16T08:25:44Z</time>
      </trkpt>
      <trkpt lat="46.371528469026089" lon="7.138165617361665">
        <ele>1768</ele>
        <time>2012-06-16T08:25:45Z</time>
      </trkpt>
      <trkpt lat="46.371537186205387" lon="7.138213645666838">
        <ele>1767.52</ele>
        <time>2012-06-16T08:25:46Z</time>
      </trkpt>
      <trkpt lat="46.371555794030428" lon="7.138342894613743">
        <ele>1767.52</ele>
        <time>2012-06-16T08:25:50Z</time>
      </trkpt>
      <trkpt lat="46.371561493724585" lon="7.138356892392039">
        <ele>1767.52</ele>
        <time>2012-06-16T08:25:51Z</time>
      </trkpt>
      <trkpt lat="46.371564762666821" lon="7.138381283730269">
        <ele>1768</ele>
        <time>2012-06-16T08:25:54Z</time>
      </trkpt>
      <trkpt lat="46.371581191197038" lon="7.138415230438113">
        <ele>1768.48</ele>
        <time>2012-06-16T08:26:04Z</time>
      </trkpt>
      <trkpt lat="46.371582364663482" lon="7.138444818556309">
        <ele>1769.4400000000001</ele>
        <time>2012-06-16T08:26:17Z</time>
      </trkpt>
      <trkpt lat="46.371592422947288" lon="7.138461666181684">
        <ele>1769.9200000000001</ele>
        <time>2012-06-16T08:26:19Z</time>
      </trkpt>
      <trkpt lat="46.371600721031427" lon="7.138474993407726">
        <ele>1769.9200000000001</ele>
        <time>2012-06-16T08:26:20Z</time>
      </trkpt>
      <trkpt lat="46.371691413223743" lon="7.138554034754634">
        <ele>1770.8900000000001</ele>
        <time>2012-06-16T08:26:34Z</time>
      </trkpt>
      <trkpt lat="46.371726952493191" lon="7.13856216520071">
        <ele>1771.8499999999999</ele>
        <time>2012-06-16T08:26:46Z</time>
      </trkpt>
      <trkpt lat="46.371732233092189" lon="7.138572726398706">
        <ele>1771.8499999999999</ele>
        <time>2012-06-16T08:26:47Z</time>
      </trkpt>
      <trkpt lat="46.371735921129584" lon="7.138588652014732">
        <ele>1771.8499999999999</ele>
        <time>2012-06-16T08:26:48Z</time>
      </trkpt>
      <trkpt lat="46.371734328567982" lon="7.138607259839773">
        <ele>1772.3299999999999</ele>
        <time>2012-06-16T08:26:49Z</time>
      </trkpt>
      <trkpt lat="46.371730221435428" lon="7.138623436912894">
        <ele>1772.3299999999999</ele>
        <time>2012-06-16T08:26:50Z</time>
      </trkpt>
      <trkpt lat="46.37171421200037" lon="7.138672051951289">
        <ele>1772.3299999999999</ele>
        <time>2012-06-16T08:26:54Z</time>
      </trkpt>
      <trkpt lat="46.371705997735262" lon="7.138685882091522">
        <ele>1772.3299999999999</ele>
        <time>2012-06-16T08:26:55Z</time>
      </trkpt>
      <trkpt lat="46.371700465679169" lon="7.138704573735595">
        <ele>1772.3299999999999</ele>
        <time>2012-06-16T08:26:56Z</time>
      </trkpt>
      <trkpt lat="46.371689317747951" lon="7.138788141310215">
        <ele>1772.3299999999999</ele>
        <time>2012-06-16T08:27:02Z</time>
      </trkpt>
      <trkpt lat="46.371687557548285" lon="7.13880549184978">
        <ele>1772.3299999999999</ele>
        <time>2012-06-16T08:27:03Z</time>
      </trkpt>
      <trkpt lat="46.371686551719904" lon="7.138822758570314">
        <ele>1771.8499999999999</ele>
        <time>2012-06-16T08:27:04Z</time>
      </trkpt>
      <trkpt lat="46.371685964986682" lon="7.139162309467793">
        <ele>1770.4100000000001</ele>
        <time>2012-06-16T08:27:18Z</time>
      </trkpt>
      <trkpt lat="46.37167951092124" lon="7.139226514846087">
        <ele>1770.4100000000001</ele>
        <time>2012-06-16T08:27:28Z</time>
      </trkpt>
      <trkpt lat="46.371593680232763" lon="7.139506135135889">
        <ele>1768.96</ele>
        <time>2012-06-16T08:27:37Z</time>
      </trkpt>
      <trkpt lat="46.371583789587021" lon="7.139533627778292">
        <ele>1768.48</ele>
        <time>2012-06-16T08:27:38Z</time>
      </trkpt>
      <trkpt lat="46.371571216732264" lon="7.139566317200661">
        <ele>1768.48</ele>
        <time>2012-06-16T08:27:39Z</time>
      </trkpt>
      <trkpt lat="46.371560571715236" lon="7.139607220888138">
        <ele>1768</ele>
        <time>2012-06-16T08:27:40Z</time>
      </trkpt>
      <trkpt lat="46.371551351621747" lon="7.139644017443061">
        <ele>1768.48</ele>
        <time>2012-06-16T08:27:41Z</time>
      </trkpt>
      <trkpt lat="46.3715417124331" lon="7.139669666066766">
        <ele>1768.48</ele>
        <time>2012-06-16T08:27:42Z</time>
      </trkpt>
      <trkpt lat="46.371532743796706" lon="7.13968844152987">
        <ele>1768.48</ele>
        <time>2012-06-16T08:27:43Z</time>
      </trkpt>
      <trkpt lat="46.371525367721915" lon="7.139706294983625">
        <ele>1768.48</ele>
        <time>2012-06-16T08:27:44Z</time>
      </trkpt>
      <trkpt lat="46.371519165113568" lon="7.139728590846062">
        <ele>1768.48</ele>
        <time>2012-06-16T08:27:45Z</time>
      </trkpt>
      <trkpt lat="46.371516566723585" lon="7.139753988012672">
        <ele>1768.48</ele>
        <time>2012-06-16T08:27:46Z</time>
      </trkpt>
      <trkpt lat="46.371518243104219" lon="7.139780391007662">
        <ele>1768.48</ele>
        <time>2012-06-16T08:27:47Z</time>
      </trkpt>
      <trkpt lat="46.371494941413403" lon="7.140072584152222">
        <ele>1769.4400000000001</ele>
        <time>2012-06-16T08:28:00Z</time>
      </trkpt>
      <trkpt lat="46.371505418792367" lon="7.140434179455042">
        <ele>1771.3699999999999</ele>
        <time>2012-06-16T08:28:16Z</time>
      </trkpt>
      <trkpt lat="46.371513800695539" lon="7.140674572438002">
        <ele>1771.3699999999999</ele>
        <time>2012-06-16T08:28:25Z</time>
      </trkpt>
      <trkpt lat="46.371509609743953" lon="7.140704747289419">
        <ele>1771.3699999999999</ele>
        <time>2012-06-16T08:28:26Z</time>
      </trkpt>
      <trkpt lat="46.371506256982684" lon="7.140742298215628">
        <ele>1771.3699999999999</ele>
        <time>2012-06-16T08:28:27Z</time>
      </trkpt>
      <trkpt lat="46.371498797088861" lon="7.141094841063023">
        <ele>1770.8900000000001</ele>
        <time>2012-06-16T08:28:39Z</time>
      </trkpt>
      <trkpt lat="46.371500222012401" lon="7.141177067533135">
        <ele>1770.4100000000001</ele>
        <time>2012-06-16T08:28:41Z</time>
      </trkpt>
      <trkpt lat="46.371491421014071" lon="7.141219479963183">
        <ele>1770.4100000000001</ele>
        <time>2012-06-16T08:28:42Z</time>
      </trkpt>
      <trkpt lat="46.371486475691199" lon="7.141251331195235">
        <ele>1770.4100000000001</ele>
        <time>2012-06-16T08:28:43Z</time>
      </trkpt>
      <trkpt lat="46.371484966948628" lon="7.141278237104416">
        <ele>1770.8900000000001</ele>
        <time>2012-06-16T08:28:44Z</time>
      </trkpt>
      <trkpt lat="46.37148748151958" lon="7.141304640099406">
        <ele>1770.8900000000001</ele>
        <time>2012-06-16T08:28:45Z</time>
      </trkpt>
      <trkpt lat="46.371494773775339" lon="7.141328193247318">
        <ele>1771.3699999999999</ele>
        <time>2012-06-16T08:28:46Z</time>
      </trkpt>
      <trkpt lat="46.371503490954638" lon="7.141345962882042">
        <ele>1771.3699999999999</ele>
        <time>2012-06-16T08:28:47Z</time>
      </trkpt>
      <trkpt lat="46.371506173163652" lon="7.141412096098065">
        <ele>1771.8499999999999</ele>
        <time>2012-06-16T08:28:50Z</time>
      </trkpt>
      <trkpt lat="46.371499383822083" lon="7.141434056684375">
        <ele>1771.3699999999999</ele>
        <time>2012-06-16T08:28:51Z</time>
      </trkpt>
      <trkpt lat="46.371485721319914" lon="7.141524078324437">
        <ele>1770.8900000000001</ele>
        <time>2012-06-16T08:28:54Z</time>
      </trkpt>
      <trkpt lat="46.371491421014071" lon="7.141555594280362">
        <ele>1770.8900000000001</ele>
        <time>2012-06-16T08:28:55Z</time>
      </trkpt>
      <trkpt lat="46.371495109051466" lon="7.141583003103733">
        <ele>1770.4100000000001</ele>
        <time>2012-06-16T08:28:56Z</time>
      </trkpt>
      <trkpt lat="46.37149871326983" lon="7.141613848507404">
        <ele>1770.4100000000001</ele>
        <time>2012-06-16T08:28:57Z</time>
      </trkpt>
      <trkpt lat="46.371500305831432" lon="7.141646621748805">
        <ele>1770.4100000000001</ele>
        <time>2012-06-16T08:28:58Z</time>
      </trkpt>
      <trkpt lat="46.371497707441449" lon="7.141683669760823">
        <ele>1770.4100000000001</ele>
        <time>2012-06-16T08:28:59Z</time>
      </trkpt>
      <trkpt lat="46.371480692178011" lon="7.142197899520397">
        <ele>1768.96</ele>
        <time>2012-06-16T08:29:10Z</time>
      </trkpt>
      <trkpt lat="46.371483290567994" lon="7.142293117940426">
        <ele>1768.96</ele>
        <time>2012-06-16T08:29:13Z</time>
      </trkpt>
      <trkpt lat="46.371478848159313" lon="7.142315665259957">
        <ele>1768.96</ele>
        <time>2012-06-16T08:29:14Z</time>
      </trkpt>
      <trkpt lat="46.371459066867828" lon="7.142439298331738">
        <ele>1770.4100000000001</ele>
        <time>2012-06-16T08:29:20Z</time>
      </trkpt>
      <trkpt lat="46.371347503736615" lon="7.142776334658265">
        <ele>1770.4100000000001</ele>
        <time>2012-06-16T08:29:33Z</time>
      </trkpt>
      <trkpt lat="46.371235102415085" lon="7.143111443147063">
        <ele>1768.48</ele>
        <time>2012-06-16T08:29:41Z</time>
      </trkpt>
      <trkpt lat="46.371119432151318" lon="7.143389638513327">
        <ele>1767.52</ele>
        <time>2012-06-16T08:29:50Z</time>
      </trkpt>
      <trkpt lat="46.371113313362002" lon="7.143407072871923">
        <ele>1767.04</ele>
        <time>2012-06-16T08:29:51Z</time>
      </trkpt>
      <trkpt lat="46.371109960600734" lon="7.143426686525345">
        <ele>1767.04</ele>
        <time>2012-06-16T08:29:52Z</time>
      </trkpt>
      <trkpt lat="46.371104680001736" lon="7.143446803092957">
        <ele>1766.5599999999999</ele>
        <time>2012-06-16T08:29:53Z</time>
      </trkpt>
      <trkpt lat="46.371102081611753" lon="7.143468931317329">
        <ele>1766.0799999999999</ele>
        <time>2012-06-16T08:29:54Z</time>
      </trkpt>
      <trkpt lat="46.371098225936294" lon="7.143488461151719">
        <ele>1766.0799999999999</ele>
        <time>2012-06-16T08:29:55Z</time>
      </trkpt>
      <trkpt lat="46.371093532070518" lon="7.143507823348045">
        <ele>1765.5999999999999</ele>
        <time>2012-06-16T08:29:56Z</time>
      </trkpt>
      <trkpt lat="46.37109168805182" lon="7.143531627953053">
        <ele>1765.5999999999999</ele>
        <time>2012-06-16T08:29:57Z</time>
      </trkpt>
      <trkpt lat="46.371087832376361" lon="7.143559707328677">
        <ele>1765.1199999999999</ele>
        <time>2012-06-16T08:29:58Z</time>
      </trkpt>
      <trkpt lat="46.371078193187714" lon="7.143591223284602">
        <ele>1764.6400000000001</ele>
        <time>2012-06-16T08:29:59Z</time>
      </trkpt>
      <trkpt lat="46.37092069722712" lon="7.143967570737004">
        <ele>1761.27</ele>
        <time>2012-06-16T08:30:08Z</time>
      </trkpt>
      <trkpt lat="46.370878368616104" lon="7.144057005643845">
        <ele>1760.3099999999999</ele>
        <time>2012-06-16T08:30:11Z</time>
      </trkpt>
      <trkpt lat="46.370871998369694" lon="7.144097741693258">
        <ele>1760.3099999999999</ele>
        <time>2012-06-16T08:30:12Z</time>
      </trkpt>
      <trkpt lat="46.370863281190395" lon="7.144135544076562">
        <ele>1759.8299999999999</ele>
        <time>2012-06-16T08:30:13Z</time>
      </trkpt>
      <trkpt lat="46.370846517384052" lon="7.144167311489582">
        <ele>1759.3499999999999</ele>
        <time>2012-06-16T08:30:14Z</time>
      </trkpt>
      <trkpt lat="46.370825478807092" lon="7.144196145236492">
        <ele>1758.8699999999999</ele>
        <time>2012-06-16T08:30:15Z</time>
      </trkpt>
      <trkpt lat="46.370810056105256" lon="7.14422975666821">
        <ele>1758.8699999999999</ele>
        <time>2012-06-16T08:30:16Z</time>
      </trkpt>
      <trkpt lat="46.37079899199307" lon="7.144267139956355">
        <ele>1758.3900000000001</ele>
        <time>2012-06-16T08:30:17Z</time>
      </trkpt>
      <trkpt lat="46.370791113004088" lon="7.144307708367705">
        <ele>1757.9100000000001</ele>
        <time>2012-06-16T08:30:18Z</time>
      </trkpt>
      <trkpt lat="46.37078239582479" lon="7.144348276779056">
        <ele>1757.4300000000001</ele>
        <time>2012-06-16T08:30:19Z</time>
      </trkpt>
      <trkpt lat="46.370771499350667" lon="7.144389348104596">
        <ele>1756.47</ele>
        <time>2012-06-16T08:30:20Z</time>
      </trkpt>
      <trkpt lat="46.370693212375045" lon="7.144789919257164">
        <ele>1752.6199999999999</ele>
        <time>2012-06-16T08:30:30Z</time>
      </trkpt>
      <trkpt lat="46.370522053912282" lon="7.145335162058473">
        <ele>1746.3699999999999</ele>
        <time>2012-06-16T08:30:43Z</time>
      </trkpt>
      <trkpt lat="46.370385931804776" lon="7.145795412361622">
        <ele>1742.53</ele>
        <time>2012-06-16T08:30:53Z</time>
      </trkpt>
      <trkpt lat="46.370360534638166" lon="7.14584025554359">
        <ele>1742.53</ele>
        <time>2012-06-16T08:30:54Z</time>
      </trkpt>
      <trkpt lat="46.370199518278241" lon="7.146101770922542">
        <ele>1742.05</ele>
        <time>2012-06-16T08:31:05Z</time>
      </trkpt>
      <trkpt lat="46.370136989280581" lon="7.146183410659432">
        <ele>1742.05</ele>
        <time>2012-06-16T08:31:11Z</time>
      </trkpt>
      <trkpt lat="46.370125506073236" lon="7.146206209436059">
        <ele>1742.05</ele>
        <time>2012-06-16T08:31:12Z</time>
      </trkpt>
      <trkpt lat="46.370081668719649" lon="7.146298242732883">
        <ele>1742.53</ele>
        <time>2012-06-16T08:31:16Z</time>
      </trkpt>
      <trkpt lat="46.369932722300291" lon="7.146681798622012">
        <ele>1746.3699999999999</ele>
        <time>2012-06-16T08:31:31Z</time>
      </trkpt>
      <trkpt lat="46.369873210787773" lon="7.146990420296788">
        <ele>1746.3699999999999</ele>
        <time>2012-06-16T08:31:38Z</time>
      </trkpt>
      <trkpt lat="46.369853932410479" lon="7.147052362561226">
        <ele>1746.3699999999999</ele>
        <time>2012-06-16T08:31:39Z</time>
      </trkpt>
      <trkpt lat="46.369822081178427" lon="7.147115059196949">
        <ele>1745.8900000000001</ele>
        <time>2012-06-16T08:31:40Z</time>
      </trkpt>
      <trkpt lat="46.369739016517997" lon="7.147258892655373">
        <ele>1744.45</ele>
        <time>2012-06-16T08:31:42Z</time>
      </trkpt>
      <trkpt lat="46.369701297953725" lon="7.147353691980243">
        <ele>1743.49</ele>
        <time>2012-06-16T08:31:43Z</time>
      </trkpt>
      <trkpt lat="46.369622843340039" lon="7.147567849606276">
        <ele>1742.05</ele>
        <time>2012-06-16T08:31:45Z</time>
      </trkpt>
      <trkpt lat="46.369572384282947" lon="7.147669102996588">
        <ele>1741.0799999999999</ele>
        <time>2012-06-16T08:31:46Z</time>
      </trkpt>
      <trkpt lat="46.369516057893634" lon="7.147753927856684">
        <ele>1740.5999999999999</ele>
        <time>2012-06-16T08:31:47Z</time>
      </trkpt>
      <trkpt lat="46.369461072608829" lon="7.147821821272373">
        <ele>1739.6400000000001</ele>
        <time>2012-06-16T08:31:48Z</time>
      </trkpt>
      <trkpt lat="46.369413128122687" lon="7.147881919518113">
        <ele>1739.1600000000001</ele>
        <time>2012-06-16T08:31:49Z</time>
      </trkpt>
      <trkpt lat="46.369376583024859" lon="7.147946041077375">
        <ele>1738.6800000000001</ele>
        <time>2012-06-16T08:31:50Z</time>
      </trkpt>
      <trkpt lat="46.369355879724026" lon="7.14802055619657">
        <ele>1738.2</ele>
        <time>2012-06-16T08:31:51Z</time>
      </trkpt>
      <trkpt lat="46.369349090382457" lon="7.14810211211443">
        <ele>1737.72</ele>
        <time>2012-06-16T08:31:52Z</time>
      </trkpt>
      <trkpt lat="46.369347581639886" lon="7.148188529536128">
        <ele>1737.72</ele>
        <time>2012-06-16T08:31:53Z</time>
      </trkpt>
      <trkpt lat="46.369359483942389" lon="7.148885065689683">
        <ele>1737.24</ele>
        <time>2012-06-16T08:32:01Z</time>
      </trkpt>
      <trkpt lat="46.369368117302656" lon="7.148966370150447">
        <ele>1737.24</ele>
        <time>2012-06-16T08:32:02Z</time>
      </trkpt>
      <trkpt lat="46.36938345618546" lon="7.149044489488006">
        <ele>1736.76</ele>
        <time>2012-06-16T08:32:03Z</time>
      </trkpt>
      <trkpt lat="46.369406338781118" lon="7.149121351540089">
        <ele>1736.76</ele>
        <time>2012-06-16T08:32:04Z</time>
      </trkpt>
      <trkpt lat="46.369436932727695" lon="7.149194190278649">
        <ele>1736.76</ele>
        <time>2012-06-16T08:32:05Z</time>
      </trkpt>
      <trkpt lat="46.369474399834871" lon="7.149262418970466">
        <ele>1736.76</ele>
        <time>2012-06-16T08:32:06Z</time>
      </trkpt>
      <trkpt lat="46.369517231360078" lon="7.149325786158443">
        <ele>1736.76</ele>
        <time>2012-06-16T08:32:07Z</time>
      </trkpt>
      <trkpt lat="46.369560901075602" lon="7.149392338469625">
        <ele>1736.76</ele>
        <time>2012-06-16T08:32:08Z</time>
      </trkpt>
      <trkpt lat="46.369595602154732" lon="7.149470709264278">
        <ele>1736.76</ele>
        <time>2012-06-16T08:32:09Z</time>
      </trkpt>
      <trkpt lat="46.369613287970424" lon="7.149562323465943">
        <ele>1736.28</ele>
        <time>2012-06-16T08:32:10Z</time>
      </trkpt>
      <trkpt lat="46.369608594104648" lon="7.149657374247909">
        <ele>1736.28</ele>
        <time>2012-06-16T08:32:11Z</time>
      </trkpt>
      <trkpt lat="46.369594847783446" lon="7.149749994277954">
        <ele>1736.76</ele>
        <time>2012-06-16T08:32:12Z</time>
      </trkpt>
      <trkpt lat="46.369589567184448" lon="7.149842781946063">
        <ele>1736.76</ele>
        <time>2012-06-16T08:32:13Z</time>
      </trkpt>
      <trkpt lat="46.369595266878605" lon="7.149938168004155">
        <ele>1736.28</ele>
        <time>2012-06-16T08:32:14Z</time>
      </trkpt>
      <trkpt lat="46.369609097018838" lon="7.150035900995135">
        <ele>1736.28</ele>
        <time>2012-06-16T08:32:15Z</time>
      </trkpt>
      <trkpt lat="46.369628878310323" lon="7.150134975090623">
        <ele>1735.8</ele>
        <time>2012-06-16T08:32:16Z</time>
      </trkpt>
      <trkpt lat="46.369654862210155" lon="7.150234635919333">
        <ele>1735.3199999999999</ele>
        <time>2012-06-16T08:32:17Z</time>
      </trkpt>
      <trkpt lat="46.369685372337699" lon="7.1503312792629">
        <ele>1735.3199999999999</ele>
        <time>2012-06-16T08:32:18Z</time>
      </trkpt>
      <trkpt lat="46.369723761454225" lon="7.150422306731343">
        <ele>1734.8399999999999</ele>
        <time>2012-06-16T08:32:19Z</time>
      </trkpt>
      <trkpt lat="46.369772544130683" lon="7.1505022700876">
        <ele>1734.8399999999999</ele>
        <time>2012-06-16T08:32:20Z</time>
      </trkpt>
      <trkpt lat="46.369827697053552" lon="7.150574857369065">
        <ele>1734.3599999999999</ele>
        <time>2012-06-16T08:32:21Z</time>
      </trkpt>
      <trkpt lat="46.369883269071579" lon="7.150643672794104">
        <ele>1734.3599999999999</ele>
        <time>2012-06-16T08:32:22Z</time>
      </trkpt>
      <trkpt lat="46.369930962100625" lon="7.150719109922648">
        <ele>1733.8800000000001</ele>
        <time>2012-06-16T08:32:23Z</time>
      </trkpt>
      <trkpt lat="46.36996197514236" lon="7.150804940611124">
        <ele>1733.8800000000001</ele>
        <time>2012-06-16T08:32:24Z</time>
      </trkpt>
      <trkpt lat="46.36997178196907" lon="7.150902589783073">
        <ele>1733.8800000000001</ele>
        <time>2012-06-16T08:32:25Z</time>
      </trkpt>
      <trkpt lat="46.36996834538877" lon="7.151000155135989">
        <ele>1733.8800000000001</ele>
        <time>2012-06-16T08:32:26Z</time>
      </trkpt>
      <trkpt lat="46.369956862181425" lon="7.151094619184732">
        <ele>1733.8800000000001</ele>
        <time>2012-06-16T08:32:27Z</time>
      </trkpt>
      <trkpt lat="46.369943032041192" lon="7.151182629168034">
        <ele>1734.3599999999999</ele>
        <time>2012-06-16T08:32:28Z</time>
      </trkpt>
      <trkpt lat="46.369926268234849" lon="7.151263514533639">
        <ele>1734.8399999999999</ele>
        <time>2012-06-16T08:32:29Z</time>
      </trkpt>
      <trkpt lat="46.369901541620493" lon="7.151335515081883">
        <ele>1734.8399999999999</ele>
        <time>2012-06-16T08:32:30Z</time>
      </trkpt>
      <trkpt lat="46.369867846369743" lon="7.151398966088891">
        <ele>1735.3199999999999</ele>
        <time>2012-06-16T08:32:31Z</time>
      </trkpt>
      <trkpt lat="46.369831385090947" lon="7.151460153982043">
        <ele>1735.3199999999999</ele>
        <time>2012-06-16T08:32:32Z</time>
      </trkpt>
      <trkpt lat="46.369792241603136" lon="7.151521425694227">
        <ele>1735.3199999999999</ele>
        <time>2012-06-16T08:32:33Z</time>
      </trkpt>
      <trkpt lat="46.369644552469254" lon="7.151760896667838">
        <ele>1736.28</ele>
        <time>2012-06-16T08:32:37Z</time>
      </trkpt>
      <trkpt lat="46.369412876665592" lon="7.152182757854462">
        <ele>1736.76</ele>
        <time>2012-06-16T08:32:44Z</time>
      </trkpt>
      <trkpt lat="46.369227804243565" lon="7.152403621003032">
        <ele>1734.8399999999999</ele>
        <time>2012-06-16T08:32:48Z</time>
      </trkpt>
      <trkpt lat="46.369184050709009" lon="7.152419965714216">
        <ele>1734.3599999999999</ele>
        <time>2012-06-16T08:32:49Z</time>
      </trkpt>
      <trkpt lat="46.369137112051249" lon="7.152417032048106">
        <ele>1734.3599999999999</ele>
        <time>2012-06-16T08:32:50Z</time>
      </trkpt>
      <trkpt lat="46.369081540033221" lon="7.152415607124567">
        <ele>1733.8800000000001</ele>
        <time>2012-06-16T08:32:51Z</time>
      </trkpt>
      <trkpt lat="46.369021693244576" lon="7.152432957664132">
        <ele>1732.9100000000001</ele>
        <time>2012-06-16T08:32:52Z</time>
      </trkpt>
      <trkpt lat="46.368958493694663" lon="7.152472101151943">
        <ele>1732.4300000000001</ele>
        <time>2012-06-16T08:32:53Z</time>
      </trkpt>
      <trkpt lat="46.368890181183815" lon="7.152526332065463">
        <ele>1731.47</ele>
        <time>2012-06-16T08:32:54Z</time>
      </trkpt>
      <trkpt lat="46.368817174807191" lon="7.15258777141571">
        <ele>1730.03</ele>
        <time>2012-06-16T08:32:55Z</time>
      </trkpt>
      <trkpt lat="46.368650542572141" lon="7.152718612924218">
        <ele>1727.1500000000001</ele>
        <time>2012-06-16T08:32:57Z</time>
      </trkpt>
      <trkpt lat="46.368552139028907" lon="7.152760187163949">
        <ele>1726.1800000000001</ele>
        <time>2012-06-16T08:32:58Z</time>
      </trkpt>
      <trkpt lat="46.368337394669652" lon="7.152815088629723">
        <ele>1723.78</ele>
        <time>2012-06-16T08:33:00Z</time>
      </trkpt>
      <trkpt lat="46.368232872337103" lon="7.15286135673523">
        <ele>1722.3399999999999</ele>
        <time>2012-06-16T08:33:01Z</time>
      </trkpt>
      <trkpt lat="46.368049560114741" lon="7.152949618175626">
        <ele>1719.9400000000001</ele>
        <time>2012-06-16T08:33:03Z</time>
      </trkpt>
      <trkpt lat="46.367958029732108" lon="7.152958000078797">
        <ele>1718.49</ele>
        <time>2012-06-16T08:33:04Z</time>
      </trkpt>
      <trkpt lat="46.367866080254316" lon="7.152935285121203">
        <ele>1717.53</ele>
        <time>2012-06-16T08:33:05Z</time>
      </trkpt>
      <trkpt lat="46.367778489366174" lon="7.152914665639401">
        <ele>1716.0899999999999</ele>
        <time>2012-06-16T08:33:06Z</time>
      </trkpt>
      <trkpt lat="46.367693915963173" lon="7.152921371161938">
        <ele>1715.1300000000001</ele>
        <time>2012-06-16T08:33:07Z</time>
      </trkpt>
      <trkpt lat="46.367614287883043" lon="7.152955988422036">
        <ele>1713.6900000000001</ele>
        <time>2012-06-16T08:33:08Z</time>
      </trkpt>
      <trkpt lat="46.367538850754499" lon="7.153020361438394">
        <ele>1712.73</ele>
        <time>2012-06-16T08:33:09Z</time>
      </trkpt>
      <trkpt lat="46.367474561557174" lon="7.153092864900827">
        <ele>1711.76</ele>
        <time>2012-06-16T08:33:10Z</time>
      </trkpt>
      <trkpt lat="46.367299715057015" lon="7.15334901586175">
        <ele>1708.4000000000001</ele>
        <time>2012-06-16T08:33:14Z</time>
      </trkpt>
      <trkpt lat="46.367266774177551" lon="7.153442054986954">
        <ele>1707.4400000000001</ele>
        <time>2012-06-16T08:33:15Z</time>
      </trkpt>
      <trkpt lat="46.367242718115449" lon="7.153548924252391">
        <ele>1706.48</ele>
        <time>2012-06-16T08:33:16Z</time>
      </trkpt>
      <trkpt lat="46.367223188281059" lon="7.153665516525507">
        <ele>1705.52</ele>
        <time>2012-06-16T08:33:17Z</time>
      </trkpt>
      <trkpt lat="46.367210112512112" lon="7.153792250901461">
        <ele>1704.55</ele>
        <time>2012-06-16T08:33:18Z</time>
      </trkpt>
      <trkpt lat="46.36720466427505" lon="7.1539266128093">
        <ele>1704.0699999999999</ele>
        <time>2012-06-16T08:33:19Z</time>
      </trkpt>
      <trkpt lat="46.367205334827304" lon="7.154067596420646">
        <ele>1703.1099999999999</ele>
        <time>2012-06-16T08:33:20Z</time>
      </trkpt>
      <trkpt lat="46.367196701467037" lon="7.154364148154855">
        <ele>1701.6700000000001</ele>
        <time>2012-06-16T08:33:22Z</time>
      </trkpt>
      <trkpt lat="46.367171723395586" lon="7.154516782611609">
        <ele>1700.71</ele>
        <time>2012-06-16T08:33:23Z</time>
      </trkpt>
      <trkpt lat="46.36712696403265" lon="7.154805371537805">
        <ele>1699.75</ele>
        <time>2012-06-16T08:33:25Z</time>
      </trkpt>
      <trkpt lat="46.367123275995255" lon="7.1549385599792">
        <ele>1698.79</ele>
        <time>2012-06-16T08:33:26Z</time>
      </trkpt>
      <trkpt lat="46.367128975689411" lon="7.155056158080697">
        <ele>1698.3099999999999</ele>
        <time>2012-06-16T08:33:27Z</time>
      </trkpt>
      <trkpt lat="46.367136184126139" lon="7.155230417847633">
        <ele>1697.3399999999999</ele>
        <time>2012-06-16T08:33:29Z</time>
      </trkpt>
      <trkpt lat="46.3671157322824" lon="7.155277691781521">
        <ele>1697.3399999999999</ele>
        <time>2012-06-16T08:33:30Z</time>
      </trkpt>
      <trkpt lat="46.367081282660365" lon="7.155282134190202">
        <ele>1696.8599999999999</ele>
        <time>2012-06-16T08:33:31Z</time>
      </trkpt>
      <trkpt lat="46.367048174142838" lon="7.155240140855312">
        <ele>1696.3800000000001</ele>
        <time>2012-06-16T08:33:32Z</time>
      </trkpt>
      <trkpt lat="46.367024872452021" lon="7.155169481411576">
        <ele>1695.9000000000001</ele>
        <time>2012-06-16T08:33:33Z</time>
      </trkpt>
      <trkpt lat="46.367007438093424" lon="7.155089937150478">
        <ele>1694.9400000000001</ele>
        <time>2012-06-16T08:33:34Z</time>
      </trkpt>
      <trkpt lat="46.367000145837665" lon="7.155007626861334">
        <ele>1693.98</ele>
        <time>2012-06-16T08:33:35Z</time>
      </trkpt>
      <trkpt lat="46.366988411173224" lon="7.154920203611255">
        <ele>1693.5</ele>
        <time>2012-06-16T08:33:36Z</time>
      </trkpt>
      <trkpt lat="46.366960080340505" lon="7.154828757047653">
        <ele>1693.02</ele>
        <time>2012-06-16T08:33:37Z</time>
      </trkpt>
      <trkpt lat="46.366927055642009" lon="7.154728760942817">
        <ele>1692.0599999999999</ele>
        <time>2012-06-16T08:33:38Z</time>
      </trkpt>
      <trkpt lat="46.366905011236668" lon="7.154614180326462">
        <ele>1691.0999999999999</ele>
        <time>2012-06-16T08:33:39Z</time>
      </trkpt>
      <trkpt lat="46.366897970438004" lon="7.154487445950508">
        <ele>1690.1400000000001</ele>
        <time>2012-06-16T08:33:40Z</time>
      </trkpt>
      <trkpt lat="46.366901909932494" lon="7.154349144548178">
        <ele>1689.1700000000001</ele>
        <time>2012-06-16T08:33:41Z</time>
      </trkpt>
      <trkpt lat="46.366916075348854" lon="7.154201371595264">
        <ele>1687.73</ele>
        <time>2012-06-16T08:33:42Z</time>
      </trkpt>
      <trkpt lat="46.366929905489087" lon="7.154045971110463">
        <ele>1686.29</ele>
        <time>2012-06-16T08:33:43Z</time>
      </trkpt>
      <trkpt lat="46.366927390918136" lon="7.153882943093777">
        <ele>1684.3699999999999</ele>
        <time>2012-06-16T08:33:44Z</time>
      </trkpt>
      <trkpt lat="46.366907861083746" lon="7.153713377192617">
        <ele>1682.4400000000001</ele>
        <time>2012-06-16T08:33:45Z</time>
      </trkpt>
      <trkpt lat="46.366879111155868" lon="7.153543727472425">
        <ele>1680.52</ele>
        <time>2012-06-16T08:33:46Z</time>
      </trkpt>
      <trkpt lat="46.366747682914138" lon="7.152545694261789">
        <ele>1668.99</ele>
        <time>2012-06-16T08:33:53Z</time>
      </trkpt>
      <trkpt lat="46.366756316274405" lon="7.152392221614718">
        <ele>1667.54</ele>
        <time>2012-06-16T08:33:54Z</time>
      </trkpt>
      <trkpt lat="46.366778528317809" lon="7.152234893292189">
        <ele>1666.0999999999999</ele>
        <time>2012-06-16T08:33:55Z</time>
      </trkpt>
      <trkpt lat="46.366816582158208" lon="7.152087036520243">
        <ele>1664.6600000000001</ele>
        <time>2012-06-16T08:33:56Z</time>
      </trkpt>
      <trkpt lat="46.366896126419306" lon="7.151806997135282">
        <ele>1661.78</ele>
        <time>2012-06-16T08:33:58Z</time>
      </trkpt>
      <trkpt lat="46.366910710930824" lon="7.151651596650481">
        <ele>1660.3299999999999</ele>
        <time>2012-06-16T08:33:59Z</time>
      </trkpt>
      <trkpt lat="46.366907944902778" lon="7.151493346318603">
        <ele>1658.8900000000001</ele>
        <time>2012-06-16T08:34:00Z</time>
      </trkpt>
      <trkpt lat="46.366902329027653" lon="7.1513432264328">
        <ele>1657.45</ele>
        <time>2012-06-16T08:34:01Z</time>
      </trkpt>
      <trkpt lat="46.366900485008955" lon="7.15119662694633">
        <ele>1656.49</ele>
        <time>2012-06-16T08:34:02Z</time>
      </trkpt>
      <trkpt lat="46.366905765607953" lon="7.151042735204101">
        <ele>1655.05</ele>
        <time>2012-06-16T08:34:03Z</time>
      </trkpt>
      <trkpt lat="46.366920098662376" lon="7.150881718844175">
        <ele>1654.0899999999999</ele>
        <time>2012-06-16T08:34:04Z</time>
      </trkpt>
      <trkpt lat="46.366974413394928" lon="7.150543592870235">
        <ele>1651.2</ele>
        <time>2012-06-16T08:34:06Z</time>
      </trkpt>
      <trkpt lat="46.367018837481737" lon="7.150369919836521">
        <ele>1649.28</ele>
        <time>2012-06-16T08:34:07Z</time>
      </trkpt>
      <trkpt lat="46.367158479988575" lon="7.149776481091976">
        <ele>1643.03</ele>
        <time>2012-06-16T08:34:11Z</time>
      </trkpt>
      <trkpt lat="46.367159401997924" lon="7.149649159982801">
        <ele>1642.0699999999999</ele>
        <time>2012-06-16T08:34:12Z</time>
      </trkpt>
      <trkpt lat="46.367143141105771" lon="7.149521671235561">
        <ele>1640.6300000000001</ele>
        <time>2012-06-16T08:34:13Z</time>
      </trkpt>
      <trkpt lat="46.367115145549178" lon="7.149396110326052">
        <ele>1639.6700000000001</ele>
        <time>2012-06-16T08:34:14Z</time>
      </trkpt>
      <trkpt lat="46.367077259346843" lon="7.149288402870297">
        <ele>1638.22</ele>
        <time>2012-06-16T08:34:15Z</time>
      </trkpt>
      <trkpt lat="46.367038451135159" lon="7.149199303239584">
        <ele>1637.26</ele>
        <time>2012-06-16T08:34:16Z</time>
      </trkpt>
      <trkpt lat="46.367007773369551" lon="7.149113472551107">
        <ele>1636.3</ele>
        <time>2012-06-16T08:34:17Z</time>
      </trkpt>
      <trkpt lat="46.366993859410286" lon="7.149022864177823">
        <ele>1635.3399999999999</ele>
        <time>2012-06-16T08:34:18Z</time>
      </trkpt>
      <trkpt lat="46.36699846945703" lon="7.148924628272653">
        <ele>1634.3800000000001</ele>
        <time>2012-06-16T08:34:19Z</time>
      </trkpt>
      <trkpt lat="46.367021100595593" lon="7.148818429559469">
        <ele>1633.4200000000001</ele>
        <time>2012-06-16T08:34:20Z</time>
      </trkpt>
      <trkpt lat="46.367055717855692" lon="7.148705525323749">
        <ele>1632.46</ele>
        <time>2012-06-16T08:34:21Z</time>
      </trkpt>
      <trkpt lat="46.367123443633318" lon="7.148442333564162">
        <ele>1630.53</ele>
        <time>2012-06-16T08:34:23Z</time>
      </trkpt>
      <trkpt lat="46.367139704525471" lon="7.148287687450647">
        <ele>1629.0899999999999</ele>
        <time>2012-06-16T08:34:24Z</time>
      </trkpt>
      <trkpt lat="46.367143727838993" lon="7.148134550079703">
        <ele>1628.1300000000001</ele>
        <time>2012-06-16T08:34:25Z</time>
      </trkpt>
      <trkpt lat="46.367158479988575" lon="7.147843949496746">
        <ele>1625.73</ele>
        <time>2012-06-16T08:34:27Z</time>
      </trkpt>
      <trkpt lat="46.367188068106771" lon="7.147696511819959">
        <ele>1624.28</ele>
        <time>2012-06-16T08:34:28Z</time>
      </trkpt>
      <trkpt lat="46.367234084755182" lon="7.147559802979231">
        <ele>1622.8399999999999</ele>
        <time>2012-06-16T08:34:29Z</time>
      </trkpt>
      <trkpt lat="46.367348413914442" lon="7.14719426818192">
        <ele>1619</ele>
        <time>2012-06-16T08:34:32Z</time>
      </trkpt>
      <trkpt lat="46.367388060316443" lon="7.146767545491457">
        <ele>1615.6300000000001</ele>
        <time>2012-06-16T08:34:35Z</time>
      </trkpt>
      <trkpt lat="46.367409015074372" lon="7.146616419777274">
        <ele>1614.1900000000001</ele>
        <time>2012-06-16T08:34:36Z</time>
      </trkpt>
      <trkpt lat="46.367427036166191" lon="7.146471412852407">
        <ele>1612.27</ele>
        <time>2012-06-16T08:34:37Z</time>
      </trkpt>
      <trkpt lat="46.367435334250331" lon="7.14633135125041">
        <ele>1610.8299999999999</ele>
        <time>2012-06-16T08:34:38Z</time>
      </trkpt>
      <trkpt lat="46.367429383099079" lon="7.146202689036727">
        <ele>1609.3800000000001</ele>
        <time>2012-06-16T08:34:39Z</time>
      </trkpt>
      <trkpt lat="46.367406500503421" lon="7.146077966317534">
        <ele>1607.9400000000001</ele>
        <time>2012-06-16T08:34:40Z</time>
      </trkpt>
      <trkpt lat="46.367368530482054" lon="7.145950561389327">
        <ele>1606.5</ele>
        <time>2012-06-16T08:34:41Z</time>
      </trkpt>
      <trkpt lat="46.367328800261021" lon="7.145810499787331">
        <ele>1605.0599999999999</ele>
        <time>2012-06-16T08:34:42Z</time>
      </trkpt>
      <trkpt lat="46.367292925715446" lon="7.145657194778323">
        <ele>1603.1400000000001</ele>
        <time>2012-06-16T08:34:43Z</time>
      </trkpt>
      <trkpt lat="46.367244394496083" lon="7.145499782636762">
        <ele>1601.21</ele>
        <time>2012-06-16T08:34:44Z</time>
      </trkpt>
      <trkpt lat="46.367179518565536" lon="7.145343543961644">
        <ele>1599.29</ele>
        <time>2012-06-16T08:34:45Z</time>
      </trkpt>
      <trkpt lat="46.366863436996937" lon="7.144639883190393">
        <ele>1589.2</ele>
        <time>2012-06-16T08:34:50Z</time>
      </trkpt>
      <trkpt lat="46.366826556622982" lon="7.144489930942655">
        <ele>1587.27</ele>
        <time>2012-06-16T08:34:51Z</time>
      </trkpt>
      <trkpt lat="46.366803674027324" lon="7.144324304535985">
        <ele>1584.8699999999999</ele>
        <time>2012-06-16T08:34:52Z</time>
      </trkpt>
      <trkpt lat="46.366778779774904" lon="7.144149541854858">
        <ele>1582.95</ele>
        <time>2012-06-16T08:34:53Z</time>
      </trkpt>
      <trkpt lat="46.366743324324489" lon="7.143973438069224">
        <ele>1581.03</ele>
        <time>2012-06-16T08:34:54Z</time>
      </trkpt>
      <trkpt lat="46.366704097017646" lon="7.143804710358381">
        <ele>1579.0999999999999</ele>
        <time>2012-06-16T08:34:55Z</time>
      </trkpt>
      <trkpt lat="46.366447946056724" lon="7.142597045749426">
        <ele>1569.49</ele>
        <time>2012-06-16T08:35:03Z</time>
      </trkpt>
      <trkpt lat="46.366448868066072" lon="7.142451368272305">
        <ele>1568.53</ele>
        <time>2012-06-16T08:35:04Z</time>
      </trkpt>
      <trkpt lat="46.366469236090779" lon="7.142307618632913">
        <ele>1568.05</ele>
        <time>2012-06-16T08:35:05Z</time>
      </trkpt>
      <trkpt lat="46.366506619378924" lon="7.142169568687677">
        <ele>1567.0899999999999</ele>
        <time>2012-06-16T08:35:06Z</time>
      </trkpt>
      <trkpt lat="46.366554899141192" lon="7.142038559541106">
        <ele>1567.0899999999999</ele>
        <time>2012-06-16T08:35:07Z</time>
      </trkpt>
      <trkpt lat="46.36660560965538" lon="7.141915261745453">
        <ele>1566.6099999999999</ele>
        <time>2012-06-16T08:35:08Z</time>
      </trkpt>
      <trkpt lat="46.366696218028665" lon="7.141671851277351">
        <ele>1566.1199999999999</ele>
        <time>2012-06-16T08:35:10Z</time>
      </trkpt>
      <trkpt lat="46.366825718432665" lon="7.141141276806593">
        <ele>1564.6800000000001</ele>
        <time>2012-06-16T08:35:14Z</time>
      </trkpt>
      <trkpt lat="46.366830244660378" lon="7.140998030081391">
        <ele>1564.2</ele>
        <time>2012-06-16T08:35:15Z</time>
      </trkpt>
      <trkpt lat="46.366812558844686" lon="7.140854364261031">
        <ele>1563.72</ele>
        <time>2012-06-16T08:35:16Z</time>
      </trkpt>
      <trkpt lat="46.366776097565889" lon="7.140713380649686">
        <ele>1562.76</ele>
        <time>2012-06-16T08:35:17Z</time>
      </trkpt>
      <trkpt lat="46.36672480031848" lon="7.140575163066387">
        <ele>1561.8</ele>
        <time>2012-06-16T08:35:18Z</time>
      </trkpt>
      <trkpt lat="46.366666881367564" lon="7.140438035130501">
        <ele>1560.3599999999999</ele>
        <time>2012-06-16T08:35:19Z</time>
      </trkpt>
      <trkpt lat="46.366509469226003" lon="7.140106866136193">
        <ele>1556.03</ele>
        <time>2012-06-16T08:35:22Z</time>
      </trkpt>
      <trkpt lat="46.366476276889443" lon="7.139998069033027">
        <ele>1554.5899999999999</ele>
        <time>2012-06-16T08:35:23Z</time>
      </trkpt>
      <trkpt lat="46.366460518911481" lon="7.139873849228025">
        <ele>1553.6300000000001</ele>
        <time>2012-06-16T08:35:24Z</time>
      </trkpt>
      <trkpt lat="46.366466050967574" lon="7.139741163700819">
        <ele>1552.6700000000001</ele>
        <time>2012-06-16T08:35:25Z</time>
      </trkpt>
      <trkpt lat="46.366488430649042" lon="7.139607975259423">
        <ele>1551.71</ele>
        <time>2012-06-16T08:35:26Z</time>
      </trkpt>
      <trkpt lat="46.366521287709475" lon="7.13947688229382">
        <ele>1550.26</ele>
        <time>2012-06-16T08:35:27Z</time>
      </trkpt>
      <trkpt lat="46.36655087582767" lon="7.139338413253427">
        <ele>1549.3</ele>
        <time>2012-06-16T08:35:28Z</time>
      </trkpt>
      <trkpt lat="46.366564789786935" lon="7.139199022203684">
        <ele>1548.8199999999999</ele>
        <time>2012-06-16T08:35:29Z</time>
      </trkpt>
      <trkpt lat="46.366565125063062" lon="7.139064325019717">
        <ele>1547.8599999999999</ele>
        <time>2012-06-16T08:35:30Z</time>
      </trkpt>
      <trkpt lat="46.366543248295784" lon="7.138937003910542">
        <ele>1546.4200000000001</ele>
        <time>2012-06-16T08:35:31Z</time>
      </trkpt>
      <trkpt lat="46.366497147828341" lon="7.138823764398694">
        <ele>1545.46</ele>
        <time>2012-06-16T08:35:32Z</time>
      </trkpt>
      <trkpt lat="46.366434618830681" lon="7.138726282864809">
        <ele>1544.01</ele>
        <time>2012-06-16T08:35:33Z</time>
      </trkpt>
      <trkpt lat="46.366367563605309" lon="7.138649085536599">
        <ele>1543.05</ele>
        <time>2012-06-16T08:35:34Z</time>
      </trkpt>
      <trkpt lat="46.366307716816664" lon="7.138582365587354">
        <ele>1541.6099999999999</ele>
        <time>2012-06-16T08:35:35Z</time>
      </trkpt>
      <trkpt lat="46.366262789815664" lon="7.138515310361981">
        <ele>1540.1700000000001</ele>
        <time>2012-06-16T08:35:36Z</time>
      </trkpt>
      <trkpt lat="46.366233369335532" lon="7.138455715030432">
        <ele>1539.21</ele>
        <time>2012-06-16T08:35:37Z</time>
      </trkpt>
      <trkpt lat="46.366208642721176" lon="7.138399053364992">
        <ele>1538.25</ele>
        <time>2012-06-16T08:35:38Z</time>
      </trkpt>
      <trkpt lat="46.366142509505153" lon="7.138269217684865">
        <ele>1537.29</ele>
        <time>2012-06-16T08:35:40Z</time>
      </trkpt>
      <trkpt lat="46.366095570847392" lon="7.138200150802732">
        <ele>1536.8</ele>
        <time>2012-06-16T08:35:41Z</time>
      </trkpt>
      <trkpt lat="46.365760043263435" lon="7.13780133984983">
        <ele>1532</ele>
        <time>2012-06-16T08:35:46Z</time>
      </trkpt>
      <trkpt lat="46.365673206746578" lon="7.137734284624457">
        <ele>1531.04</ele>
        <time>2012-06-16T08:35:47Z</time>
      </trkpt>
      <trkpt lat="46.365505987778306" lon="7.137620709836483">
        <ele>1528.1500000000001</ele>
        <time>2012-06-16T08:35:49Z</time>
      </trkpt>
      <trkpt lat="46.365438094362617" lon="7.137549547478557">
        <ele>1527.1900000000001</ele>
        <time>2012-06-16T08:35:50Z</time>
      </trkpt>
      <trkpt lat="46.365384450182319" lon="7.137475870549679">
        <ele>1526.23</ele>
        <time>2012-06-16T08:35:51Z</time>
      </trkpt>
      <trkpt lat="46.365342540666461" lon="7.137397835031152">
        <ele>1525.27</ele>
        <time>2012-06-16T08:35:52Z</time>
      </trkpt>
      <trkpt lat="46.365308593958616" lon="7.137309573590756">
        <ele>1523.8299999999999</ele>
        <time>2012-06-16T08:35:53Z</time>
      </trkpt>
      <trkpt lat="46.365279844030738" lon="7.137203123420477">
        <ele>1522.8699999999999</ele>
        <time>2012-06-16T08:35:54Z</time>
      </trkpt>
      <trkpt lat="46.365253021940589" lon="7.137083346024156">
        <ele>1521.4200000000001</ele>
        <time>2012-06-16T08:35:55Z</time>
      </trkpt>
      <trkpt lat="46.365198371931911" lon="7.136817974969745">
        <ele>1519.02</ele>
        <time>2012-06-16T08:35:57Z</time>
      </trkpt>
      <trkpt lat="46.365106338635087" lon="7.136073326691985">
        <ele>1512.77</ele>
        <time>2012-06-16T08:36:02Z</time>
      </trkpt>
      <trkpt lat="46.365114469081163" lon="7.135922955349088">
        <ele>1511.8099999999999</ele>
        <time>2012-06-16T08:36:03Z</time>
      </trkpt>
      <trkpt lat="46.365146404132247" lon="7.13578037917614">
        <ele>1511.8099999999999</ele>
        <time>2012-06-16T08:36:04Z</time>
      </trkpt>
      <trkpt lat="46.365176662802696" lon="7.135637383908033">
        <ele>1511.3299999999999</ele>
        <time>2012-06-16T08:36:05Z</time>
      </trkpt>
      <trkpt lat="46.365185547620058" lon="7.13549162261188">
        <ele>1511.3299999999999</ele>
        <time>2012-06-16T08:36:06Z</time>
      </trkpt>
      <trkpt lat="46.365176159888506" lon="7.135349800810218">
        <ele>1511.3299999999999</ele>
        <time>2012-06-16T08:36:07Z</time>
      </trkpt>
      <trkpt lat="46.365162916481495" lon="7.135208062827587">
        <ele>1510.8499999999999</ele>
        <time>2012-06-16T08:36:08Z</time>
      </trkpt>
      <trkpt lat="46.365159396082163" lon="7.134645972400904">
        <ele>1508.9300000000001</ele>
        <time>2012-06-16T08:36:12Z</time>
      </trkpt>
      <trkpt lat="46.365176076069474" lon="7.133238734677434">
        <ele>1497.3900000000001</ele>
        <time>2012-06-16T08:36:20Z</time>
      </trkpt>
      <trkpt lat="46.365172639489174" lon="7.132851909846067">
        <ele>1494.03</ele>
        <time>2012-06-16T08:36:22Z</time>
      </trkpt>
      <trkpt lat="46.365144727751613" lon="7.132656695321202">
        <ele>1492.0999999999999</ele>
        <time>2012-06-16T08:36:23Z</time>
      </trkpt>
      <trkpt lat="46.365034086629748" lon="7.131971474736929">
        <ele>1488.26</ele>
        <time>2012-06-16T08:36:27Z</time>
      </trkpt>
      <trkpt lat="46.364998798817396" lon="7.131835101172328">
        <ele>1488.26</ele>
        <time>2012-06-16T08:36:28Z</time>
      </trkpt>
      <trkpt lat="46.364943310618401" lon="7.131718592718244">
        <ele>1487.78</ele>
        <time>2012-06-16T08:36:29Z</time>
      </trkpt>
      <trkpt lat="46.36486996896565" lon="7.131630079820752">
        <ele>1487.78</ele>
        <time>2012-06-16T08:36:30Z</time>
      </trkpt>
      <trkpt lat="46.364790089428425" lon="7.131569730117917">
        <ele>1487.3</ele>
        <time>2012-06-16T08:36:31Z</time>
      </trkpt>
      <trkpt lat="46.364712053909898" lon="7.131517929956317">
        <ele>1487.3</ele>
        <time>2012-06-16T08:36:32Z</time>
      </trkpt>
      <trkpt lat="46.364335706457496" lon="7.131201177835465">
        <ele>1487.78</ele>
        <time>2012-06-16T08:36:38Z</time>
      </trkpt>
      <trkpt lat="46.364193046465516" lon="7.130961790680885">
        <ele>1485.3699999999999</ele>
        <time>2012-06-16T08:36:41Z</time>
      </trkpt>
      <trkpt lat="46.364166224375367" lon="7.130873613059521">
        <ele>1484.8900000000001</ele>
        <time>2012-06-16T08:36:42Z</time>
      </trkpt>
      <trkpt lat="46.364159686490893" lon="7.13078023865819">
        <ele>1484.8900000000001</ele>
        <time>2012-06-16T08:36:43Z</time>
      </trkpt>
      <trkpt lat="46.364173935726285" lon="7.130683092400432">
        <ele>1484.8900000000001</ele>
        <time>2012-06-16T08:36:44Z</time>
      </trkpt>
      <trkpt lat="46.364197740331292" lon="7.130589885637164">
        <ele>1484.8900000000001</ele>
        <time>2012-06-16T08:36:45Z</time>
      </trkpt>
      <trkpt lat="46.36421718634665" lon="7.130492152646184">
        <ele>1484.8900000000001</ele>
        <time>2012-06-16T08:36:46Z</time>
      </trkpt>
      <trkpt lat="46.364230429753661" lon="7.13038980960846">
        <ele>1484.4100000000001</ele>
        <time>2012-06-16T08:36:47Z</time>
      </trkpt>
      <trkpt lat="46.364233866333961" lon="7.130288137122989">
        <ele>1484.4100000000001</ele>
        <time>2012-06-16T08:36:48Z</time>
      </trkpt>
      <trkpt lat="46.364219449460506" lon="7.130200043320656">
        <ele>1483.9300000000001</ele>
        <time>2012-06-16T08:36:49Z</time>
      </trkpt>
      <trkpt lat="46.364178881049156" lon="7.130139693617821">
        <ele>1483.9300000000001</ele>
        <time>2012-06-16T08:36:50Z</time>
      </trkpt>
      <trkpt lat="46.364123811945319" lon="7.130120079964399">
        <ele>1483.45</ele>
        <time>2012-06-16T08:36:51Z</time>
      </trkpt>
      <trkpt lat="46.36407008394599" lon="7.13014455512166">
        <ele>1483.45</ele>
        <time>2012-06-16T08:36:52Z</time>
      </trkpt>
      <trkpt lat="46.364022558555007" lon="7.130201635882258">
        <ele>1482.97</ele>
        <time>2012-06-16T08:36:53Z</time>
      </trkpt>
      <trkpt lat="46.363985929638147" lon="7.130281096324325">
        <ele>1482.97</ele>
        <time>2012-06-16T08:36:54Z</time>
      </trkpt>
      <trkpt lat="46.363967740908265" lon="7.130379499867559">
        <ele>1482.97</ele>
        <time>2012-06-16T08:36:55Z</time>
      </trkpt>
      <trkpt lat="46.363966651260853" lon="7.130491146817803">
        <ele>1482.49</ele>
        <time>2012-06-16T08:36:56Z</time>
      </trkpt>
      <trkpt lat="46.363976374268532" lon="7.130610588937998">
        <ele>1482.01</ele>
        <time>2012-06-16T08:36:57Z</time>
      </trkpt>
      <trkpt lat="46.363991796970367" lon="7.130735144019127">
        <ele>1481.05</ele>
        <time>2012-06-16T08:36:58Z</time>
      </trkpt>
      <trkpt lat="46.364012751728296" lon="7.130862381309271">
        <ele>1480.5699999999999</ele>
        <time>2012-06-16T08:36:59Z</time>
      </trkpt>
      <trkpt lat="46.364095397293568" lon="7.131438218057156">
        <ele>1476.72</ele>
        <time>2012-06-16T08:37:03Z</time>
      </trkpt>
      <trkpt lat="46.364093720912933" lon="7.131606861948967">
        <ele>1475.76</ele>
        <time>2012-06-16T08:37:04Z</time>
      </trkpt>
      <trkpt lat="46.363958939909935" lon="7.132646385580301">
        <ele>1467.5899999999999</ele>
        <time>2012-06-16T08:37:11Z</time>
      </trkpt>
      <trkpt lat="46.363967657089233" lon="7.132787117734551">
        <ele>1466.1500000000001</ele>
        <time>2012-06-16T08:37:12Z</time>
      </trkpt>
      <trkpt lat="46.363988192752004" lon="7.132935477420688">
        <ele>1465.1900000000001</ele>
        <time>2012-06-16T08:37:13Z</time>
      </trkpt>
      <trkpt lat="46.3640505541116" lon="7.133424142375588">
        <ele>1461.3399999999999</ele>
        <time>2012-06-16T08:37:16Z</time>
      </trkpt>
      <trkpt lat="46.364046111702919" lon="7.133594714105129">
        <ele>1459.9000000000001</ele>
        <time>2012-06-16T08:37:17Z</time>
      </trkpt>
      <trkpt lat="46.364025492221117" lon="7.133770063519478">
        <ele>1458.9400000000001</ele>
        <time>2012-06-16T08:37:18Z</time>
      </trkpt>
      <trkpt lat="46.363994227722287" lon="7.133949184790254">
        <ele>1457.5</ele>
        <time>2012-06-16T08:37:19Z</time>
      </trkpt>
      <trkpt lat="46.363957179710269" lon="7.134125037118793">
        <ele>1456.05</ele>
        <time>2012-06-16T08:37:20Z</time>
      </trkpt>
      <trkpt lat="46.363840587437153" lon="7.134622670710087">
        <ele>1451.25</ele>
        <time>2012-06-16T08:37:23Z</time>
      </trkpt>
      <trkpt lat="46.363825583830476" lon="7.134804306551814">
        <ele>1449.8099999999999</ele>
        <time>2012-06-16T08:37:24Z</time>
      </trkpt>
      <trkpt lat="46.363809322938323" lon="7.134988456964493">
        <ele>1448.3599999999999</ele>
        <time>2012-06-16T08:37:25Z</time>
      </trkpt>
      <trkpt lat="46.363776549696922" lon="7.135170176625252">
        <ele>1446.9200000000001</ele>
        <time>2012-06-16T08:37:26Z</time>
      </trkpt>
      <trkpt lat="46.363727431744337" lon="7.135346531867981">
        <ele>1445.48</ele>
        <time>2012-06-16T08:37:27Z</time>
      </trkpt>
      <trkpt lat="46.363670686259866" lon="7.135519618168473">
        <ele>1444.52</ele>
        <time>2012-06-16T08:37:28Z</time>
      </trkpt>
      <trkpt lat="46.363447727635503" lon="7.13622260838747">
        <ele>1440.1900000000001</ele>
        <time>2012-06-16T08:37:32Z</time>
      </trkpt>
      <trkpt lat="46.363374134525657" lon="7.136369291692972">
        <ele>1438.75</ele>
        <time>2012-06-16T08:37:33Z</time>
      </trkpt>
      <trkpt lat="46.363182356581092" lon="7.136727869510651">
        <ele>1435.8699999999999</ele>
        <time>2012-06-16T08:37:36Z</time>
      </trkpt>
      <trkpt lat="46.363100716844201" lon="7.136947056278586">
        <ele>1433.46</ele>
        <time>2012-06-16T08:37:38Z</time>
      </trkpt>
      <trkpt lat="46.363072888925672" lon="7.137057529762387">
        <ele>1432.5</ele>
        <time>2012-06-16T08:37:39Z</time>
      </trkpt>
      <trkpt lat="46.363048916682601" lon="7.137181917205453">
        <ele>1431.0599999999999</ele>
        <time>2012-06-16T08:37:40Z</time>
      </trkpt>
      <trkpt lat="46.362894270569086" lon="7.138346331194043">
        <ele>1422.8900000000001</ele>
        <time>2012-06-16T08:37:48Z</time>
      </trkpt>
      <trkpt lat="46.362904580309987" lon="7.138483375310898">
        <ele>1422.4100000000001</ele>
        <time>2012-06-16T08:37:49Z</time>
      </trkpt>
      <trkpt lat="46.362929893657565" lon="7.138614049181342">
        <ele>1421.45</ele>
        <time>2012-06-16T08:37:50Z</time>
      </trkpt>
      <trkpt lat="46.362976748496294" lon="7.138846395537257">
        <ele>1420.49</ele>
        <time>2012-06-16T08:37:52Z</time>
      </trkpt>
      <trkpt lat="46.362968869507313" lon="7.138956533744931">
        <ele>1419.52</ele>
        <time>2012-06-16T08:37:53Z</time>
      </trkpt>
      <trkpt lat="46.362933246418834" lon="7.139050411060453">
        <ele>1419.52</ele>
        <time>2012-06-16T08:37:54Z</time>
      </trkpt>
      <trkpt lat="46.362880943343043" lon="7.139120986685157">
        <ele>1419.04</ele>
        <time>2012-06-16T08:37:55Z</time>
      </trkpt>
      <trkpt lat="46.362825036048889" lon="7.139187958091497">
        <ele>1419.04</ele>
        <time>2012-06-16T08:37:56Z</time>
      </trkpt>
      <trkpt lat="46.362773738801479" lon="7.139262892305851">
        <ele>1419.04</ele>
        <time>2012-06-16T08:37:57Z</time>
      </trkpt>
      <trkpt lat="46.362727554515004" lon="7.139346795156598">
        <ele>1418.5599999999999</ele>
        <time>2012-06-16T08:37:58Z</time>
      </trkpt>
      <trkpt lat="46.362685644999146" lon="7.139436900615692">
        <ele>1418.5599999999999</ele>
        <time>2012-06-16T08:37:59Z</time>
      </trkpt>
      <trkpt lat="46.362647088244557" lon="7.139533124864101">
        <ele>1418.5599999999999</ele>
        <time>2012-06-16T08:38:00Z</time>
      </trkpt>
      <trkpt lat="46.362186167389154" lon="7.140616988763213">
        <ele>1411.3499999999999</ele>
        <time>2012-06-16T08:38:09Z</time>
      </trkpt>
      <trkpt lat="46.362062534317374" lon="7.140908930450678">
        <ele>1408.47</ele>
        <time>2012-06-16T08:38:11Z</time>
      </trkpt>
      <trkpt lat="46.362016350030899" lon="7.141064833849669">
        <ele>1407.03</ele>
        <time>2012-06-16T08:38:12Z</time>
      </trkpt>
      <trkpt lat="46.361984750255942" lon="7.141220234334469">
        <ele>1405.5799999999999</ele>
        <time>2012-06-16T08:38:13Z</time>
      </trkpt>
      <trkpt lat="46.361962622031569" lon="7.141366666182876">
        <ele>1404.1400000000001</ele>
        <time>2012-06-16T08:38:14Z</time>
      </trkpt>
      <trkpt lat="46.361947786062956" lon="7.141505889594555">
        <ele>1403.1800000000001</ele>
        <time>2012-06-16T08:38:15Z</time>
      </trkpt>
      <trkpt lat="46.361891711130738" lon="7.14196689426899">
        <ele>1398.8599999999999</ele>
        <time>2012-06-16T08:38:19Z</time>
      </trkpt>
      <trkpt lat="46.361869834363461" lon="7.142034033313394">
        <ele>1398.3699999999999</ele>
        <time>2012-06-16T08:38:20Z</time>
      </trkpt>
      <trkpt lat="46.361848209053278" lon="7.142073679715395">
        <ele>1397.8900000000001</ele>
        <time>2012-06-16T08:38:21Z</time>
      </trkpt>
      <trkpt lat="46.361824404448271" lon="7.142093209549785">
        <ele>1397.8900000000001</ele>
        <time>2012-06-16T08:38:22Z</time>
      </trkpt>
      <trkpt lat="46.36179213412106" lon="7.142112907022238">
        <ele>1397.4100000000001</ele>
        <time>2012-06-16T08:38:23Z</time>
      </trkpt>
      <trkpt lat="46.361744944006205" lon="7.142132185399532">
        <ele>1396.9300000000001</ele>
        <time>2012-06-16T08:38:24Z</time>
      </trkpt>
      <trkpt lat="46.361681492999196" lon="7.14213939383626">
        <ele>1396.45</ele>
        <time>2012-06-16T08:38:25Z</time>
      </trkpt>
      <trkpt lat="46.361608486622572" lon="7.142134699970484">
        <ele>1395.49</ele>
        <time>2012-06-16T08:38:26Z</time>
      </trkpt>
      <trkpt lat="46.361530283465981" lon="7.142130676656961">
        <ele>1395.01</ele>
        <time>2012-06-16T08:38:27Z</time>
      </trkpt>
      <trkpt lat="46.361446799710393" lon="7.142143165692687">
        <ele>1394.05</ele>
        <time>2012-06-16T08:38:28Z</time>
      </trkpt>
      <trkpt lat="46.361356861889362" lon="7.142168311402202">
        <ele>1393.0899999999999</ele>
        <time>2012-06-16T08:38:29Z</time>
      </trkpt>
      <trkpt lat="46.361262062564492" lon="7.142188344150782">
        <ele>1392.1300000000001</ele>
        <time>2012-06-16T08:38:30Z</time>
      </trkpt>
      <trkpt lat="46.361162485554814" lon="7.142192451283336">
        <ele>1390.6800000000001</ele>
        <time>2012-06-16T08:38:31Z</time>
      </trkpt>
      <trkpt lat="46.361062237992883" lon="7.142175184562802">
        <ele>1389.72</ele>
        <time>2012-06-16T08:38:32Z</time>
      </trkpt>
      <trkpt lat="46.360968528315425" lon="7.142142746597529">
        <ele>1388.76</ele>
        <time>2012-06-16T08:38:33Z</time>
      </trkpt>
      <trkpt lat="46.360881691798568" lon="7.142109302803874">
        <ele>1387.8</ele>
        <time>2012-06-16T08:38:34Z</time>
      </trkpt>
      <trkpt lat="46.360798543319106" lon="7.142089437693358">
        <ele>1386.8399999999999</ele>
        <time>2012-06-16T08:38:35Z</time>
      </trkpt>
      <trkpt lat="46.360721597447991" lon="7.142083318904042">
        <ele>1385.8800000000001</ele>
        <time>2012-06-16T08:38:36Z</time>
      </trkpt>
      <trkpt lat="46.360649596899748" lon="7.142107039690018">
        <ele>1384.9200000000001</ele>
        <time>2012-06-16T08:38:37Z</time>
      </trkpt>
      <trkpt lat="46.360586229711771" lon="7.14217116124928">
        <ele>1384.4400000000001</ele>
        <time>2012-06-16T08:38:38Z</time>
      </trkpt>
      <trkpt lat="46.36053241789341" lon="7.14226939715445">
        <ele>1382.99</ele>
        <time>2012-06-16T08:38:39Z</time>
      </trkpt>
      <trkpt lat="46.360479779541492" lon="7.142383642494679">
        <ele>1381.55</ele>
        <time>2012-06-16T08:38:40Z</time>
      </trkpt>
      <trkpt lat="46.360324881970882" lon="7.142774323001504">
        <ele>1377.23</ele>
        <time>2012-06-16T08:38:43Z</time>
      </trkpt>
      <trkpt lat="46.360288923606277" lon="7.142928382381797">
        <ele>1376.26</ele>
        <time>2012-06-16T08:38:44Z</time>
      </trkpt>
      <trkpt lat="46.359857339411974" lon="7.144761169329286">
        <ele>1363.77</ele>
        <time>2012-06-16T08:38:55Z</time>
      </trkpt>
      <trkpt lat="46.359692635014653" lon="7.145626600831747">
        <ele>1356.5599999999999</ele>
        <time>2012-06-16T08:39:01Z</time>
      </trkpt>
      <trkpt lat="46.359696574509144" lon="7.145776469260454">
        <ele>1355.1199999999999</ele>
        <time>2012-06-16T08:39:02Z</time>
      </trkpt>
      <trkpt lat="46.359712835401297" lon="7.145934635773301">
        <ele>1354.1500000000001</ele>
        <time>2012-06-16T08:39:03Z</time>
      </trkpt>
      <trkpt lat="46.359753487631679" lon="7.146426485851407">
        <ele>1350.79</ele>
        <time>2012-06-16T08:39:06Z</time>
      </trkpt>
      <trkpt lat="46.359742172062397" lon="7.146584568545222">
        <ele>1349.8299999999999</ele>
        <time>2012-06-16T08:39:07Z</time>
      </trkpt>
      <trkpt lat="46.35971887037158" lon="7.146744411438704">
        <ele>1348.3900000000001</ele>
        <time>2012-06-16T08:39:08Z</time>
      </trkpt>
      <trkpt lat="46.359686097130179" lon="7.14690450578928">
        <ele>1347.4300000000001</ele>
        <time>2012-06-16T08:39:09Z</time>
      </trkpt>
      <trkpt lat="46.359650641679764" lon="7.147058481350541">
        <ele>1346.46</ele>
        <time>2012-06-16T08:39:10Z</time>
      </trkpt>
      <trkpt lat="46.359625412151217" lon="7.147212289273739">
        <ele>1345.5</ele>
        <time>2012-06-16T08:39:11Z</time>
      </trkpt>
      <trkpt lat="46.359617449343204" lon="7.147362660616636">
        <ele>1344.54</ele>
        <time>2012-06-16T08:39:12Z</time>
      </trkpt>
      <trkpt lat="46.359604373574257" lon="7.147724339738488">
        <ele>1342.1400000000001</ele>
        <time>2012-06-16T08:39:15Z</time>
      </trkpt>
      <trkpt lat="46.359573863446712" lon="7.147826934233308">
        <ele>1341.1800000000001</ele>
        <time>2012-06-16T08:39:16Z</time>
      </trkpt>
      <trkpt lat="46.359502533450723" lon="7.148049473762512">
        <ele>1339.73</ele>
        <time>2012-06-16T08:39:18Z</time>
      </trkpt>
      <trkpt lat="46.359474286437035" lon="7.148177297785878">
        <ele>1339.25</ele>
        <time>2012-06-16T08:39:19Z</time>
      </trkpt>
      <trkpt lat="46.359174717217684" lon="7.149499543011189">
        <ele>1327.72</ele>
        <time>2012-06-16T08:39:28Z</time>
      </trkpt>
      <trkpt lat="46.359124593436718" lon="7.149611273780465">
        <ele>1326.76</ele>
        <time>2012-06-16T08:39:29Z</time>
      </trkpt>
      <trkpt lat="46.359027028083801" lon="7.149801207706332">
        <ele>1324.8299999999999</ele>
        <time>2012-06-16T08:39:31Z</time>
      </trkpt>
      <trkpt lat="46.358999367803335" lon="7.149901958182454">
        <ele>1323.8699999999999</ele>
        <time>2012-06-16T08:39:32Z</time>
      </trkpt>
      <trkpt lat="46.358983777463436" lon="7.150002876296639">
        <ele>1322.9100000000001</ele>
        <time>2012-06-16T08:39:33Z</time>
      </trkpt>
      <trkpt lat="46.358976569026709" lon="7.150098513811827">
        <ele>1321.95</ele>
        <time>2012-06-16T08:39:34Z</time>
      </trkpt>
      <trkpt lat="46.358976988121867" lon="7.150185769423842">
        <ele>1321.47</ele>
        <time>2012-06-16T08:39:35Z</time>
      </trkpt>
      <trkpt lat="46.35898151434958" lon="7.150264056399465">
        <ele>1320.51</ele>
        <time>2012-06-16T08:39:36Z</time>
      </trkpt>
      <trkpt lat="46.358986292034388" lon="7.150409482419491">
        <ele>1319.0699999999999</ele>
        <time>2012-06-16T08:39:38Z</time>
      </trkpt>
      <trkpt lat="46.358983358368278" lon="7.150493133813143">
        <ele>1318.0999999999999</ele>
        <time>2012-06-16T08:39:39Z</time>
      </trkpt>
      <trkpt lat="46.358975395560265" lon="7.150575863197446">
        <ele>1317.1400000000001</ele>
        <time>2012-06-16T08:39:40Z</time>
      </trkpt>
      <trkpt lat="46.358958296477795" lon="7.150652473792434">
        <ele>1316.6600000000001</ele>
        <time>2012-06-16T08:39:41Z</time>
      </trkpt>
      <trkpt lat="46.358932815492153" lon="7.150725312530994">
        <ele>1315.7</ele>
        <time>2012-06-16T08:39:42Z</time>
      </trkpt>
      <trkpt lat="46.358901299536228" lon="7.150797732174397">
        <ele>1315.22</ele>
        <time>2012-06-16T08:39:43Z</time>
      </trkpt>
      <trkpt lat="46.35880172252655" lon="7.151072826236486">
        <ele>1313.3</ele>
        <time>2012-06-16T08:39:46Z</time>
      </trkpt>
      <trkpt lat="46.358774397522211" lon="7.151189921423793">
        <ele>1312.3399999999999</ele>
        <time>2012-06-16T08:39:47Z</time>
      </trkpt>
      <trkpt lat="46.358597120270133" lon="7.15187924914062">
        <ele>1306.0899999999999</ele>
        <time>2012-06-16T08:39:52Z</time>
      </trkpt>
      <trkpt lat="46.358544901013374" lon="7.152005396783352">
        <ele>1304.6500000000001</ele>
        <time>2012-06-16T08:39:53Z</time>
      </trkpt>
      <trkpt lat="46.358477342873812" lon="7.152114948257804">
        <ele>1303.6900000000001</ele>
        <time>2012-06-16T08:39:54Z</time>
      </trkpt>
      <trkpt lat="46.358402241021395" lon="7.152215279638767">
        <ele>1302.72</ele>
        <time>2012-06-16T08:39:55Z</time>
      </trkpt>
      <trkpt lat="46.358338119462132" lon="7.152321394532919">
        <ele>1301.76</ele>
        <time>2012-06-16T08:39:56Z</time>
      </trkpt>
      <trkpt lat="46.358286067843437" lon="7.152432538568974">
        <ele>1300.8</ele>
        <time>2012-06-16T08:39:57Z</time>
      </trkpt>
      <trkpt lat="46.358248433098197" lon="7.152553573250771">
        <ele>1299.8399999999999</ele>
        <time>2012-06-16T08:39:58Z</time>
      </trkpt>
      <trkpt lat="46.358227729797363" lon="7.15268743224442">
        <ele>1298.8800000000001</ele>
        <time>2012-06-16T08:39:59Z</time>
      </trkpt>
      <trkpt lat="46.35821926407516" lon="7.152826823294163">
        <ele>1297.4400000000001</ele>
        <time>2012-06-16T08:40:00Z</time>
      </trkpt>
      <trkpt lat="46.358220102265477" lon="7.152963783591986">
        <ele>1296.48</ele>
        <time>2012-06-16T08:40:01Z</time>
      </trkpt>
      <trkpt lat="46.358232591301203" lon="7.153084063902497">
        <ele>1295.51</ele>
        <time>2012-06-16T08:40:02Z</time>
      </trkpt>
      <trkpt lat="46.358249271288514" lon="7.153182970359922">
        <ele>1294.55</ele>
        <time>2012-06-16T08:40:03Z</time>
      </trkpt>
      <trkpt lat="46.358254048973322" lon="7.153262598440051">
        <ele>1294.0699999999999</ele>
        <time>2012-06-16T08:40:04Z</time>
      </trkpt>
      <trkpt lat="46.358238039538264" lon="7.15332018211484">
        <ele>1293.1099999999999</ele>
        <time>2012-06-16T08:40:05Z</time>
      </trkpt>
      <trkpt lat="46.358207948505878" lon="7.153350273147225">
        <ele>1292.1500000000001</ele>
        <time>2012-06-16T08:40:06Z</time>
      </trkpt>
      <trkpt lat="46.358172493055463" lon="7.153340969234705">
        <ele>1291.1900000000001</ele>
        <time>2012-06-16T08:40:07Z</time>
      </trkpt>
      <trkpt lat="46.358146090060472" lon="7.153290007263422">
        <ele>1290.71</ele>
        <time>2012-06-16T08:40:08Z</time>
      </trkpt>
      <trkpt lat="46.35813863016665" lon="7.153212474659085">
        <ele>1290.23</ele>
        <time>2012-06-16T08:40:09Z</time>
      </trkpt>
      <trkpt lat="46.358142485842109" lon="7.153121028095484">
        <ele>1290.23</ele>
        <time>2012-06-16T08:40:10Z</time>
      </trkpt>
      <trkpt lat="46.358143659308553" lon="7.153019774705172">
        <ele>1289.75</ele>
        <time>2012-06-16T08:40:11Z</time>
      </trkpt>
      <trkpt lat="46.358131421729922" lon="7.152910474687815">
        <ele>1289.27</ele>
        <time>2012-06-16T08:40:12Z</time>
      </trkpt>
      <trkpt lat="46.358101665973663" lon="7.152798576280475">
        <ele>1288.78</ele>
        <time>2012-06-16T08:40:13Z</time>
      </trkpt>
      <trkpt lat="46.358061265200377" lon="7.152685504406691">
        <ele>1288.3</ele>
        <time>2012-06-16T08:40:14Z</time>
      </trkpt>
      <trkpt lat="46.358017008751631" lon="7.152565894648433">
        <ele>1287.3399999999999</ele>
        <time>2012-06-16T08:40:15Z</time>
      </trkpt>
      <trkpt lat="46.357981888577342" lon="7.15243530459702">
        <ele>1286.8599999999999</ele>
        <time>2012-06-16T08:40:16Z</time>
      </trkpt>
      <trkpt lat="46.357962023466825" lon="7.15229214169085">
        <ele>1286.3800000000001</ele>
        <time>2012-06-16T08:40:17Z</time>
      </trkpt>
      <trkpt lat="46.357955653220415" lon="7.152136322110891">
        <ele>1285.9000000000001</ele>
        <time>2012-06-16T08:40:18Z</time>
      </trkpt>
      <trkpt lat="46.357956407591701" lon="7.151974635198712">
        <ele>1284.9400000000001</ele>
        <time>2012-06-16T08:40:19Z</time>
      </trkpt>
      <trkpt lat="46.357951294630766" lon="7.151805404573679">
        <ele>1283.98</ele>
        <time>2012-06-16T08:40:20Z</time>
      </trkpt>
      <trkpt lat="46.357936123386025" lon="7.151636509224773">
        <ele>1283.02</ele>
        <time>2012-06-16T08:40:21Z</time>
      </trkpt>
      <trkpt lat="46.357890693470836" lon="7.151167877018452">
        <ele>1279.1700000000001</ele>
        <time>2012-06-16T08:40:24Z</time>
      </trkpt>
      <trkpt lat="46.357892621308565" lon="7.151010045781732">
        <ele>1278.21</ele>
        <time>2012-06-16T08:40:25Z</time>
      </trkpt>
      <trkpt lat="46.357907624915242" lon="7.150845928117633">
        <ele>1277.25</ele>
        <time>2012-06-16T08:40:26Z</time>
      </trkpt>
      <trkpt lat="46.357933357357979" lon="7.15069136582315">
        <ele>1275.8099999999999</ele>
        <time>2012-06-16T08:40:27Z</time>
      </trkpt>
      <trkpt lat="46.357962694019079" lon="7.150556584820151">
        <ele>1274.3599999999999</ele>
        <time>2012-06-16T08:40:28Z</time>
      </trkpt>
      <trkpt lat="46.357988426461816" lon="7.150441333651543">
        <ele>1273.4000000000001</ele>
        <time>2012-06-16T08:40:29Z</time>
      </trkpt>
      <trkpt lat="46.357999490574002" lon="7.150337565690279">
        <ele>1272.4400000000001</ele>
        <time>2012-06-16T08:40:30Z</time>
      </trkpt>
      <trkpt lat="46.357984570786357" lon="7.150251735001802">
        <ele>1271.96</ele>
        <time>2012-06-16T08:40:31Z</time>
      </trkpt>
      <trkpt lat="46.357943080365658" lon="7.150204461067915">
        <ele>1271</ele>
        <time>2012-06-16T08:40:32Z</time>
      </trkpt>
      <trkpt lat="46.357892286032438" lon="7.150220470502973">
        <ele>1270.52</ele>
        <time>2012-06-16T08:40:33Z</time>
      </trkpt>
      <trkpt lat="46.357861272990704" lon="7.150291632860899">
        <ele>1270.04</ele>
        <time>2012-06-16T08:40:34Z</time>
      </trkpt>
      <trkpt lat="46.357846604660153" lon="7.150389198213816">
        <ele>1269.5599999999999</ele>
        <time>2012-06-16T08:40:35Z</time>
      </trkpt>
      <trkpt lat="46.357823889702559" lon="7.150491373613477">
        <ele>1269.0799999999999</ele>
        <time>2012-06-16T08:40:36Z</time>
      </trkpt>
      <trkpt lat="46.357787428423762" lon="7.150594890117645">
        <ele>1268.1199999999999</ele>
        <time>2012-06-16T08:40:37Z</time>
      </trkpt>
      <trkpt lat="46.357742417603731" lon="7.150700921192765">
        <ele>1267.6400000000001</ele>
        <time>2012-06-16T08:40:38Z</time>
      </trkpt>
      <trkpt lat="46.357583329081535" lon="7.151045249775052">
        <ele>1265.23</ele>
        <time>2012-06-16T08:40:41Z</time>
      </trkpt>
      <trkpt lat="46.357540665194392" lon="7.151183299720287">
        <ele>1264.27</ele>
        <time>2012-06-16T08:40:42Z</time>
      </trkpt>
      <trkpt lat="46.357498504221439" lon="7.151332497596741">
        <ele>1262.8299999999999</ele>
        <time>2012-06-16T08:40:43Z</time>
      </trkpt>
      <trkpt lat="46.357346540316939" lon="7.151842955499888">
        <ele>1258.02</ele>
        <time>2012-06-16T08:40:47Z</time>
      </trkpt>
      <trkpt lat="46.357328435406089" lon="7.15197304263711">
        <ele>1257.0599999999999</ele>
        <time>2012-06-16T08:40:48Z</time>
      </trkpt>
      <trkpt lat="46.357320221140981" lon="7.152113020420075">
        <ele>1255.6199999999999</ele>
        <time>2012-06-16T08:40:49Z</time>
      </trkpt>
      <trkpt lat="46.35729381814599" lon="7.152499426156282">
        <ele>1252.25</ele>
        <time>2012-06-16T08:40:52Z</time>
      </trkpt>
      <trkpt lat="46.357254926115274" lon="7.152605624869466">
        <ele>1251.29</ele>
        <time>2012-06-16T08:40:53Z</time>
      </trkpt>
      <trkpt lat="46.357197342440486" lon="7.152704112231731">
        <ele>1250.3299999999999</ele>
        <time>2012-06-16T08:40:54Z</time>
      </trkpt>
      <trkpt lat="46.357139004394412" lon="7.152809724211693">
        <ele>1248.8900000000001</ele>
        <time>2012-06-16T08:40:55Z</time>
      </trkpt>
      <trkpt lat="46.357085276395082" lon="7.152931345626712">
        <ele>1247.9300000000001</ele>
        <time>2012-06-16T08:40:56Z</time>
      </trkpt>
      <trkpt lat="46.357033140957355" lon="7.153065707534552">
        <ele>1246.97</ele>
        <time>2012-06-16T08:40:57Z</time>
      </trkpt>
      <trkpt lat="46.356641286984086" lon="7.154484344646335">
        <ele>1234.95</ele>
        <time>2012-06-16T08:41:06Z</time>
      </trkpt>
      <trkpt lat="46.356604993343353" lon="7.154610827565193">
        <ele>1233.99</ele>
        <time>2012-06-16T08:41:07Z</time>
      </trkpt>
      <trkpt lat="46.356558222323656" lon="7.154732365161181">
        <ele>1232.55</ele>
        <time>2012-06-16T08:41:08Z</time>
      </trkpt>
      <trkpt lat="46.35650172829628" lon="7.154845353215933">
        <ele>1231.5899999999999</ele>
        <time>2012-06-16T08:41:09Z</time>
      </trkpt>
      <trkpt lat="46.356439031660557" lon="7.154946941882372">
        <ele>1230.6199999999999</ele>
        <time>2012-06-16T08:41:10Z</time>
      </trkpt>
      <trkpt lat="46.356372646987438" lon="7.155042914673686">
        <ele>1229.1800000000001</ele>
        <time>2012-06-16T08:41:11Z</time>
      </trkpt>
      <trkpt lat="46.356305843219161" lon="7.155130924656987">
        <ele>1228.22</ele>
        <time>2012-06-16T08:41:12Z</time>
      </trkpt>
      <trkpt lat="46.35624180547893" lon="7.155214995145798">
        <ele>1227.26</ele>
        <time>2012-06-16T08:41:13Z</time>
      </trkpt>
      <trkpt lat="46.356190592050552" lon="7.155312392860651">
        <ele>1225.8199999999999</ele>
        <time>2012-06-16T08:41:14Z</time>
      </trkpt>
      <trkpt lat="46.356158070266247" lon="7.155413562431932">
        <ele>1224.8599999999999</ele>
        <time>2012-06-16T08:41:15Z</time>
      </trkpt>
      <trkpt lat="46.356144994497299" lon="7.155518252402544">
        <ele>1223.9000000000001</ele>
        <time>2012-06-16T08:41:16Z</time>
      </trkpt>
      <trkpt lat="46.356156645342708" lon="7.155629228800535">
        <ele>1222.9300000000001</ele>
        <time>2012-06-16T08:41:17Z</time>
      </trkpt>
      <trkpt lat="46.356189837679267" lon="7.15573693625629">
        <ele>1221.97</ele>
        <time>2012-06-16T08:41:18Z</time>
      </trkpt>
      <trkpt lat="46.356229232624173" lon="7.155836764723063">
        <ele>1221.01</ele>
        <time>2012-06-16T08:41:19Z</time>
      </trkpt>
      <trkpt lat="46.356254462152719" lon="7.155931731685996">
        <ele>1220.05</ele>
        <time>2012-06-16T08:41:20Z</time>
      </trkpt>
      <trkpt lat="46.35625840164721" lon="7.156019909307361">
        <ele>1219.0899999999999</ele>
        <time>2012-06-16T08:41:21Z</time>
      </trkpt>
      <trkpt lat="46.356239626184106" lon="7.156093250960112">
        <ele>1218.1300000000001</ele>
        <time>2012-06-16T08:41:22Z</time>
      </trkpt>
      <trkpt lat="46.356196124106646" lon="7.156146643683314">
        <ele>1217.1700000000001</ele>
        <time>2012-06-16T08:41:23Z</time>
      </trkpt>
      <trkpt lat="46.356132505461574" lon="7.15616500005126">
        <ele>1216.21</ele>
        <time>2012-06-16T08:41:24Z</time>
      </trkpt>
      <trkpt lat="46.356058325618505" lon="7.156159048900008">
        <ele>1215.72</ele>
        <time>2012-06-16T08:41:25Z</time>
      </trkpt>
      <trkpt lat="46.355980793014169" lon="7.156146559864283">
        <ele>1214.76</ele>
        <time>2012-06-16T08:41:26Z</time>
      </trkpt>
      <trkpt lat="46.355846766382456" lon="7.156102303415537">
        <ele>1213.3199999999999</ele>
        <time>2012-06-16T08:41:28Z</time>
      </trkpt>
      <trkpt lat="46.355797648429871" lon="7.156032733619213">
        <ele>1212.3599999999999</ele>
        <time>2012-06-16T08:41:29Z</time>
      </trkpt>
      <trkpt lat="46.355757247656584" lon="7.155937515199184">
        <ele>1211.4000000000001</ele>
        <time>2012-06-16T08:41:30Z</time>
      </trkpt>
      <trkpt lat="46.355706788599491" lon="7.15583173558116">
        <ele>1209.96</ele>
        <time>2012-06-16T08:41:31Z</time>
      </trkpt>
      <trkpt lat="46.355647025629878" lon="7.155715143308044">
        <ele>1208.51</ele>
        <time>2012-06-16T08:41:32Z</time>
      </trkpt>
      <trkpt lat="46.355590363964438" lon="7.155578937381506">
        <ele>1207.0699999999999</ele>
        <time>2012-06-16T08:41:33Z</time>
      </trkpt>
      <trkpt lat="46.355540994554758" lon="7.155437618494034">
        <ele>1205.1500000000001</ele>
        <time>2012-06-16T08:41:34Z</time>
      </trkpt>
      <trkpt lat="46.355348043143749" lon="7.154817944392562">
        <ele>1198.4200000000001</ele>
        <time>2012-06-16T08:41:39Z</time>
      </trkpt>
      <trkpt lat="46.355324657633901" lon="7.154678301885724">
        <ele>1196.98</ele>
        <time>2012-06-16T08:41:40Z</time>
      </trkpt>
      <trkpt lat="46.355315605178475" lon="7.154530780389905">
        <ele>1195.54</ele>
        <time>2012-06-16T08:41:41Z</time>
      </trkpt>
      <trkpt lat="46.355305127799511" lon="7.154388790950179">
        <ele>1194.0899999999999</ele>
        <time>2012-06-16T08:41:42Z</time>
      </trkpt>
      <trkpt lat="46.355278557166457" lon="7.154254177585244">
        <ele>1192.6500000000001</ele>
        <time>2012-06-16T08:41:43Z</time>
      </trkpt>
      <trkpt lat="46.355231199413538" lon="7.154126605018973">
        <ele>1191.21</ele>
        <time>2012-06-16T08:41:44Z</time>
      </trkpt>
      <trkpt lat="46.355170179158449" lon="7.154008504003286">
        <ele>1190.25</ele>
        <time>2012-06-16T08:41:45Z</time>
      </trkpt>
      <trkpt lat="46.355107147246599" lon="7.153902053833008">
        <ele>1188.8099999999999</ele>
        <time>2012-06-16T08:41:46Z</time>
      </trkpt>
      <trkpt lat="46.354997344315052" lon="7.153720585629344">
        <ele>1186.8800000000001</ele>
        <time>2012-06-16T08:41:48Z</time>
      </trkpt>
      <trkpt lat="46.354938838630915" lon="7.153659062460065">
        <ele>1185.9200000000001</ele>
        <time>2012-06-16T08:41:49Z</time>
      </trkpt>
      <trkpt lat="46.354872956871986" lon="7.153631653636694">
        <ele>1184.96</ele>
        <time>2012-06-16T08:41:50Z</time>
      </trkpt>
      <trkpt lat="46.354803051799536" lon="7.153638945892453">
        <ele>1184.48</ele>
        <time>2012-06-16T08:41:51Z</time>
      </trkpt>
      <trkpt lat="46.354733649641275" lon="7.153671719133854">
        <ele>1184</ele>
        <time>2012-06-16T08:41:52Z</time>
      </trkpt>
      <trkpt lat="46.354664247483015" lon="7.153712287545204">
        <ele>1183.52</ele>
        <time>2012-06-16T08:41:53Z</time>
      </trkpt>
      <trkpt lat="46.354521922767162" lon="7.153781354427338">
        <ele>1183.04</ele>
        <time>2012-06-16T08:41:55Z</time>
      </trkpt>
      <trkpt lat="46.354445395991206" lon="7.15379610657692">
        <ele>1182.5599999999999</ele>
        <time>2012-06-16T08:41:56Z</time>
      </trkpt>
      <trkpt lat="46.354363923892379" lon="7.153793675825">
        <ele>1182.0799999999999</ele>
        <time>2012-06-16T08:41:57Z</time>
      </trkpt>
      <trkpt lat="46.354279853403568" lon="7.15377414599061">
        <ele>1181.5999999999999</ele>
        <time>2012-06-16T08:41:58Z</time>
      </trkpt>
      <trkpt lat="46.354195866733789" lon="7.153743803501129">
        <ele>1181.1199999999999</ele>
        <time>2012-06-16T08:41:59Z</time>
      </trkpt>
      <trkpt lat="46.354106767103076" lon="7.153703821823001">
        <ele>1180.1600000000001</ele>
        <time>2012-06-16T08:42:00Z</time>
      </trkpt>
      <trkpt lat="46.353549705818295" lon="7.153455382212997">
        <ele>1173.4300000000001</ele>
        <time>2012-06-16T08:42:07Z</time>
      </trkpt>
      <trkpt lat="46.353474771603942" lon="7.153454795479775">
        <ele>1172.47</ele>
        <time>2012-06-16T08:42:08Z</time>
      </trkpt>
      <trkpt lat="46.353408889845014" lon="7.15346921235323">
        <ele>1171.98</ele>
        <time>2012-06-16T08:42:09Z</time>
      </trkpt>
      <trkpt lat="46.353351892903447" lon="7.153486646711826">
        <ele>1171.5</ele>
        <time>2012-06-16T08:42:10Z</time>
      </trkpt>
      <trkpt lat="46.353297075256705" lon="7.153488658368588">
        <ele>1171.02</ele>
        <time>2012-06-16T08:42:11Z</time>
      </trkpt>
      <trkpt lat="46.353238150477409" lon="7.153473403304815">
        <ele>1170.0599999999999</ele>
        <time>2012-06-16T08:42:12Z</time>
      </trkpt>
      <trkpt lat="46.353178722783923" lon="7.153450855985284">
        <ele>1169.5799999999999</ele>
        <time>2012-06-16T08:42:13Z</time>
      </trkpt>
      <trkpt lat="46.35312482714653" lon="7.153422273695469">
        <ele>1169.0999999999999</ele>
        <time>2012-06-16T08:42:14Z</time>
      </trkpt>
      <trkpt lat="46.353079145774245" lon="7.153379190713167">
        <ele>1168.1400000000001</ele>
        <time>2012-06-16T08:42:15Z</time>
      </trkpt>
      <trkpt lat="46.353017538785934" lon="7.153242565691471">
        <ele>1167.1800000000001</ele>
        <time>2012-06-16T08:42:17Z</time>
      </trkpt>
      <trkpt lat="46.353005049750209" lon="7.153162015601993">
        <ele>1166.7</ele>
        <time>2012-06-16T08:42:18Z</time>
      </trkpt>
      <trkpt lat="46.353005887940526" lon="7.15308029204607">
        <ele>1166.22</ele>
        <time>2012-06-16T08:42:19Z</time>
      </trkpt>
      <trkpt lat="46.35301636531949" lon="7.152996389195323">
        <ele>1165.74</ele>
        <time>2012-06-16T08:42:20Z</time>
      </trkpt>
      <trkpt lat="46.353031452745199" lon="7.152912234887481">
        <ele>1165.26</ele>
        <time>2012-06-16T08:42:21Z</time>
      </trkpt>
      <trkpt lat="46.353039499372244" lon="7.15283059515059">
        <ele>1165.26</ele>
        <time>2012-06-16T08:42:22Z</time>
      </trkpt>
      <trkpt lat="46.353029441088438" lon="7.1527558285743">
        <ele>1165.26</ele>
        <time>2012-06-16T08:42:23Z</time>
      </trkpt>
      <trkpt lat="46.353003373369575" lon="7.152699921280146">
        <ele>1164.77</ele>
        <time>2012-06-16T08:42:24Z</time>
      </trkpt>
      <trkpt lat="46.352969678118825" lon="7.15266639366746">
        <ele>1164.77</ele>
        <time>2012-06-16T08:42:25Z</time>
      </trkpt>
      <trkpt lat="46.352936150506139" lon="7.152646025642753">
        <ele>1164.29</ele>
        <time>2012-06-16T08:42:26Z</time>
      </trkpt>
      <trkpt lat="46.35289273224771" lon="7.152607217431068">
        <ele>1164.29</ele>
        <time>2012-06-16T08:42:28Z</time>
      </trkpt>
      <trkpt lat="46.352808745577931" lon="7.152473526075482">
        <ele>1164.29</ele>
        <time>2012-06-16T08:42:32Z</time>
      </trkpt>
      <trkpt lat="46.352764908224344" lon="7.152457684278488">
        <ele>1163.8099999999999</ele>
        <time>2012-06-16T08:42:33Z</time>
      </trkpt>
      <trkpt lat="46.35271436534822" lon="7.152466736733913">
        <ele>1163.3299999999999</ele>
        <time>2012-06-16T08:42:34Z</time>
      </trkpt>
      <trkpt lat="46.352664660662413" lon="7.152491798624396">
        <ele>1163.3299999999999</ele>
        <time>2012-06-16T08:42:35Z</time>
      </trkpt>
      <trkpt lat="46.352615207433701" lon="7.152525745332241">
        <ele>1162.8499999999999</ele>
        <time>2012-06-16T08:42:36Z</time>
      </trkpt>
      <trkpt lat="46.352564329281449" lon="7.152566313743591">
        <ele>1162.3699999999999</ele>
        <time>2012-06-16T08:42:37Z</time>
      </trkpt>
      <trkpt lat="46.35213534347713" lon="7.152967052534223">
        <ele>1160.9300000000001</ele>
        <time>2012-06-16T08:42:45Z</time>
      </trkpt>
      <trkpt lat="46.351640224456787" lon="7.154140183702111">
        <ele>1160.9300000000001</ele>
        <time>2012-06-16T08:43:02Z</time>
      </trkpt>
      <trkpt lat="46.351619102060795" lon="7.154194079339504">
        <ele>1160.9300000000001</ele>
        <time>2012-06-16T08:43:03Z</time>
      </trkpt>
      <trkpt lat="46.351196989417076" lon="7.15526201762259">
        <ele>1162.3699999999999</ele>
        <time>2012-06-16T08:43:22Z</time>
      </trkpt>
      <trkpt lat="46.350827515125275" lon="7.155854199081659">
        <ele>1161.8900000000001</ele>
        <time>2012-06-16T08:43:34Z</time>
      </trkpt>
      <trkpt lat="46.350747551769018" lon="7.155905496329069">
        <ele>1161.8900000000001</ele>
        <time>2012-06-16T08:43:36Z</time>
      </trkpt>
      <trkpt lat="46.350705726072192" lon="7.155891414731741">
        <ele>1161.8900000000001</ele>
        <time>2012-06-16T08:43:37Z</time>
      </trkpt>
      <trkpt lat="46.350667923688889" lon="7.155856126919389">
        <ele>1161.8900000000001</ele>
        <time>2012-06-16T08:43:38Z</time>
      </trkpt>
      <trkpt lat="46.350572956725955" lon="7.155732326209545">
        <ele>1162.3699999999999</ele>
        <time>2012-06-16T08:43:41Z</time>
      </trkpt>
      <trkpt lat="46.350544625893235" lon="7.155694188550115">
        <ele>1162.3699999999999</ele>
        <time>2012-06-16T08:43:42Z</time>
      </trkpt>
      <trkpt lat="46.350512271746993" lon="7.155656050890684">
        <ele>1162.8499999999999</ele>
        <time>2012-06-16T08:43:43Z</time>
      </trkpt>
      <trkpt lat="46.350475307554007" lon="7.155625205487013">
        <ele>1162.3699999999999</ele>
        <time>2012-06-16T08:43:44Z</time>
      </trkpt>
      <trkpt lat="46.350435996428132" lon="7.155608609318733">
        <ele>1162.3699999999999</ele>
        <time>2012-06-16T08:43:45Z</time>
      </trkpt>
      <trkpt lat="46.350392997264862" lon="7.155602406710386">
        <ele>1162.3699999999999</ele>
        <time>2012-06-16T08:43:46Z</time>
      </trkpt>
      <trkpt lat="46.350346729159355" lon="7.155608106404543">
        <ele>1162.3699999999999</ele>
        <time>2012-06-16T08:43:47Z</time>
      </trkpt>
      <trkpt lat="46.350299455225468" lon="7.155624115839601">
        <ele>1162.3699999999999</ele>
        <time>2012-06-16T08:43:48Z</time>
      </trkpt>
      <trkpt lat="46.350248828530312" lon="7.155640125274658">
        <ele>1162.8499999999999</ele>
        <time>2012-06-16T08:43:49Z</time>
      </trkpt>
      <trkpt lat="46.350145228207111" lon="7.155659236013889">
        <ele>1162.8499999999999</ele>
        <time>2012-06-16T08:43:51Z</time>
      </trkpt>
      <trkpt lat="46.350094182416797" lon="7.155658481642604">
        <ele>1162.8499999999999</ele>
        <time>2012-06-16T08:43:52Z</time>
      </trkpt>
      <trkpt lat="46.349857309833169" lon="7.155596371740103">
        <ele>1162.8499999999999</ele>
        <time>2012-06-16T08:43:57Z</time>
      </trkpt>
      <trkpt lat="46.349812299013138" lon="7.155572902411223">
        <ele>1163.3299999999999</ele>
        <time>2012-06-16T08:43:58Z</time>
      </trkpt>
      <trkpt lat="46.349765527993441" lon="7.155558988451958">
        <ele>1163.3299999999999</ele>
        <time>2012-06-16T08:43:59Z</time>
      </trkpt>
      <trkpt lat="46.349581545218825" lon="7.155508697032929">
        <ele>1163.3299999999999</ele>
        <time>2012-06-16T08:44:03Z</time>
      </trkpt>
      <trkpt lat="46.349537121132016" lon="7.155484389513731">
        <ele>1163.8099999999999</ele>
        <time>2012-06-16T08:44:04Z</time>
      </trkpt>
      <trkpt lat="46.349499402567744" lon="7.155442396178842">
        <ele>1163.8099999999999</ele>
        <time>2012-06-16T08:44:05Z</time>
      </trkpt>
      <trkpt lat="46.349474089220166" lon="7.155382130295038">
        <ele>1163.8099999999999</ele>
        <time>2012-06-16T08:44:06Z</time>
      </trkpt>
      <trkpt lat="46.349451960995793" lon="7.15531867928803">
        <ele>1163.8099999999999</ele>
        <time>2012-06-16T08:44:07Z</time>
      </trkpt>
      <trkpt lat="46.349427569657564" lon="7.155256317928433">
        <ele>1163.8099999999999</ele>
        <time>2012-06-16T08:44:08Z</time>
      </trkpt>
      <trkpt lat="46.349131856113672" lon="7.154539078474045">
        <ele>1164.77</ele>
        <time>2012-06-16T08:44:19Z</time>
      </trkpt>
      <trkpt lat="46.349088856950402" lon="7.154489122331142">
        <ele>1164.77</ele>
        <time>2012-06-16T08:44:20Z</time>
      </trkpt>
      <trkpt lat="46.349037978798151" lon="7.1544567681849">
        <ele>1164.77</ele>
        <time>2012-06-16T08:44:21Z</time>
      </trkpt>
      <trkpt lat="46.348983580246568" lon="7.154446626082063">
        <ele>1164.29</ele>
        <time>2012-06-16T08:44:22Z</time>
      </trkpt>
      <trkpt lat="46.348928594961762" lon="7.154451571404934">
        <ele>1164.29</ele>
        <time>2012-06-16T08:44:23Z</time>
      </trkpt>
      <trkpt lat="46.348875118419528" lon="7.154458025470376">
        <ele>1164.29</ele>
        <time>2012-06-16T08:44:24Z</time>
      </trkpt>
      <trkpt lat="46.348821893334389" lon="7.154462216421962">
        <ele>1164.29</ele>
        <time>2012-06-16T08:44:25Z</time>
      </trkpt>
      <trkpt lat="46.348771350458264" lon="7.15446850284934">
        <ele>1164.29</ele>
        <time>2012-06-16T08:44:26Z</time>
      </trkpt>
      <trkpt lat="46.348673868924379" lon="7.15447973459959">
        <ele>1164.29</ele>
        <time>2012-06-16T08:44:28Z</time>
      </trkpt>
      <trkpt lat="46.348627265542746" lon="7.154469341039658">
        <ele>1164.29</ele>
        <time>2012-06-16T08:44:29Z</time>
      </trkpt>
      <trkpt lat="46.34858401492238" lon="7.154446123167872">
        <ele>1164.29</ele>
        <time>2012-06-16T08:44:30Z</time>
      </trkpt>
      <trkpt lat="46.348497094586492" lon="7.154394490644336">
        <ele>1164.77</ele>
        <time>2012-06-16T08:44:32Z</time>
      </trkpt>
      <trkpt lat="46.348449904471636" lon="7.154395328834653">
        <ele>1164.77</ele>
        <time>2012-06-16T08:44:33Z</time>
      </trkpt>
      <trkpt lat="46.348405228927732" lon="7.154413098469377">
        <ele>1164.77</ele>
        <time>2012-06-16T08:44:34Z</time>
      </trkpt>
      <trkpt lat="46.348365331068635" lon="7.154442016035318">
        <ele>1164.77</ele>
        <time>2012-06-16T08:44:35Z</time>
      </trkpt>
      <trkpt lat="46.348328366875648" lon="7.154480908066034">
        <ele>1164.77</ele>
        <time>2012-06-16T08:44:36Z</time>
      </trkpt>
      <trkpt lat="46.348295425996184" lon="7.154528936371207">
        <ele>1164.77</ele>
        <time>2012-06-16T08:44:37Z</time>
      </trkpt>
      <trkpt lat="46.347887143492699" lon="7.155282972380519">
        <ele>1166.7</ele>
        <time>2012-06-16T08:44:51Z</time>
      </trkpt>
      <trkpt lat="46.347856046631932" lon="7.155333096161485">
        <ele>1166.7</ele>
        <time>2012-06-16T08:44:52Z</time>
      </trkpt>
      <trkpt lat="46.347499564290047" lon="7.155942963436246">
        <ele>1168.1400000000001</ele>
        <time>2012-06-16T08:45:04Z</time>
      </trkpt>
      <trkpt lat="46.347480621188879" lon="7.155996356159449">
        <ele>1168.1400000000001</ele>
        <time>2012-06-16T08:45:05Z</time>
      </trkpt>
      <trkpt lat="46.347469808533788" lon="7.156054442748427">
        <ele>1168.1400000000001</ele>
        <time>2012-06-16T08:45:06Z</time>
      </trkpt>
      <trkpt lat="46.347468132153153" lon="7.156116971746087">
        <ele>1168.1400000000001</ele>
        <time>2012-06-16T08:45:07Z</time>
      </trkpt>
      <trkpt lat="46.347477938979864" lon="7.156180506572127">
        <ele>1168.1400000000001</ele>
        <time>2012-06-16T08:45:08Z</time>
      </trkpt>
      <trkpt lat="46.347519597038627" lon="7.156306654214859">
        <ele>1168.1400000000001</ele>
        <time>2012-06-16T08:45:10Z</time>
      </trkpt>
      <trkpt lat="46.347845988348126" lon="7.156915012747049">
        <ele>1167.6600000000001</ele>
        <time>2012-06-16T08:45:20Z</time>
      </trkpt>
      <trkpt lat="46.347861243411899" lon="7.157215503975749">
        <ele>1167.1800000000001</ele>
        <time>2012-06-16T08:45:25Z</time>
      </trkpt>
      <trkpt lat="46.347830900922418" lon="7.157266214489937">
        <ele>1167.6600000000001</ele>
        <time>2012-06-16T08:45:26Z</time>
      </trkpt>
      <trkpt lat="46.347688240930438" lon="7.157533513382077">
        <ele>1167.6600000000001</ele>
        <time>2012-06-16T08:45:31Z</time>
      </trkpt>
      <trkpt lat="46.34750559926033" lon="7.157854121178389">
        <ele>1168.1400000000001</ele>
        <time>2012-06-16T08:45:37Z</time>
      </trkpt>
      <trkpt lat="46.346638239920139" lon="7.158074229955673">
        <ele>1172.47</ele>
        <time>2012-06-16T08:45:59Z</time>
      </trkpt>
      <trkpt lat="46.346602030098438" lon="7.158085042610765">
        <ele>1172.47</ele>
        <time>2012-06-16T08:46:00Z</time>
      </trkpt>
      <trkpt lat="46.346186036244035" lon="7.158518973737955">
        <ele>1173.4300000000001</ele>
        <time>2012-06-16T08:46:14Z</time>
      </trkpt>
      <trkpt lat="46.346069108694792" lon="7.158681750297546">
        <ele>1174.3900000000001</ele>
        <time>2012-06-16T08:46:18Z</time>
      </trkpt>
      <trkpt lat="46.346033737063408" lon="7.158709997311235">
        <ele>1174.3900000000001</ele>
        <time>2012-06-16T08:46:19Z</time>
      </trkpt>
      <trkpt lat="46.345371985808015" lon="7.158989449962974">
        <ele>1176.79</ele>
        <time>2012-06-16T08:46:37Z</time>
      </trkpt>
      <trkpt lat="46.344938222318888" lon="7.159433858469129">
        <ele>1178.71</ele>
        <time>2012-06-16T08:46:52Z</time>
      </trkpt>
      <trkpt lat="46.344817103818059" lon="7.160033751279116">
        <ele>1180.1600000000001</ele>
        <time>2012-06-16T08:47:03Z</time>
      </trkpt>
      <trkpt lat="46.344808973371983" lon="7.160095693543553">
        <ele>1180.1600000000001</ele>
        <time>2012-06-16T08:47:04Z</time>
      </trkpt>
      <trkpt lat="46.344536812976003" lon="7.161119794473052">
        <ele>1181.5999999999999</ele>
        <time>2012-06-16T08:47:19Z</time>
      </trkpt>
      <trkpt lat="46.344422567635775" lon="7.161351889371872">
        <ele>1181.5999999999999</ele>
        <time>2012-06-16T08:47:23Z</time>
      </trkpt>
      <trkpt lat="46.344388956204057" lon="7.161397403106093">
        <ele>1182.0799999999999</ele>
        <time>2012-06-16T08:47:24Z</time>
      </trkpt>
      <trkpt lat="46.344352411106229" lon="7.161433026194572">
        <ele>1182.0799999999999</ele>
        <time>2012-06-16T08:47:25Z</time>
      </trkpt>
      <trkpt lat="46.344275549054146" lon="7.161491783335805">
        <ele>1182.5599999999999</ele>
        <time>2012-06-16T08:47:27Z</time>
      </trkpt>
      <trkpt lat="46.344160884618759" lon="7.161569399759173">
        <ele>1183.04</ele>
        <time>2012-06-16T08:47:30Z</time>
      </trkpt>
      <trkpt lat="46.343899704515934" lon="7.161956978961825">
        <ele>1186.8800000000001</ele>
        <time>2012-06-16T08:47:40Z</time>
      </trkpt>
      <trkpt lat="46.343541294336319" lon="7.162005007266998">
        <ele>1189.29</ele>
        <time>2012-06-16T08:47:50Z</time>
      </trkpt>
      <trkpt lat="46.3433747459203" lon="7.161977682262659">
        <ele>1189.29</ele>
        <time>2012-06-16T08:47:54Z</time>
      </trkpt>
      <trkpt lat="46.34332780726254" lon="7.161986567080021">
        <ele>1189.77</ele>
        <time>2012-06-16T08:47:55Z</time>
      </trkpt>
      <trkpt lat="46.343232085928321" lon="7.16201389208436">
        <ele>1189.77</ele>
        <time>2012-06-16T08:47:57Z</time>
      </trkpt>
      <trkpt lat="46.343187242746353" lon="7.162035517394543">
        <ele>1189.77</ele>
        <time>2012-06-16T08:47:58Z</time>
      </trkpt>
      <trkpt lat="46.343143656849861" lon="7.162063512951136">
        <ele>1189.29</ele>
        <time>2012-06-16T08:47:59Z</time>
      </trkpt>
      <trkpt lat="46.342786084860563" lon="7.162359980866313">
        <ele>1189.29</ele>
        <time>2012-06-16T08:48:09Z</time>
      </trkpt>
      <trkpt lat="46.342751551419497" lon="7.162355035543442">
        <ele>1189.77</ele>
        <time>2012-06-16T08:48:10Z</time>
      </trkpt>
      <trkpt lat="46.342714754864573" lon="7.162342881783843">
        <ele>1189.77</ele>
        <time>2012-06-16T08:48:11Z</time>
      </trkpt>
      <trkpt lat="46.342675192281604" lon="7.162321927025914">
        <ele>1189.77</ele>
        <time>2012-06-16T08:48:12Z</time>
      </trkpt>
      <trkpt lat="46.342639066278934" lon="7.162296362221241">
        <ele>1189.77</ele>
        <time>2012-06-16T08:48:13Z</time>
      </trkpt>
      <trkpt lat="46.342604365199804" lon="7.162263505160809">
        <ele>1189.77</ele>
        <time>2012-06-16T08:48:14Z</time>
      </trkpt>
      <trkpt lat="46.342572681605816" lon="7.162227630615234">
        <ele>1190.25</ele>
        <time>2012-06-16T08:48:15Z</time>
      </trkpt>
      <trkpt lat="46.342442594468594" lon="7.162073319777846">
        <ele>1190.25</ele>
        <time>2012-06-16T08:48:19Z</time>
      </trkpt>
      <trkpt lat="46.342409150674939" lon="7.162043815478683">
        <ele>1190.73</ele>
        <time>2012-06-16T08:48:20Z</time>
      </trkpt>
      <trkpt lat="46.342374533414841" lon="7.162020849063993">
        <ele>1191.21</ele>
        <time>2012-06-16T08:48:21Z</time>
      </trkpt>
      <trkpt lat="46.342335306107998" lon="7.162004420533776">
        <ele>1191.21</ele>
        <time>2012-06-16T08:48:22Z</time>
      </trkpt>
      <trkpt lat="46.342294570058584" lon="7.162001989781857">
        <ele>1191.6900000000001</ele>
        <time>2012-06-16T08:48:23Z</time>
      </trkpt>
      <trkpt lat="46.342254420742393" lon="7.162008276209235">
        <ele>1191.6900000000001</ele>
        <time>2012-06-16T08:48:24Z</time>
      </trkpt>
      <trkpt lat="46.342214522883296" lon="7.162017747759819">
        <ele>1192.1700000000001</ele>
        <time>2012-06-16T08:48:25Z</time>
      </trkpt>
      <trkpt lat="46.341748405247927" lon="7.161893444135785">
        <ele>1194.5799999999999</ele>
        <time>2012-06-16T08:48:38Z</time>
      </trkpt>
      <trkpt lat="46.341236270964146" lon="7.161412909626961">
        <ele>1197.46</ele>
        <time>2012-06-16T08:48:55Z</time>
      </trkpt>
      <trkpt lat="46.340764034539461" lon="7.161330683156848">
        <ele>1201.79</ele>
        <time>2012-06-16T08:49:09Z</time>
      </trkpt>
      <trkpt lat="46.340225581079721" lon="7.161368317902088">
        <ele>1202.27</ele>
        <time>2012-06-16T08:49:24Z</time>
      </trkpt>
      <trkpt lat="46.339805647730827" lon="7.161438139155507">
        <ele>1202.75</ele>
        <time>2012-06-16T08:49:36Z</time>
      </trkpt>
      <trkpt lat="46.339400298893452" lon="7.161724967882037">
        <ele>1203.71</ele>
        <time>2012-06-16T08:49:46Z</time>
      </trkpt>
      <trkpt lat="46.339319078251719" lon="7.161795627325773">
        <ele>1204.1900000000001</ele>
        <time>2012-06-16T08:49:48Z</time>
      </trkpt>
      <trkpt lat="46.339273145422339" lon="7.161821443587542">
        <ele>1204.1900000000001</ele>
        <time>2012-06-16T08:49:49Z</time>
      </trkpt>
      <trkpt lat="46.339226374402642" lon="7.161846840754151">
        <ele>1204.1900000000001</ele>
        <time>2012-06-16T08:49:50Z</time>
      </trkpt>
      <trkpt lat="46.339183039963245" lon="7.161876261234283">
        <ele>1204.1900000000001</ele>
        <time>2012-06-16T08:49:51Z</time>
      </trkpt>
      <trkpt lat="46.338687166571617" lon="7.162016155198216">
        <ele>1201.79</ele>
        <time>2012-06-16T08:50:03Z</time>
      </trkpt>
      <trkpt lat="46.338284499943256" lon="7.161993272602558">
        <ele>1204.1900000000001</ele>
        <time>2012-06-16T08:50:15Z</time>
      </trkpt>
      <trkpt lat="46.337941009551287" lon="7.162003247067332">
        <ele>1206.5899999999999</ele>
        <time>2012-06-16T08:50:25Z</time>
      </trkpt>
      <trkpt lat="46.337882420048118" lon="7.162007689476013">
        <ele>1207.0699999999999</ele>
        <time>2012-06-16T08:50:27Z</time>
      </trkpt>
      <trkpt lat="46.33751118555665" lon="7.161997715011239">
        <ele>1209.48</ele>
        <time>2012-06-16T08:50:39Z</time>
      </trkpt>
      <trkpt lat="46.337118577212095" lon="7.162090502679348">
        <ele>1212.8399999999999</ele>
        <time>2012-06-16T08:50:52Z</time>
      </trkpt>
      <trkpt lat="46.336782043799758" lon="7.162279095500708">
        <ele>1214.28</ele>
        <time>2012-06-16T08:51:04Z</time>
      </trkpt>
      <trkpt lat="46.336440900340676" lon="7.162508005276322">
        <ele>1214.76</ele>
        <time>2012-06-16T08:51:16Z</time>
      </trkpt>
      <trkpt lat="46.336039574816823" lon="7.16268477961421">
        <ele>1218.1300000000001</ele>
        <time>2012-06-16T08:51:30Z</time>
      </trkpt>
      <trkpt lat="46.335686361417174" lon="7.162866080179811">
        <ele>1219.5699999999999</ele>
        <time>2012-06-16T08:51:43Z</time>
      </trkpt>
      <trkpt lat="46.335348905995488" lon="7.163088787347078">
        <ele>1220.05</ele>
        <time>2012-06-16T08:51:57Z</time>
      </trkpt>
      <trkpt lat="46.334950849413872" lon="7.163408976048231">
        <ele>1223.9000000000001</ele>
        <time>2012-06-16T08:52:14Z</time>
      </trkpt>
      <trkpt lat="46.33465513586998" lon="7.163471756502986">
        <ele>1225.8199999999999</ele>
        <time>2012-06-16T08:52:26Z</time>
      </trkpt>
      <trkpt lat="46.334394542500377" lon="7.163138492032886">
        <ele>1230.6199999999999</ele>
        <time>2012-06-16T08:52:39Z</time>
      </trkpt>
      <trkpt lat="46.334315584972501" lon="7.162672625854611">
        <ele>1232.55</ele>
        <time>2012-06-16T08:52:52Z</time>
      </trkpt>
      <trkpt lat="46.334485067054629" lon="7.162379343062639">
        <ele>1234.95</ele>
        <time>2012-06-16T08:53:06Z</time>
      </trkpt>
      <trkpt lat="46.33448121137917" lon="7.162380181252956">
        <ele>1239.76</ele>
        <time>2012-06-16T08:53:30Z</time>
      </trkpt>
      <trkpt lat="46.334484312683344" lon="7.162405662238598">
        <ele>1240.24</ele>
        <time>2012-06-16T08:53:54Z</time>
      </trkpt>
      <trkpt lat="46.334490682929754" lon="7.162293596193194">
        <ele>1238.8</ele>
        <time>2012-06-16T08:54:09Z</time>
      </trkpt>
      <trkpt lat="46.334427902474999" lon="7.161994529888034">
        <ele>1239.28</ele>
        <time>2012-06-16T08:54:20Z</time>
      </trkpt>
      <trkpt lat="46.334425890818238" lon="7.161672497168183">
        <ele>1238.8</ele>
        <time>2012-06-16T08:54:31Z</time>
      </trkpt>
      <trkpt lat="46.334498813375831" lon="7.161276787519455">
        <ele>1239.76</ele>
        <time>2012-06-16T08:54:44Z</time>
      </trkpt>
      <trkpt lat="46.334537202492356" lon="7.161089619621635">
        <ele>1242.1600000000001</ele>
        <time>2012-06-16T08:54:50Z</time>
      </trkpt>
      <trkpt lat="46.334549272432923" lon="7.161060534417629">
        <ele>1242.6400000000001</ele>
        <time>2012-06-16T08:54:51Z</time>
      </trkpt>
      <trkpt lat="46.334625966846943" lon="7.160887448117137">
        <ele>1242.6400000000001</ele>
        <time>2012-06-16T08:54:57Z</time>
      </trkpt>
      <trkpt lat="46.334644490852952" lon="7.160863559693098">
        <ele>1242.1600000000001</ele>
        <time>2012-06-16T08:54:58Z</time>
      </trkpt>
      <trkpt lat="46.334796035662293" lon="7.160536916926503">
        <ele>1237.8299999999999</ele>
        <time>2012-06-16T08:55:10Z</time>
      </trkpt>
      <trkpt lat="46.334994351491332" lon="7.160273054614663">
        <ele>1233.51</ele>
        <time>2012-06-16T08:55:23Z</time>
      </trkpt>
      <trkpt lat="46.335129048675299" lon="7.16000022366643">
        <ele>1236.3900000000001</ele>
        <time>2012-06-16T08:55:36Z</time>
      </trkpt>
      <trkpt lat="46.335115386173129" lon="7.159982370212674">
        <ele>1236.8699999999999</ele>
        <time>2012-06-16T08:55:37Z</time>
      </trkpt>
      <trkpt lat="46.334901982918382" lon="7.160024447366595">
        <ele>1244.5599999999999</ele>
        <time>2012-06-16T08:55:50Z</time>
      </trkpt>
      <trkpt lat="46.334839956834912" lon="7.160080187022686">
        <ele>1246.49</ele>
        <time>2012-06-16T08:55:54Z</time>
      </trkpt>
      <trkpt lat="46.334824115037918" lon="7.160088904201984">
        <ele>1246.49</ele>
        <time>2012-06-16T08:55:55Z</time>
      </trkpt>
      <trkpt lat="46.334807770326734" lon="7.160102147608995">
        <ele>1246.49</ele>
        <time>2012-06-16T08:55:56Z</time>
      </trkpt>
      <trkpt lat="46.334792599081993" lon="7.160113714635372">
        <ele>1246.97</ele>
        <time>2012-06-16T08:55:57Z</time>
      </trkpt>
      <trkpt lat="46.334776589646935" lon="7.160120671615005">
        <ele>1246.97</ele>
        <time>2012-06-16T08:55:58Z</time>
      </trkpt>
      <trkpt lat="46.334759406745434" lon="7.160125784575939">
        <ele>1246.97</ele>
        <time>2012-06-16T08:55:59Z</time>
      </trkpt>
      <trkpt lat="46.334464950487018" lon="7.160373302176595">
        <ele>1256.0999999999999</ele>
        <time>2012-06-16T08:56:16Z</time>
      </trkpt>
      <trkpt lat="46.334250876680017" lon="7.160639595240355">
        <ele>1263.79</ele>
        <time>2012-06-16T08:56:30Z</time>
      </trkpt>
      <trkpt lat="46.334008555859327" lon="7.160871857777238">
        <ele>1269.0799999999999</ele>
        <time>2012-06-16T08:56:46Z</time>
      </trkpt>
      <trkpt lat="46.333859357982874" lon="7.161118788644671">
        <ele>1275.3299999999999</ele>
        <time>2012-06-16T08:56:58Z</time>
      </trkpt>
      <trkpt lat="46.333623826503754" lon="7.161371503025293">
        <ele>1279.1700000000001</ele>
        <time>2012-06-16T08:57:13Z</time>
      </trkpt>
      <trkpt lat="46.333419810980558" lon="7.161657074466348">
        <ele>1283.5</ele>
        <time>2012-06-16T08:57:28Z</time>
      </trkpt>
      <trkpt lat="46.333293998613954" lon="7.161811552941799">
        <ele>1285.4200000000001</ele>
        <time>2012-06-16T08:57:37Z</time>
      </trkpt>
      <trkpt lat="46.333286119624972" lon="7.161834854632616">
        <ele>1285.4200000000001</ele>
        <time>2012-06-16T08:57:38Z</time>
      </trkpt>
      <trkpt lat="46.333278156816959" lon="7.161859245970845">
        <ele>1285.9000000000001</ele>
        <time>2012-06-16T08:57:39Z</time>
      </trkpt>
      <trkpt lat="46.33326550014317" lon="7.161881374195218">
        <ele>1285.9000000000001</ele>
        <time>2012-06-16T08:57:40Z</time>
      </trkpt>
      <trkpt lat="46.333254519850016" lon="7.16190442442894">
        <ele>1286.3800000000001</ele>
        <time>2012-06-16T08:57:41Z</time>
      </trkpt>
      <trkpt lat="46.333241024985909" lon="7.161925127729774">
        <ele>1286.3800000000001</ele>
        <time>2012-06-16T08:57:42Z</time>
      </trkpt>
      <trkpt lat="46.333225853741169" lon="7.161941807717085">
        <ele>1286.3800000000001</ele>
        <time>2012-06-16T08:57:43Z</time>
      </trkpt>
      <trkpt lat="46.333211436867714" lon="7.161955134943128">
        <ele>1286.3800000000001</ele>
        <time>2012-06-16T08:57:44Z</time>
      </trkpt>
      <trkpt lat="46.333196014165878" lon="7.161969216540456">
        <ele>1286.3800000000001</ele>
        <time>2012-06-16T08:57:45Z</time>
      </trkpt>
      <trkpt lat="46.332947826012969" lon="7.162063345313072">
        <ele>1287.3399999999999</ele>
        <time>2012-06-16T08:58:00Z</time>
      </trkpt>
      <trkpt lat="46.332715144380927" lon="7.162085389718413">
        <ele>1287.8199999999999</ele>
        <time>2012-06-16T08:58:15Z</time>
      </trkpt>
      <trkpt lat="46.33270651102066" lon="7.162067284807563">
        <ele>1287.8199999999999</ele>
        <time>2012-06-16T08:58:16Z</time>
      </trkpt>
      <trkpt lat="46.332704247906804" lon="7.162047168239951">
        <ele>1287.8199999999999</ele>
        <time>2012-06-16T08:58:17Z</time>
      </trkpt>
      <trkpt lat="46.332707852125168" lon="7.162025207653642">
        <ele>1287.8199999999999</ele>
        <time>2012-06-16T08:58:18Z</time>
      </trkpt>
      <trkpt lat="46.332714725285769" lon="7.162001486867666">
        <ele>1288.3</ele>
        <time>2012-06-16T08:58:19Z</time>
      </trkpt>
      <trkpt lat="46.332721263170242" lon="7.161980029195547">
        <ele>1288.3</ele>
        <time>2012-06-16T08:58:20Z</time>
      </trkpt>
      <trkpt lat="46.332731321454048" lon="7.161965947598219">
        <ele>1288.3</ele>
        <time>2012-06-16T08:58:21Z</time>
      </trkpt>
      <trkpt lat="46.332745319232345" lon="7.16195572167635">
        <ele>1288.3</ele>
        <time>2012-06-16T08:58:22Z</time>
      </trkpt>
      <trkpt lat="46.332761580124497" lon="7.161948261782527">
        <ele>1288.3</ele>
        <time>2012-06-16T08:58:23Z</time>
      </trkpt>
      <trkpt lat="46.332777589559555" lon="7.161940047517419">
        <ele>1288.3</ele>
        <time>2012-06-16T08:58:24Z</time>
      </trkpt>
      <trkpt lat="46.332982024177909" lon="7.161767883226275">
        <ele>1290.71</ele>
        <time>2012-06-16T08:58:38Z</time>
      </trkpt>
      <trkpt lat="46.333161145448685" lon="7.161397989839315">
        <ele>1295.51</ele>
        <time>2012-06-16T08:58:57Z</time>
      </trkpt>
      <trkpt lat="46.333258794620633" lon="7.161070425063372">
        <ele>1296.48</ele>
        <time>2012-06-16T08:59:13Z</time>
      </trkpt>
      <trkpt lat="46.333329789340496" lon="7.16072098352015">
        <ele>1297.9200000000001</ele>
        <time>2012-06-16T08:59:28Z</time>
      </trkpt>
      <trkpt lat="46.333470018580556" lon="7.160422001034021">
        <ele>1297.4400000000001</ele>
        <time>2012-06-16T08:59:42Z</time>
      </trkpt>
      <trkpt lat="46.333649391308427" lon="7.160219075158238">
        <ele>1299.8399999999999</ele>
        <time>2012-06-16T08:59:55Z</time>
      </trkpt>
      <trkpt lat="46.333666741847992" lon="7.160207256674767">
        <ele>1300.3199999999999</ele>
        <time>2012-06-16T08:59:56Z</time>
      </trkpt>
      <trkpt lat="46.333818957209587" lon="7.159994943067431">
        <ele>1304.1700000000001</ele>
        <time>2012-06-16T09:00:09Z</time>
      </trkpt>
      <trkpt lat="46.333957510069013" lon="7.159719346091151">
        <ele>1307.53</ele>
        <time>2012-06-16T09:00:25Z</time>
      </trkpt>
      <trkpt lat="46.334007885307074" lon="7.159608202055097">
        <ele>1308.49</ele>
        <time>2012-06-16T09:00:31Z</time>
      </trkpt>
      <trkpt lat="46.33401844650507" lon="7.159592444077134">
        <ele>1308.97</ele>
        <time>2012-06-16T09:00:32Z</time>
      </trkpt>
      <trkpt lat="46.334028923884034" lon="7.159575764089823">
        <ele>1309.45</ele>
        <time>2012-06-16T09:00:33Z</time>
      </trkpt>
      <trkpt lat="46.334039736539125" lon="7.159559335559607">
        <ele>1309.45</ele>
        <time>2012-06-16T09:00:34Z</time>
      </trkpt>
      <trkpt lat="46.334049375727773" lon="7.159542655572295">
        <ele>1309.45</ele>
        <time>2012-06-16T09:00:35Z</time>
      </trkpt>
      <trkpt lat="46.334057254716754" lon="7.159524550661445">
        <ele>1309.45</ele>
        <time>2012-06-16T09:00:36Z</time>
      </trkpt>
      <trkpt lat="46.334068235009909" lon="7.159506697207689">
        <ele>1309.45</ele>
        <time>2012-06-16T09:00:37Z</time>
      </trkpt>
      <trkpt lat="46.334203938022256" lon="7.159283822402358">
        <ele>1315.7</ele>
        <time>2012-06-16T09:00:51Z</time>
      </trkpt>
      <trkpt lat="46.334212822839618" lon="7.159266471862793">
        <ele>1315.7</ele>
        <time>2012-06-16T09:00:52Z</time>
      </trkpt>
      <trkpt lat="46.334222294390202" lon="7.159250797703862">
        <ele>1316.1800000000001</ele>
        <time>2012-06-16T09:00:53Z</time>
      </trkpt>
      <trkpt lat="46.334229838103056" lon="7.159232692793012">
        <ele>1317.1400000000001</ele>
        <time>2012-06-16T09:00:54Z</time>
      </trkpt>
      <trkpt lat="46.334236292168498" lon="7.159215845167637">
        <ele>1317.6199999999999</ele>
        <time>2012-06-16T09:00:55Z</time>
      </trkpt>
      <trkpt lat="46.334240734577179" lon="7.159196734428406">
        <ele>1318.0999999999999</ele>
        <time>2012-06-16T09:00:56Z</time>
      </trkpt>
      <trkpt lat="46.334244841709733" lon="7.159176450222731">
        <ele>1318.0999999999999</ele>
        <time>2012-06-16T09:00:57Z</time>
      </trkpt>
      <trkpt lat="46.334251714870334" lon="7.159158177673817">
        <ele>1318.0999999999999</ele>
        <time>2012-06-16T09:00:58Z</time>
      </trkpt>
      <trkpt lat="46.334256995469332" lon="7.159137642011046">
        <ele>1318.5899999999999</ele>
        <time>2012-06-16T09:00:59Z</time>
      </trkpt>
      <trkpt lat="46.334262024611235" lon="7.159117190167308">
        <ele>1319.0699999999999</ele>
        <time>2012-06-16T09:01:00Z</time>
      </trkpt>
      <trkpt lat="46.334327906370163" lon="7.158793397247791">
        <ele>1319.55</ele>
        <time>2012-06-16T09:01:16Z</time>
      </trkpt>
      <trkpt lat="46.334417592734098" lon="7.158402968198061">
        <ele>1321.47</ele>
        <time>2012-06-16T09:01:35Z</time>
      </trkpt>
      <trkpt lat="46.334542147815228" lon="7.158113541081548">
        <ele>1325.3099999999999</ele>
        <time>2012-06-16T09:01:51Z</time>
      </trkpt>
      <trkpt lat="46.334593277424574" lon="7.157820677384734">
        <ele>1327.24</ele>
        <time>2012-06-16T09:02:06Z</time>
      </trkpt>
      <trkpt lat="46.334653543308377" lon="7.157718166708946">
        <ele>1326.76</ele>
        <time>2012-06-16T09:02:14Z</time>
      </trkpt>
      <trkpt lat="46.33483937010169" lon="7.157654799520969">
        <ele>1326.76</ele>
        <time>2012-06-16T09:02:29Z</time>
      </trkpt>
      <trkpt lat="46.334951100870967" lon="7.157552372664213">
        <ele>1329.6400000000001</ele>
        <time>2012-06-16T09:02:36Z</time>
      </trkpt>
      <trkpt lat="46.335072973743081" lon="7.157341400161386">
        <ele>1336.3699999999999</ele>
        <time>2012-06-16T09:02:50Z</time>
      </trkpt>
      <trkpt lat="46.335181519389153" lon="7.157063288614154">
        <ele>1338.29</ele>
        <time>2012-06-16T09:03:04Z</time>
      </trkpt>
      <trkpt lat="46.33520289324224" lon="7.157030766829848">
        <ele>1338.77</ele>
        <time>2012-06-16T09:03:06Z</time>
      </trkpt>
      <trkpt lat="46.335215885192156" lon="7.157016517594457">
        <ele>1339.25</ele>
        <time>2012-06-16T09:03:07Z</time>
      </trkpt>
      <trkpt lat="46.335225105285645" lon="7.156995311379433">
        <ele>1338.77</ele>
        <time>2012-06-16T09:03:08Z</time>
      </trkpt>
      <trkpt lat="46.335231475532055" lon="7.156972344964743">
        <ele>1339.25</ele>
        <time>2012-06-16T09:03:09Z</time>
      </trkpt>
      <trkpt lat="46.335240947082639" lon="7.156955245882273">
        <ele>1339.25</ele>
        <time>2012-06-16T09:03:10Z</time>
      </trkpt>
      <trkpt lat="46.33524932898581" lon="7.156938565894961">
        <ele>1339.25</ele>
        <time>2012-06-16T09:03:11Z</time>
      </trkpt>
      <trkpt lat="46.335315462201834" lon="7.156847789883614">
        <ele>1340.7</ele>
        <time>2012-06-16T09:03:17Z</time>
      </trkpt>
      <trkpt lat="46.335326107218862" lon="7.156833121553063">
        <ele>1340.7</ele>
        <time>2012-06-16T09:03:18Z</time>
      </trkpt>
      <trkpt lat="46.335523836314678" lon="7.156700100749731">
        <ele>1344.0599999999999</ele>
        <time>2012-06-16T09:03:33Z</time>
      </trkpt>
      <trkpt lat="46.33561528287828" lon="7.156524583697319">
        <ele>1346.46</ele>
        <time>2012-06-16T09:03:44Z</time>
      </trkpt>
      <trkpt lat="46.3356211502105" lon="7.156504970043898">
        <ele>1346.46</ele>
        <time>2012-06-16T09:03:45Z</time>
      </trkpt>
      <trkpt lat="46.335627185180783" lon="7.156485943123698">
        <ele>1346.46</ele>
        <time>2012-06-16T09:03:46Z</time>
      </trkpt>
      <trkpt lat="46.335631543770432" lon="7.156468844041228">
        <ele>1346.46</ele>
        <time>2012-06-16T09:03:47Z</time>
      </trkpt>
      <trkpt lat="46.335638165473938" lon="7.156448727473617">
        <ele>1346.46</ele>
        <time>2012-06-16T09:03:48Z</time>
      </trkpt>
      <trkpt lat="46.335662556812167" lon="7.15638536028564">
        <ele>1346.9400000000001</ele>
        <time>2012-06-16T09:03:51Z</time>
      </trkpt>
      <trkpt lat="46.335708992555737" lon="7.1561024710536">
        <ele>1349.8299999999999</ele>
        <time>2012-06-16T09:04:05Z</time>
      </trkpt>
      <trkpt lat="46.335708908736706" lon="7.156084449961782">
        <ele>1350.3099999999999</ele>
        <time>2012-06-16T09:04:06Z</time>
      </trkpt>
      <trkpt lat="46.335678985342383" lon="7.155982442200184">
        <ele>1351.27</ele>
        <time>2012-06-16T09:04:13Z</time>
      </trkpt>
      <trkpt lat="46.335674040019512" lon="7.155965762212873">
        <ele>1351.27</ele>
        <time>2012-06-16T09:04:14Z</time>
      </trkpt>
      <trkpt lat="46.335668005049229" lon="7.155948327854276">
        <ele>1351.27</ele>
        <time>2012-06-16T09:04:15Z</time>
      </trkpt>
      <trkpt lat="46.335543366149068" lon="7.155538285151124">
        <ele>1354.1500000000001</ele>
        <time>2012-06-16T09:04:32Z</time>
      </trkpt>
      <trkpt lat="46.335443118587136" lon="7.155227903276682">
        <ele>1356.5599999999999</ele>
        <time>2012-06-16T09:04:47Z</time>
      </trkpt>
      <trkpt lat="46.335316803306341" lon="7.154924143105745">
        <ele>1359.4400000000001</ele>
        <time>2012-06-16T09:05:02Z</time>
      </trkpt>
      <trkpt lat="46.335304733365774" lon="7.154905702918768">
        <ele>1359.9200000000001</ele>
        <time>2012-06-16T09:05:03Z</time>
      </trkpt>
      <trkpt lat="46.335296267643571" lon="7.154886005446315">
        <ele>1359.9200000000001</ele>
        <time>2012-06-16T09:05:04Z</time>
      </trkpt>
      <trkpt lat="46.335120415315032" lon="7.154631530866027">
        <ele>1366.1700000000001</ele>
        <time>2012-06-16T09:05:20Z</time>
      </trkpt>
      <trkpt lat="46.335086636245251" lon="7.154589453712106">
        <ele>1367.1300000000001</ele>
        <time>2012-06-16T09:05:23Z</time>
      </trkpt>
      <trkpt lat="46.335073560476303" lon="7.154578724876046">
        <ele>1367.6099999999999</ele>
        <time>2012-06-16T09:05:24Z</time>
      </trkpt>
      <trkpt lat="46.335059059783816" lon="7.154562966898084">
        <ele>1368.0899999999999</ele>
        <time>2012-06-16T09:05:25Z</time>
      </trkpt>
      <trkpt lat="46.335046151652932" lon="7.154545616358519">
        <ele>1368.0899999999999</ele>
        <time>2012-06-16T09:05:26Z</time>
      </trkpt>
      <trkpt lat="46.335034165531397" lon="7.154531283304095">
        <ele>1368.5699999999999</ele>
        <time>2012-06-16T09:05:27Z</time>
      </trkpt>
      <trkpt lat="46.334889326244593" lon="7.154268343001604">
        <ele>1373.3800000000001</ele>
        <time>2012-06-16T09:05:41Z</time>
      </trkpt>
      <trkpt lat="46.334739290177822" lon="7.154068602249026">
        <ele>1379.6300000000001</ele>
        <time>2012-06-16T09:05:52Z</time>
      </trkpt>
      <trkpt lat="46.334727220237255" lon="7.154050581157208">
        <ele>1380.1099999999999</ele>
        <time>2012-06-16T09:05:53Z</time>
      </trkpt>
      <trkpt lat="46.334516666829586" lon="7.153837932273746">
        <ele>1386.3599999999999</ele>
        <time>2012-06-16T09:06:08Z</time>
      </trkpt>
      <trkpt lat="46.334501160308719" lon="7.153825527057052">
        <ele>1386.8399999999999</ele>
        <time>2012-06-16T09:06:09Z</time>
      </trkpt>
      <trkpt lat="46.334485905244946" lon="7.153812954202294">
        <ele>1387.3199999999999</ele>
        <time>2012-06-16T09:06:10Z</time>
      </trkpt>
      <trkpt lat="46.334473583847284" lon="7.153796777129173">
        <ele>1387.8</ele>
        <time>2012-06-16T09:06:11Z</time>
      </trkpt>
      <trkpt lat="46.334454976022243" lon="7.15378881432116">
        <ele>1387.8</ele>
        <time>2012-06-16T09:06:12Z</time>
      </trkpt>
      <trkpt lat="46.334300497546792" lon="7.153574405238032">
        <ele>1395.01</ele>
        <time>2012-06-16T09:06:26Z</time>
      </trkpt>
      <trkpt lat="46.334137888625264" lon="7.153235021978617">
        <ele>1400.78</ele>
        <time>2012-06-16T09:06:42Z</time>
      </trkpt>
      <trkpt lat="46.334053063765168" lon="7.15308515354991">
        <ele>1403.6600000000001</ele>
        <time>2012-06-16T09:06:50Z</time>
      </trkpt>
      <trkpt lat="46.33404241874814" lon="7.153067467734218">
        <ele>1404.6199999999999</ele>
        <time>2012-06-16T09:06:51Z</time>
      </trkpt>
      <trkpt lat="46.33403118699789" lon="7.153048943728209">
        <ele>1405.0999999999999</ele>
        <time>2012-06-16T09:06:52Z</time>
      </trkpt>
      <trkpt lat="46.333784004673362" lon="7.152819950133562">
        <ele>1405.0999999999999</ele>
        <time>2012-06-16T09:07:10Z</time>
      </trkpt>
      <trkpt lat="46.333529613912106" lon="7.152734873816371">
        <ele>1403.6600000000001</ele>
        <time>2012-06-16T09:07:26Z</time>
      </trkpt>
      <trkpt lat="46.333289640024304" lon="7.152616353705525">
        <ele>1404.6199999999999</ele>
        <time>2012-06-16T09:07:41Z</time>
      </trkpt>
      <trkpt lat="46.333120660856366" lon="7.152267415076494">
        <ele>1406.0699999999999</ele>
        <time>2012-06-16T09:07:56Z</time>
      </trkpt>
      <trkpt lat="46.332902396097779" lon="7.152067422866821">
        <ele>1404.6199999999999</ele>
        <time>2012-06-16T09:08:10Z</time>
      </trkpt>
      <trkpt lat="46.33266887627542" lon="7.151878494769335">
        <ele>1408.95</ele>
        <time>2012-06-16T09:08:25Z</time>
      </trkpt>
      <trkpt lat="46.332546835765243" lon="7.151800375431776">
        <ele>1412.79</ele>
        <time>2012-06-16T09:08:33Z</time>
      </trkpt>
      <trkpt lat="46.332529652863741" lon="7.151802973821759">
        <ele>1413.28</ele>
        <time>2012-06-16T09:08:34Z</time>
      </trkpt>
      <trkpt lat="46.33251297287643" lon="7.151802219450474">
        <ele>1413.76</ele>
        <time>2012-06-16T09:08:35Z</time>
      </trkpt>
      <trkpt lat="46.332496209070086" lon="7.151802806183696">
        <ele>1414.24</ele>
        <time>2012-06-16T09:08:36Z</time>
      </trkpt>
      <trkpt lat="46.332483217120171" lon="7.151806158944964">
        <ele>1414.72</ele>
        <time>2012-06-16T09:08:37Z</time>
      </trkpt>
      <trkpt lat="46.33246854878962" lon="7.151813954114914">
        <ele>1415.2</ele>
        <time>2012-06-16T09:08:38Z</time>
      </trkpt>
      <trkpt lat="46.33245287463069" lon="7.1518250182271">
        <ele>1415.6800000000001</ele>
        <time>2012-06-16T09:08:39Z</time>
      </trkpt>
      <trkpt lat="46.332199741154909" lon="7.151878578588367">
        <ele>1419.52</ele>
        <time>2012-06-16T09:08:54Z</time>
      </trkpt>
      <trkpt lat="46.33218364790082" lon="7.15186751447618">
        <ele>1420</ele>
        <time>2012-06-16T09:08:55Z</time>
      </trkpt>
      <trkpt lat="46.332168476656079" lon="7.151856031268835">
        <ele>1420</ele>
        <time>2012-06-16T09:08:56Z</time>
      </trkpt>
      <trkpt lat="46.331906709820032" lon="7.151806326583028">
        <ele>1423.8499999999999</ele>
        <time>2012-06-16T09:09:12Z</time>
      </trkpt>
      <trkpt lat="46.331646451726556" lon="7.151641622185707">
        <ele>1431.0599999999999</ele>
        <time>2012-06-16T09:09:28Z</time>
      </trkpt>
      <trkpt lat="46.33147026412189" lon="7.151452107354999">
        <ele>1434.9100000000001</ele>
        <time>2012-06-16T09:09:40Z</time>
      </trkpt>
      <trkpt lat="46.331305140629411" lon="7.151133343577385">
        <ele>1441.1500000000001</ele>
        <time>2012-06-16T09:09:55Z</time>
      </trkpt>
      <trkpt lat="46.331112440675497" lon="7.15077443048358">
        <ele>1443.0799999999999</ele>
        <time>2012-06-16T09:10:11Z</time>
      </trkpt>
      <trkpt lat="46.330936755985022" lon="7.150530349463224">
        <ele>1443.0799999999999</ele>
        <time>2012-06-16T09:10:23Z</time>
      </trkpt>
      <trkpt lat="46.33065227419138" lon="7.150209322571755">
        <ele>1442.5999999999999</ele>
        <time>2012-06-16T09:10:38Z</time>
      </trkpt>
      <trkpt lat="46.330480109900236" lon="7.149924337863922">
        <ele>1445.96</ele>
        <time>2012-06-16T09:10:49Z</time>
      </trkpt>
      <trkpt lat="46.330224629491568" lon="7.149628372862935">
        <ele>1448.3599999999999</ele>
        <time>2012-06-16T09:11:03Z</time>
      </trkpt>
      <trkpt lat="46.329934196546674" lon="7.149464087560773">
        <ele>1450.29</ele>
        <time>2012-06-16T09:11:17Z</time>
      </trkpt>
      <trkpt lat="46.329864375293255" lon="7.149444054812193">
        <ele>1450.29</ele>
        <time>2012-06-16T09:11:20Z</time>
      </trkpt>
      <trkpt lat="46.329841995611787" lon="7.149430308490992">
        <ele>1450.29</ele>
        <time>2012-06-16T09:11:21Z</time>
      </trkpt>
      <trkpt lat="46.329820035025477" lon="7.149421172216535">
        <ele>1450.29</ele>
        <time>2012-06-16T09:11:22Z</time>
      </trkpt>
      <trkpt lat="46.329799667000771" lon="7.149410108104348">
        <ele>1450.29</ele>
        <time>2012-06-16T09:11:23Z</time>
      </trkpt>
      <trkpt lat="46.329778376966715" lon="7.149397870525718">
        <ele>1450.77</ele>
        <time>2012-06-16T09:11:24Z</time>
      </trkpt>
      <trkpt lat="46.329502109438181" lon="7.14925529435277">
        <ele>1455.0899999999999</ele>
        <time>2012-06-16T09:11:37Z</time>
      </trkpt>
      <trkpt lat="46.32920790463686" lon="7.149175833910704">
        <ele>1458.9400000000001</ele>
        <time>2012-06-16T09:11:52Z</time>
      </trkpt>
      <trkpt lat="46.328939432278275" lon="7.149056559428573">
        <ele>1460.8599999999999</ele>
        <time>2012-06-16T09:12:06Z</time>
      </trkpt>
      <trkpt lat="46.328672887757421" lon="7.148927478119731">
        <ele>1463.74</ele>
        <time>2012-06-16T09:12:20Z</time>
      </trkpt>
      <trkpt lat="46.328417072072625" lon="7.148912725970149">
        <ele>1463.74</ele>
        <time>2012-06-16T09:12:31Z</time>
      </trkpt>
      <trkpt lat="46.32802689447999" lon="7.148809377104044">
        <ele>1462.78</ele>
        <time>2012-06-16T09:12:45Z</time>
      </trkpt>
      <trkpt lat="46.327610649168491" lon="7.148762438446283">
        <ele>1462.3</ele>
        <time>2012-06-16T09:12:58Z</time>
      </trkpt>
      <trkpt lat="46.327244192361832" lon="7.148613156750798">
        <ele>1463.26</ele>
        <time>2012-06-16T09:13:09Z</time>
      </trkpt>
      <trkpt lat="46.327217873185873" lon="7.148574264720082">
        <ele>1463.26</ele>
        <time>2012-06-16T09:13:10Z</time>
      </trkpt>
      <trkpt lat="46.327198930084705" lon="7.148525062948465">
        <ele>1463.26</ele>
        <time>2012-06-16T09:13:11Z</time>
      </trkpt>
      <trkpt lat="46.327009499073029" lon="7.148209735751152">
        <ele>1463.26</ele>
        <time>2012-06-16T09:13:19Z</time>
      </trkpt>
      <trkpt lat="46.326970104128122" lon="7.148196492344141">
        <ele>1462.78</ele>
        <time>2012-06-16T09:13:20Z</time>
      </trkpt>
      <trkpt lat="46.32692945189774" lon="7.148188948631287">
        <ele>1462.3</ele>
        <time>2012-06-16T09:13:21Z</time>
      </trkpt>
      <trkpt lat="46.326888212934136" lon="7.148183835670352">
        <ele>1461.8199999999999</ele>
        <time>2012-06-16T09:13:22Z</time>
      </trkpt>
      <trkpt lat="46.326848650351167" lon="7.148183081299067">
        <ele>1461.3399999999999</ele>
        <time>2012-06-16T09:13:23Z</time>
      </trkpt>
      <trkpt lat="46.326619572937489" lon="7.148184925317764">
        <ele>1459.4200000000001</ele>
        <time>2012-06-16T09:13:28Z</time>
      </trkpt>
      <trkpt lat="46.326569532975554" lon="7.148170256987214">
        <ele>1459.4200000000001</ele>
        <time>2012-06-16T09:13:29Z</time>
      </trkpt>
      <trkpt lat="46.326517816632986" lon="7.148139830678701">
        <ele>1459.4200000000001</ele>
        <time>2012-06-16T09:13:30Z</time>
      </trkpt>
      <trkpt lat="46.326471464708447" lon="7.148099094629288">
        <ele>1459.4200000000001</ele>
        <time>2012-06-16T09:13:31Z</time>
      </trkpt>
      <trkpt lat="46.326430309563875" lon="7.148050563409925">
        <ele>1459.9000000000001</ele>
        <time>2012-06-16T09:13:32Z</time>
      </trkpt>
      <trkpt lat="46.326390663161874" lon="7.14799415320158">
        <ele>1459.9000000000001</ele>
        <time>2012-06-16T09:13:33Z</time>
      </trkpt>
      <trkpt lat="46.326356884092093" lon="7.147931708022952">
        <ele>1459.9000000000001</ele>
        <time>2012-06-16T09:13:34Z</time>
      </trkpt>
      <trkpt lat="46.326331403106451" lon="7.147861048579216">
        <ele>1459.9000000000001</ele>
        <time>2012-06-16T09:13:35Z</time>
      </trkpt>
      <trkpt lat="46.326311035081744" lon="7.147783851251006">
        <ele>1459.9000000000001</ele>
        <time>2012-06-16T09:13:36Z</time>
      </trkpt>
      <trkpt lat="46.326297875493765" lon="7.147701708599925">
        <ele>1459.9000000000001</ele>
        <time>2012-06-16T09:13:37Z</time>
      </trkpt>
      <trkpt lat="46.326288320124149" lon="7.1476183924824">
        <ele>1459.9000000000001</ele>
        <time>2012-06-16T09:13:38Z</time>
      </trkpt>
      <trkpt lat="46.326285135000944" lon="7.147539267316461">
        <ele>1459.9000000000001</ele>
        <time>2012-06-16T09:13:39Z</time>
      </trkpt>
      <trkpt lat="46.326290583238006" lon="7.147462069988251">
        <ele>1459.9000000000001</ele>
        <time>2012-06-16T09:13:40Z</time>
      </trkpt>
      <trkpt lat="46.326303826645017" lon="7.147392835468054">
        <ele>1460.3800000000001</ele>
        <time>2012-06-16T09:13:41Z</time>
      </trkpt>
      <trkpt lat="46.326321261003613" lon="7.147334413602948">
        <ele>1460.3800000000001</ele>
        <time>2012-06-16T09:13:42Z</time>
      </trkpt>
      <trkpt lat="46.326346322894096" lon="7.147290157154203">
        <ele>1460.8599999999999</ele>
        <time>2012-06-16T09:13:43Z</time>
      </trkpt>
      <trkpt lat="46.326371552422643" lon="7.147256461903453">
        <ele>1460.8599999999999</ele>
        <time>2012-06-16T09:13:44Z</time>
      </trkpt>
      <trkpt lat="46.32639242336154" lon="7.147233327850699">
        <ele>1460.8599999999999</ele>
        <time>2012-06-16T09:13:45Z</time>
      </trkpt>
      <trkpt lat="46.326410947367549" lon="7.147216564044356">
        <ele>1460.8599999999999</ele>
        <time>2012-06-16T09:13:46Z</time>
      </trkpt>
      <trkpt lat="46.326576070860028" lon="7.147091338410974">
        <ele>1461.8199999999999</ele>
        <time>2012-06-16T09:13:58Z</time>
      </trkpt>
      <trkpt lat="46.326574897393584" lon="7.147021181881428">
        <ele>1461.8199999999999</ele>
        <time>2012-06-16T09:14:01Z</time>
      </trkpt>
      <trkpt lat="46.326566096395254" lon="7.147002657875419">
        <ele>1461.8199999999999</ele>
        <time>2012-06-16T09:14:02Z</time>
      </trkpt>
      <trkpt lat="46.32655268535018" lon="7.146989330649376">
        <ele>1461.8199999999999</ele>
        <time>2012-06-16T09:14:03Z</time>
      </trkpt>
      <trkpt lat="46.326434500515461" lon="7.146937781944871">
        <ele>1462.3</ele>
        <time>2012-06-16T09:14:11Z</time>
      </trkpt>
      <trkpt lat="46.326203076168895" lon="7.146901739761233">
        <ele>1463.26</ele>
        <time>2012-06-16T09:14:25Z</time>
      </trkpt>
      <trkpt lat="46.326027475297451" lon="7.146887071430683">
        <ele>1464.23</ele>
        <time>2012-06-16T09:14:38Z</time>
      </trkpt>
      <trkpt lat="46.325897220522165" lon="7.146893357858062">
        <ele>1464.71</ele>
        <time>2012-06-16T09:14:49Z</time>
      </trkpt>
      <trkpt lat="46.325835529714823" lon="7.146909115836024">
        <ele>1464.71</ele>
        <time>2012-06-16T09:14:53Z</time>
      </trkpt>
      <trkpt lat="46.325809545814991" lon="7.146914312615991">
        <ele>1464.71</ele>
        <time>2012-06-16T09:14:55Z</time>
      </trkpt>
      <trkpt lat="46.325795715674758" lon="7.146920766681433">
        <ele>1464.71</ele>
        <time>2012-06-16T09:14:56Z</time>
      </trkpt>
      <trkpt lat="46.325781214982271" lon="7.146927304565907">
        <ele>1464.71</ele>
        <time>2012-06-16T09:14:57Z</time>
      </trkpt>
      <trkpt lat="46.325764199718833" lon="7.146934848278761">
        <ele>1464.71</ele>
        <time>2012-06-16T09:14:58Z</time>
      </trkpt>
      <trkpt lat="46.325748106464744" lon="7.146934680640698">
        <ele>1464.71</ele>
        <time>2012-06-16T09:14:59Z</time>
      </trkpt>
      <trkpt lat="46.325732180848718" lon="7.146935183554888">
        <ele>1464.71</ele>
        <time>2012-06-16T09:15:00Z</time>
      </trkpt>
      <trkpt lat="46.325716087594628" lon="7.146941553801298">
        <ele>1464.71</ele>
        <time>2012-06-16T09:15:01Z</time>
      </trkpt>
      <trkpt lat="46.325700161978602" lon="7.146950857713819">
        <ele>1464.71</ele>
        <time>2012-06-16T09:15:02Z</time>
      </trkpt>
      <trkpt lat="46.325683314353228" lon="7.146957479417324">
        <ele>1464.71</ele>
        <time>2012-06-16T09:15:03Z</time>
      </trkpt>
      <trkpt lat="46.325669568032026" lon="7.146964017301798">
        <ele>1464.71</ele>
        <time>2012-06-16T09:15:04Z</time>
      </trkpt>
      <trkpt lat="46.325659677386284" lon="7.146969381719828">
        <ele>1464.71</ele>
        <time>2012-06-16T09:15:05Z</time>
      </trkpt>
      <trkpt lat="46.32542934268713" lon="7.14704473502934">
        <ele>1465.1900000000001</ele>
        <time>2012-06-16T09:15:20Z</time>
      </trkpt>
      <trkpt lat="46.325237732380629" lon="7.147095613181591">
        <ele>1465.1900000000001</ele>
        <time>2012-06-16T09:15:32Z</time>
      </trkpt>
      <trkpt lat="46.32501452229917" lon="7.147178007289767">
        <ele>1465.6700000000001</ele>
        <time>2012-06-16T09:15:46Z</time>
      </trkpt>
      <trkpt lat="46.32499884814024" lon="7.147187227383256">
        <ele>1465.6700000000001</ele>
        <time>2012-06-16T09:15:47Z</time>
      </trkpt>
      <trkpt lat="46.32498275488615" lon="7.147196279838681">
        <ele>1465.6700000000001</ele>
        <time>2012-06-16T09:15:48Z</time>
      </trkpt>
      <trkpt lat="46.32496858946979" lon="7.147205919027329">
        <ele>1465.6700000000001</ele>
        <time>2012-06-16T09:15:49Z</time>
      </trkpt>
      <trkpt lat="46.324953334406018" lon="7.147218072786927">
        <ele>1465.6700000000001</ele>
        <time>2012-06-16T09:15:50Z</time>
      </trkpt>
      <trkpt lat="46.324772704392672" lon="7.147366683930159">
        <ele>1465.6700000000001</ele>
        <time>2012-06-16T09:16:04Z</time>
      </trkpt>
      <trkpt lat="46.324757281690836" lon="7.14737506583333">
        <ele>1465.6700000000001</ele>
        <time>2012-06-16T09:16:05Z</time>
      </trkpt>
      <trkpt lat="46.324637923389673" lon="7.147494256496429">
        <ele>1466.1500000000001</ele>
        <time>2012-06-16T09:16:15Z</time>
      </trkpt>
      <trkpt lat="46.324627697467804" lon="7.147500459104776">
        <ele>1466.1500000000001</ele>
        <time>2012-06-16T09:16:16Z</time>
      </trkpt>
      <trkpt lat="46.324616884812713" lon="7.147508589550853">
        <ele>1466.1500000000001</ele>
        <time>2012-06-16T09:16:17Z</time>
      </trkpt>
      <trkpt lat="46.324603809043765" lon="7.147517139092088">
        <ele>1466.1500000000001</ele>
        <time>2012-06-16T09:16:18Z</time>
      </trkpt>
      <trkpt lat="46.324589140713215" lon="7.147527365013957">
        <ele>1466.1500000000001</ele>
        <time>2012-06-16T09:16:19Z</time>
      </trkpt>
      <trkpt lat="46.324362494051456" lon="7.147596348077059">
        <ele>1466.6300000000001</ele>
        <time>2012-06-16T09:16:34Z</time>
      </trkpt>
      <trkpt lat="46.324169877916574" lon="7.147666672244668">
        <ele>1466.6300000000001</ele>
        <time>2012-06-16T09:16:46Z</time>
      </trkpt>
      <trkpt lat="46.323977513238788" lon="7.147720232605934">
        <ele>1466.6300000000001</ele>
        <time>2012-06-16T09:17:00Z</time>
      </trkpt>
      <trkpt lat="46.323951026424766" lon="7.147711347788572">
        <ele>1466.6300000000001</ele>
        <time>2012-06-16T09:17:02Z</time>
      </trkpt>
      <trkpt lat="46.323935519903898" lon="7.147712772712112">
        <ele>1466.6300000000001</ele>
        <time>2012-06-16T09:17:03Z</time>
      </trkpt>
      <trkpt lat="46.323916409164667" lon="7.147711431607604">
        <ele>1466.6300000000001</ele>
        <time>2012-06-16T09:17:04Z</time>
      </trkpt>
      <trkpt lat="46.323718260973692" lon="7.14767798781395">
        <ele>1466.6300000000001</ele>
        <time>2012-06-16T09:17:17Z</time>
      </trkpt>
      <trkpt lat="46.323624551296234" lon="7.147638760507107">
        <ele>1467.1099999999999</ele>
        <time>2012-06-16T09:17:25Z</time>
      </trkpt>
      <trkpt lat="46.323615163564682" lon="7.147634234279394">
        <ele>1467.1099999999999</ele>
        <time>2012-06-16T09:17:26Z</time>
      </trkpt>
      <trkpt lat="46.323601081967354" lon="7.147630546241999">
        <ele>1467.1099999999999</ele>
        <time>2012-06-16T09:17:27Z</time>
      </trkpt>
      <trkpt lat="46.323585994541645" lon="7.147625349462032">
        <ele>1467.1099999999999</ele>
        <time>2012-06-16T09:17:28Z</time>
      </trkpt>
      <trkpt lat="46.323571158573031" lon="7.147625852376223">
        <ele>1467.1099999999999</ele>
        <time>2012-06-16T09:17:29Z</time>
      </trkpt>
      <trkpt lat="46.323551209643483" lon="7.147631216794252">
        <ele>1467.1099999999999</ele>
        <time>2012-06-16T09:17:30Z</time>
      </trkpt>
      <trkpt lat="46.323392791673541" lon="7.147645717486739">
        <ele>1467.1099999999999</ele>
        <time>2012-06-16T09:17:41Z</time>
      </trkpt>
      <trkpt lat="46.323369238525629" lon="7.147642867639661">
        <ele>1467.1099999999999</ele>
        <time>2012-06-16T09:17:42Z</time>
      </trkpt>
      <trkpt lat="46.323348367586732" lon="7.147639766335487">
        <ele>1467.1099999999999</ele>
        <time>2012-06-16T09:17:43Z</time>
      </trkpt>
      <trkpt lat="46.323331436142325" lon="7.147635156288743">
        <ele>1467.1099999999999</ele>
        <time>2012-06-16T09:17:44Z</time>
      </trkpt>
      <trkpt lat="46.323312828317285" lon="7.147630797699094">
        <ele>1467.1099999999999</ele>
        <time>2012-06-16T09:17:45Z</time>
      </trkpt>
      <trkpt lat="46.3230668194592" lon="7.147549828514457">
        <ele>1467.5899999999999</ele>
        <time>2012-06-16T09:18:00Z</time>
      </trkpt>
      <trkpt lat="46.32276532240212" lon="7.147648148238659">
        <ele>1511.3299999999999</ele>
        <time>2012-06-16T09:18:16Z</time>
      </trkpt>
      <trkpt lat="46.322526773437858" lon="7.147734062746167">
        <ele>1515.1800000000001</ele>
        <time>2012-06-16T09:18:33Z</time>
      </trkpt>
      <trkpt lat="46.32244136184454" lon="7.147750072181225">
        <ele>1515.1800000000001</ele>
        <time>2012-06-16T09:18:42Z</time>
      </trkpt>
      <trkpt lat="46.322420910000801" lon="7.147738337516785">
        <ele>1515.6600000000001</ele>
        <time>2012-06-16T09:18:58Z</time>
      </trkpt>
      <trkpt lat="46.322471452876925" lon="7.147773122414947">
        <ele>1517.0999999999999</ele>
        <time>2012-06-16T09:19:25Z</time>
      </trkpt>
      <trkpt lat="46.322446139529347" lon="7.147753844037652">
        <ele>1516.1400000000001</ele>
        <time>2012-06-16T09:19:56Z</time>
      </trkpt>
      <trkpt lat="46.322435745969415" lon="7.147779744118452">
        <ele>1515.6600000000001</ele>
        <time>2012-06-16T09:20:03Z</time>
      </trkpt>
      <trkpt lat="46.322414372116327" lon="7.147794160991907">
        <ele>1515.6600000000001</ele>
        <time>2012-06-16T09:20:05Z</time>
      </trkpt>
      <trkpt lat="46.322400793433189" lon="7.147795921191573">
        <ele>1515.6600000000001</ele>
        <time>2012-06-16T09:20:06Z</time>
      </trkpt>
      <trkpt lat="46.322386208921671" lon="7.14779575355351">
        <ele>1516.1400000000001</ele>
        <time>2012-06-16T09:20:07Z</time>
      </trkpt>
      <trkpt lat="46.3221515994519" lon="7.14777865447104">
        <ele>1518.0599999999999</ele>
        <time>2012-06-16T09:20:23Z</time>
      </trkpt>
      <trkpt lat="46.321945320814848" lon="7.147669102996588">
        <ele>1518.54</ele>
        <time>2012-06-16T09:20:37Z</time>
      </trkpt>
      <trkpt lat="46.321694534271955" lon="7.147442791610956">
        <ele>1519.98</ele>
        <time>2012-06-16T09:20:55Z</time>
      </trkpt>
      <trkpt lat="46.321434108540416" lon="7.147386632859707">
        <ele>1521.4200000000001</ele>
        <time>2012-06-16T09:21:10Z</time>
      </trkpt>
      <trkpt lat="46.321154404431581" lon="7.147516719996929">
        <ele>1525.75</ele>
        <time>2012-06-16T09:21:26Z</time>
      </trkpt>
      <trkpt lat="46.321123894304037" lon="7.147489730268717">
        <ele>1526.23</ele>
        <time>2012-06-16T09:21:28Z</time>
      </trkpt>
      <trkpt lat="46.321114674210548" lon="7.147467434406281">
        <ele>1526.71</ele>
        <time>2012-06-16T09:21:29Z</time>
      </trkpt>
      <trkpt lat="46.321110147982836" lon="7.147443378344178">
        <ele>1527.1900000000001</ele>
        <time>2012-06-16T09:21:30Z</time>
      </trkpt>
      <trkpt lat="46.321111153811216" lon="7.147418735548854">
        <ele>1527.6700000000001</ele>
        <time>2012-06-16T09:21:31Z</time>
      </trkpt>
      <trkpt lat="46.321117607876658" lon="7.147395350039005">
        <ele>1527.6700000000001</ele>
        <time>2012-06-16T09:21:32Z</time>
      </trkpt>
      <trkpt lat="46.321127749979496" lon="7.147373473271728">
        <ele>1528.6300000000001</ele>
        <time>2012-06-16T09:21:33Z</time>
      </trkpt>
      <trkpt lat="46.321141999214888" lon="7.147352518513799">
        <ele>1529.1099999999999</ele>
        <time>2012-06-16T09:21:34Z</time>
      </trkpt>
      <trkpt lat="46.321153985336423" lon="7.147331731393933">
        <ele>1529.5899999999999</ele>
        <time>2012-06-16T09:21:35Z</time>
      </trkpt>
      <trkpt lat="46.321169072762132" lon="7.147316057235003">
        <ele>1530.0799999999999</ele>
        <time>2012-06-16T09:21:36Z</time>
      </trkpt>
      <trkpt lat="46.32118608802557" lon="7.147303568199277">
        <ele>1530.5599999999999</ele>
        <time>2012-06-16T09:21:37Z</time>
      </trkpt>
      <trkpt lat="46.321201510727406" lon="7.147293761372566">
        <ele>1531.04</ele>
        <time>2012-06-16T09:21:38Z</time>
      </trkpt>
      <trkpt lat="46.321217771619558" lon="7.147284876555204">
        <ele>1531.52</ele>
        <time>2012-06-16T09:21:39Z</time>
      </trkpt>
      <trkpt lat="46.321235960349441" lon="7.147273309528828">
        <ele>1532</ele>
        <time>2012-06-16T09:21:40Z</time>
      </trkpt>
      <trkpt lat="46.32125448435545" lon="7.147271381691098">
        <ele>1532.48</ele>
        <time>2012-06-16T09:21:41Z</time>
      </trkpt>
      <trkpt lat="46.32127158343792" lon="7.147272219881415">
        <ele>1532.96</ele>
        <time>2012-06-16T09:21:42Z</time>
      </trkpt>
      <trkpt lat="46.321289855986834" lon="7.147269956767559">
        <ele>1532.96</ele>
        <time>2012-06-16T09:21:43Z</time>
      </trkpt>
      <trkpt lat="46.321552041918039" lon="7.147199716418982">
        <ele>1536.3199999999999</ele>
        <time>2012-06-16T09:21:57Z</time>
      </trkpt>
      <trkpt lat="46.321883797645569" lon="7.147083627060056">
        <ele>1537.77</ele>
        <time>2012-06-16T09:22:13Z</time>
      </trkpt>
      <trkpt lat="46.322126453742385" lon="7.146902410313487">
        <ele>1539.21</ele>
        <time>2012-06-16T09:22:26Z</time>
      </trkpt>
      <trkpt lat="46.322396770119667" lon="7.146641984581947">
        <ele>1541.6099999999999</ele>
        <time>2012-06-16T09:22:42Z</time>
      </trkpt>
      <trkpt lat="46.322716707363725" lon="7.146540731191635">
        <ele>1544.98</ele>
        <time>2012-06-16T09:22:58Z</time>
      </trkpt>
      <trkpt lat="46.323057683184743" lon="7.146329255774617">
        <ele>1547.8599999999999</ele>
        <time>2012-06-16T09:23:15Z</time>
      </trkpt>
      <trkpt lat="46.323374100029469" lon="7.146348785609007">
        <ele>1548.8199999999999</ele>
        <time>2012-06-16T09:23:30Z</time>
      </trkpt>
      <trkpt lat="46.323625221848488" lon="7.146200509741902">
        <ele>1552.6700000000001</ele>
        <time>2012-06-16T09:23:44Z</time>
      </trkpt>
      <trkpt lat="46.32382957264781" lon="7.145956344902515">
        <ele>1557.47</ele>
        <time>2012-06-16T09:23:59Z</time>
      </trkpt>
      <trkpt lat="46.323883887380362" lon="7.145891720429063">
        <ele>1559.4000000000001</ele>
        <time>2012-06-16T09:24:03Z</time>
      </trkpt>
      <trkpt lat="46.323898639529943" lon="7.145876716822386">
        <ele>1559.8800000000001</ele>
        <time>2012-06-16T09:24:04Z</time>
      </trkpt>
      <trkpt lat="46.324122939258814" lon="7.145722238346934">
        <ele>1560.8399999999999</ele>
        <time>2012-06-16T09:24:18Z</time>
      </trkpt>
      <trkpt lat="46.324386047199368" lon="7.145531130954623">
        <ele>1561.3199999999999</ele>
        <time>2012-06-16T09:24:35Z</time>
      </trkpt>
      <trkpt lat="46.324429214000702" lon="7.145470529794693">
        <ele>1560.8399999999999</ele>
        <time>2012-06-16T09:24:46Z</time>
      </trkpt>
      <trkpt lat="46.324444133788347" lon="7.145452592521906">
        <ele>1560.8399999999999</ele>
        <time>2012-06-16T09:24:59Z</time>
      </trkpt>
      <trkpt lat="46.324457880109549" lon="7.145434319972992">
        <ele>1560.8399999999999</ele>
        <time>2012-06-16T09:25:16Z</time>
      </trkpt>
      <trkpt lat="46.324492329731584" lon="7.145398277789354">
        <ele>1560.3599999999999</ele>
        <time>2012-06-16T09:25:21Z</time>
      </trkpt>
      <trkpt lat="46.324496353045106" lon="7.145380256697536">
        <ele>1560.3599999999999</ele>
        <time>2012-06-16T09:25:22Z</time>
      </trkpt>
      <trkpt lat="46.324503645300865" lon="7.145360140129924">
        <ele>1560.3599999999999</ele>
        <time>2012-06-16T09:25:23Z</time>
      </trkpt>
      <trkpt lat="46.324628619477153" lon="7.145117232576013">
        <ele>1560.8399999999999</ele>
        <time>2012-06-16T09:25:36Z</time>
      </trkpt>
      <trkpt lat="46.324680503457785" lon="7.145073646679521">
        <ele>1560.3599999999999</ele>
        <time>2012-06-16T09:25:49Z</time>
      </trkpt>
      <trkpt lat="46.324883429333568" lon="7.144963005557656">
        <ele>1562.28</ele>
        <time>2012-06-16T09:26:06Z</time>
      </trkpt>
      <trkpt lat="46.324933804571629" lon="7.144956886768341">
        <ele>1562.76</ele>
        <time>2012-06-16T09:26:18Z</time>
      </trkpt>
      <trkpt lat="46.324990969151258" lon="7.144994605332613">
        <ele>1559.8800000000001</ele>
        <time>2012-06-16T09:26:29Z</time>
      </trkpt>
      <trkpt lat="46.325163468718529" lon="7.145033916458488">
        <ele>1556.03</ele>
        <time>2012-06-16T09:26:45Z</time>
      </trkpt>
      <trkpt lat="46.325188698247075" lon="7.144947834312916">
        <ele>1557.95</ele>
        <time>2012-06-16T09:26:58Z</time>
      </trkpt>
      <trkpt lat="46.325211497023702" lon="7.144896201789379">
        <ele>1559.4000000000001</ele>
        <time>2012-06-16T09:27:10Z</time>
      </trkpt>
      <trkpt lat="46.325220298022032" lon="7.144839037209749">
        <ele>1562.76</ele>
        <time>2012-06-16T09:27:20Z</time>
      </trkpt>
      <trkpt lat="46.325222477316856" lon="7.144823363050818">
        <ele>1562.28</ele>
        <time>2012-06-16T09:27:32Z</time>
      </trkpt>
      <trkpt lat="46.32525784894824" lon="7.144800061360002">
        <ele>1562.76</ele>
        <time>2012-06-16T09:27:38Z</time>
      </trkpt>
      <trkpt lat="46.325504863634706" lon="7.144633429124951">
        <ele>1565.6400000000001</ele>
        <time>2012-06-16T09:27:52Z</time>
      </trkpt>
      <trkpt lat="46.325755482539535" lon="7.144222045317292">
        <ele>1568.05</ele>
        <time>2012-06-16T09:28:07Z</time>
      </trkpt>
      <trkpt lat="46.325844163075089" lon="7.144014090299606">
        <ele>1568.05</ele>
        <time>2012-06-16T09:28:13Z</time>
      </trkpt>
      <trkpt lat="46.326045328751206" lon="7.143389889970422">
        <ele>1566.6099999999999</ele>
        <time>2012-06-16T09:28:28Z</time>
      </trkpt>
      <trkpt lat="46.326302317902446" lon="7.14281028136611">
        <ele>1567.5699999999999</ele>
        <time>2012-06-16T09:28:44Z</time>
      </trkpt>
      <trkpt lat="46.326488396152854" lon="7.142361178994179">
        <ele>1570.9300000000001</ele>
        <time>2012-06-16T09:28:56Z</time>
      </trkpt>
      <trkpt lat="46.326566180214286" lon="7.141546625643969">
        <ele>1571.8900000000001</ele>
        <time>2012-06-16T09:29:16Z</time>
      </trkpt>
      <trkpt lat="46.326553104445338" lon="7.140888646245003">
        <ele>1574.3</ele>
        <time>2012-06-16T09:29:32Z</time>
      </trkpt>
      <trkpt lat="46.326568610966206" lon="7.140410793945193">
        <ele>1571.8900000000001</ele>
        <time>2012-06-16T09:29:40Z</time>
      </trkpt>
      <trkpt lat="46.326562575995922" lon="7.14032999239862">
        <ele>1571.4100000000001</ele>
        <time>2012-06-16T09:29:41Z</time>
      </trkpt>
      <trkpt lat="46.326550003141165" lon="7.140249777585268">
        <ele>1570.9300000000001</ele>
        <time>2012-06-16T09:29:42Z</time>
      </trkpt>
      <trkpt lat="46.326538939028978" lon="7.140173753723502">
        <ele>1570.45</ele>
        <time>2012-06-16T09:29:43Z</time>
      </trkpt>
      <trkpt lat="46.326537681743503" lon="7.140100747346878">
        <ele>1569.49</ele>
        <time>2012-06-16T09:29:44Z</time>
      </trkpt>
      <trkpt lat="46.326547572389245" lon="7.14002413675189">
        <ele>1569.01</ele>
        <time>2012-06-16T09:29:45Z</time>
      </trkpt>
      <trkpt lat="46.32656978443265" lon="7.139944173395634">
        <ele>1568.53</ele>
        <time>2012-06-16T09:29:46Z</time>
      </trkpt>
      <trkpt lat="46.326597612351179" lon="7.139863288030028">
        <ele>1567.5699999999999</ele>
        <time>2012-06-16T09:29:47Z</time>
      </trkpt>
      <trkpt lat="46.32665142416954" lon="7.13969967328012">
        <ele>1566.1199999999999</ele>
        <time>2012-06-16T09:29:49Z</time>
      </trkpt>
      <trkpt lat="46.326669193804264" lon="7.139624990522862">
        <ele>1565.1600000000001</ele>
        <time>2012-06-16T09:29:50Z</time>
      </trkpt>
      <trkpt lat="46.326742619276047" lon="7.139245877042413">
        <ele>1561.3199999999999</ele>
        <time>2012-06-16T09:29:56Z</time>
      </trkpt>
      <trkpt lat="46.326741361990571" lon="7.139178402721882">
        <ele>1561.3199999999999</ele>
        <time>2012-06-16T09:29:57Z</time>
      </trkpt>
      <trkpt lat="46.326739769428968" lon="7.139019314199686">
        <ele>1560.3599999999999</ele>
        <time>2012-06-16T09:29:59Z</time>
      </trkpt>
      <trkpt lat="46.32676281966269" lon="7.138935076072812">
        <ele>1559.8800000000001</ele>
        <time>2012-06-16T09:30:00Z</time>
      </trkpt>
      <trkpt lat="46.32684487849474" lon="7.138686385005713">
        <ele>1558.9200000000001</ele>
        <time>2012-06-16T09:30:03Z</time>
      </trkpt>
      <trkpt lat="46.326856026425958" lon="7.138601141050458">
        <ele>1558.9200000000001</ele>
        <time>2012-06-16T09:30:04Z</time>
      </trkpt>
      <trkpt lat="46.326862229034305" lon="7.138512879610062">
        <ele>1557.95</ele>
        <time>2012-06-16T09:30:05Z</time>
      </trkpt>
      <trkpt lat="46.326859965920448" lon="7.138416990637779">
        <ele>1556.99</ele>
        <time>2012-06-16T09:30:06Z</time>
      </trkpt>
      <trkpt lat="46.326850075274706" lon="7.138316156342626">
        <ele>1556.51</ele>
        <time>2012-06-16T09:30:07Z</time>
      </trkpt>
      <trkpt lat="46.326838592067361" lon="7.138216411694884">
        <ele>1555.55</ele>
        <time>2012-06-16T09:30:08Z</time>
      </trkpt>
      <trkpt lat="46.326831299811602" lon="7.138113901019096">
        <ele>1555.0699999999999</ele>
        <time>2012-06-16T09:30:09Z</time>
      </trkpt>
      <trkpt lat="46.326832389459014" lon="7.13800460100174">
        <ele>1554.1099999999999</ele>
        <time>2012-06-16T09:30:10Z</time>
      </trkpt>
      <trkpt lat="46.326841358095407" lon="7.137894714251161">
        <ele>1553.6300000000001</ele>
        <time>2012-06-16T09:30:11Z</time>
      </trkpt>
      <trkpt lat="46.326853260397911" lon="7.137789269909263">
        <ele>1552.6700000000001</ele>
        <time>2012-06-16T09:30:12Z</time>
      </trkpt>
      <trkpt lat="46.326861558482051" lon="7.137691117823124">
        <ele>1552.1900000000001</ele>
        <time>2012-06-16T09:30:13Z</time>
      </trkpt>
      <trkpt lat="46.326862815767527" lon="7.137596989050508">
        <ele>1551.22</ele>
        <time>2012-06-16T09:30:14Z</time>
      </trkpt>
      <trkpt lat="46.326853092759848" lon="7.137499088421464">
        <ele>1550.26</ele>
        <time>2012-06-16T09:30:15Z</time>
      </trkpt>
      <trkpt lat="46.326828869059682" lon="7.137399427592754">
        <ele>1549.78</ele>
        <time>2012-06-16T09:30:16Z</time>
      </trkpt>
      <trkpt lat="46.326789725571871" lon="7.137301778420806">
        <ele>1549.3</ele>
        <time>2012-06-16T09:30:17Z</time>
      </trkpt>
      <trkpt lat="46.326745385304093" lon="7.137212092056871">
        <ele>1548.8199999999999</ele>
        <time>2012-06-16T09:30:18Z</time>
      </trkpt>
      <trkpt lat="46.326697524636984" lon="7.137134140357375">
        <ele>1548.3399999999999</ele>
        <time>2012-06-16T09:30:19Z</time>
      </trkpt>
      <trkpt lat="46.326648406684399" lon="7.137068677693605">
        <ele>1547.8599999999999</ele>
        <time>2012-06-16T09:30:20Z</time>
      </trkpt>
      <trkpt lat="46.326597277075052" lon="7.137012099847198">
        <ele>1546.9000000000001</ele>
        <time>2012-06-16T09:30:21Z</time>
      </trkpt>
      <trkpt lat="46.326546398922801" lon="7.136961137875915">
        <ele>1546.4200000000001</ele>
        <time>2012-06-16T09:30:22Z</time>
      </trkpt>
      <trkpt lat="46.326502645388246" lon="7.136912439018488">
        <ele>1545.9400000000001</ele>
        <time>2012-06-16T09:30:23Z</time>
      </trkpt>
      <trkpt lat="46.32646962068975" lon="7.13686122559011">
        <ele>1545.46</ele>
        <time>2012-06-16T09:30:24Z</time>
      </trkpt>
      <trkpt lat="46.326452018693089" lon="7.13680355809629">
        <ele>1544.98</ele>
        <time>2012-06-16T09:30:25Z</time>
      </trkpt>
      <trkpt lat="46.326448246836662" lon="7.136735916137695">
        <ele>1544.5</ele>
        <time>2012-06-16T09:30:26Z</time>
      </trkpt>
      <trkpt lat="46.326461154967546" lon="7.136665089055896">
        <ele>1544.01</ele>
        <time>2012-06-16T09:30:27Z</time>
      </trkpt>
      <trkpt lat="46.326484624296427" lon="7.136595267802477">
        <ele>1544.01</ele>
        <time>2012-06-16T09:30:28Z</time>
      </trkpt>
      <trkpt lat="46.326630553230643" lon="7.13647523894906">
        <ele>1544.01</ele>
        <time>2012-06-16T09:30:32Z</time>
      </trkpt>
      <trkpt lat="46.32695828564465" lon="7.13660666719079">
        <ele>1544.01</ele>
        <time>2012-06-16T09:30:38Z</time>
      </trkpt>
      <trkpt lat="46.327068340033293" lon="7.13660859502852">
        <ele>1544.01</ele>
        <time>2012-06-16T09:30:40Z</time>
      </trkpt>
      <trkpt lat="46.327184345573187" lon="7.136550759896636">
        <ele>1543.53</ele>
        <time>2012-06-16T09:30:42Z</time>
      </trkpt>
      <trkpt lat="46.327234888449311" lon="7.136501977220178">
        <ele>1543.53</ele>
        <time>2012-06-16T09:30:43Z</time>
      </trkpt>
      <trkpt lat="46.327277636155486" lon="7.13643467053771">
        <ele>1543.05</ele>
        <time>2012-06-16T09:30:44Z</time>
      </trkpt>
      <trkpt lat="46.327394396066666" lon="7.136212047189474">
        <ele>1542.0899999999999</ele>
        <time>2012-06-16T09:30:47Z</time>
      </trkpt>
      <trkpt lat="46.327442592009902" lon="7.136174244806171">
        <ele>1541.6099999999999</ele>
        <time>2012-06-16T09:30:48Z</time>
      </trkpt>
      <trkpt lat="46.327493973076344" lon="7.136165108531714">
        <ele>1541.6099999999999</ele>
        <time>2012-06-16T09:30:49Z</time>
      </trkpt>
      <trkpt lat="46.327542504295707" lon="7.136185811832547">
        <ele>1541.1300000000001</ele>
        <time>2012-06-16T09:30:50Z</time>
      </trkpt>
      <trkpt lat="46.327579887583852" lon="7.136227637529373">
        <ele>1541.1300000000001</ele>
        <time>2012-06-16T09:30:51Z</time>
      </trkpt>
      <trkpt lat="46.327896304428577" lon="7.136765252798796">
        <ele>1540.1700000000001</ele>
        <time>2012-06-16T09:31:05Z</time>
      </trkpt>
      <trkpt lat="46.328071821480989" lon="7.137135732918978">
        <ele>1541.1300000000001</ele>
        <time>2012-06-16T09:31:22Z</time>
      </trkpt>
      <trkpt lat="46.328179193660617" lon="7.137479558587074">
        <ele>1543.53</ele>
        <time>2012-06-16T09:31:35Z</time>
      </trkpt>
      <trkpt lat="46.328214649111032" lon="7.137879123911262">
        <ele>1547.8599999999999</ele>
        <time>2012-06-16T09:31:49Z</time>
      </trkpt>
      <trkpt lat="46.328288828954101" lon="7.138319760560989">
        <ele>1546.9000000000001</ele>
        <time>2012-06-16T09:32:02Z</time>
      </trkpt>
      <trkpt lat="46.328421011567116" lon="7.138794930651784">
        <ele>1547.3800000000001</ele>
        <time>2012-06-16T09:32:15Z</time>
      </trkpt>
      <trkpt lat="46.328533496707678" lon="7.139413012191653">
        <ele>1548.8199999999999</ele>
        <time>2012-06-16T09:32:30Z</time>
      </trkpt>
      <trkpt lat="46.328658889979124" lon="7.139934953302145">
        <ele>1551.22</ele>
        <time>2012-06-16T09:32:43Z</time>
      </trkpt>
      <trkpt lat="46.328840274363756" lon="7.140175011008978">
        <ele>1554.5899999999999</ele>
        <time>2012-06-16T09:32:55Z</time>
      </trkpt>
      <trkpt lat="46.32897874340415" lon="7.140210885554552">
        <ele>1558.4300000000001</ele>
        <time>2012-06-16T09:33:04Z</time>
      </trkpt>
      <trkpt lat="46.329067256301641" lon="7.139816852286458">
        <ele>1562.28</ele>
        <time>2012-06-16T09:33:19Z</time>
      </trkpt>
      <trkpt lat="46.329086115583777" lon="7.139266664162278">
        <ele>1565.1600000000001</ele>
        <time>2012-06-16T09:33:38Z</time>
      </trkpt>
      <trkpt lat="46.329087791964412" lon="7.138754362240434">
        <ele>1568.05</ele>
        <time>2012-06-16T09:33:56Z</time>
      </trkpt>
      <trkpt lat="46.329080499708652" lon="7.138219261541963">
        <ele>1568.05</ele>
        <time>2012-06-16T09:34:14Z</time>
      </trkpt>
      <trkpt lat="46.329112518578768" lon="7.137736044824123">
        <ele>1570.45</ele>
        <time>2012-06-16T09:34:31Z</time>
      </trkpt>
      <trkpt lat="46.329200360924006" lon="7.137303706258535">
        <ele>1574.78</ele>
        <time>2012-06-16T09:34:47Z</time>
      </trkpt>
      <trkpt lat="46.329283928498626" lon="7.136883940547705">
        <ele>1578.6199999999999</ele>
        <time>2012-06-16T09:35:03Z</time>
      </trkpt>
      <trkpt lat="46.329335980117321" lon="7.136395862326026">
        <ele>1581.99</ele>
        <time>2012-06-16T09:35:21Z</time>
      </trkpt>
      <trkpt lat="46.329364394769073" lon="7.135953130200505">
        <ele>1585.3499999999999</ele>
        <time>2012-06-16T09:35:37Z</time>
      </trkpt>
      <trkpt lat="46.329330783337355" lon="7.135409228503704">
        <ele>1587.75</ele>
        <time>2012-06-16T09:35:56Z</time>
      </trkpt>
      <trkpt lat="46.329298680648208" lon="7.134850909933448">
        <ele>1590.6400000000001</ele>
        <time>2012-06-16T09:36:15Z</time>
      </trkpt>
      <trkpt lat="46.329290885478258" lon="7.13440977036953">
        <ele>1593.52</ele>
        <time>2012-06-16T09:36:30Z</time>
      </trkpt>
      <trkpt lat="46.329271858558059" lon="7.133943820372224">
        <ele>1595.45</ele>
        <time>2012-06-16T09:36:46Z</time>
      </trkpt>
      <trkpt lat="46.329134311527014" lon="7.133567808195949">
        <ele>1597.8499999999999</ele>
        <time>2012-06-16T09:37:01Z</time>
      </trkpt>
      <trkpt lat="46.328865168616176" lon="7.133140582591295">
        <ele>1602.1700000000001</ele>
        <time>2012-06-16T09:37:21Z</time>
      </trkpt>
      <trkpt lat="46.328653944656253" lon="7.132672453299165">
        <ele>1605.54</ele>
        <time>2012-06-16T09:37:41Z</time>
      </trkpt>
      <trkpt lat="46.328534251078963" lon="7.132304990664125">
        <ele>1607.46</ele>
        <time>2012-06-16T09:37:55Z</time>
      </trkpt>
      <trkpt lat="46.328341299667954" lon="7.131916405633092">
        <ele>1612.27</ele>
        <time>2012-06-16T09:38:12Z</time>
      </trkpt>
      <trkpt lat="46.328080371022224" lon="7.131531843915582">
        <ele>1615.1500000000001</ele>
        <time>2012-06-16T09:38:31Z</time>
      </trkpt>
      <trkpt lat="46.328074168413877" lon="7.131415335461497">
        <ele>1615.1500000000001</ele>
        <time>2012-06-16T09:38:35Z</time>
      </trkpt>
      <trkpt lat="46.328160166740417" lon="7.131346017122269">
        <ele>1616.1099999999999</ele>
        <time>2012-06-16T09:38:41Z</time>
      </trkpt>
      <trkpt lat="46.328448168933392" lon="7.131557576358318">
        <ele>1619</ele>
        <time>2012-06-16T09:38:58Z</time>
      </trkpt>
      <trkpt lat="46.328742541372776" lon="7.131653884425759">
        <ele>1621.8800000000001</ele>
        <time>2012-06-16T09:39:14Z</time>
      </trkpt>
      <trkpt lat="46.328998943790793" lon="7.131806770339608">
        <ele>1624.28</ele>
        <time>2012-06-16T09:39:28Z</time>
      </trkpt>
      <trkpt lat="46.329211844131351" lon="7.132136346772313">
        <ele>1624.77</ele>
        <time>2012-06-16T09:39:45Z</time>
      </trkpt>
      <trkpt lat="46.329379482194781" lon="7.132525853812695">
        <ele>1625.73</ele>
        <time>2012-06-16T09:40:03Z</time>
      </trkpt>
      <trkpt lat="46.329543180763721" lon="7.132856519892812">
        <ele>1627.1700000000001</ele>
        <time>2012-06-16T09:40:17Z</time>
      </trkpt>
      <trkpt lat="46.329564303159714" lon="7.132875043898821">
        <ele>1627.1700000000001</ele>
        <time>2012-06-16T09:40:18Z</time>
      </trkpt>
      <trkpt lat="46.329604955390096" lon="7.132948385551572">
        <ele>1628.6099999999999</ele>
        <time>2012-06-16T09:40:30Z</time>
      </trkpt>
      <trkpt lat="46.329571511596441" lon="7.13290186598897">
        <ele>1629.5699999999999</ele>
        <time>2012-06-16T09:41:07Z</time>
      </trkpt>
      <trkpt lat="46.329570673406124" lon="7.132913349196315">
        <ele>1626.6900000000001</ele>
        <time>2012-06-16T09:41:44Z</time>
      </trkpt>
      <trkpt lat="46.32957142777741" lon="7.132927598431706">
        <ele>1628.1300000000001</ele>
        <time>2012-06-16T09:42:19Z</time>
      </trkpt>
      <trkpt lat="46.329570338129997" lon="7.132908152416349">
        <ele>1628.6099999999999</ele>
        <time>2012-06-16T09:42:52Z</time>
      </trkpt>
      <trkpt lat="46.329545108601451" lon="7.1329365670681">
        <ele>1628.6099999999999</ele>
        <time>2012-06-16T09:43:28Z</time>
      </trkpt>
      <trkpt lat="46.329569835215807" lon="7.132974537089467">
        <ele>1630.53</ele>
        <time>2012-06-16T09:44:08Z</time>
      </trkpt>
      <trkpt lat="46.329565308988094" lon="7.132970346137881">
        <ele>1631.98</ele>
        <time>2012-06-16T09:44:49Z</time>
      </trkpt>
      <trkpt lat="46.329579474404454" lon="7.132899686694145">
        <ele>1629.0899999999999</ele>
        <time>2012-06-16T09:45:28Z</time>
      </trkpt>
      <trkpt lat="46.329536307603121" lon="7.132875630632043">
        <ele>1632.46</ele>
        <time>2012-06-16T09:45:59Z</time>
      </trkpt>
      <trkpt lat="46.329584755003452" lon="7.132888454943895">
        <ele>1634.8599999999999</ele>
        <time>2012-06-16T09:46:36Z</time>
      </trkpt>
      <trkpt lat="46.329564470797777" lon="7.132870769128203">
        <ele>1635.3399999999999</ele>
        <time>2012-06-16T09:47:16Z</time>
      </trkpt>
      <trkpt lat="46.329549551010132" lon="7.132919132709503">
        <ele>1629.5699999999999</ele>
        <time>2012-06-16T09:47:54Z</time>
      </trkpt>
      <trkpt lat="46.329602105543017" lon="7.132904129102826">
        <ele>1630.05</ele>
        <time>2012-06-16T09:48:27Z</time>
      </trkpt>
      <trkpt lat="46.329628927633166" lon="7.132933214306831">
        <ele>1631.98</ele>
        <time>2012-06-16T09:48:36Z</time>
      </trkpt>
      <trkpt lat="46.329683745279908" lon="7.132988199591637">
        <ele>1633.4200000000001</ele>
        <time>2012-06-16T09:48:42Z</time>
      </trkpt>
      <trkpt lat="46.329948445782065" lon="7.133191963657737">
        <ele>1637.74</ele>
        <time>2012-06-16T09:48:57Z</time>
      </trkpt>
      <trkpt lat="46.330170482397079" lon="7.133513325825334">
        <ele>1640.1500000000001</ele>
        <time>2012-06-16T09:49:12Z</time>
      </trkpt>
      <trkpt lat="46.330334767699242" lon="7.133981119841337">
        <ele>1642.0699999999999</ele>
        <time>2012-06-16T09:49:28Z</time>
      </trkpt>
      <trkpt lat="46.330527300015092" lon="7.134616803377867">
        <ele>1645.4300000000001</ele>
        <time>2012-06-16T09:49:51Z</time>
      </trkpt>
      <trkpt lat="46.330672642216086" lon="7.135086609050632">
        <ele>1649.28</ele>
        <time>2012-06-16T09:50:10Z</time>
      </trkpt>
      <trkpt lat="46.330759897828102" lon="7.135490700602531">
        <ele>1652.1600000000001</ele>
        <time>2012-06-16T09:50:26Z</time>
      </trkpt>
      <trkpt lat="46.330819576978683" lon="7.135920273140073">
        <ele>1656.01</ele>
        <time>2012-06-16T09:50:42Z</time>
      </trkpt>
      <trkpt lat="46.330868946388364" lon="7.136342134326696">
        <ele>1658.4100000000001</ele>
        <time>2012-06-16T09:50:57Z</time>
      </trkpt>
      <trkpt lat="46.330877915024757" lon="7.136774891987443">
        <ele>1661.3</ele>
        <time>2012-06-16T09:51:11Z</time>
      </trkpt>
      <trkpt lat="46.330978078767657" lon="7.137223659083247">
        <ele>1664.1800000000001</ele>
        <time>2012-06-16T09:51:26Z</time>
      </trkpt>
      <trkpt lat="46.331147225573659" lon="7.137733362615109">
        <ele>1665.6199999999999</ele>
        <time>2012-06-16T09:51:40Z</time>
      </trkpt>
      <trkpt lat="46.331436736509204" lon="7.138139214366674">
        <ele>1666.5799999999999</ele>
        <time>2012-06-16T09:51:54Z</time>
      </trkpt>
      <trkpt lat="46.331755667924881" lon="7.138630729168654">
        <ele>1667.54</ele>
        <time>2012-06-16T09:52:10Z</time>
      </trkpt>
      <trkpt lat="46.332115000113845" lon="7.138997437432408">
        <ele>1670.9100000000001</ele>
        <time>2012-06-16T09:52:26Z</time>
      </trkpt>
      <trkpt lat="46.332429908216" lon="7.139517702162266">
        <ele>1672.3499999999999</ele>
        <time>2012-06-16T09:52:43Z</time>
      </trkpt>
      <trkpt lat="46.332651106640697" lon="7.139854151755571">
        <ele>1673.3099999999999</ele>
        <time>2012-06-16T09:52:54Z</time>
      </trkpt>
      <trkpt lat="46.333004906773567" lon="7.140326136723161">
        <ele>1674.27</ele>
        <time>2012-06-16T09:53:09Z</time>
      </trkpt>
      <trkpt lat="46.333456188440323" lon="7.140393359586597">
        <ele>1674.27</ele>
        <time>2012-06-16T09:53:22Z</time>
      </trkpt>
      <trkpt lat="46.333883916959167" lon="7.140518501400948">
        <ele>1675.72</ele>
        <time>2012-06-16T09:53:34Z</time>
      </trkpt>
      <trkpt lat="46.334440475329757" lon="7.14082402177155">
        <ele>1677.1600000000001</ele>
        <time>2012-06-16T09:53:49Z</time>
      </trkpt>
      <trkpt lat="46.334555810317397" lon="7.140864338725805">
        <ele>1677.6400000000001</ele>
        <time>2012-06-16T09:53:52Z</time>
      </trkpt>
      <trkpt lat="46.334775919094682" lon="7.140878504142165">
        <ele>1678.1199999999999</ele>
        <time>2012-06-16T09:53:57Z</time>
      </trkpt>
      <trkpt lat="46.334924278780818" lon="7.14082695543766">
        <ele>1677.6400000000001</ele>
        <time>2012-06-16T09:54:00Z</time>
      </trkpt>
      <trkpt lat="46.335231391713023" lon="7.14082351885736">
        <ele>1677.1600000000001</ele>
        <time>2012-06-16T09:54:06Z</time>
      </trkpt>
      <trkpt lat="46.335508245974779" lon="7.140736933797598">
        <ele>1676.6800000000001</ele>
        <time>2012-06-16T09:54:11Z</time>
      </trkpt>
      <trkpt lat="46.335875373333693" lon="7.140910523012281">
        <ele>1675.23</ele>
        <time>2012-06-16T09:54:18Z</time>
      </trkpt>
      <trkpt lat="46.336170751601458" lon="7.141593229025602">
        <ele>1672.3499999999999</ele>
        <time>2012-06-16T09:54:26Z</time>
      </trkpt>
      <trkpt lat="46.336385412141681" lon="7.14193026535213">
        <ele>1670.9100000000001</ele>
        <time>2012-06-16T09:54:30Z</time>
      </trkpt>
      <trkpt lat="46.337067279964685" lon="7.142640547826886">
        <ele>1667.54</ele>
        <time>2012-06-16T09:54:40Z</time>
      </trkpt>
      <trkpt lat="46.33728445507586" lon="7.142771640792489">
        <ele>1667.0599999999999</ele>
        <time>2012-06-16T09:54:43Z</time>
      </trkpt>
      <trkpt lat="46.337358886376023" lon="7.1427848841995">
        <ele>1667.0599999999999</ele>
        <time>2012-06-16T09:54:44Z</time>
      </trkpt>
      <trkpt lat="46.337427869439125" lon="7.142791505903006">
        <ele>1667.0599999999999</ele>
        <time>2012-06-16T09:54:45Z</time>
      </trkpt>
      <trkpt lat="46.337495595216751" lon="7.142793349921703">
        <ele>1667.0599999999999</ele>
        <time>2012-06-16T09:54:46Z</time>
      </trkpt>
      <trkpt lat="46.337562147527933" lon="7.142779184505343">
        <ele>1667.0599999999999</ele>
        <time>2012-06-16T09:54:47Z</time>
      </trkpt>
      <trkpt lat="46.337627442553639" lon="7.142748506739736">
        <ele>1667.0599999999999</ele>
        <time>2012-06-16T09:54:48Z</time>
      </trkpt>
      <trkpt lat="46.337756691500545" lon="7.142650438472629">
        <ele>1666.5799999999999</ele>
        <time>2012-06-16T09:54:50Z</time>
      </trkpt>
      <trkpt lat="46.337816789746284" lon="7.142580198124051">
        <ele>1666.5799999999999</ele>
        <time>2012-06-16T09:54:51Z</time>
      </trkpt>
      <trkpt lat="46.337872110307217" lon="7.142497720196843">
        <ele>1666.0999999999999</ele>
        <time>2012-06-16T09:54:52Z</time>
      </trkpt>
      <trkpt lat="46.337922485545278" lon="7.142404010519385">
        <ele>1665.6199999999999</ele>
        <time>2012-06-16T09:54:53Z</time>
      </trkpt>
      <trkpt lat="46.337965652346611" lon="7.142302002757788">
        <ele>1665.6199999999999</ele>
        <time>2012-06-16T09:54:54Z</time>
      </trkpt>
      <trkpt lat="46.338001945987344" lon="7.14219655841589">
        <ele>1665.6199999999999</ele>
        <time>2012-06-16T09:54:55Z</time>
      </trkpt>
      <trkpt lat="46.338030109182" lon="7.142090443521738">
        <ele>1665.6199999999999</ele>
        <time>2012-06-16T09:54:56Z</time>
      </trkpt>
      <trkpt lat="46.338047543540597" lon="7.141982819885016">
        <ele>1666.0999999999999</ele>
        <time>2012-06-16T09:54:57Z</time>
      </trkpt>
      <trkpt lat="46.338053662329912" lon="7.141876704990864">
        <ele>1666.0999999999999</ele>
        <time>2012-06-16T09:54:58Z</time>
      </trkpt>
      <trkpt lat="46.338047375902534" lon="7.141773272305727">
        <ele>1666.0999999999999</ele>
        <time>2012-06-16T09:54:59Z</time>
      </trkpt>
      <trkpt lat="46.338034886866808" lon="7.141673192381859">
        <ele>1666.0999999999999</ele>
        <time>2012-06-16T09:55:00Z</time>
      </trkpt>
      <trkpt lat="46.338017033413053" lon="7.141574705019593">
        <ele>1666.0999999999999</ele>
        <time>2012-06-16T09:55:01Z</time>
      </trkpt>
      <trkpt lat="46.338000185787678" lon="7.141472613438964">
        <ele>1666.0999999999999</ele>
        <time>2012-06-16T09:55:02Z</time>
      </trkpt>
      <trkpt lat="46.337993899360299" lon="7.141369599848986">
        <ele>1666.0999999999999</ele>
        <time>2012-06-16T09:55:03Z</time>
      </trkpt>
      <trkpt lat="46.3380007725209" lon="7.141270441934466">
        <ele>1666.0999999999999</ele>
        <time>2012-06-16T09:55:04Z</time>
      </trkpt>
      <trkpt lat="46.338026337325573" lon="7.14097891934216">
        <ele>1666.0999999999999</ele>
        <time>2012-06-16T09:55:07Z</time>
      </trkpt>
      <trkpt lat="46.338020302355289" lon="7.140887891873717">
        <ele>1666.0999999999999</ele>
        <time>2012-06-16T09:55:08Z</time>
      </trkpt>
      <trkpt lat="46.338005298748612" lon="7.140802396461368">
        <ele>1666.0999999999999</ele>
        <time>2012-06-16T09:55:09Z</time>
      </trkpt>
      <trkpt lat="46.337946876883507" lon="7.140556890517473">
        <ele>1665.1400000000001</ele>
        <time>2012-06-16T09:55:12Z</time>
      </trkpt>
      <trkpt lat="46.337940087541938" lon="7.140474496409297">
        <ele>1665.1400000000001</ele>
        <time>2012-06-16T09:55:13Z</time>
      </trkpt>
      <trkpt lat="46.337946793064475" lon="7.140395874157548">
        <ele>1664.6600000000001</ele>
        <time>2012-06-16T09:55:14Z</time>
      </trkpt>
      <trkpt lat="46.337959701195359" lon="7.140323454514146">
        <ele>1664.6600000000001</ele>
        <time>2012-06-16T09:55:15Z</time>
      </trkpt>
      <trkpt lat="46.337974118068814" lon="7.140253884717822">
        <ele>1664.6600000000001</ele>
        <time>2012-06-16T09:55:16Z</time>
      </trkpt>
      <trkpt lat="46.337988786399364" lon="7.140110889449716">
        <ele>1664.1800000000001</ele>
        <time>2012-06-16T09:55:18Z</time>
      </trkpt>
      <trkpt lat="46.337981577962637" lon="7.140036877244711">
        <ele>1663.7</ele>
        <time>2012-06-16T09:55:19Z</time>
      </trkpt>
      <trkpt lat="46.337968083098531" lon="7.13996110484004">
        <ele>1663.22</ele>
        <time>2012-06-16T09:55:20Z</time>
      </trkpt>
      <trkpt lat="46.337955510243773" lon="7.139881476759911">
        <ele>1662.74</ele>
        <time>2012-06-16T09:55:21Z</time>
      </trkpt>
      <trkpt lat="46.337954169139266" lon="7.139797657728195">
        <ele>1662.26</ele>
        <time>2012-06-16T09:55:22Z</time>
      </trkpt>
      <trkpt lat="46.337965317070484" lon="7.139713754877448">
        <ele>1662.26</ele>
        <time>2012-06-16T09:55:23Z</time>
      </trkpt>
      <trkpt lat="46.337992222979665" lon="7.139634964987636">
        <ele>1661.78</ele>
        <time>2012-06-16T09:55:24Z</time>
      </trkpt>
      <trkpt lat="46.338026756420732" lon="7.139564557000995">
        <ele>1661.78</ele>
        <time>2012-06-16T09:55:25Z</time>
      </trkpt>
      <trkpt lat="46.338061038404703" lon="7.139503201469779">
        <ele>1661.3</ele>
        <time>2012-06-16T09:55:26Z</time>
      </trkpt>
      <trkpt lat="46.33809506893158" lon="7.139447713270783">
        <ele>1661.3</ele>
        <time>2012-06-16T09:55:27Z</time>
      </trkpt>
      <trkpt lat="46.338123399764299" lon="7.139391554519534">
        <ele>1661.3</ele>
        <time>2012-06-16T09:55:28Z</time>
      </trkpt>
      <trkpt lat="46.33819866925478" lon="7.139200111851096">
        <ele>1660.3299999999999</ele>
        <time>2012-06-16T09:55:36Z</time>
      </trkpt>
      <trkpt lat="46.338205374777317" lon="7.139198519289494">
        <ele>1660.3299999999999</ele>
        <time>2012-06-16T09:55:43Z</time>
      </trkpt>
      <trkpt lat="46.338203530758619" lon="7.139177145436406">
        <ele>1659.8499999999999</ele>
        <time>2012-06-16T09:55:44Z</time>
      </trkpt>
      <trkpt lat="46.338200597092509" lon="7.139143282547593">
        <ele>1659.8499999999999</ele>
        <time>2012-06-16T09:55:45Z</time>
      </trkpt>
      <trkpt lat="46.338195987045765" lon="7.139098942279816">
        <ele>1659.8499999999999</ele>
        <time>2012-06-16T09:55:46Z</time>
      </trkpt>
      <trkpt lat="46.338188275694847" lon="7.139049740508199">
        <ele>1659.3699999999999</ele>
        <time>2012-06-16T09:55:47Z</time>
      </trkpt>
      <trkpt lat="46.338154915720224" lon="7.138944128528237">
        <ele>1658.8900000000001</ele>
        <time>2012-06-16T09:55:49Z</time>
      </trkpt>
      <trkpt lat="46.337899435311556" lon="7.138509275391698">
        <ele>1657.45</ele>
        <time>2012-06-16T09:55:56Z</time>
      </trkpt>
      <trkpt lat="46.337739592418075" lon="7.138222865760326">
        <ele>1657.45</ele>
        <time>2012-06-16T09:56:00Z</time>
      </trkpt>
      <trkpt lat="46.337686534970999" lon="7.138158325105906">
        <ele>1656.97</ele>
        <time>2012-06-16T09:56:01Z</time>
      </trkpt>
      <trkpt lat="46.337617300450802" lon="7.138094371184707">
        <ele>1656.49</ele>
        <time>2012-06-16T09:56:02Z</time>
      </trkpt>
      <trkpt lat="46.337552843615413" lon="7.138025471940637">
        <ele>1656.01</ele>
        <time>2012-06-16T09:56:03Z</time>
      </trkpt>
      <trkpt lat="46.337505988776684" lon="7.137946598231792">
        <ele>1655.53</ele>
        <time>2012-06-16T09:56:04Z</time>
      </trkpt>
      <trkpt lat="46.337472377344966" lon="7.137857498601079">
        <ele>1655.05</ele>
        <time>2012-06-16T09:56:05Z</time>
      </trkpt>
      <trkpt lat="46.337451422587037" lon="7.137763369828463">
        <ele>1654.5699999999999</ele>
        <time>2012-06-16T09:56:06Z</time>
      </trkpt>
      <trkpt lat="46.337432563304901" lon="7.137662703171372">
        <ele>1654.0899999999999</ele>
        <time>2012-06-16T09:56:07Z</time>
      </trkpt>
      <trkpt lat="46.337406998500228" lon="7.137566395103931">
        <ele>1653.5999999999999</ele>
        <time>2012-06-16T09:56:08Z</time>
      </trkpt>
      <trkpt lat="46.337371962144971" lon="7.137477798387408">
        <ele>1653.1199999999999</ele>
        <time>2012-06-16T09:56:09Z</time>
      </trkpt>
      <trkpt lat="46.33732401765883" lon="7.137401942163706">
        <ele>1652.1600000000001</ele>
        <time>2012-06-16T09:56:10Z</time>
      </trkpt>
      <trkpt lat="46.337257716804743" lon="7.137343939393759">
        <ele>1651.6800000000001</ele>
        <time>2012-06-16T09:56:11Z</time>
      </trkpt>
      <trkpt lat="46.337179429829121" lon="7.137303287163377">
        <ele>1650.72</ele>
        <time>2012-06-16T09:56:12Z</time>
      </trkpt>
      <trkpt lat="46.337100807577372" lon="7.137275040149689">
        <ele>1650.24</ele>
        <time>2012-06-16T09:56:13Z</time>
      </trkpt>
      <trkpt lat="46.337025789543986" lon="7.137248972430825">
        <ele>1649.76</ele>
        <time>2012-06-16T09:56:14Z</time>
      </trkpt>
      <trkpt lat="46.336959823966026" lon="7.137212008237839">
        <ele>1649.28</ele>
        <time>2012-06-16T09:56:15Z</time>
      </trkpt>
      <trkpt lat="46.336903665214777" lon="7.13715392164886">
        <ele>1649.28</ele>
        <time>2012-06-16T09:56:16Z</time>
      </trkpt>
      <trkpt lat="46.33685152977705" lon="7.13708552531898">
        <ele>1649.28</ele>
        <time>2012-06-16T09:56:17Z</time>
      </trkpt>
      <trkpt lat="46.336798472329974" lon="7.137016206979752">
        <ele>1648.8</ele>
        <time>2012-06-16T09:56:18Z</time>
      </trkpt>
      <trkpt lat="46.336738793179393" lon="7.136955857276917">
        <ele>1648.8</ele>
        <time>2012-06-16T09:56:19Z</time>
      </trkpt>
      <trkpt lat="46.336675845086575" lon="7.13690229691565">
        <ele>1648.3199999999999</ele>
        <time>2012-06-16T09:56:20Z</time>
      </trkpt>
      <trkpt lat="46.336547434329987" lon="7.136793751269579">
        <ele>1647.8399999999999</ele>
        <time>2012-06-16T09:56:22Z</time>
      </trkpt>
      <trkpt lat="46.335812592878938" lon="7.135770320892334">
        <ele>1641.5899999999999</ele>
        <time>2012-06-16T09:56:34Z</time>
      </trkpt>
      <trkpt lat="46.335641350597143" lon="7.135500088334084">
        <ele>1640.6300000000001</ele>
        <time>2012-06-16T09:56:37Z</time>
      </trkpt>
      <trkpt lat="46.335497600957751" lon="7.135226000100374">
        <ele>1639.6700000000001</ele>
        <time>2012-06-16T09:56:40Z</time>
      </trkpt>
      <trkpt lat="46.335328035056591" lon="7.134994240477681">
        <ele>1638.7</ele>
        <time>2012-06-16T09:56:43Z</time>
      </trkpt>
      <trkpt lat="46.335278498008847" lon="7.13490572758019">
        <ele>1638.22</ele>
        <time>2012-06-16T09:56:44Z</time>
      </trkpt>
      <trkpt lat="46.335200797766447" lon="7.134364172816277">
        <ele>1637.26</ele>
        <time>2012-06-16T09:56:49Z</time>
      </trkpt>
      <trkpt lat="46.335207587108016" lon="7.1342490054667">
        <ele>1636.78</ele>
        <time>2012-06-16T09:56:50Z</time>
      </trkpt>
      <trkpt lat="46.335216136649251" lon="7.134133419021964">
        <ele>1636.78</ele>
        <time>2012-06-16T09:56:51Z</time>
      </trkpt>
      <trkpt lat="46.335311774164438" lon="7.132709920406342">
        <ele>1631.49</ele>
        <time>2012-06-16T09:57:03Z</time>
      </trkpt>
      <trkpt lat="46.335414536297321" lon="7.132067866623402">
        <ele>1629.5699999999999</ele>
        <time>2012-06-16T09:57:09Z</time>
      </trkpt>
      <trkpt lat="46.335417721420527" lon="7.131982538849115">
        <ele>1629.0899999999999</ele>
        <time>2012-06-16T09:57:10Z</time>
      </trkpt>
      <trkpt lat="46.335418894886971" lon="7.131913304328919">
        <ele>1629.0899999999999</ele>
        <time>2012-06-16T09:57:11Z</time>
      </trkpt>
      <trkpt lat="46.335431886836886" lon="7.131764944642782">
        <ele>1629.0899999999999</ele>
        <time>2012-06-16T09:57:18Z</time>
      </trkpt>
      <trkpt lat="46.335430797189474" lon="7.131769806146622">
        <ele>1629.5699999999999</ele>
        <time>2012-06-16T09:57:40Z</time>
      </trkpt>
      <trkpt lat="46.335428031161427" lon="7.131756562739611">
        <ele>1629.5699999999999</ele>
        <time>2012-06-16T09:58:10Z</time>
      </trkpt>
      <trkpt lat="46.335428282618523" lon="7.131771231070161">
        <ele>1629.0899999999999</ele>
        <time>2012-06-16T09:58:43Z</time>
      </trkpt>
      <trkpt lat="46.335422331467271" lon="7.131783636286855">
        <ele>1629.5699999999999</ele>
        <time>2012-06-16T09:59:15Z</time>
      </trkpt>
      <trkpt lat="46.335438089445233" lon="7.131762765347958">
        <ele>1631.49</ele>
        <time>2012-06-16T09:59:42Z</time>
      </trkpt>
      <trkpt lat="46.335442531853914" lon="7.131759831681848">
        <ele>1629.5699999999999</ele>
        <time>2012-06-16T10:00:12Z</time>
      </trkpt>
      <trkpt lat="46.335426354780793" lon="7.131790174171329">
        <ele>1629.0899999999999</ele>
        <time>2012-06-16T10:00:45Z</time>
      </trkpt>
      <trkpt lat="46.335432808846235" lon="7.131709204986692">
        <ele>1627.1700000000001</ele>
        <time>2012-06-16T10:01:15Z</time>
      </trkpt>
      <trkpt lat="46.335457703098655" lon="7.131611052900553">
        <ele>1626.6900000000001</ele>
        <time>2012-06-16T10:01:17Z</time>
      </trkpt>
      <trkpt lat="46.335516963154078" lon="7.131418436765671">
        <ele>1626.21</ele>
        <time>2012-06-16T10:01:20Z</time>
      </trkpt>
      <trkpt lat="46.335600446909666" lon="7.131224647164345">
        <ele>1626.21</ele>
        <time>2012-06-16T10:01:23Z</time>
      </trkpt>
      <trkpt lat="46.335714356973767" lon="7.13086137548089">
        <ele>1625.73</ele>
        <time>2012-06-16T10:01:28Z</time>
      </trkpt>
      <trkpt lat="46.335830697789788" lon="7.130426773801446">
        <ele>1625.73</ele>
        <time>2012-06-16T10:01:34Z</time>
      </trkpt>
      <trkpt lat="46.335862968116999" lon="7.130365585908294">
        <ele>1625.25</ele>
        <time>2012-06-16T10:01:35Z</time>
      </trkpt>
      <trkpt lat="46.335903033614159" lon="7.130308505147696">
        <ele>1625.25</ele>
        <time>2012-06-16T10:01:36Z</time>
      </trkpt>
      <trkpt lat="46.335952235385776" lon="7.130260057747364">
        <ele>1625.25</ele>
        <time>2012-06-16T10:01:37Z</time>
      </trkpt>
      <trkpt lat="46.336006717756391" lon="7.130223931744695">
        <ele>1624.77</ele>
        <time>2012-06-16T10:01:38Z</time>
      </trkpt>
      <trkpt lat="46.336064636707306" lon="7.130197361111641">
        <ele>1624.77</ele>
        <time>2012-06-16T10:01:39Z</time>
      </trkpt>
      <trkpt lat="46.336120292544365" lon="7.130179340019822">
        <ele>1624.28</ele>
        <time>2012-06-16T10:01:40Z</time>
      </trkpt>
      <trkpt lat="46.336175110191107" lon="7.130164504051209">
        <ele>1624.28</ele>
        <time>2012-06-16T10:01:41Z</time>
      </trkpt>
      <trkpt lat="46.33623143658042" lon="7.130139945074916">
        <ele>1623.8</ele>
        <time>2012-06-16T10:01:42Z</time>
      </trkpt>
      <trkpt lat="46.336287343874574" lon="7.130102980881929">
        <ele>1623.3199999999999</ele>
        <time>2012-06-16T10:01:43Z</time>
      </trkpt>
      <trkpt lat="46.336340736597776" lon="7.130051935091615">
        <ele>1623.3199999999999</ele>
        <time>2012-06-16T10:01:44Z</time>
      </trkpt>
      <trkpt lat="46.336390776559711" lon="7.129984796047211">
        <ele>1622.8399999999999</ele>
        <time>2012-06-16T10:01:45Z</time>
      </trkpt>
      <trkpt lat="46.336432099342346" lon="7.129906006157398">
        <ele>1622.8399999999999</ele>
        <time>2012-06-16T10:01:46Z</time>
      </trkpt>
      <trkpt lat="46.336460094898939" lon="7.129814978688955">
        <ele>1622.3599999999999</ele>
        <time>2012-06-16T10:01:47Z</time>
      </trkpt>
      <trkpt lat="46.336477445438504" lon="7.129719592630863">
        <ele>1621.8800000000001</ele>
        <time>2012-06-16T10:01:48Z</time>
      </trkpt>
      <trkpt lat="46.336479960009456" lon="7.129626050591469">
        <ele>1621.8800000000001</ele>
        <time>2012-06-16T10:01:49Z</time>
      </trkpt>
      <trkpt lat="46.336468895897269" lon="7.129534352570772">
        <ele>1621.8800000000001</ele>
        <time>2012-06-16T10:01:50Z</time>
      </trkpt>
      <trkpt lat="46.336449617519975" lon="7.129448940977454">
        <ele>1621.8800000000001</ele>
        <time>2012-06-16T10:01:51Z</time>
      </trkpt>
      <trkpt lat="46.336427489295602" lon="7.129370402544737">
        <ele>1621.8800000000001</ele>
        <time>2012-06-16T10:01:52Z</time>
      </trkpt>
      <trkpt lat="46.336409971117973" lon="7.129296977072954">
        <ele>1621.8800000000001</ele>
        <time>2012-06-16T10:01:53Z</time>
      </trkpt>
      <trkpt lat="46.336402259767056" lon="7.129226149991155">
        <ele>1621.8800000000001</ele>
        <time>2012-06-16T10:01:54Z</time>
      </trkpt>
      <trkpt lat="46.336406785994768" lon="7.129161693155766">
        <ele>1621.8800000000001</ele>
        <time>2012-06-16T10:01:55Z</time>
      </trkpt>
      <trkpt lat="46.336425310000777" lon="7.129107713699341">
        <ele>1621.8800000000001</ele>
        <time>2012-06-16T10:01:56Z</time>
      </trkpt>
      <trkpt lat="46.336456071585417" lon="7.129074605181813">
        <ele>1622.3599999999999</ele>
        <time>2012-06-16T10:01:57Z</time>
      </trkpt>
      <trkpt lat="46.336494712159038" lon="7.129056919366121">
        <ele>1622.3599999999999</ele>
        <time>2012-06-16T10:01:58Z</time>
      </trkpt>
      <trkpt lat="46.336537627503276" lon="7.129043005406857">
        <ele>1622.3599999999999</ele>
        <time>2012-06-16T10:01:59Z</time>
      </trkpt>
      <trkpt lat="46.336583811789751" lon="7.129036467522383">
        <ele>1622.3599999999999</ele>
        <time>2012-06-16T10:02:00Z</time>
      </trkpt>
      <trkpt lat="46.336631756275892" lon="7.129038814455271">
        <ele>1622.8399999999999</ele>
        <time>2012-06-16T10:02:01Z</time>
      </trkpt>
      <trkpt lat="46.33667903020978" lon="7.129047447815538">
        <ele>1622.8399999999999</ele>
        <time>2012-06-16T10:02:02Z</time>
      </trkpt>
      <trkpt lat="46.336726639419794" lon="7.129059685394168">
        <ele>1622.8399999999999</ele>
        <time>2012-06-16T10:02:03Z</time>
      </trkpt>
      <trkpt lat="46.336821271106601" lon="7.129074856638908">
        <ele>1622.8399999999999</ele>
        <time>2012-06-16T10:02:05Z</time>
      </trkpt>
      <trkpt lat="46.337151853367686" lon="7.129165884107351">
        <ele>1622.8399999999999</ele>
        <time>2012-06-16T10:02:12Z</time>
      </trkpt>
      <trkpt lat="46.337200468406081" lon="7.129170829430223">
        <ele>1622.8399999999999</ele>
        <time>2012-06-16T10:02:13Z</time>
      </trkpt>
      <trkpt lat="46.33724925108254" lon="7.129168063402176">
        <ele>1622.8399999999999</ele>
        <time>2012-06-16T10:02:14Z</time>
      </trkpt>
      <trkpt lat="46.3372961897403" lon="7.129158088937402">
        <ele>1623.3199999999999</ele>
        <time>2012-06-16T10:02:15Z</time>
      </trkpt>
      <trkpt lat="46.337342457845807" lon="7.129143672063947">
        <ele>1623.3199999999999</ele>
        <time>2012-06-16T10:02:16Z</time>
      </trkpt>
      <trkpt lat="46.337761050090194" lon="7.128909481689334">
        <ele>1626.21</ele>
        <time>2012-06-16T10:02:28Z</time>
      </trkpt>
      <trkpt lat="46.338120885193348" lon="7.128668921068311">
        <ele>1629.5699999999999</ele>
        <time>2012-06-16T10:02:42Z</time>
      </trkpt>
      <trkpt lat="46.338386507704854" lon="7.128754835575819">
        <ele>1631.49</ele>
        <time>2012-06-16T10:02:53Z</time>
      </trkpt>
      <trkpt lat="46.338749025017023" lon="7.128689205273986">
        <ele>1632.46</ele>
        <time>2012-06-16T10:03:06Z</time>
      </trkpt>
      <trkpt lat="46.339235426858068" lon="7.128592981025577">
        <ele>1631.98</ele>
        <time>2012-06-16T10:03:21Z</time>
      </trkpt>
      <trkpt lat="46.339736916124821" lon="7.128829350695014">
        <ele>1632.46</ele>
        <time>2012-06-16T10:03:37Z</time>
      </trkpt>
      <trkpt lat="46.340012010186911" lon="7.128953402861953">
        <ele>1633.4200000000001</ele>
        <time>2012-06-16T10:03:46Z</time>
      </trkpt>
      <trkpt lat="46.340345190837979" lon="7.128852568566799">
        <ele>1635.3399999999999</ele>
        <time>2012-06-16T10:03:57Z</time>
      </trkpt>
      <trkpt lat="46.340748192742467" lon="7.128452751785517">
        <ele>1636.78</ele>
        <time>2012-06-16T10:04:12Z</time>
      </trkpt>
      <trkpt lat="46.341096963733435" lon="7.128073554486036">
        <ele>1637.74</ele>
        <time>2012-06-16T10:04:26Z</time>
      </trkpt>
      <trkpt lat="46.34144707582891" lon="7.127646412700415">
        <ele>1643.99</ele>
        <time>2012-06-16T10:04:41Z</time>
      </trkpt>
      <trkpt lat="46.341688390821218" lon="7.127092536538839">
        <ele>1648.3199999999999</ele>
        <time>2012-06-16T10:04:57Z</time>
      </trkpt>
      <trkpt lat="46.34184630587697" lon="7.126592388376594">
        <ele>1651.2</ele>
        <time>2012-06-16T10:05:12Z</time>
      </trkpt>
      <trkpt lat="46.341860722750425" lon="7.125987214967609">
        <ele>1649.76</ele>
        <time>2012-06-16T10:05:29Z</time>
      </trkpt>
      <trkpt lat="46.341759385541081" lon="7.125400984659791">
        <ele>1651.2</ele>
        <time>2012-06-16T10:05:45Z</time>
      </trkpt>
      <trkpt lat="46.341493176296353" lon="7.12485121563077">
        <ele>1654.0899999999999</ele>
        <time>2012-06-16T10:06:04Z</time>
      </trkpt>
      <trkpt lat="46.341275498270988" lon="7.124360203742981">
        <ele>1655.05</ele>
        <time>2012-06-16T10:06:20Z</time>
      </trkpt>
      <trkpt lat="46.341382786631584" lon="7.123998105525971">
        <ele>1656.97</ele>
        <time>2012-06-16T10:06:32Z</time>
      </trkpt>
      <trkpt lat="46.341633908450603" lon="7.123614968731999">
        <ele>1660.8099999999999</ele>
        <time>2012-06-16T10:06:46Z</time>
      </trkpt>
      <trkpt lat="46.341881090775132" lon="7.123020775616169">
        <ele>1661.3</ele>
        <time>2012-06-16T10:07:04Z</time>
      </trkpt>
      <trkpt lat="46.342117376625538" lon="7.122590616345406">
        <ele>1663.22</ele>
        <time>2012-06-16T10:07:18Z</time>
      </trkpt>
      <trkpt lat="46.342388531193137" lon="7.122292136773467">
        <ele>1663.7</ele>
        <time>2012-06-16T10:07:31Z</time>
      </trkpt>
      <trkpt lat="46.342564970254898" lon="7.121900115162134">
        <ele>1663.7</ele>
        <time>2012-06-16T10:07:43Z</time>
      </trkpt>
      <trkpt lat="46.342613669112325" lon="7.121286392211914">
        <ele>1662.74</ele>
        <time>2012-06-16T10:07:58Z</time>
      </trkpt>
      <trkpt lat="46.342604700475931" lon="7.121229562908411">
        <ele>1662.26</ele>
        <time>2012-06-16T10:07:59Z</time>
      </trkpt>
      <trkpt lat="46.342578800395131" lon="7.12110785767436">
        <ele>1661.78</ele>
        <time>2012-06-16T10:08:01Z</time>
      </trkpt>
      <trkpt lat="46.342554576694965" lon="7.121046921238303">
        <ele>1661.3</ele>
        <time>2012-06-16T10:08:02Z</time>
      </trkpt>
      <trkpt lat="46.342475200071931" lon="7.120948852971196">
        <ele>1660.3299999999999</ele>
        <time>2012-06-16T10:08:04Z</time>
      </trkpt>
      <trkpt lat="46.342437984421849" lon="7.120911134406924">
        <ele>1660.3299999999999</ele>
        <time>2012-06-16T10:08:05Z</time>
      </trkpt>
      <trkpt lat="46.342412838712335" lon="7.120863357558847">
        <ele>1659.8499999999999</ele>
        <time>2012-06-16T10:08:06Z</time>
      </trkpt>
      <trkpt lat="46.342407558113337" lon="7.120804768055677">
        <ele>1659.3699999999999</ele>
        <time>2012-06-16T10:08:07Z</time>
      </trkpt>
      <trkpt lat="46.342422813177109" lon="7.120747100561857">
        <ele>1658.8900000000001</ele>
        <time>2012-06-16T10:08:08Z</time>
      </trkpt>
      <trkpt lat="46.342454412952065" lon="7.120699323713779">
        <ele>1658.4100000000001</ele>
        <time>2012-06-16T10:08:09Z</time>
      </trkpt>
      <trkpt lat="46.342498501762748" lon="7.12066076695919">
        <ele>1657.9300000000001</ele>
        <time>2012-06-16T10:08:10Z</time>
      </trkpt>
      <trkpt lat="46.342548206448555" lon="7.120625311508775">
        <ele>1657.45</ele>
        <time>2012-06-16T10:08:11Z</time>
      </trkpt>
      <trkpt lat="46.342792036011815" lon="7.120458343997598">
        <ele>1654.0899999999999</ele>
        <time>2012-06-16T10:08:16Z</time>
      </trkpt>
      <trkpt lat="46.342825312167406" lon="7.120418027043343">
        <ele>1653.5999999999999</ele>
        <time>2012-06-16T10:08:17Z</time>
      </trkpt>
      <trkpt lat="46.342844674363732" lon="7.120366562157869">
        <ele>1653.1199999999999</ele>
        <time>2012-06-16T10:08:18Z</time>
      </trkpt>
      <trkpt lat="46.342844255268574" lon="7.120306631550193">
        <ele>1652.1600000000001</ele>
        <time>2012-06-16T10:08:19Z</time>
      </trkpt>
      <trkpt lat="46.342820869758725" lon="7.120246952399612">
        <ele>1651.6800000000001</ele>
        <time>2012-06-16T10:08:20Z</time>
      </trkpt>
      <trkpt lat="46.342779798433185" lon="7.120194733142853">
        <ele>1651.2</ele>
        <time>2012-06-16T10:08:21Z</time>
      </trkpt>
      <trkpt lat="46.342727243900299" lon="7.120153326541185">
        <ele>1650.24</ele>
        <time>2012-06-16T10:08:22Z</time>
      </trkpt>
      <trkpt lat="46.342675443738699" lon="7.120112339034677">
        <ele>1649.28</ele>
        <time>2012-06-16T10:08:23Z</time>
      </trkpt>
      <trkpt lat="46.342631857842207" lon="7.120059533044696">
        <ele>1648.8</ele>
        <time>2012-06-16T10:08:24Z</time>
      </trkpt>
      <trkpt lat="46.342597240582108" lon="7.119988538324833">
        <ele>1648.3199999999999</ele>
        <time>2012-06-16T10:08:25Z</time>
      </trkpt>
      <trkpt lat="46.342572346329689" lon="7.119904551655054">
        <ele>1647.3599999999999</ele>
        <time>2012-06-16T10:08:26Z</time>
      </trkpt>
      <trkpt lat="46.342552732676268" lon="7.119811847805977">
        <ele>1646.8800000000001</ele>
        <time>2012-06-16T10:08:27Z</time>
      </trkpt>
      <trkpt lat="46.342539237812161" lon="7.11971034295857">
        <ele>1646.4000000000001</ele>
        <time>2012-06-16T10:08:28Z</time>
      </trkpt>
      <trkpt lat="46.342531107366085" lon="7.119602132588625">
        <ele>1645.9100000000001</ele>
        <time>2012-06-16T10:08:29Z</time>
      </trkpt>
      <trkpt lat="46.342533705756068" lon="7.119488893076778">
        <ele>1644.95</ele>
        <time>2012-06-16T10:08:30Z</time>
      </trkpt>
      <trkpt lat="46.342543009668589" lon="7.119373138993979">
        <ele>1644.47</ele>
        <time>2012-06-16T10:08:31Z</time>
      </trkpt>
      <trkpt lat="46.342576621100307" lon="7.118425481021404">
        <ele>1640.6300000000001</ele>
        <time>2012-06-16T10:08:39Z</time>
      </trkpt>
      <trkpt lat="46.3426080532372" lon="7.1183255687356">
        <ele>1640.6300000000001</ele>
        <time>2012-06-16T10:08:40Z</time>
      </trkpt>
      <trkpt lat="46.342649543657899" lon="7.118246946483851">
        <ele>1641.1099999999999</ele>
        <time>2012-06-16T10:08:41Z</time>
      </trkpt>
      <trkpt lat="46.342690531164408" lon="7.118186177685857">
        <ele>1641.1099999999999</ele>
        <time>2012-06-16T10:08:42Z</time>
      </trkpt>
      <trkpt lat="46.342729590833187" lon="7.118141418322921">
        <ele>1641.5899999999999</ele>
        <time>2012-06-16T10:08:43Z</time>
      </trkpt>
      <trkpt lat="46.342768231406808" lon="7.118106046691537">
        <ele>1642.0699999999999</ele>
        <time>2012-06-16T10:08:44Z</time>
      </trkpt>
      <trkpt lat="46.343034775927663" lon="7.117889542132616">
        <ele>1645.4300000000001</ele>
        <time>2012-06-16T10:08:55Z</time>
      </trkpt>
      <trkpt lat="46.343314480036497" lon="7.11754035204649">
        <ele>1649.28</ele>
        <time>2012-06-16T10:09:10Z</time>
      </trkpt>
      <trkpt lat="46.343391928821802" lon="7.117125280201435">
        <ele>1647.8399999999999</ele>
        <time>2012-06-16T10:09:18Z</time>
      </trkpt>
      <trkpt lat="46.343416487798095" lon="7.117059398442507">
        <ele>1647.3599999999999</ele>
        <time>2012-06-16T10:09:19Z</time>
      </trkpt>
      <trkpt lat="46.34344850666821" lon="7.116997120901942">
        <ele>1646.8800000000001</ele>
        <time>2012-06-16T10:09:20Z</time>
      </trkpt>
      <trkpt lat="46.343635004013777" lon="7.116705346852541">
        <ele>1643.99</ele>
        <time>2012-06-16T10:09:25Z</time>
      </trkpt>
      <trkpt lat="46.343663921579719" lon="7.11664130911231">
        <ele>1643.51</ele>
        <time>2012-06-16T10:09:26Z</time>
      </trkpt>
      <trkpt lat="46.343688061460853" lon="7.116575846448541">
        <ele>1643.03</ele>
        <time>2012-06-16T10:09:27Z</time>
      </trkpt>
      <trkpt lat="46.343705412000418" lon="7.116511724889278">
        <ele>1642.55</ele>
        <time>2012-06-16T10:09:28Z</time>
      </trkpt>
      <trkpt lat="46.343715051189065" lon="7.116442741826177">
        <ele>1642.0699999999999</ele>
        <time>2012-06-16T10:09:29Z</time>
      </trkpt>
      <trkpt lat="46.343723181635141" lon="7.11636571213603">
        <ele>1641.5899999999999</ele>
        <time>2012-06-16T10:09:30Z</time>
      </trkpt>
      <trkpt lat="46.343757966533303" lon="7.11610084399581">
        <ele>1640.1500000000001</ele>
        <time>2012-06-16T10:09:33Z</time>
      </trkpt>
      <trkpt lat="46.34378369897604" lon="7.116011576727033">
        <ele>1639.1900000000001</ele>
        <time>2012-06-16T10:09:34Z</time>
      </trkpt>
      <trkpt lat="46.343816807493567" lon="7.115924321115017">
        <ele>1638.7</ele>
        <time>2012-06-16T10:09:35Z</time>
      </trkpt>
      <trkpt lat="46.344221569597721" lon="7.115074060857296">
        <ele>1633.4200000000001</ele>
        <time>2012-06-16T10:09:45Z</time>
      </trkpt>
      <trkpt lat="46.344245625659823" lon="7.11497263982892">
        <ele>1632.9400000000001</ele>
        <time>2012-06-16T10:09:46Z</time>
      </trkpt>
      <trkpt lat="46.344262976199389" lon="7.11467407643795">
        <ele>1631.01</ele>
        <time>2012-06-16T10:09:49Z</time>
      </trkpt>
      <trkpt lat="46.344255600124598" lon="7.114583887159824">
        <ele>1630.53</ele>
        <time>2012-06-16T10:09:50Z</time>
      </trkpt>
      <trkpt lat="46.344239423051476" lon="7.114497721195221">
        <ele>1629.5699999999999</ele>
        <time>2012-06-16T10:09:51Z</time>
      </trkpt>
      <trkpt lat="46.344215283170342" lon="7.114417254924774">
        <ele>1628.6099999999999</ele>
        <time>2012-06-16T10:09:52Z</time>
      </trkpt>
      <trkpt lat="46.344181755557656" lon="7.114344164729118">
        <ele>1627.1700000000001</ele>
        <time>2012-06-16T10:09:53Z</time>
      </trkpt>
      <trkpt lat="46.344138588756323" lon="7.114279707893729">
        <ele>1626.21</ele>
        <time>2012-06-16T10:09:54Z</time>
      </trkpt>
      <trkpt lat="46.344089638441801" lon="7.114220699295402">
        <ele>1625.25</ele>
        <time>2012-06-16T10:09:55Z</time>
      </trkpt>
      <trkpt lat="46.344035156071186" lon="7.11416982114315">
        <ele>1623.8</ele>
        <time>2012-06-16T10:09:56Z</time>
      </trkpt>
      <trkpt lat="46.343975393101573" lon="7.11412338539958">
        <ele>1622.8399999999999</ele>
        <time>2012-06-16T10:09:57Z</time>
      </trkpt>
      <trkpt lat="46.343912864103913" lon="7.114075357094407">
        <ele>1621.4000000000001</ele>
        <time>2012-06-16T10:09:58Z</time>
      </trkpt>
      <trkpt lat="46.343851676210761" lon="7.114015510305762">
        <ele>1619.96</ele>
        <time>2012-06-16T10:09:59Z</time>
      </trkpt>
      <trkpt lat="46.343802222982049" lon="7.113946862518787">
        <ele>1619</ele>
        <time>2012-06-16T10:10:00Z</time>
      </trkpt>
      <trkpt lat="46.343710776418447" lon="7.113801771774888">
        <ele>1617.0699999999999</ele>
        <time>2012-06-16T10:10:02Z</time>
      </trkpt>
      <trkpt lat="46.343401232734323" lon="7.11348962970078">
        <ele>1612.27</ele>
        <time>2012-06-16T10:10:07Z</time>
      </trkpt>
      <trkpt lat="46.343345660716295" lon="7.113409414887428">
        <ele>1611.3099999999999</ele>
        <time>2012-06-16T10:10:08Z</time>
      </trkpt>
      <trkpt lat="46.343295201659203" lon="7.113316794857383">
        <ele>1610.3499999999999</ele>
        <time>2012-06-16T10:10:09Z</time>
      </trkpt>
      <trkpt lat="46.342889936640859" lon="7.112395288422704">
        <ele>1601.6900000000001</ele>
        <time>2012-06-16T10:10:20Z</time>
      </trkpt>
      <trkpt lat="46.34277711622417" lon="7.112164786085486">
        <ele>1599.77</ele>
        <time>2012-06-16T10:10:23Z</time>
      </trkpt>
      <trkpt lat="46.342735541984439" lon="7.112102257087827">
        <ele>1598.8099999999999</ele>
        <time>2012-06-16T10:10:24Z</time>
      </trkpt>
      <trkpt lat="46.342693213373423" lon="7.11204819381237">
        <ele>1597.8499999999999</ele>
        <time>2012-06-16T10:10:25Z</time>
      </trkpt>
      <trkpt lat="46.342650381848216" lon="7.112001171335578">
        <ele>1597.3699999999999</ele>
        <time>2012-06-16T10:10:26Z</time>
      </trkpt>
      <trkpt lat="46.34260268881917" lon="7.111956831067801">
        <ele>1596.8900000000001</ele>
        <time>2012-06-16T10:10:27Z</time>
      </trkpt>
      <trkpt lat="46.342500764876604" lon="7.111870581284165">
        <ele>1595.45</ele>
        <time>2012-06-16T10:10:29Z</time>
      </trkpt>
      <trkpt lat="46.342447707429528" lon="7.111837221309543">
        <ele>1594.96</ele>
        <time>2012-06-16T10:10:30Z</time>
      </trkpt>
      <trkpt lat="46.342393141239882" lon="7.111797155812383">
        <ele>1594</ele>
        <time>2012-06-16T10:10:31Z</time>
      </trkpt>
      <trkpt lat="46.341699035838246" lon="7.111063655465841">
        <ele>1583.9100000000001</ele>
        <time>2012-06-16T10:10:43Z</time>
      </trkpt>
      <trkpt lat="46.341273318976164" lon="7.110255640000105">
        <ele>1573.3299999999999</ele>
        <time>2012-06-16T10:10:54Z</time>
      </trkpt>
      <trkpt lat="46.341135855764151" lon="7.110057827085257">
        <ele>1570.9300000000001</ele>
        <time>2012-06-16T10:10:57Z</time>
      </trkpt>
      <trkpt lat="46.341100819408894" lon="7.109980881214142">
        <ele>1569.97</ele>
        <time>2012-06-16T10:10:58Z</time>
      </trkpt>
      <trkpt lat="46.341073075309396" lon="7.109894463792443">
        <ele>1569.49</ele>
        <time>2012-06-16T10:10:59Z</time>
      </trkpt>
      <trkpt lat="46.341053210198879" lon="7.109792958945036">
        <ele>1568.53</ele>
        <time>2012-06-16T10:11:00Z</time>
      </trkpt>
      <trkpt lat="46.341034853830934" lon="7.109688017517328">
        <ele>1568.05</ele>
        <time>2012-06-16T10:11:01Z</time>
      </trkpt>
      <trkpt lat="46.341011803597212" lon="7.109581483528018">
        <ele>1567.0899999999999</ele>
        <time>2012-06-16T10:11:02Z</time>
      </trkpt>
      <trkpt lat="46.340980287641287" lon="7.109474614262581">
        <ele>1566.1199999999999</ele>
        <time>2012-06-16T10:11:03Z</time>
      </trkpt>
      <trkpt lat="46.340943407267332" lon="7.109366906806827">
        <ele>1565.6400000000001</ele>
        <time>2012-06-16T10:11:04Z</time>
      </trkpt>
      <trkpt lat="46.340825641527772" lon="7.109041521325707">
        <ele>1562.28</ele>
        <time>2012-06-16T10:11:07Z</time>
      </trkpt>
      <trkpt lat="46.340695805847645" lon="7.10863902233541">
        <ele>1558.4300000000001</ele>
        <time>2012-06-16T10:11:11Z</time>
      </trkpt>
      <trkpt lat="46.340678790584207" lon="7.108556376770139">
        <ele>1557.47</ele>
        <time>2012-06-16T10:11:12Z</time>
      </trkpt>
      <trkpt lat="46.340672839432955" lon="7.108472054824233">
        <ele>1556.51</ele>
        <time>2012-06-16T10:11:13Z</time>
      </trkpt>
      <trkpt lat="46.340674348175526" lon="7.108386140316725">
        <ele>1556.03</ele>
        <time>2012-06-16T10:11:14Z</time>
      </trkpt>
      <trkpt lat="46.340684406459332" lon="7.108306344598532">
        <ele>1555.55</ele>
        <time>2012-06-16T10:11:15Z</time>
      </trkpt>
      <trkpt lat="46.34070242755115" lon="7.108228309080005">
        <ele>1555.55</ele>
        <time>2012-06-16T10:11:16Z</time>
      </trkpt>
      <trkpt lat="46.340731848031282" lon="7.108165612444282">
        <ele>1555.0699999999999</ele>
        <time>2012-06-16T10:11:17Z</time>
      </trkpt>
      <trkpt lat="46.34077032096684" lon="7.108118422329426">
        <ele>1555.0699999999999</ele>
        <time>2012-06-16T10:11:18Z</time>
      </trkpt>
      <trkpt lat="46.340812146663666" lon="7.108086654916406">
        <ele>1555.0699999999999</ele>
        <time>2012-06-16T10:11:19Z</time>
      </trkpt>
      <trkpt lat="46.340859420597553" lon="7.108070645481348">
        <ele>1555.0699999999999</ele>
        <time>2012-06-16T10:11:20Z</time>
      </trkpt>
      <trkpt lat="46.34090468287468" lon="7.108066957443953">
        <ele>1555.55</ele>
        <time>2012-06-16T10:11:21Z</time>
      </trkpt>
      <trkpt lat="46.340949777513742" lon="7.108064107596874">
        <ele>1555.55</ele>
        <time>2012-06-16T10:11:22Z</time>
      </trkpt>
      <trkpt lat="46.340995877981186" lon="7.108059749007225">
        <ele>1555.0699999999999</ele>
        <time>2012-06-16T10:11:23Z</time>
      </trkpt>
      <trkpt lat="46.341295447200537" lon="7.108090426772833">
        <ele>1554.5899999999999</ele>
        <time>2012-06-16T10:11:29Z</time>
      </trkpt>
      <trkpt lat="46.34143534116447" lon="7.108128312975168">
        <ele>1554.1099999999999</ele>
        <time>2012-06-16T10:11:32Z</time>
      </trkpt>
      <trkpt lat="46.341473814100027" lon="7.108120014891028">
        <ele>1554.5899999999999</ele>
        <time>2012-06-16T10:11:33Z</time>
      </trkpt>
      <trkpt lat="46.341508682817221" lon="7.108103586360812">
        <ele>1554.5899999999999</ele>
        <time>2012-06-16T10:11:34Z</time>
      </trkpt>
      <trkpt lat="46.341533828526735" lon="7.108078859746456">
        <ele>1555.0699999999999</ele>
        <time>2012-06-16T10:11:35Z</time>
      </trkpt>
      <trkpt lat="46.341544138267636" lon="7.108047930523753">
        <ele>1555.55</ele>
        <time>2012-06-16T10:11:36Z</time>
      </trkpt>
      <trkpt lat="46.341545395553112" lon="7.108018258586526">
        <ele>1556.03</ele>
        <time>2012-06-16T10:11:37Z</time>
      </trkpt>
      <trkpt lat="46.341545144096017" lon="7.107992861419916">
        <ele>1556.03</ele>
        <time>2012-06-16T10:11:38Z</time>
      </trkpt>
      <trkpt lat="46.341540031135082" lon="7.107970817014575">
        <ele>1556.51</ele>
        <time>2012-06-16T10:11:39Z</time>
      </trkpt>
      <trkpt lat="46.341532235965133" lon="7.107948018237948">
        <ele>1556.99</ele>
        <time>2012-06-16T10:11:40Z</time>
      </trkpt>
      <trkpt lat="46.34161664173007" lon="7.107640905305743">
        <ele>1558.9200000000001</ele>
        <time>2012-06-16T10:11:51Z</time>
      </trkpt>
      <trkpt lat="46.341921407729387" lon="7.107508219778538">
        <ele>1561.3199999999999</ele>
        <time>2012-06-16T10:12:04Z</time>
      </trkpt>
      <trkpt lat="46.342276968061924" lon="7.107279561460018">
        <ele>1565.1600000000001</ele>
        <time>2012-06-16T10:12:19Z</time>
      </trkpt>
      <trkpt lat="46.342653734609485" lon="7.107236813753843">
        <ele>1567.0899999999999</ele>
        <time>2012-06-16T10:12:34Z</time>
      </trkpt>
      <trkpt lat="46.342913070693612" lon="7.10691025480628">
        <ele>1569.49</ele>
        <time>2012-06-16T10:12:48Z</time>
      </trkpt>
      <trkpt lat="46.342912819236517" lon="7.106876643374562">
        <ele>1569.97</ele>
        <time>2012-06-16T10:12:49Z</time>
      </trkpt>
      <trkpt lat="46.342904772609472" lon="7.106847641989589">
        <ele>1569.97</ele>
        <time>2012-06-16T10:12:50Z</time>
      </trkpt>
      <trkpt lat="46.342893624678254" lon="7.106820400804281">
        <ele>1569.97</ele>
        <time>2012-06-16T10:12:51Z</time>
      </trkpt>
      <trkpt lat="46.342879710718989" lon="7.106795003637672">
        <ele>1569.97</ele>
        <time>2012-06-16T10:12:52Z</time>
      </trkpt>
      <trkpt lat="46.34286311455071" lon="7.106772623956204">
        <ele>1569.97</ele>
        <time>2012-06-16T10:12:53Z</time>
      </trkpt>
      <trkpt lat="46.342845177277923" lon="7.10675141774118">
        <ele>1569.97</ele>
        <time>2012-06-16T10:12:54Z</time>
      </trkpt>
      <trkpt lat="46.342645604163408" lon="7.106797015294433">
        <ele>1570.45</ele>
        <time>2012-06-16T10:13:03Z</time>
      </trkpt>
      <trkpt lat="46.342369839549065" lon="7.106874883174896">
        <ele>1570.45</ele>
        <time>2012-06-16T10:13:17Z</time>
      </trkpt>
      <trkpt lat="46.342186443507671" lon="7.106851246207953">
        <ele>1569.97</ele>
        <time>2012-06-16T10:13:28Z</time>
      </trkpt>
      <trkpt lat="46.342169595882297" lon="7.106852922588587">
        <ele>1569.97</ele>
        <time>2012-06-16T10:13:29Z</time>
      </trkpt>
      <trkpt lat="46.342150904238224" lon="7.106853341683745">
        <ele>1569.97</ele>
        <time>2012-06-16T10:13:30Z</time>
      </trkpt>
      <trkpt lat="46.342132883146405" lon="7.106855856254697">
        <ele>1569.97</ele>
        <time>2012-06-16T10:13:31Z</time>
      </trkpt>
      <trkpt lat="46.342115448787808" lon="7.10685795173049">
        <ele>1569.97</ele>
        <time>2012-06-16T10:13:32Z</time>
      </trkpt>
      <trkpt lat="46.341973207890987" lon="7.106879912316799">
        <ele>1573.8199999999999</ele>
        <time>2012-06-16T10:13:43Z</time>
      </trkpt>
      <trkpt lat="46.341964239254594" lon="7.106878152117133">
        <ele>1574.3</ele>
        <time>2012-06-16T10:13:44Z</time>
      </trkpt>
      <trkpt lat="46.341951917856932" lon="7.10688192397356">
        <ele>1574.78</ele>
        <time>2012-06-16T10:13:45Z</time>
      </trkpt>
      <trkpt lat="46.34194110520184" lon="7.106879996135831">
        <ele>1575.26</ele>
        <time>2012-06-16T10:13:46Z</time>
      </trkpt>
      <trkpt lat="46.341929789632559" lon="7.106878068298101">
        <ele>1576.22</ele>
        <time>2012-06-16T10:13:47Z</time>
      </trkpt>
      <trkpt lat="46.341915121302009" lon="7.106882426887751">
        <ele>1577.1800000000001</ele>
        <time>2012-06-16T10:13:48Z</time>
      </trkpt>
      <trkpt lat="46.341897435486317" lon="7.106889551505446">
        <ele>1577.6600000000001</ele>
        <time>2012-06-16T10:13:49Z</time>
      </trkpt>
      <trkpt lat="46.341878995299339" lon="7.106893910095096">
        <ele>1578.6199999999999</ele>
        <time>2012-06-16T10:13:50Z</time>
      </trkpt>
      <trkpt lat="46.341862566769123" lon="7.106894161552191">
        <ele>1579.0999999999999</ele>
        <time>2012-06-16T10:13:51Z</time>
      </trkpt>
      <trkpt lat="46.341843707486987" lon="7.106888880953193">
        <ele>1579.5799999999999</ele>
        <time>2012-06-16T10:13:52Z</time>
      </trkpt>
      <trkpt lat="46.341828871518373" lon="7.106876978650689">
        <ele>1580.0599999999999</ele>
        <time>2012-06-16T10:13:53Z</time>
      </trkpt>
      <trkpt lat="46.341816131025553" lon="7.106867423281074">
        <ele>1580.54</ele>
        <time>2012-06-16T10:13:54Z</time>
      </trkpt>
      <trkpt lat="46.341802719980478" lon="7.106855856254697">
        <ele>1581.03</ele>
        <time>2012-06-16T10:13:55Z</time>
      </trkpt>
      <trkpt lat="46.341790398582816" lon="7.106844121590257">
        <ele>1581.51</ele>
        <time>2012-06-16T10:13:56Z</time>
      </trkpt>
      <trkpt lat="46.341779166832566" lon="7.106831632554531">
        <ele>1581.51</ele>
        <time>2012-06-16T10:13:57Z</time>
      </trkpt>
      <trkpt lat="46.341768186539412" lon="7.106817970052362">
        <ele>1581.99</ele>
        <time>2012-06-16T10:13:58Z</time>
      </trkpt>
      <trkpt lat="46.341597279533744" lon="7.106546899303794">
        <ele>1589.6800000000001</ele>
        <time>2012-06-16T10:14:15Z</time>
      </trkpt>
      <trkpt lat="46.341449255123734" lon="7.106268955394626">
        <ele>1594</ele>
        <time>2012-06-16T10:14:31Z</time>
      </trkpt>
      <trkpt lat="46.341390917077661" lon="7.105964776128531">
        <ele>1597.8499999999999</ele>
        <time>2012-06-16T10:14:46Z</time>
      </trkpt>
      <trkpt lat="46.341301314532757" lon="7.105608964338899">
        <ele>1600.25</ele>
        <time>2012-06-16T10:15:04Z</time>
      </trkpt>
      <trkpt lat="46.341199474409223" lon="7.105283411219716">
        <ele>1604.0999999999999</ele>
        <time>2012-06-16T10:15:21Z</time>
      </trkpt>
      <trkpt lat="46.34102244861424" lon="7.105109905824065">
        <ele>1607.9400000000001</ele>
        <time>2012-06-16T10:15:36Z</time>
      </trkpt>
      <trkpt lat="46.34099755436182" lon="7.105091465637088">
        <ele>1608.4200000000001</ele>
        <time>2012-06-16T10:15:38Z</time>
      </trkpt>
      <trkpt lat="46.340793706476688" lon="7.105039916932583">
        <ele>1610.8299999999999</ele>
        <time>2012-06-16T10:15:54Z</time>
      </trkpt>
      <trkpt lat="46.340573094785213" lon="7.105048298835754">
        <ele>1617.0699999999999</ele>
        <time>2012-06-16T10:16:10Z</time>
      </trkpt>
      <trkpt lat="46.340412413701415" lon="7.105040922760963">
        <ele>1621.4000000000001</ele>
        <time>2012-06-16T10:16:24Z</time>
      </trkpt>
      <trkpt lat="46.340281991288066" lon="7.10500848479569">
        <ele>1629.5699999999999</ele>
        <time>2012-06-16T10:16:38Z</time>
      </trkpt>
      <trkpt lat="46.340077724307775" lon="7.105070510879159">
        <ele>1631.98</ele>
        <time>2012-06-16T10:16:51Z</time>
      </trkpt>
      <trkpt lat="46.339837163686752" lon="7.105152402073145">
        <ele>1632.46</ele>
        <time>2012-06-16T10:17:07Z</time>
      </trkpt>
      <trkpt lat="46.339745130389929" lon="7.105221133679152">
        <ele>1631.98</ele>
        <time>2012-06-16T10:17:14Z</time>
      </trkpt>
      <trkpt lat="46.339730210602283" lon="7.105230018496513">
        <ele>1631.98</ele>
        <time>2012-06-16T10:17:15Z</time>
      </trkpt>
      <trkpt lat="46.339711686596274" lon="7.105242339894176">
        <ele>1631.98</ele>
        <time>2012-06-16T10:17:16Z</time>
      </trkpt>
      <trkpt lat="46.339692743495107" lon="7.105253906920552">
        <ele>1631.98</ele>
        <time>2012-06-16T10:17:17Z</time>
      </trkpt>
      <trkpt lat="46.339674638584256" lon="7.105267150327563">
        <ele>1631.98</ele>
        <time>2012-06-16T10:17:18Z</time>
      </trkpt>
      <trkpt lat="46.339655527845025" lon="7.105279555544257">
        <ele>1631.98</ele>
        <time>2012-06-16T10:17:19Z</time>
      </trkpt>
      <trkpt lat="46.339635076001287" lon="7.1052928827703">
        <ele>1631.98</ele>
        <time>2012-06-16T10:17:20Z</time>
      </trkpt>
      <trkpt lat="46.339617725461721" lon="7.105305874720216">
        <ele>1631.98</ele>
        <time>2012-06-16T10:17:21Z</time>
      </trkpt>
      <trkpt lat="46.339599285274744" lon="7.105318447574973">
        <ele>1631.49</ele>
        <time>2012-06-16T10:17:22Z</time>
      </trkpt>
      <trkpt lat="46.33958101272583" lon="7.105328338220716">
        <ele>1631.49</ele>
        <time>2012-06-16T10:17:23Z</time>
      </trkpt>
      <trkpt lat="46.339561734348536" lon="7.105336971580982">
        <ele>1631.49</ele>
        <time>2012-06-16T10:17:24Z</time>
      </trkpt>
      <trkpt lat="46.339543629437685" lon="7.105348203331232">
        <ele>1631.49</ele>
        <time>2012-06-16T10:17:25Z</time>
      </trkpt>
      <trkpt lat="46.3395238481462" lon="7.105363793671131">
        <ele>1631.49</ele>
        <time>2012-06-16T10:17:26Z</time>
      </trkpt>
      <trkpt lat="46.339508509263396" lon="7.105378210544586">
        <ele>1631.49</ele>
        <time>2012-06-16T10:17:27Z</time>
      </trkpt>
      <trkpt lat="46.339499037712812" lon="7.105388520285487">
        <ele>1631.98</ele>
        <time>2012-06-16T10:17:28Z</time>
      </trkpt>
      <trkpt lat="46.339488141238689" lon="7.105400757864118">
        <ele>1631.98</ele>
        <time>2012-06-16T10:17:29Z</time>
      </trkpt>
      <trkpt lat="46.33947741240263" lon="7.105415845289826">
        <ele>1631.98</ele>
        <time>2012-06-16T10:17:30Z</time>
      </trkpt>
      <trkpt lat="46.339462576434016" lon="7.105433531105518">
        <ele>1631.98</ele>
        <time>2012-06-16T10:17:31Z</time>
      </trkpt>
      <trkpt lat="46.339286975562572" lon="7.105585495010018">
        <ele>1632.46</ele>
        <time>2012-06-16T10:17:44Z</time>
      </trkpt>
      <trkpt lat="46.339118499308825" lon="7.105703093111515">
        <ele>1632.46</ele>
        <time>2012-06-16T10:17:56Z</time>
      </trkpt>
      <trkpt lat="46.339017245918512" lon="7.105769142508507">
        <ele>1631.98</ele>
        <time>2012-06-16T10:18:04Z</time>
      </trkpt>
      <trkpt lat="46.338989585638046" lon="7.105811974033713">
        <ele>1631.98</ele>
        <time>2012-06-16T10:18:07Z</time>
      </trkpt>
      <trkpt lat="46.338805016130209" lon="7.105930326506496">
        <ele>1631.98</ele>
        <time>2012-06-16T10:18:20Z</time>
      </trkpt>
      <trkpt lat="46.338593624532223" lon="7.106077009811997">
        <ele>1631.49</ele>
        <time>2012-06-16T10:18:34Z</time>
      </trkpt>
      <trkpt lat="46.338429590687156" lon="7.106178849935532">
        <ele>1631.98</ele>
        <time>2012-06-16T10:18:46Z</time>
      </trkpt>
      <trkpt lat="46.338416766375303" lon="7.106182873249054">
        <ele>1631.98</ele>
        <time>2012-06-16T10:18:47Z</time>
      </trkpt>
      <trkpt lat="46.338270334526896" lon="7.1062823664397">
        <ele>1633.9000000000001</ele>
        <time>2012-06-16T10:18:59Z</time>
      </trkpt>
      <trkpt lat="46.33825683966279" lon="7.106320587918162">
        <ele>1637.26</ele>
        <time>2012-06-16T10:19:19Z</time>
      </trkpt>
      <trkpt lat="46.338197914883494" lon="7.106394013389945">
        <ele>1637.74</ele>
        <time>2012-06-16T10:19:46Z</time>
      </trkpt>
      <trkpt lat="46.338316854089499" lon="7.106394683942199">
        <ele>1638.7</ele>
        <time>2012-06-16T10:20:18Z</time>
      </trkpt>
      <trkpt lat="46.338312914595008" lon="7.106378506869078">
        <ele>1642.55</ele>
        <time>2012-06-16T10:20:38Z</time>
      </trkpt>
      <trkpt lat="46.338304867967963" lon="7.106375740841031">
        <ele>1643.51</ele>
        <time>2012-06-16T10:20:39Z</time>
      </trkpt>
      <trkpt lat="46.338291876018047" lon="7.106378255411983">
        <ele>1643.51</ele>
        <time>2012-06-16T10:20:40Z</time>
      </trkpt>
      <trkpt lat="46.338218534365296" lon="7.106394851580262">
        <ele>1651.6800000000001</ele>
        <time>2012-06-16T10:20:52Z</time>
      </trkpt>
      <trkpt lat="46.338066570460796" lon="7.106430977582932">
        <ele>1658.4100000000001</ele>
        <time>2012-06-16T10:21:05Z</time>
      </trkpt>
      <trkpt lat="46.337900189682841" lon="7.106501050293446">
        <ele>1657.45</ele>
        <time>2012-06-16T10:21:17Z</time>
      </trkpt>
      <trkpt lat="46.337879402562976" lon="7.106507169082761">
        <ele>1657.9300000000001</ele>
        <time>2012-06-16T10:21:19Z</time>
      </trkpt>
      <trkpt lat="46.337632555514574" lon="7.106492500752211">
        <ele>1655.05</ele>
        <time>2012-06-16T10:21:33Z</time>
      </trkpt>
      <trkpt lat="46.337481178343296" lon="7.106504151597619">
        <ele>1657.45</ele>
        <time>2012-06-16T10:21:45Z</time>
      </trkpt>
      <trkpt lat="46.337469946593046" lon="7.106504151597619">
        <ele>1657.9300000000001</ele>
        <time>2012-06-16T10:21:46Z</time>
      </trkpt>
      <trkpt lat="46.337249418720603" lon="7.106541870161891">
        <ele>1661.78</ele>
        <time>2012-06-16T10:22:01Z</time>
      </trkpt>
      <trkpt lat="46.337030734866858" lon="7.106544384732842">
        <ele>1661.78</ele>
        <time>2012-06-16T10:22:14Z</time>
      </trkpt>
      <trkpt lat="46.336784558370709" lon="7.106495099142194">
        <ele>1662.26</ele>
        <time>2012-06-16T10:22:30Z</time>
      </trkpt>
      <trkpt lat="46.336508374661207" lon="7.10646559484303">
        <ele>1666.5799999999999</ele>
        <time>2012-06-16T10:22:49Z</time>
      </trkpt>
      <trkpt lat="46.336342748254538" lon="7.106384877115488">
        <ele>1668.51</ele>
        <time>2012-06-16T10:23:02Z</time>
      </trkpt>
      <trkpt lat="46.33632481098175" lon="7.106360821053386">
        <ele>1668.99</ele>
        <time>2012-06-16T10:23:04Z</time>
      </trkpt>
      <trkpt lat="46.336316177621484" lon="7.106346907094121">
        <ele>1669.47</ele>
        <time>2012-06-16T10:23:05Z</time>
      </trkpt>
      <trkpt lat="46.3363067060709" lon="7.106332574039698">
        <ele>1669.47</ele>
        <time>2012-06-16T10:23:06Z</time>
      </trkpt>
      <trkpt lat="46.336296480149031" lon="7.106317654252052">
        <ele>1669.95</ele>
        <time>2012-06-16T10:23:07Z</time>
      </trkpt>
      <trkpt lat="46.33628717623651" lon="7.1063013933599">
        <ele>1669.95</ele>
        <time>2012-06-16T10:23:08Z</time>
      </trkpt>
      <trkpt lat="46.336280051618814" lon="7.106285551562905">
        <ele>1669.95</ele>
        <time>2012-06-16T10:23:09Z</time>
      </trkpt>
      <trkpt lat="46.336272172629833" lon="7.106269877403975">
        <ele>1670.9100000000001</ele>
        <time>2012-06-16T10:23:10Z</time>
      </trkpt>
      <trkpt lat="46.336265467107296" lon="7.106253700330854">
        <ele>1671.3900000000001</ele>
        <time>2012-06-16T10:23:11Z</time>
      </trkpt>
      <trkpt lat="46.336260186508298" lon="7.106235679239035">
        <ele>1671.8699999999999</ele>
        <time>2012-06-16T10:23:12Z</time>
      </trkpt>
      <trkpt lat="46.336257085204124" lon="7.106216317042708">
        <ele>1672.3499999999999</ele>
        <time>2012-06-16T10:23:13Z</time>
      </trkpt>
      <trkpt lat="46.3362549059093" lon="7.106194440275431">
        <ele>1672.8299999999999</ele>
        <time>2012-06-16T10:23:14Z</time>
      </trkpt>
      <trkpt lat="46.336254654452205" lon="7.105868719518185">
        <ele>1676.6800000000001</ele>
        <time>2012-06-16T10:23:29Z</time>
      </trkpt>
      <trkpt lat="46.336262449622154" lon="7.105668308213353">
        <ele>1678.1199999999999</ele>
        <time>2012-06-16T10:23:38Z</time>
      </trkpt>
      <trkpt lat="46.336267730221152" lon="7.10564911365509">
        <ele>1678.5999999999999</ele>
        <time>2012-06-16T10:23:39Z</time>
      </trkpt>
      <trkpt lat="46.336272675544024" lon="7.105625476688147">
        <ele>1679.0799999999999</ele>
        <time>2012-06-16T10:23:40Z</time>
      </trkpt>
      <trkpt lat="46.336274100467563" lon="7.105602845549583">
        <ele>1679.5599999999999</ele>
        <time>2012-06-16T10:23:41Z</time>
      </trkpt>
      <trkpt lat="46.33627493865788" lon="7.105580633506179">
        <ele>1680.04</ele>
        <time>2012-06-16T10:23:42Z</time>
      </trkpt>
      <trkpt lat="46.336276112124324" lon="7.105556912720203">
        <ele>1680.52</ele>
        <time>2012-06-16T10:23:43Z</time>
      </trkpt>
      <trkpt lat="46.336278542876244" lon="7.10553620941937">
        <ele>1680.52</ele>
        <time>2012-06-16T10:23:44Z</time>
      </trkpt>
      <trkpt lat="46.336274519562721" lon="7.105515087023377">
        <ele>1681</ele>
        <time>2012-06-16T10:23:45Z</time>
      </trkpt>
      <trkpt lat="46.336272424086928" lon="7.105493126437068">
        <ele>1681.48</ele>
        <time>2012-06-16T10:23:46Z</time>
      </trkpt>
      <trkpt lat="46.336272927001119" lon="7.105468902736902">
        <ele>1681.48</ele>
        <time>2012-06-16T10:23:47Z</time>
      </trkpt>
      <trkpt lat="46.336272172629833" lon="7.105447193607688">
        <ele>1681.48</ele>
        <time>2012-06-16T10:23:48Z</time>
      </trkpt>
      <trkpt lat="46.336270580068231" lon="7.105426322668791">
        <ele>1681.96</ele>
        <time>2012-06-16T10:23:49Z</time>
      </trkpt>
      <trkpt lat="46.336271418258548" lon="7.105405619367957">
        <ele>1681.96</ele>
        <time>2012-06-16T10:23:50Z</time>
      </trkpt>
      <trkpt lat="46.336270663887262" lon="7.105380976572633">
        <ele>1681.96</ele>
        <time>2012-06-16T10:23:51Z</time>
      </trkpt>
      <trkpt lat="46.336346687749028" lon="7.105032373219729">
        <ele>1681.96</ele>
        <time>2012-06-16T10:24:09Z</time>
      </trkpt>
      <trkpt lat="46.336447605863214" lon="7.104744706302881">
        <ele>1684.3699999999999</ele>
        <time>2012-06-16T10:24:25Z</time>
      </trkpt>
      <trkpt lat="46.336456406861544" lon="7.104727774858475">
        <ele>1684.8499999999999</ele>
        <time>2012-06-16T10:24:26Z</time>
      </trkpt>
      <trkpt lat="46.336463196203113" lon="7.104709334671497">
        <ele>1684.8499999999999</ele>
        <time>2012-06-16T10:24:27Z</time>
      </trkpt>
      <trkpt lat="46.33646747097373" lon="7.104687541723251">
        <ele>1684.8499999999999</ele>
        <time>2012-06-16T10:24:28Z</time>
      </trkpt>
      <trkpt lat="46.336470823734999" lon="7.104664072394371">
        <ele>1685.3299999999999</ele>
        <time>2012-06-16T10:24:29Z</time>
      </trkpt>
      <trkpt lat="46.33656763471663" lon="7.10436936467886">
        <ele>1687.73</ele>
        <time>2012-06-16T10:24:44Z</time>
      </trkpt>
      <trkpt lat="46.336520360782743" lon="7.104067029431462">
        <ele>1689.6500000000001</ele>
        <time>2012-06-16T10:24:59Z</time>
      </trkpt>
      <trkpt lat="46.336391028016806" lon="7.103818254545331">
        <ele>1691.5799999999999</ele>
        <time>2012-06-16T10:25:12Z</time>
      </trkpt>
      <trkpt lat="46.336242835968733" lon="7.103540310636163">
        <ele>1694.46</ele>
        <time>2012-06-16T10:25:28Z</time>
      </trkpt>
      <trkpt lat="46.336101433262229" lon="7.103267228230834">
        <ele>1697.8299999999999</ele>
        <time>2012-06-16T10:25:45Z</time>
      </trkpt>
      <trkpt lat="46.335919965058565" lon="7.103068325668573">
        <ele>1698.79</ele>
        <time>2012-06-16T10:26:00Z</time>
      </trkpt>
      <trkpt lat="46.335705388337374" lon="7.102908650413156">
        <ele>1700.71</ele>
        <time>2012-06-16T10:26:17Z</time>
      </trkpt>
      <trkpt lat="46.335449740290642" lon="7.102862130850554">
        <ele>1703.1099999999999</ele>
        <time>2012-06-16T10:26:34Z</time>
      </trkpt>
      <trkpt lat="46.335241869091988" lon="7.102820137515664">
        <ele>1707.9200000000001</ele>
        <time>2012-06-16T10:26:48Z</time>
      </trkpt>
      <trkpt lat="46.335069620981812" lon="7.102718129754067">
        <ele>1711.76</ele>
        <time>2012-06-16T10:27:02Z</time>
      </trkpt>
      <trkpt lat="46.334874741733074" lon="7.102591814473271">
        <ele>1715.6099999999999</ele>
        <time>2012-06-16T10:27:15Z</time>
      </trkpt>
      <trkpt lat="46.334767621010542" lon="7.102544791996479">
        <ele>1716.5699999999999</ele>
        <time>2012-06-16T10:27:22Z</time>
      </trkpt>
      <trkpt lat="46.334473416209221" lon="7.102471198886633">
        <ele>1718.01</ele>
        <time>2012-06-16T10:27:42Z</time>
      </trkpt>
      <trkpt lat="46.334280464798212" lon="7.102419901639223">
        <ele>1721.3800000000001</ele>
        <time>2012-06-16T10:27:55Z</time>
      </trkpt>
      <trkpt lat="46.334270155057311" lon="7.102410597726703">
        <ele>1721.3800000000001</ele>
        <time>2012-06-16T10:27:56Z</time>
      </trkpt>
      <trkpt lat="46.334254564717412" lon="7.102393163368106">
        <ele>1721.3800000000001</ele>
        <time>2012-06-16T10:27:58Z</time>
      </trkpt>
      <trkpt lat="46.33424760773778" lon="7.102377070114017">
        <ele>1721.3800000000001</ele>
        <time>2012-06-16T10:27:59Z</time>
      </trkpt>
      <trkpt lat="46.334233358502388" lon="7.102348655462265">
        <ele>1721.3800000000001</ele>
        <time>2012-06-16T10:28:01Z</time>
      </trkpt>
      <trkpt lat="46.334223719313741" lon="7.102335244417191">
        <ele>1721.3800000000001</ele>
        <time>2012-06-16T10:28:02Z</time>
      </trkpt>
      <trkpt lat="46.334172002971172" lon="7.102234158664942">
        <ele>1721.8599999999999</ele>
        <time>2012-06-16T10:28:07Z</time>
      </trkpt>
      <trkpt lat="46.334165213629603" lon="7.102209599688649">
        <ele>1722.3399999999999</ele>
        <time>2012-06-16T10:28:08Z</time>
      </trkpt>
      <trkpt lat="46.334074269980192" lon="7.101954203099012">
        <ele>1728.1099999999999</ele>
        <time>2012-06-16T10:28:21Z</time>
      </trkpt>
      <trkpt lat="46.334065552800894" lon="7.101918999105692">
        <ele>1729.55</ele>
        <time>2012-06-16T10:28:23Z</time>
      </trkpt>
      <trkpt lat="46.334059769287705" lon="7.101903995499015">
        <ele>1730.51</ele>
        <time>2012-06-16T10:28:24Z</time>
      </trkpt>
      <trkpt lat="46.334051471203566" lon="7.101884130388498">
        <ele>1731.47</ele>
        <time>2012-06-16T10:28:25Z</time>
      </trkpt>
      <trkpt lat="46.334040490910411" lon="7.101864935830236">
        <ele>1731.95</ele>
        <time>2012-06-16T10:28:26Z</time>
      </trkpt>
      <trkpt lat="46.3340272475034" lon="7.101844400167465">
        <ele>1732.4300000000001</ele>
        <time>2012-06-16T10:28:27Z</time>
      </trkpt>
      <trkpt lat="46.334016937762499" lon="7.101827301084995">
        <ele>1733.3900000000001</ele>
        <time>2012-06-16T10:28:28Z</time>
      </trkpt>
      <trkpt lat="46.333974441513419" lon="7.101621525362134">
        <ele>1735.3199999999999</ele>
        <time>2012-06-16T10:28:37Z</time>
      </trkpt>
      <trkpt lat="46.33396765217185" lon="7.10160375572741">
        <ele>1735.3199999999999</ele>
        <time>2012-06-16T10:28:38Z</time>
      </trkpt>
      <trkpt lat="46.333968658000231" lon="7.101570479571819">
        <ele>1735.8</ele>
        <time>2012-06-16T10:28:39Z</time>
      </trkpt>
      <trkpt lat="46.333965556696057" lon="7.101545669138432">
        <ele>1735.8</ele>
        <time>2012-06-16T10:28:40Z</time>
      </trkpt>
      <trkpt lat="46.333967987447977" lon="7.101510548964143">
        <ele>1735.8</ele>
        <time>2012-06-16T10:28:41Z</time>
      </trkpt>
      <trkpt lat="46.33396714925766" lon="7.101480877026916">
        <ele>1735.8</ele>
        <time>2012-06-16T10:28:42Z</time>
      </trkpt>
      <trkpt lat="46.333963377401233" lon="7.101450534537435">
        <ele>1736.28</ele>
        <time>2012-06-16T10:28:43Z</time>
      </trkpt>
      <trkpt lat="46.333948206156492" lon="7.101381802931428">
        <ele>1736.76</ele>
        <time>2012-06-16T10:28:46Z</time>
      </trkpt>
      <trkpt lat="46.333938147872686" lon="7.101371493190527">
        <ele>1737.72</ele>
        <time>2012-06-16T10:28:47Z</time>
      </trkpt>
      <trkpt lat="46.333929430693388" lon="7.101353136822581">
        <ele>1737.72</ele>
        <time>2012-06-16T10:28:48Z</time>
      </trkpt>
      <trkpt lat="46.333917444571853" lon="7.10133402608335">
        <ele>1737.72</ele>
        <time>2012-06-16T10:28:49Z</time>
      </trkpt>
      <trkpt lat="46.333911912515759" lon="7.101312568411231">
        <ele>1738.2</ele>
        <time>2012-06-16T10:28:50Z</time>
      </trkpt>
      <trkpt lat="46.333782244473696" lon="7.101015346124768">
        <ele>1738.6800000000001</ele>
        <time>2012-06-16T10:29:03Z</time>
      </trkpt>
      <trkpt lat="46.333646960556507" lon="7.100766571238637">
        <ele>1740.5999999999999</ele>
        <time>2012-06-16T10:29:17Z</time>
      </trkpt>
      <trkpt lat="46.333525506779552" lon="7.1005629748106">
        <ele>1744.45</ele>
        <time>2012-06-16T10:29:30Z</time>
      </trkpt>
      <trkpt lat="46.333453087136149" lon="7.10020188242197">
        <ele>1744.45</ele>
        <time>2012-06-16T10:29:44Z</time>
      </trkpt>
      <trkpt lat="46.333406986668706" lon="7.100095432251692">
        <ele>1744.45</ele>
        <time>2012-06-16T10:29:49Z</time>
      </trkpt>
      <trkpt lat="46.333347726613283" lon="7.09991455078125">
        <ele>1746.8499999999999</ele>
        <time>2012-06-16T10:29:58Z</time>
      </trkpt>
      <trkpt lat="46.333134071901441" lon="7.09962286055088">
        <ele>1747.8099999999999</ele>
        <time>2012-06-16T10:30:16Z</time>
      </trkpt>
      <trkpt lat="46.332897450774908" lon="7.099423622712493">
        <ele>1745.8900000000001</ele>
        <time>2012-06-16T10:30:34Z</time>
      </trkpt>
      <trkpt lat="46.332799969241023" lon="7.099373666569591">
        <ele>1745.4100000000001</ele>
        <time>2012-06-16T10:30:50Z</time>
      </trkpt>
      <trkpt lat="46.332808267325163" lon="7.09935313090682">
        <ele>1741.0799999999999</ele>
        <time>2012-06-16T10:31:23Z</time>
      </trkpt>
      <trkpt lat="46.332771722227335" lon="7.099353969097138">
        <ele>1741.5699999999999</ele>
        <time>2012-06-16T10:32:00Z</time>
      </trkpt>
      <trkpt lat="46.332760909572244" lon="7.099355896934867">
        <ele>1742.05</ele>
        <time>2012-06-16T10:32:01Z</time>
      </trkpt>
      <trkpt lat="46.332749929279089" lon="7.099355226382613">
        <ele>1742.05</ele>
        <time>2012-06-16T10:32:02Z</time>
      </trkpt>
      <trkpt lat="46.332740960642695" lon="7.099349861964583">
        <ele>1742.53</ele>
        <time>2012-06-16T10:32:03Z</time>
      </trkpt>
      <trkpt lat="46.332730399444699" lon="7.099347012117505">
        <ele>1743.01</ele>
        <time>2012-06-16T10:32:04Z</time>
      </trkpt>
      <trkpt lat="46.332719838246703" lon="7.099346928298473">
        <ele>1743.01</ele>
        <time>2012-06-16T10:32:05Z</time>
      </trkpt>
      <trkpt lat="46.332706930115819" lon="7.099345000460744">
        <ele>1743.01</ele>
        <time>2012-06-16T10:32:06Z</time>
      </trkpt>
      <trkpt lat="46.332524120807648" lon="7.099300660192967">
        <ele>1746.3699999999999</ele>
        <time>2012-06-16T10:32:20Z</time>
      </trkpt>
      <trkpt lat="46.332294708117843" lon="7.099221954122186">
        <ele>1751.1800000000001</ele>
        <time>2012-06-16T10:32:37Z</time>
      </trkpt>
      <trkpt lat="46.332109970971942" lon="7.099116006866098">
        <ele>1753.5799999999999</ele>
        <time>2012-06-16T10:32:51Z</time>
      </trkpt>
      <trkpt lat="46.331950295716524" lon="7.099014418199658">
        <ele>1756.47</ele>
        <time>2012-06-16T10:33:03Z</time>
      </trkpt>
      <trkpt lat="46.331735551357269" lon="7.098911320790649">
        <ele>1758.8699999999999</ele>
        <time>2012-06-16T10:33:18Z</time>
      </trkpt>
      <trkpt lat="46.331736808642745" lon="7.098920876160264">
        <ele>1758.3900000000001</ele>
        <time>2012-06-16T10:33:44Z</time>
      </trkpt>
      <trkpt lat="46.331695569679141" lon="7.098898831754923">
        <ele>1759.3499999999999</ele>
        <time>2012-06-16T10:34:13Z</time>
      </trkpt>
      <trkpt lat="46.331690037623048" lon="7.098887180909514">
        <ele>1759.3499999999999</ele>
        <time>2012-06-16T10:34:14Z</time>
      </trkpt>
      <trkpt lat="46.33168475702405" lon="7.098868908360601">
        <ele>1759.3499999999999</ele>
        <time>2012-06-16T10:34:15Z</time>
      </trkpt>
      <trkpt lat="46.331679141148925" lon="7.098854742944241">
        <ele>1759.3499999999999</ele>
        <time>2012-06-16T10:34:16Z</time>
      </trkpt>
      <trkpt lat="46.331670843064785" lon="7.0988395716995">
        <ele>1759.3499999999999</ele>
        <time>2012-06-16T10:34:17Z</time>
      </trkpt>
      <trkpt lat="46.331660114228725" lon="7.098827417939901">
        <ele>1759.8299999999999</ele>
        <time>2012-06-16T10:34:18Z</time>
      </trkpt>
      <trkpt lat="46.33165055885911" lon="7.098821047693491">
        <ele>1759.8299999999999</ele>
        <time>2012-06-16T10:34:19Z</time>
      </trkpt>
      <trkpt lat="46.331510748714209" lon="7.098698085173965">
        <ele>1765.1199999999999</ele>
        <time>2012-06-16T10:34:32Z</time>
      </trkpt>
      <trkpt lat="46.331356521695852" lon="7.098470265045762">
        <ele>1767.04</ele>
        <time>2012-06-16T10:34:47Z</time>
      </trkpt>
      <trkpt lat="46.331304553896189" lon="7.098255520686507">
        <ele>1768</ele>
        <time>2012-06-16T10:34:57Z</time>
      </trkpt>
      <trkpt lat="46.331299105659127" lon="7.098234230652452">
        <ele>1768</ele>
        <time>2012-06-16T10:34:58Z</time>
      </trkpt>
      <trkpt lat="46.331295082345605" lon="7.098213527351618">
        <ele>1768</ele>
        <time>2012-06-16T10:34:59Z</time>
      </trkpt>
      <trkpt lat="46.331290807574987" lon="7.098193075507879">
        <ele>1768.48</ele>
        <time>2012-06-16T10:35:00Z</time>
      </trkpt>
      <trkpt lat="46.331285107880831" lon="7.098171198740602">
        <ele>1768.48</ele>
        <time>2012-06-16T10:35:01Z</time>
      </trkpt>
      <trkpt lat="46.331251496449113" lon="7.097845477983356">
        <ele>1768.96</ele>
        <time>2012-06-16T10:35:16Z</time>
      </trkpt>
      <trkpt lat="46.331210676580667" lon="7.097516404464841">
        <ele>1770.4100000000001</ele>
        <time>2012-06-16T10:35:31Z</time>
      </trkpt>
      <trkpt lat="46.331211347132921" lon="7.097490336745977">
        <ele>1770.4100000000001</ele>
        <time>2012-06-16T10:35:32Z</time>
      </trkpt>
      <trkpt lat="46.331208413466811" lon="7.097465107217431">
        <ele>1770.8900000000001</ele>
        <time>2012-06-16T10:35:33Z</time>
      </trkpt>
      <trkpt lat="46.331201959401369" lon="7.097442978993058">
        <ele>1771.3699999999999</ele>
        <time>2012-06-16T10:35:34Z</time>
      </trkpt>
      <trkpt lat="46.33119416423142" lon="7.097423365339637">
        <ele>1771.3699999999999</ele>
        <time>2012-06-16T10:35:35Z</time>
      </trkpt>
      <trkpt lat="46.33118586614728" lon="7.097404506057501">
        <ele>1771.8499999999999</ele>
        <time>2012-06-16T10:35:36Z</time>
      </trkpt>
      <trkpt lat="46.331176143139601" lon="7.097385479137301">
        <ele>1771.8499999999999</ele>
        <time>2012-06-16T10:35:37Z</time>
      </trkpt>
      <trkpt lat="46.331033566966653" lon="7.097187582403421">
        <ele>1772.8099999999999</ele>
        <time>2012-06-16T10:35:50Z</time>
      </trkpt>
      <trkpt lat="46.330868694931269" lon="7.09680737927556">
        <ele>1777.1300000000001</ele>
        <time>2012-06-16T10:36:10Z</time>
      </trkpt>
      <trkpt lat="46.330744726583362" lon="7.096489202231169">
        <ele>1780.02</ele>
        <time>2012-06-16T10:36:27Z</time>
      </trkpt>
      <trkpt lat="46.330685298889875" lon="7.096172031015158">
        <ele>1782.9000000000001</ele>
        <time>2012-06-16T10:36:42Z</time>
      </trkpt>
      <trkpt lat="46.330704744905233" lon="7.095778919756413">
        <ele>1786.27</ele>
        <time>2012-06-16T10:37:01Z</time>
      </trkpt>
      <trkpt lat="46.33069627918303" lon="7.095417995005846">
        <ele>1788.1900000000001</ele>
        <time>2012-06-16T10:37:18Z</time>
      </trkpt>
      <trkpt lat="46.330515732988715" lon="7.095149857923389">
        <ele>1792.03</ele>
        <time>2012-06-16T10:37:36Z</time>
      </trkpt>
      <trkpt lat="46.330345245078206" lon="7.0948919467628">
        <ele>1795.4000000000001</ele>
        <time>2012-06-16T10:37:52Z</time>
      </trkpt>
      <trkpt lat="46.330287074670196" lon="7.094575949013233">
        <ele>1797.3199999999999</ele>
        <time>2012-06-16T10:38:07Z</time>
      </trkpt>
      <trkpt lat="46.330286907032132" lon="7.094222567975521">
        <ele>1798.28</ele>
        <time>2012-06-16T10:38:23Z</time>
      </trkpt>
      <trkpt lat="46.330171152949333" lon="7.093923920765519">
        <ele>1797.8</ele>
        <time>2012-06-16T10:38:35Z</time>
      </trkpt>
      <trkpt lat="46.33011138997972" lon="7.093738429248333">
        <ele>1796.8399999999999</ele>
        <time>2012-06-16T10:38:38Z</time>
      </trkpt>
      <trkpt lat="46.330097140744328" lon="7.093673134222627">
        <ele>1796.3599999999999</ele>
        <time>2012-06-16T10:38:39Z</time>
      </trkpt>
      <trkpt lat="46.330086495727301" lon="7.093613706529141">
        <ele>1795.4000000000001</ele>
        <time>2012-06-16T10:38:40Z</time>
      </trkpt>
      <trkpt lat="46.330066714435816" lon="7.093226378783584">
        <ele>1792.03</ele>
        <time>2012-06-16T10:38:47Z</time>
      </trkpt>
      <trkpt lat="46.330080293118954" lon="7.093166280537844">
        <ele>1791.0699999999999</ele>
        <time>2012-06-16T10:38:48Z</time>
      </trkpt>
      <trkpt lat="46.330087836831808" lon="7.093102326616645">
        <ele>1790.5899999999999</ele>
        <time>2012-06-16T10:38:49Z</time>
      </trkpt>
      <trkpt lat="46.330092279240489" lon="7.093032673001289">
        <ele>1790.1099999999999</ele>
        <time>2012-06-16T10:38:50Z</time>
      </trkpt>
      <trkpt lat="46.33009085431695" lon="7.092956062406302">
        <ele>1789.6300000000001</ele>
        <time>2012-06-16T10:38:51Z</time>
      </trkpt>
      <trkpt lat="46.330078952014446" lon="7.092876853421331">
        <ele>1789.1500000000001</ele>
        <time>2012-06-16T10:38:52Z</time>
      </trkpt>
      <trkpt lat="46.330056237056851" lon="7.092803427949548">
        <ele>1788.6700000000001</ele>
        <time>2012-06-16T10:38:53Z</time>
      </trkpt>
      <trkpt lat="46.330028157681227" lon="7.092740060761571">
        <ele>1788.1900000000001</ele>
        <time>2012-06-16T10:38:54Z</time>
      </trkpt>
      <trkpt lat="46.329995635896921" lon="7.092686416581273">
        <ele>1788.1900000000001</ele>
        <time>2012-06-16T10:38:55Z</time>
      </trkpt>
      <trkpt lat="46.32996286265552" lon="7.092644926160574">
        <ele>1787.71</ele>
        <time>2012-06-16T10:38:56Z</time>
      </trkpt>
      <trkpt lat="46.329932017251849" lon="7.0926159247756">
        <ele>1787.71</ele>
        <time>2012-06-16T10:38:57Z</time>
      </trkpt>
      <trkpt lat="46.329903434962034" lon="7.092595975846052">
        <ele>1787.71</ele>
        <time>2012-06-16T10:38:58Z</time>
      </trkpt>
      <trkpt lat="46.329876529052854" lon="7.09258072078228">
        <ele>1787.71</ele>
        <time>2012-06-16T10:38:59Z</time>
      </trkpt>
      <trkpt lat="46.329850293695927" lon="7.092568147927523">
        <ele>1787.71</ele>
        <time>2012-06-16T10:39:00Z</time>
      </trkpt>
      <trkpt lat="46.329823471605778" lon="7.092556413263083">
        <ele>1788.1900000000001</ele>
        <time>2012-06-16T10:39:01Z</time>
      </trkpt>
      <trkpt lat="46.329797487705946" lon="7.092540320008993">
        <ele>1788.1900000000001</ele>
        <time>2012-06-16T10:39:02Z</time>
      </trkpt>
      <trkpt lat="46.329554663971066" lon="7.092260364443064">
        <ele>1788.1900000000001</ele>
        <time>2012-06-16T10:39:10Z</time>
      </trkpt>
      <trkpt lat="46.329517951235175" lon="7.092230105772615">
        <ele>1788.1900000000001</ele>
        <time>2012-06-16T10:39:11Z</time>
      </trkpt>
      <trkpt lat="46.329367998987436" lon="7.09210429340601">
        <ele>1788.1900000000001</ele>
        <time>2012-06-16T10:39:15Z</time>
      </trkpt>
      <trkpt lat="46.329337740316987" lon="7.092056181281805">
        <ele>1788.1900000000001</ele>
        <time>2012-06-16T10:39:16Z</time>
      </trkpt>
      <trkpt lat="46.329314773902297" lon="7.092003291472793">
        <ele>1788.6700000000001</ele>
        <time>2012-06-16T10:39:17Z</time>
      </trkpt>
      <trkpt lat="46.329296585172415" lon="7.091954089701176">
        <ele>1788.6700000000001</ele>
        <time>2012-06-16T10:39:18Z</time>
      </trkpt>
      <trkpt lat="46.329282084479928" lon="7.091907067224383">
        <ele>1788.6700000000001</ele>
        <time>2012-06-16T10:39:19Z</time>
      </trkpt>
      <trkpt lat="46.329268170520663" lon="7.091858703643084">
        <ele>1788.6700000000001</ele>
        <time>2012-06-16T10:39:20Z</time>
      </trkpt>
      <trkpt lat="46.329232631251216" lon="7.091702967882156">
        <ele>1788.6700000000001</ele>
        <time>2012-06-16T10:39:23Z</time>
      </trkpt>
      <trkpt lat="46.329222405329347" lon="7.091634655371308">
        <ele>1788.1900000000001</ele>
        <time>2012-06-16T10:39:24Z</time>
      </trkpt>
      <trkpt lat="46.329206144437194" lon="7.091561229899526">
        <ele>1788.1900000000001</ele>
        <time>2012-06-16T10:39:25Z</time>
      </trkpt>
      <trkpt lat="46.329116625711322" lon="7.09125411696732">
        <ele>1786.75</ele>
        <time>2012-06-16T10:39:29Z</time>
      </trkpt>
      <trkpt lat="46.329105058684945" lon="7.091169208288193">
        <ele>1786.75</ele>
        <time>2012-06-16T10:39:30Z</time>
      </trkpt>
      <trkpt lat="46.329103969037533" lon="7.091084886342287">
        <ele>1786.75</ele>
        <time>2012-06-16T10:39:31Z</time>
      </trkpt>
      <trkpt lat="46.329114530235529" lon="7.091005761176348">
        <ele>1786.75</ele>
        <time>2012-06-16T10:39:32Z</time>
      </trkpt>
      <trkpt lat="46.32912777364254" lon="7.090935856103897">
        <ele>1786.75</ele>
        <time>2012-06-16T10:39:33Z</time>
      </trkpt>
      <trkpt lat="46.329157277941704" lon="7.090807445347309">
        <ele>1788.1900000000001</ele>
        <time>2012-06-16T10:39:37Z</time>
      </trkpt>
      <trkpt lat="46.329159373417497" lon="7.090790932998061">
        <ele>1788.1900000000001</ele>
        <time>2012-06-16T10:39:38Z</time>
      </trkpt>
      <trkpt lat="46.329251490533352" lon="7.09047275595367">
        <ele>1790.5899999999999</ele>
        <time>2012-06-16T10:39:52Z</time>
      </trkpt>
      <trkpt lat="46.329290550202131" lon="7.09037896245718">
        <ele>1790.5899999999999</ele>
        <time>2012-06-16T10:39:54Z</time>
      </trkpt>
      <trkpt lat="46.329304883256555" lon="7.090322384610772">
        <ele>1790.5899999999999</ele>
        <time>2012-06-16T10:39:55Z</time>
      </trkpt>
      <trkpt lat="46.329347630962729" lon="7.089919131249189">
        <ele>1791.0699999999999</ele>
        <time>2012-06-16T10:40:06Z</time>
      </trkpt>
      <trkpt lat="46.329334806650877" lon="7.08953800611198">
        <ele>1792.03</ele>
        <time>2012-06-16T10:40:15Z</time>
      </trkpt>
      <trkpt lat="46.329306978732347" lon="7.089490564540029">
        <ele>1792.03</ele>
        <time>2012-06-16T10:40:16Z</time>
      </trkpt>
      <trkpt lat="46.329271104186773" lon="7.089451337233186">
        <ele>1792.03</ele>
        <time>2012-06-16T10:40:17Z</time>
      </trkpt>
      <trkpt lat="46.329233385622501" lon="7.089422922581434">
        <ele>1792.03</ele>
        <time>2012-06-16T10:40:18Z</time>
      </trkpt>
      <trkpt lat="46.329194661229849" lon="7.089396268129349">
        <ele>1792.03</ele>
        <time>2012-06-16T10:40:19Z</time>
      </trkpt>
      <trkpt lat="46.329159624874592" lon="7.08937045186758">
        <ele>1792.03</ele>
        <time>2012-06-16T10:40:20Z</time>
      </trkpt>
      <trkpt lat="46.329123582690954" lon="7.089346647262573">
        <ele>1792.03</ele>
        <time>2012-06-16T10:40:21Z</time>
      </trkpt>
      <trkpt lat="46.328769531100988" lon="7.089210692793131">
        <ele>1794.9200000000001</ele>
        <time>2012-06-16T10:40:32Z</time>
      </trkpt>
      <trkpt lat="46.328576914966106" lon="7.089251764118671">
        <ele>1798.28</ele>
        <time>2012-06-16T10:40:43Z</time>
      </trkpt>
      <trkpt lat="46.328381784260273" lon="7.089259475469589">
        <ele>1802.1300000000001</ele>
        <time>2012-06-16T10:40:55Z</time>
      </trkpt>
      <trkpt lat="46.328299976885319" lon="7.089184122160077">
        <ele>1805.49</ele>
        <time>2012-06-16T10:41:05Z</time>
      </trkpt>
      <trkpt lat="46.328172069042921" lon="7.089073229581118">
        <ele>1808.3800000000001</ele>
        <time>2012-06-16T10:41:20Z</time>
      </trkpt>
      <trkpt lat="46.328018177300692" lon="7.089029224589467">
        <ele>1810.78</ele>
        <time>2012-06-16T10:41:35Z</time>
      </trkpt>
      <trkpt lat="46.327916337177157" lon="7.088978430256248">
        <ele>1813.1800000000001</ele>
        <time>2012-06-16T10:41:46Z</time>
      </trkpt>
      <trkpt lat="46.327802091836929" lon="7.088862340897322">
        <ele>1816.55</ele>
        <time>2012-06-16T10:42:01Z</time>
      </trkpt>
      <trkpt lat="46.327691785991192" lon="7.088736528530717">
        <ele>1817.99</ele>
        <time>2012-06-16T10:42:16Z</time>
      </trkpt>
      <trkpt lat="46.327661443501711" lon="7.08871515467763">
        <ele>1815.1099999999999</ele>
        <time>2012-06-16T10:42:26Z</time>
      </trkpt>
      <trkpt lat="46.327648870646954" lon="7.088713143020868">
        <ele>1815.1099999999999</ele>
        <time>2012-06-16T10:42:27Z</time>
      </trkpt>
      <trkpt lat="46.327634621411562" lon="7.088708365336061">
        <ele>1815.5899999999999</ele>
        <time>2012-06-16T10:42:28Z</time>
      </trkpt>
      <trkpt lat="46.327445860952139" lon="7.088488675653935">
        <ele>1817.51</ele>
        <time>2012-06-16T10:42:45Z</time>
      </trkpt>
      <trkpt lat="46.327361706644297" lon="7.088315589353442">
        <ele>1818.95</ele>
        <time>2012-06-16T10:42:54Z</time>
      </trkpt>
      <trkpt lat="46.327212424948812" lon="7.088045440614224">
        <ele>1821.8399999999999</ele>
        <time>2012-06-16T10:43:09Z</time>
      </trkpt>
      <trkpt lat="46.327195828780532" lon="7.088016606867313">
        <ele>1821.8399999999999</ele>
        <time>2012-06-16T10:43:11Z</time>
      </trkpt>
      <trkpt lat="46.327187949791551" lon="7.08799883723259">
        <ele>1822.3199999999999</ele>
        <time>2012-06-16T10:43:12Z</time>
      </trkpt>
      <trkpt lat="46.327178226783872" lon="7.087979558855295">
        <ele>1822.3199999999999</ele>
        <time>2012-06-16T10:43:13Z</time>
      </trkpt>
      <trkpt lat="46.326996423304081" lon="7.087709326297045">
        <ele>1824.72</ele>
        <time>2012-06-16T10:43:31Z</time>
      </trkpt>
      <trkpt lat="46.326942527666688" lon="7.087699351832271">
        <ele>1824.72</ele>
        <time>2012-06-16T10:43:35Z</time>
      </trkpt>
      <trkpt lat="46.326929200440645" lon="7.087706560268998">
        <ele>1824.72</ele>
        <time>2012-06-16T10:43:36Z</time>
      </trkpt>
      <trkpt lat="46.326915537938476" lon="7.08771544508636">
        <ele>1824.72</ele>
        <time>2012-06-16T10:43:37Z</time>
      </trkpt>
      <trkpt lat="46.326636085286736" lon="7.087755678221583">
        <ele>1826.6400000000001</ele>
        <time>2012-06-16T10:43:52Z</time>
      </trkpt>
      <trkpt lat="46.326598953455687" lon="7.087732208892703">
        <ele>1826.6400000000001</ele>
        <time>2012-06-16T10:43:54Z</time>
      </trkpt>
      <trkpt lat="46.326587637886405" lon="7.087715864181519">
        <ele>1826.6400000000001</ele>
        <time>2012-06-16T10:43:55Z</time>
      </trkpt>
      <trkpt lat="46.326570119708776" lon="7.087674960494041">
        <ele>1826.6400000000001</ele>
        <time>2012-06-16T10:43:57Z</time>
      </trkpt>
      <trkpt lat="46.326562911272049" lon="7.087645120918751">
        <ele>1826.1600000000001</ele>
        <time>2012-06-16T10:43:58Z</time>
      </trkpt>
      <trkpt lat="46.326497532427311" lon="7.087491480633616">
        <ele>1824.72</ele>
        <time>2012-06-16T10:44:01Z</time>
      </trkpt>
      <trkpt lat="46.326416814699769" lon="7.08736315369606">
        <ele>1823.76</ele>
        <time>2012-06-16T10:44:03Z</time>
      </trkpt>
      <trkpt lat="46.326377252116799" lon="7.087282603606582">
        <ele>1822.8</ele>
        <time>2012-06-16T10:44:04Z</time>
      </trkpt>
      <trkpt lat="46.326346071437001" lon="7.0871901512146">
        <ele>1822.3199999999999</ele>
        <time>2012-06-16T10:44:05Z</time>
      </trkpt>
      <trkpt lat="46.32632159627974" lon="7.087087389081717">
        <ele>1821.3499999999999</ele>
        <time>2012-06-16T10:44:06Z</time>
      </trkpt>
      <trkpt lat="46.326302904635668" lon="7.086983537301421">
        <ele>1820.8699999999999</ele>
        <time>2012-06-16T10:44:07Z</time>
      </trkpt>
      <trkpt lat="46.326282704249024" lon="7.086890414357185">
        <ele>1819.9100000000001</ele>
        <time>2012-06-16T10:44:08Z</time>
      </trkpt>
      <trkpt lat="46.326256720349193" lon="7.086809948086739">
        <ele>1819.9100000000001</ele>
        <time>2012-06-16T10:44:09Z</time>
      </trkpt>
      <trkpt lat="46.326221767812967" lon="7.086745826527476">
        <ele>1819.9100000000001</ele>
        <time>2012-06-16T10:44:10Z</time>
      </trkpt>
      <trkpt lat="46.326176589354873" lon="7.08670542575419">
        <ele>1819.9100000000001</ele>
        <time>2012-06-16T10:44:11Z</time>
      </trkpt>
      <trkpt lat="46.326126297935843" lon="7.08668053150177">
        <ele>1819.4300000000001</ele>
        <time>2012-06-16T10:44:12Z</time>
      </trkpt>
      <trkpt lat="46.32607089355588" lon="7.086658319458365">
        <ele>1818.95</ele>
        <time>2012-06-16T10:44:13Z</time>
      </trkpt>
      <trkpt lat="46.325789010152221" lon="7.086514234542847">
        <ele>1817.51</ele>
        <time>2012-06-16T10:44:18Z</time>
      </trkpt>
      <trkpt lat="46.325740227475762" lon="7.086452543735504">
        <ele>1817.03</ele>
        <time>2012-06-16T10:44:19Z</time>
      </trkpt>
      <trkpt lat="46.325700413435698" lon="7.086372748017311">
        <ele>1816.0699999999999</ele>
        <time>2012-06-16T10:44:20Z</time>
      </trkpt>
      <trkpt lat="46.325618773698807" lon="7.086209803819656">
        <ele>1815.5899999999999</ele>
        <time>2012-06-16T10:44:22Z</time>
      </trkpt>
      <trkpt lat="46.325565297156572" lon="7.086150711402297">
        <ele>1815.1099999999999</ele>
        <time>2012-06-16T10:44:23Z</time>
      </trkpt>
      <trkpt lat="46.325506372377276" lon="7.086111735552549">
        <ele>1815.1099999999999</ele>
        <time>2012-06-16T10:44:24Z</time>
      </trkpt>
      <trkpt lat="46.3253980781883" lon="7.086064545437694">
        <ele>1814.1500000000001</ele>
        <time>2012-06-16T10:44:26Z</time>
      </trkpt>
      <trkpt lat="46.325346613302827" lon="7.086023977026343">
        <ele>1813.6600000000001</ele>
        <time>2012-06-16T10:44:27Z</time>
      </trkpt>
      <trkpt lat="46.325298165902495" lon="7.085958011448383">
        <ele>1813.1800000000001</ele>
        <time>2012-06-16T10:44:28Z</time>
      </trkpt>
      <trkpt lat="46.325259357690811" lon="7.085871929302812">
        <ele>1812.7</ele>
        <time>2012-06-16T10:44:29Z</time>
      </trkpt>
      <trkpt lat="46.325226500630379" lon="7.085777213796973">
        <ele>1812.22</ele>
        <time>2012-06-16T10:44:30Z</time>
      </trkpt>
      <trkpt lat="46.325196828693151" lon="7.085683671757579">
        <ele>1812.22</ele>
        <time>2012-06-16T10:44:31Z</time>
      </trkpt>
      <trkpt lat="46.325173946097493" lon="7.085596583783627">
        <ele>1812.22</ele>
        <time>2012-06-16T10:44:32Z</time>
      </trkpt>
      <trkpt lat="46.325158523395658" lon="7.085517290979624">
        <ele>1812.7</ele>
        <time>2012-06-16T10:44:33Z</time>
      </trkpt>
      <trkpt lat="46.325149638578296" lon="7.085443362593651">
        <ele>1812.7</ele>
        <time>2012-06-16T10:44:34Z</time>
      </trkpt>
      <trkpt lat="46.325146537274122" lon="7.085374128073454">
        <ele>1813.1800000000001</ele>
        <time>2012-06-16T10:44:35Z</time>
      </trkpt>
      <trkpt lat="46.325146453455091" lon="7.085304977372289">
        <ele>1813.1800000000001</ele>
        <time>2012-06-16T10:44:36Z</time>
      </trkpt>
      <trkpt lat="46.325225997716188" lon="7.08461556583643">
        <ele>1814.6300000000001</ele>
        <time>2012-06-16T10:44:49Z</time>
      </trkpt>
      <trkpt lat="46.325265225023031" lon="7.084285654127598">
        <ele>1815.5899999999999</ele>
        <time>2012-06-16T10:44:55Z</time>
      </trkpt>
      <trkpt lat="46.325237900018692" lon="7.083604875952005">
        <ele>1817.03</ele>
        <time>2012-06-16T10:45:08Z</time>
      </trkpt>
      <trkpt lat="46.325427079573274" lon="7.083230540156364">
        <ele>1818.47</ele>
        <time>2012-06-16T10:45:18Z</time>
      </trkpt>
      <trkpt lat="46.325439317151904" lon="7.083216207101941">
        <ele>1818.95</ele>
        <time>2012-06-16T10:45:19Z</time>
      </trkpt>
      <trkpt lat="46.325565045699477" lon="7.08305737003684">
        <ele>1817.51</ele>
        <time>2012-06-16T10:45:25Z</time>
      </trkpt>
      <trkpt lat="46.325682057067752" lon="7.082838183268905">
        <ele>1815.1099999999999</ele>
        <time>2012-06-16T10:45:29Z</time>
      </trkpt>
      <trkpt lat="46.325708543881774" lon="7.082775821909308">
        <ele>1814.1500000000001</ele>
        <time>2012-06-16T10:45:30Z</time>
      </trkpt>
      <trkpt lat="46.325809294357896" lon="7.082534087821841">
        <ele>1811.26</ele>
        <time>2012-06-16T10:45:34Z</time>
      </trkpt>
      <trkpt lat="46.325855311006308" lon="7.082430487498641">
        <ele>1809.3399999999999</ele>
        <time>2012-06-16T10:45:36Z</time>
      </trkpt>
      <trkpt lat="46.325868302956223" lon="7.082375837489963">
        <ele>1808.3800000000001</ele>
        <time>2012-06-16T10:45:37Z</time>
      </trkpt>
      <trkpt lat="46.325871655717492" lon="7.08232001401484">
        <ele>1807.4200000000001</ele>
        <time>2012-06-16T10:45:38Z</time>
      </trkpt>
      <trkpt lat="46.325872242450714" lon="7.082258574664593">
        <ele>1806.45</ele>
        <time>2012-06-16T10:45:39Z</time>
      </trkpt>
      <trkpt lat="46.325871320441365" lon="7.082188837230206">
        <ele>1805.49</ele>
        <time>2012-06-16T10:45:40Z</time>
      </trkpt>
      <trkpt lat="46.325868722051382" lon="7.082113735377789">
        <ele>1804.53</ele>
        <time>2012-06-16T10:45:41Z</time>
      </trkpt>
      <trkpt lat="46.325870146974921" lon="7.08203561604023">
        <ele>1803.0899999999999</ele>
        <time>2012-06-16T10:45:42Z</time>
      </trkpt>
      <trkpt lat="46.325878528878093" lon="7.0819525513798">
        <ele>1802.1300000000001</ele>
        <time>2012-06-16T10:45:43Z</time>
      </trkpt>
      <trkpt lat="46.325920103117824" lon="7.081708889454603">
        <ele>1798.76</ele>
        <time>2012-06-16T10:45:46Z</time>
      </trkpt>
      <trkpt lat="46.325948601588607" lon="7.081637810915709">
        <ele>1798.28</ele>
        <time>2012-06-16T10:45:47Z</time>
      </trkpt>
      <trkpt lat="46.32605966180563" lon="7.081341594457626">
        <ele>1793.96</ele>
        <time>2012-06-16T10:45:51Z</time>
      </trkpt>
      <trkpt lat="46.326143145561218" lon="7.080884277820587">
        <ele>1789.6300000000001</ele>
        <time>2012-06-16T10:45:56Z</time>
      </trkpt>
      <trkpt lat="46.326172398403287" lon="7.080785287544131">
        <ele>1788.6700000000001</ele>
        <time>2012-06-16T10:45:57Z</time>
      </trkpt>
      <trkpt lat="46.326197627931833" lon="7.080689230933785">
        <ele>1788.1900000000001</ele>
        <time>2012-06-16T10:45:58Z</time>
      </trkpt>
      <trkpt lat="46.326207770034671" lon="7.080592839047313">
        <ele>1788.1900000000001</ele>
        <time>2012-06-16T10:45:59Z</time>
      </trkpt>
      <trkpt lat="46.326198633760214" lon="7.080501224845648">
        <ele>1787.71</ele>
        <time>2012-06-16T10:46:00Z</time>
      </trkpt>
      <trkpt lat="46.326176086440682" lon="7.080422099679709">
        <ele>1787.71</ele>
        <time>2012-06-16T10:46:01Z</time>
      </trkpt>
      <trkpt lat="46.326147001236677" lon="7.080352697521448">
        <ele>1787.23</ele>
        <time>2012-06-16T10:46:02Z</time>
      </trkpt>
      <trkpt lat="46.326110623776913" lon="7.080292096361518">
        <ele>1786.75</ele>
        <time>2012-06-16T10:46:03Z</time>
      </trkpt>
      <trkpt lat="46.326075671240687" lon="7.080233255401254">
        <ele>1786.27</ele>
        <time>2012-06-16T10:46:04Z</time>
      </trkpt>
      <trkpt lat="46.326056811958551" lon="7.080169217661023">
        <ele>1785.3099999999999</ele>
        <time>2012-06-16T10:46:05Z</time>
      </trkpt>
      <trkpt lat="46.326051028445363" lon="7.080104257911444">
        <ele>1784.8199999999999</ele>
        <time>2012-06-16T10:46:06Z</time>
      </trkpt>
      <trkpt lat="46.326049268245697" lon="7.080044159665704">
        <ele>1784.3399999999999</ele>
        <time>2012-06-16T10:46:07Z</time>
      </trkpt>
      <trkpt lat="46.326073491945863" lon="7.07978205755353">
        <ele>1781.46</ele>
        <time>2012-06-16T10:46:12Z</time>
      </trkpt>
      <trkpt lat="46.326133674010634" lon="7.079611569643021">
        <ele>1780.02</ele>
        <time>2012-06-16T10:46:15Z</time>
      </trkpt>
      <trkpt lat="46.326166950166225" lon="7.079366985708475">
        <ele>1778.5799999999999</ele>
        <time>2012-06-16T10:46:18Z</time>
      </trkpt>
      <trkpt lat="46.326157059520483" lon="7.079278472810984">
        <ele>1778.0999999999999</ele>
        <time>2012-06-16T10:46:19Z</time>
      </trkpt>
      <trkpt lat="46.326133674010634" lon="7.079195408150554">
        <ele>1777.6099999999999</ele>
        <time>2012-06-16T10:46:20Z</time>
      </trkpt>
      <trkpt lat="46.32610852830112" lon="7.079116199165583">
        <ele>1777.6099999999999</ele>
        <time>2012-06-16T10:46:21Z</time>
      </trkpt>
      <trkpt lat="46.326092267408967" lon="7.07903740927577">
        <ele>1777.1300000000001</ele>
        <time>2012-06-16T10:46:22Z</time>
      </trkpt>
      <trkpt lat="46.326087405905128" lon="7.07895970903337">
        <ele>1777.1300000000001</ele>
        <time>2012-06-16T10:46:23Z</time>
      </trkpt>
      <trkpt lat="46.32608262822032" lon="7.078893072903156">
        <ele>1777.1300000000001</ele>
        <time>2012-06-16T10:46:24Z</time>
      </trkpt>
      <trkpt lat="46.326074162498116" lon="7.078835824504495">
        <ele>1777.6099999999999</ele>
        <time>2012-06-16T10:46:25Z</time>
      </trkpt>
      <trkpt lat="46.326002329587936" lon="7.078634910285473">
        <ele>1778.0999999999999</ele>
        <time>2012-06-16T10:46:30Z</time>
      </trkpt>
      <trkpt lat="46.325974082574248" lon="7.078617895022035">
        <ele>1778.0999999999999</ele>
        <time>2012-06-16T10:46:31Z</time>
      </trkpt>
      <trkpt lat="46.325944913551211" lon="7.078610435128212">
        <ele>1778.0999999999999</ele>
        <time>2012-06-16T10:46:32Z</time>
      </trkpt>
      <trkpt lat="46.325918342918158" lon="7.078608758747578">
        <ele>1777.6099999999999</ele>
        <time>2012-06-16T10:46:33Z</time>
      </trkpt>
      <trkpt lat="46.325896885246038" lon="7.07860155031085">
        <ele>1777.6099999999999</ele>
        <time>2012-06-16T10:46:34Z</time>
      </trkpt>
      <trkpt lat="46.325875679031014" lon="7.078582523390651">
        <ele>1777.1300000000001</ele>
        <time>2012-06-16T10:46:35Z</time>
      </trkpt>
      <trkpt lat="46.325855646282434" lon="7.078556371852756">
        <ele>1776.6500000000001</ele>
        <time>2012-06-16T10:46:36Z</time>
      </trkpt>
      <trkpt lat="46.325842151418328" lon="7.078526699915528">
        <ele>1776.6500000000001</ele>
        <time>2012-06-16T10:46:37Z</time>
      </trkpt>
      <trkpt lat="46.325835948809981" lon="7.078494597226381">
        <ele>1775.6900000000001</ele>
        <time>2012-06-16T10:46:38Z</time>
      </trkpt>
      <trkpt lat="46.325833182781935" lon="7.07846031524241">
        <ele>1775.21</ele>
        <time>2012-06-16T10:46:39Z</time>
      </trkpt>
      <trkpt lat="46.32582270540297" lon="7.078426452353597">
        <ele>1775.21</ele>
        <time>2012-06-16T10:46:40Z</time>
      </trkpt>
      <trkpt lat="46.325807115063071" lon="7.078388398513198">
        <ele>1774.73</ele>
        <time>2012-06-16T10:46:41Z</time>
      </trkpt>
      <trkpt lat="46.325603267177939" lon="7.077763779088855">
        <ele>1769.4400000000001</ele>
        <time>2012-06-16T10:46:50Z</time>
      </trkpt>
      <trkpt lat="46.325509641319513" lon="7.077441746369004">
        <ele>1769.9200000000001</ele>
        <time>2012-06-16T10:46:58Z</time>
      </trkpt>
      <trkpt lat="46.325462618842721" lon="7.077111415565014">
        <ele>1770.8900000000001</ele>
        <time>2012-06-16T10:47:08Z</time>
      </trkpt>
      <trkpt lat="46.325393300503492" lon="7.076676646247506">
        <ele>1771.8499999999999</ele>
        <time>2012-06-16T10:47:21Z</time>
      </trkpt>
      <trkpt lat="46.3253169413656" lon="7.076322007924318">
        <ele>1772.8099999999999</ele>
        <time>2012-06-16T10:47:31Z</time>
      </trkpt>
      <trkpt lat="46.325263045728207" lon="7.075836108997464">
        <ele>1773.29</ele>
        <time>2012-06-16T10:47:42Z</time>
      </trkpt>
      <trkpt lat="46.325279558077455" lon="7.07567123696208">
        <ele>1774.25</ele>
        <time>2012-06-16T10:47:48Z</time>
      </trkpt>
      <trkpt lat="46.325287520885468" lon="7.075647683814168">
        <ele>1774.25</ele>
        <time>2012-06-16T10:47:49Z</time>
      </trkpt>
      <trkpt lat="46.325474940240383" lon="7.075369236990809">
        <ele>1775.21</ele>
        <time>2012-06-16T10:48:04Z</time>
      </trkpt>
      <trkpt lat="46.325767301023006" lon="7.075339145958424">
        <ele>1775.6900000000001</ele>
        <time>2012-06-16T10:48:16Z</time>
      </trkpt>
      <trkpt lat="46.326109115034342" lon="7.075242586433888">
        <ele>1777.1300000000001</ele>
        <time>2012-06-16T10:48:29Z</time>
      </trkpt>
      <trkpt lat="46.326297121122479" lon="7.0751176122576">
        <ele>1779.0599999999999</ele>
        <time>2012-06-16T10:48:40Z</time>
      </trkpt>
      <trkpt lat="46.326299048960209" lon="7.075087940320373">
        <ele>1779.0599999999999</ele>
        <time>2012-06-16T10:48:41Z</time>
      </trkpt>
      <trkpt lat="46.326295863837004" lon="7.075059860944748">
        <ele>1779.54</ele>
        <time>2012-06-16T10:48:42Z</time>
      </trkpt>
      <trkpt lat="46.326289493590593" lon="7.075030440464616">
        <ele>1779.54</ele>
        <time>2012-06-16T10:48:43Z</time>
      </trkpt>
      <trkpt lat="46.326283039525151" lon="7.075005546212196">
        <ele>1779.54</ele>
        <time>2012-06-16T10:48:44Z</time>
      </trkpt>
      <trkpt lat="46.326274406164885" lon="7.074981573969126">
        <ele>1780.02</ele>
        <time>2012-06-16T10:48:45Z</time>
      </trkpt>
      <trkpt lat="46.32626342587173" lon="7.074959026649594">
        <ele>1780.5</ele>
        <time>2012-06-16T10:48:46Z</time>
      </trkpt>
      <trkpt lat="46.326251104474068" lon="7.074934216216207">
        <ele>1780.98</ele>
        <time>2012-06-16T10:48:47Z</time>
      </trkpt>
      <trkpt lat="46.326241632923484" lon="7.074910160154104">
        <ele>1780.98</ele>
        <time>2012-06-16T10:48:48Z</time>
      </trkpt>
      <trkpt lat="46.326233167201281" lon="7.074887277558446">
        <ele>1781.46</ele>
        <time>2012-06-16T10:48:49Z</time>
      </trkpt>
      <trkpt lat="46.326227048411965" lon="7.07486841827631">
        <ele>1781.9400000000001</ele>
        <time>2012-06-16T10:48:50Z</time>
      </trkpt>
      <trkpt lat="46.326224533841014" lon="7.074846457690001">
        <ele>1782.4200000000001</ele>
        <time>2012-06-16T10:48:51Z</time>
      </trkpt>
      <trkpt lat="46.326223947107792" lon="7.074821395799518">
        <ele>1782.4200000000001</ele>
        <time>2012-06-16T10:48:52Z</time>
      </trkpt>
      <trkpt lat="46.326200813055038" lon="7.074522245675325">
        <ele>1784.8199999999999</ele>
        <time>2012-06-16T10:49:05Z</time>
      </trkpt>
      <trkpt lat="46.326189413666725" lon="7.074507577344775">
        <ele>1785.3099999999999</ele>
        <time>2012-06-16T10:49:06Z</time>
      </trkpt>
      <trkpt lat="46.326176589354873" lon="7.074497016146779">
        <ele>1785.3099999999999</ele>
        <time>2012-06-16T10:49:07Z</time>
      </trkpt>
      <trkpt lat="46.326163513585925" lon="7.07449215464294">
        <ele>1785.3099999999999</ele>
        <time>2012-06-16T10:49:08Z</time>
      </trkpt>
      <trkpt lat="46.326148929074407" lon="7.074487963691354">
        <ele>1785.79</ele>
        <time>2012-06-16T10:49:09Z</time>
      </trkpt>
      <trkpt lat="46.326135685667396" lon="7.074480336159468">
        <ele>1785.79</ele>
        <time>2012-06-16T10:49:10Z</time>
      </trkpt>
      <trkpt lat="46.325901411473751" lon="7.074412778019905">
        <ele>1786.27</ele>
        <time>2012-06-16T10:49:24Z</time>
      </trkpt>
      <trkpt lat="46.32561307400465" lon="7.074275650084019">
        <ele>1790.5899999999999</ele>
        <time>2012-06-16T10:49:40Z</time>
      </trkpt>
      <trkpt lat="46.325246784836054" lon="7.074306830763817">
        <ele>1790.5899999999999</ele>
        <time>2012-06-16T10:49:55Z</time>
      </trkpt>
      <trkpt lat="46.324892481788993" lon="7.074337927624583">
        <ele>1790.5899999999999</ele>
        <time>2012-06-16T10:50:08Z</time>
      </trkpt>
      <trkpt lat="46.324600707739592" lon="7.074330886825919">
        <ele>1790.5899999999999</ele>
        <time>2012-06-16T10:50:20Z</time>
      </trkpt>
      <trkpt lat="46.324331564828753" lon="7.074280930683017">
        <ele>1792.03</ele>
        <time>2012-06-16T10:50:32Z</time>
      </trkpt>
      <trkpt lat="46.324047753587365" lon="7.074302053079009">
        <ele>1794.9200000000001</ele>
        <time>2012-06-16T10:50:45Z</time>
      </trkpt>
      <trkpt lat="46.323806187137961" lon="7.074283696711063">
        <ele>1796.3599999999999</ele>
        <time>2012-06-16T10:50:55Z</time>
      </trkpt>
      <trkpt lat="46.323458505794406" lon="7.074300376698375">
        <ele>1800.6900000000001</ele>
        <time>2012-06-16T10:51:11Z</time>
      </trkpt>
      <trkpt lat="46.323166731745005" lon="7.074306663125753">
        <ele>1801.6500000000001</ele>
        <time>2012-06-16T10:51:26Z</time>
      </trkpt>
      <trkpt lat="46.322837322950363" lon="7.0741315651685">
        <ele>1802.1300000000001</ele>
        <time>2012-06-16T10:51:43Z</time>
      </trkpt>
      <trkpt lat="46.322582177817822" lon="7.074050176888704">
        <ele>1805.97</ele>
        <time>2012-06-16T10:51:58Z</time>
      </trkpt>
      <trkpt lat="46.322373719885945" lon="7.074094600975514">
        <ele>1807.4200000000001</ele>
        <time>2012-06-16T10:52:10Z</time>
      </trkpt>
      <trkpt lat="46.322354190051556" lon="7.074084794148803">
        <ele>1807.4200000000001</ele>
        <time>2012-06-16T10:52:11Z</time>
      </trkpt>
      <trkpt lat="46.322336839511991" lon="7.074081441387534">
        <ele>1807.4200000000001</ele>
        <time>2012-06-16T10:52:12Z</time>
      </trkpt>
      <trkpt lat="46.322277663275599" lon="7.074052691459656">
        <ele>1809.3399999999999</ele>
        <time>2012-06-16T10:52:24Z</time>
      </trkpt>
      <trkpt lat="46.322255032137036" lon="7.074032323434949">
        <ele>1809.8199999999999</ele>
        <time>2012-06-16T10:52:27Z</time>
      </trkpt>
      <trkpt lat="46.322196861729026" lon="7.074005836620927">
        <ele>1810.78</ele>
        <time>2012-06-16T10:52:42Z</time>
      </trkpt>
      <trkpt lat="46.322167776525021" lon="7.074029138311744">
        <ele>1812.22</ele>
        <time>2012-06-16T10:53:12Z</time>
      </trkpt>
      <trkpt lat="46.322147995233536" lon="7.073966525495052">
        <ele>1813.6600000000001</ele>
        <time>2012-06-16T10:53:25Z</time>
      </trkpt>
      <trkpt lat="46.322178589180112" lon="7.073973147198558">
        <ele>1813.1800000000001</ele>
        <time>2012-06-16T10:53:29Z</time>
      </trkpt>
      <trkpt lat="46.322343628853559" lon="7.074000556021929">
        <ele>1811.26</ele>
        <time>2012-06-16T10:53:46Z</time>
      </trkpt>
      <trkpt lat="46.322350921109319" lon="7.073990497738123">
        <ele>1812.7</ele>
        <time>2012-06-16T10:54:03Z</time>
      </trkpt>
      <trkpt lat="46.322373636066914" lon="7.073983959853649">
        <ele>1810.78</ele>
        <time>2012-06-16T10:54:50Z</time>
      </trkpt>
      <trkpt lat="46.322352094575763" lon="7.073982451111078">
        <ele>1807.4200000000001</ele>
        <time>2012-06-16T10:55:26Z</time>
      </trkpt>
      <trkpt lat="46.322330804541707" lon="7.073954874649644">
        <ele>1808.3800000000001</ele>
        <time>2012-06-16T10:55:53Z</time>
      </trkpt>
      <trkpt lat="46.322369026020169" lon="7.073927382007241">
        <ele>1805.49</ele>
        <time>2012-06-16T10:56:33Z</time>
      </trkpt>
      <trkpt lat="46.322356536984444" lon="7.073882119730115">
        <ele>1803.5699999999999</ele>
        <time>2012-06-16T10:57:19Z</time>
      </trkpt>
      <trkpt lat="46.322424933314323" lon="7.073902320116758">
        <ele>1798.76</ele>
        <time>2012-06-16T10:58:02Z</time>
      </trkpt>
      <trkpt lat="46.322393584996462" lon="7.073880862444639">
        <ele>1793.96</ele>
        <time>2012-06-16T10:58:35Z</time>
      </trkpt>
      <trkpt lat="46.322389813140035" lon="7.073909025639296">
        <ele>1797.3199999999999</ele>
        <time>2012-06-16T10:59:11Z</time>
      </trkpt>
      <trkpt lat="46.322407918050885" lon="7.07386476919055">
        <ele>1797.3199999999999</ele>
        <time>2012-06-16T10:59:41Z</time>
      </trkpt>
      <trkpt lat="46.322425855323672" lon="7.073924113065004">
        <ele>1787.71</ele>
        <time>2012-06-16T11:00:18Z</time>
      </trkpt>
      <trkpt lat="46.322417641058564" lon="7.073972560465336">
        <ele>1792.52</ele>
        <time>2012-06-16T11:00:52Z</time>
      </trkpt>
      <trkpt lat="46.322437841445208" lon="7.073951438069344">
        <ele>1791.0699999999999</ele>
        <time>2012-06-16T11:01:35Z</time>
      </trkpt>
      <trkpt lat="46.322441948577762" lon="7.073944648727775">
        <ele>1792.52</ele>
        <time>2012-06-16T11:02:10Z</time>
      </trkpt>
      <trkpt lat="46.322405906394124" lon="7.073946073651314">
        <ele>1791.0699999999999</ele>
        <time>2012-06-16T11:02:44Z</time>
      </trkpt>
      <trkpt lat="46.322425520047545" lon="7.073953030630946">
        <ele>1788.1900000000001</ele>
        <time>2012-06-16T11:03:12Z</time>
      </trkpt>
      <trkpt lat="46.322412695735693" lon="7.073938613757491">
        <ele>1791.55</ele>
        <time>2012-06-16T11:03:50Z</time>
      </trkpt>
      <trkpt lat="46.322422921657562" lon="7.073973901569843">
        <ele>1795.4000000000001</ele>
        <time>2012-06-16T11:04:20Z</time>
      </trkpt>
      <trkpt lat="46.322392076253891" lon="7.074027797207236">
        <ele>1798.76</ele>
        <time>2012-06-16T11:05:01Z</time>
      </trkpt>
      <trkpt lat="46.322411941364408" lon="7.074049590155482">
        <ele>1801.1700000000001</ele>
        <time>2012-06-16T11:05:35Z</time>
      </trkpt>
      <trkpt lat="46.322407415136695" lon="7.07404799759388">
        <ele>1801.6500000000001</ele>
        <time>2012-06-16T11:06:17Z</time>
      </trkpt>
      <trkpt lat="46.322339689359069" lon="7.073998460546136">
        <ele>1803.5699999999999</ele>
        <time>2012-06-16T11:06:55Z</time>
      </trkpt>
      <trkpt lat="46.322307586669922" lon="7.073970967903733">
        <ele>1802.6099999999999</ele>
        <time>2012-06-16T11:07:35Z</time>
      </trkpt>
      <trkpt lat="46.322286296635866" lon="7.073951102793217">
        <ele>1799.24</ele>
        <time>2012-06-16T11:08:03Z</time>
      </trkpt>
      <trkpt lat="46.32228747010231" lon="7.073974404484034">
        <ele>1804.05</ele>
        <time>2012-06-16T11:08:36Z</time>
      </trkpt>
      <trkpt lat="46.322320578619838" lon="7.074029138311744">
        <ele>1807.9000000000001</ele>
        <time>2012-06-16T11:09:06Z</time>
      </trkpt>
      <trkpt lat="46.322328122332692" lon="7.074054200202227">
        <ele>1814.1500000000001</ele>
        <time>2012-06-16T11:09:30Z</time>
      </trkpt>
      <trkpt lat="46.322296690195799" lon="7.074086219072342">
        <ele>1818.95</ele>
        <time>2012-06-16T11:09:57Z</time>
      </trkpt>
      <trkpt lat="46.322298953309655" lon="7.074074484407902">
        <ele>1821.3499999999999</ele>
        <time>2012-06-16T11:10:24Z</time>
      </trkpt>
      <trkpt lat="46.322380006313324" lon="7.074106922373176">
        <ele>1821.3499999999999</ele>
        <time>2012-06-16T11:10:56Z</time>
      </trkpt>
      <trkpt lat="46.322407247498631" lon="7.074079094454646">
        <ele>1822.8</ele>
        <time>2012-06-16T11:11:25Z</time>
      </trkpt>
      <trkpt lat="46.32239400409162" lon="7.074105413630605">
        <ele>1821.8399999999999</ele>
        <time>2012-06-16T11:11:54Z</time>
      </trkpt>
      <trkpt lat="46.322350418195128" lon="7.074101557955146">
        <ele>1822.3199999999999</ele>
        <time>2012-06-16T11:12:17Z</time>
      </trkpt>
      <trkpt lat="46.322407079860568" lon="7.074100971221924">
        <ele>1825.2</ele>
        <time>2012-06-16T11:12:40Z</time>
      </trkpt>
      <trkpt lat="46.322406325489283" lon="7.074014972895384">
        <ele>1830.01</ele>
        <time>2012-06-16T11:13:20Z</time>
      </trkpt>
      <trkpt lat="46.322394590824842" lon="7.074074149131775">
        <ele>1828.0799999999999</ele>
        <time>2012-06-16T11:13:50Z</time>
      </trkpt>
      <trkpt lat="46.322335246950388" lon="7.074085883796215">
        <ele>1830.97</ele>
        <time>2012-06-16T11:14:02Z</time>
      </trkpt>
      <trkpt lat="46.322308257222176" lon="7.074078591540456">
        <ele>1831.45</ele>
        <time>2012-06-16T11:14:03Z</time>
      </trkpt>
      <trkpt lat="46.32217213511467" lon="7.074016146361828">
        <ele>1831.45</ele>
        <time>2012-06-16T11:14:10Z</time>
      </trkpt>
      <trkpt lat="46.322162328287959" lon="7.074054619297385">
        <ele>1833.3699999999999</ele>
        <time>2012-06-16T11:14:14Z</time>
      </trkpt>
      <trkpt lat="46.322168949991465" lon="7.074067359790206">
        <ele>1833.3699999999999</ele>
        <time>2012-06-16T11:14:15Z</time>
      </trkpt>
      <trkpt lat="46.322364583611488" lon="7.074097953736782">
        <ele>1826.1600000000001</ele>
        <time>2012-06-16T11:14:26Z</time>
      </trkpt>
      <trkpt lat="46.322578908875585" lon="7.074058055877686">
        <ele>1822.3199999999999</ele>
        <time>2012-06-16T11:14:32Z</time>
      </trkpt>
      <trkpt lat="46.322623835876584" lon="7.0740573015064">
        <ele>1821.8399999999999</ele>
        <time>2012-06-16T11:14:33Z</time>
      </trkpt>
      <trkpt lat="46.322719054296613" lon="7.074065767228603">
        <ele>1819.4300000000001</ele>
        <time>2012-06-16T11:14:35Z</time>
      </trkpt>
      <trkpt lat="46.322773369029164" lon="7.074089320376515">
        <ele>1817.99</ele>
        <time>2012-06-16T11:14:36Z</time>
      </trkpt>
      <trkpt lat="46.32282298989594" lon="7.074119914323092">
        <ele>1816.0699999999999</ele>
        <time>2012-06-16T11:14:37Z</time>
      </trkpt>
      <trkpt lat="46.322910580784082" lon="7.074186634272337">
        <ele>1813.1800000000001</ele>
        <time>2012-06-16T11:14:39Z</time>
      </trkpt>
      <trkpt lat="46.322949724271894" lon="7.074218234047294">
        <ele>1812.22</ele>
        <time>2012-06-16T11:14:40Z</time>
      </trkpt>
      <trkpt lat="46.322987778112292" lon="7.074241116642952">
        <ele>1811.74</ele>
        <time>2012-06-16T11:14:41Z</time>
      </trkpt>
      <trkpt lat="46.323142424225807" lon="7.07431185990572">
        <ele>1809.3399999999999</ele>
        <time>2012-06-16T11:14:45Z</time>
      </trkpt>
      <trkpt lat="46.323185423389077" lon="7.074323007836938">
        <ele>1808.8599999999999</ele>
        <time>2012-06-16T11:14:46Z</time>
      </trkpt>
      <trkpt lat="46.323227919638157" lon="7.074328875169158">
        <ele>1808.3800000000001</ele>
        <time>2012-06-16T11:14:47Z</time>
      </trkpt>
      <trkpt lat="46.32338197901845" lon="7.074321247637272">
        <ele>1806.45</ele>
        <time>2012-06-16T11:14:50Z</time>
      </trkpt>
      <trkpt lat="46.32343914359808" lon="7.074308590963483">
        <ele>1805.97</ele>
        <time>2012-06-16T11:14:51Z</time>
      </trkpt>
      <trkpt lat="46.323500499129295" lon="7.074291910976172">
        <ele>1805.01</ele>
        <time>2012-06-16T11:14:52Z</time>
      </trkpt>
      <trkpt lat="46.323568308725953" lon="7.074283361434937">
        <ele>1804.53</ele>
        <time>2012-06-16T11:14:53Z</time>
      </trkpt>
      <trkpt lat="46.323644751682878" lon="7.074289983138442">
        <ele>1803.5699999999999</ele>
        <time>2012-06-16T11:14:54Z</time>
      </trkpt>
      <trkpt lat="46.323725553229451" lon="7.074300041422248">
        <ele>1802.6099999999999</ele>
        <time>2012-06-16T11:14:55Z</time>
      </trkpt>
      <trkpt lat="46.323810126632452" lon="7.074303897097707">
        <ele>1801.6500000000001</ele>
        <time>2012-06-16T11:14:56Z</time>
      </trkpt>
      <trkpt lat="46.324726939201355" lon="7.074333317577839">
        <ele>1796.3599999999999</ele>
        <time>2012-06-16T11:15:06Z</time>
      </trkpt>
      <trkpt lat="46.325079901143909" lon="7.074333652853966">
        <ele>1795.4000000000001</ele>
        <time>2012-06-16T11:15:11Z</time>
      </trkpt>
      <trkpt lat="46.325591867789626" lon="7.074253270402551">
        <ele>1793.96</ele>
        <time>2012-06-16T11:15:21Z</time>
      </trkpt>
      <trkpt lat="46.325650792568922" lon="7.074276320636272">
        <ele>1793.48</ele>
        <time>2012-06-16T11:15:23Z</time>
      </trkpt>
      <trkpt lat="46.325680129230022" lon="7.074300879612565">
        <ele>1793</ele>
        <time>2012-06-16T11:15:24Z</time>
      </trkpt>
      <trkpt lat="46.325861345976591" lon="7.074421998113394">
        <ele>1790.5899999999999</ele>
        <time>2012-06-16T11:15:29Z</time>
      </trkpt>
      <trkpt lat="46.325908871367574" lon="7.074438510462642">
        <ele>1790.1099999999999</ele>
        <time>2012-06-16T11:15:30Z</time>
      </trkpt>
      <trkpt lat="46.32601959630847" lon="7.074457369744778">
        <ele>1789.1500000000001</ele>
        <time>2012-06-16T11:15:32Z</time>
      </trkpt>
      <trkpt lat="46.326074581593275" lon="7.074463404715061">
        <ele>1789.1500000000001</ele>
        <time>2012-06-16T11:15:33Z</time>
      </trkpt>
      <trkpt lat="46.326124873012304" lon="7.074475642293692">
        <ele>1789.1500000000001</ele>
        <time>2012-06-16T11:15:34Z</time>
      </trkpt>
      <trkpt lat="46.326170386746526" lon="7.074496010318399">
        <ele>1788.6700000000001</ele>
        <time>2012-06-16T11:15:35Z</time>
      </trkpt>
      <trkpt lat="46.326208524405956" lon="7.074523586779833">
        <ele>1788.1900000000001</ele>
        <time>2012-06-16T11:15:36Z</time>
      </trkpt>
      <trkpt lat="46.326237274333835" lon="7.074567256495357">
        <ele>1787.71</ele>
        <time>2012-06-16T11:15:37Z</time>
      </trkpt>
      <trkpt lat="46.326251272112131" lon="7.074632719159126">
        <ele>1787.23</ele>
        <time>2012-06-16T11:15:38Z</time>
      </trkpt>
      <trkpt lat="46.326251523569226" lon="7.074714777991176">
        <ele>1786.75</ele>
        <time>2012-06-16T11:15:39Z</time>
      </trkpt>
      <trkpt lat="46.326249092817307" lon="7.074795914813876">
        <ele>1786.27</ele>
        <time>2012-06-16T11:15:40Z</time>
      </trkpt>
      <trkpt lat="46.326251188293099" lon="7.074866155162454">
        <ele>1785.3099999999999</ele>
        <time>2012-06-16T11:15:41Z</time>
      </trkpt>
      <trkpt lat="46.326266527175903" lon="7.07492608577013">
        <ele>1784.3399999999999</ele>
        <time>2012-06-16T11:15:42Z</time>
      </trkpt>
      <trkpt lat="46.326295109465718" lon="7.074977802112699">
        <ele>1783.8599999999999</ele>
        <time>2012-06-16T11:15:43Z</time>
      </trkpt>
      <trkpt lat="46.326325116679072" lon="7.075027171522379">
        <ele>1782.9000000000001</ele>
        <time>2012-06-16T11:15:44Z</time>
      </trkpt>
      <trkpt lat="46.326344143599272" lon="7.075082659721375">
        <ele>1782.4200000000001</ele>
        <time>2012-06-16T11:15:45Z</time>
      </trkpt>
      <trkpt lat="46.326345065608621" lon="7.075145440176129">
        <ele>1781.9400000000001</ele>
        <time>2012-06-16T11:15:46Z</time>
      </trkpt>
      <trkpt lat="46.326338443905115" lon="7.075204784050584">
        <ele>1781.46</ele>
        <time>2012-06-16T11:15:47Z</time>
      </trkpt>
      <trkpt lat="46.326342299580574" lon="7.075261110439897">
        <ele>1780.98</ele>
        <time>2012-06-16T11:15:48Z</time>
      </trkpt>
      <trkpt lat="46.326362919062376" lon="7.075311737135053">
        <ele>1780.5</ele>
        <time>2012-06-16T11:15:49Z</time>
      </trkpt>
      <trkpt lat="46.326394099742174" lon="7.075350629165769">
        <ele>1780.5</ele>
        <time>2012-06-16T11:15:50Z</time>
      </trkpt>
      <trkpt lat="46.326435003429651" lon="7.075373595580459">
        <ele>1780.02</ele>
        <time>2012-06-16T11:15:51Z</time>
      </trkpt>
      <trkpt lat="46.326487390324473" lon="7.075381390750408">
        <ele>1779.54</ele>
        <time>2012-06-16T11:15:52Z</time>
      </trkpt>
      <trkpt lat="46.326549667865038" lon="7.075384659692645">
        <ele>1778.5799999999999</ele>
        <time>2012-06-16T11:15:53Z</time>
      </trkpt>
      <trkpt lat="46.326622758060694" lon="7.075405279174447">
        <ele>1777.6099999999999</ele>
        <time>2012-06-16T11:15:54Z</time>
      </trkpt>
      <trkpt lat="46.326698279008269" lon="7.075445260852575">
        <ele>1776.6500000000001</ele>
        <time>2012-06-16T11:15:55Z</time>
      </trkpt>
      <trkpt lat="46.326773045584559" lon="7.075492534786463">
        <ele>1776.1700000000001</ele>
        <time>2012-06-16T11:15:56Z</time>
      </trkpt>
      <trkpt lat="46.326845213770866" lon="7.075528828427196">
        <ele>1776.1700000000001</ele>
        <time>2012-06-16T11:15:57Z</time>
      </trkpt>
      <trkpt lat="46.326916543766856" lon="7.075550118461251">
        <ele>1776.1700000000001</ele>
        <time>2012-06-16T11:15:58Z</time>
      </trkpt>
      <trkpt lat="46.326986951753497" lon="7.075566379353404">
        <ele>1775.21</ele>
        <time>2012-06-16T11:15:59Z</time>
      </trkpt>
      <trkpt lat="46.327064651995897" lon="7.075599068775773">
        <ele>1774.25</ele>
        <time>2012-06-16T11:16:00Z</time>
      </trkpt>
      <trkpt lat="46.327144112437963" lon="7.075645588338375">
        <ele>1773.29</ele>
        <time>2012-06-16T11:16:01Z</time>
      </trkpt>
      <trkpt lat="46.327224327251315" lon="7.075699651613832">
        <ele>1772.8099999999999</ele>
        <time>2012-06-16T11:16:02Z</time>
      </trkpt>
      <trkpt lat="46.327998228371143" lon="7.076385039836168">
        <ele>1767.52</ele>
        <time>2012-06-16T11:16:12Z</time>
      </trkpt>
      <trkpt lat="46.328055644407868" lon="7.076448239386082">
        <ele>1767.52</ele>
        <time>2012-06-16T11:16:13Z</time>
      </trkpt>
      <trkpt lat="46.328104762360454" lon="7.076516635715962">
        <ele>1767.04</ele>
        <time>2012-06-16T11:16:14Z</time>
      </trkpt>
      <trkpt lat="46.328143151476979" lon="7.076593078672886">
        <ele>1766.5599999999999</ele>
        <time>2012-06-16T11:16:15Z</time>
      </trkpt>
      <trkpt lat="46.328177265822887" lon="7.076674718409777">
        <ele>1766.0799999999999</ele>
        <time>2012-06-16T11:16:16Z</time>
      </trkpt>
      <trkpt lat="46.328207021579146" lon="7.076758369803429">
        <ele>1765.5999999999999</ele>
        <time>2012-06-16T11:16:17Z</time>
      </trkpt>
      <trkpt lat="46.328227305784822" lon="7.076842607930303">
        <ele>1765.1199999999999</ele>
        <time>2012-06-16T11:16:18Z</time>
      </trkpt>
      <trkpt lat="46.328239962458611" lon="7.076919553801417">
        <ele>1764.6400000000001</ele>
        <time>2012-06-16T11:16:19Z</time>
      </trkpt>
      <trkpt lat="46.32824775762856" lon="7.07699591293931">
        <ele>1764.1600000000001</ele>
        <time>2012-06-16T11:16:20Z</time>
      </trkpt>
      <trkpt lat="46.328256474807858" lon="7.077067578211427">
        <ele>1763.2</ele>
        <time>2012-06-16T11:16:21Z</time>
      </trkpt>
      <trkpt lat="46.328269802033901" lon="7.077135052531958">
        <ele>1762.71</ele>
        <time>2012-06-16T11:16:22Z</time>
      </trkpt>
      <trkpt lat="46.328431908041239" lon="7.077673086896539">
        <ele>1754.54</ele>
        <time>2012-06-16T11:16:29Z</time>
      </trkpt>
      <trkpt lat="46.328672636300325" lon="7.078069802373648">
        <ele>1745.8900000000001</ele>
        <time>2012-06-16T11:16:36Z</time>
      </trkpt>
      <trkpt lat="46.328836753964424" lon="7.078346321359277">
        <ele>1739.6400000000001</ele>
        <time>2012-06-16T11:16:41Z</time>
      </trkpt>
      <trkpt lat="46.328874388709664" lon="7.078384626656771">
        <ele>1738.6800000000001</ele>
        <time>2012-06-16T11:16:42Z</time>
      </trkpt>
      <trkpt lat="46.328917890787125" lon="7.078420082107186">
        <ele>1737.24</ele>
        <time>2012-06-16T11:16:43Z</time>
      </trkpt>
      <trkpt lat="46.329021574929357" lon="7.078487807884812">
        <ele>1735.3199999999999</ele>
        <time>2012-06-16T11:16:45Z</time>
      </trkpt>
      <trkpt lat="46.329080080613494" lon="7.078514629974961">
        <ele>1734.3599999999999</ele>
        <time>2012-06-16T11:16:46Z</time>
      </trkpt>
      <trkpt lat="46.329624149948359" lon="7.078788718208671">
        <ele>1729.55</ele>
        <time>2012-06-16T11:16:56Z</time>
      </trkpt>
      <trkpt lat="46.329973759129643" lon="7.078962475061417">
        <ele>1728.5899999999999</ele>
        <time>2012-06-16T11:17:03Z</time>
      </trkpt>
      <trkpt lat="46.330017428845167" lon="7.078994661569595">
        <ele>1728.1099999999999</ele>
        <time>2012-06-16T11:17:04Z</time>
      </trkpt>
      <trkpt lat="46.330061266198754" lon="7.079034727066755">
        <ele>1727.6300000000001</ele>
        <time>2012-06-16T11:17:05Z</time>
      </trkpt>
      <trkpt lat="46.330289086326957" lon="7.079230863600969">
        <ele>1726.6700000000001</ele>
        <time>2012-06-16T11:17:10Z</time>
      </trkpt>
      <trkpt lat="46.330332169309258" lon="7.079270761460066">
        <ele>1726.1800000000001</ele>
        <time>2012-06-16T11:17:11Z</time>
      </trkpt>
      <trkpt lat="46.330372150987387" lon="7.07930076867342">
        <ele>1725.7</ele>
        <time>2012-06-16T11:17:12Z</time>
      </trkpt>
      <trkpt lat="46.330411462113261" lon="7.079321388155222">
        <ele>1725.22</ele>
        <time>2012-06-16T11:17:13Z</time>
      </trkpt>
      <trkpt lat="46.330451527610421" lon="7.07933446392417">
        <ele>1724.74</ele>
        <time>2012-06-16T11:17:14Z</time>
      </trkpt>
      <trkpt lat="46.330489665269852" lon="7.079340750351548">
        <ele>1723.78</ele>
        <time>2012-06-16T11:17:15Z</time>
      </trkpt>
      <trkpt lat="46.330528724938631" lon="7.079340079799295">
        <ele>1723.3</ele>
        <time>2012-06-16T11:17:16Z</time>
      </trkpt>
      <trkpt lat="46.330572981387377" lon="7.079337816685438">
        <ele>1722.8199999999999</ele>
        <time>2012-06-16T11:17:17Z</time>
      </trkpt>
      <trkpt lat="46.330671971663833" lon="7.079330440610647">
        <ele>1721.8599999999999</ele>
        <time>2012-06-16T11:17:19Z</time>
      </trkpt>
      <trkpt lat="46.330720921978354" lon="7.07931443117559">
        <ele>1721.3800000000001</ele>
        <time>2012-06-16T11:17:20Z</time>
      </trkpt>
      <trkpt lat="46.330896439030766" lon="7.079232791438699">
        <ele>1718.97</ele>
        <time>2012-06-16T11:17:24Z</time>
      </trkpt>
      <trkpt lat="46.330938264727592" lon="7.07923237234354">
        <ele>1718.49</ele>
        <time>2012-06-16T11:17:25Z</time>
      </trkpt>
      <trkpt lat="46.330977911129594" lon="7.079255757853389">
        <ele>1718.01</ele>
        <time>2012-06-16T11:17:26Z</time>
      </trkpt>
      <trkpt lat="46.331005319952965" lon="7.079296242445707">
        <ele>1717.53</ele>
        <time>2012-06-16T11:17:27Z</time>
      </trkpt>
      <trkpt lat="46.331016216427088" lon="7.079344103112817">
        <ele>1717.05</ele>
        <time>2012-06-16T11:17:28Z</time>
      </trkpt>
      <trkpt lat="46.331014204770327" lon="7.079395819455385">
        <ele>1716.5699999999999</ele>
        <time>2012-06-16T11:17:29Z</time>
      </trkpt>
      <trkpt lat="46.330999620258808" lon="7.079447954893112">
        <ele>1716.5699999999999</ele>
        <time>2012-06-16T11:17:30Z</time>
      </trkpt>
      <trkpt lat="46.330973887816072" lon="7.079505873844028">
        <ele>1716.0899999999999</ele>
        <time>2012-06-16T11:17:31Z</time>
      </trkpt>
      <trkpt lat="46.330950334668159" lon="7.07957879640162">
        <ele>1715.1300000000001</ele>
        <time>2012-06-16T11:17:32Z</time>
      </trkpt>
      <trkpt lat="46.330934157595038" lon="7.079663956537843">
        <ele>1714.1700000000001</ele>
        <time>2012-06-16T11:17:33Z</time>
      </trkpt>
      <trkpt lat="46.330918567255139" lon="7.079834444448352">
        <ele>1712.73</ele>
        <time>2012-06-16T11:17:35Z</time>
      </trkpt>
      <trkpt lat="46.330927703529596" lon="7.079910133033991">
        <ele>1712.25</ele>
        <time>2012-06-16T11:17:36Z</time>
      </trkpt>
      <trkpt lat="46.330946311354637" lon="7.079977272078395">
        <ele>1711.28</ele>
        <time>2012-06-16T11:17:37Z</time>
      </trkpt>
      <trkpt lat="46.330963913351297" lon="7.08004348911345">
        <ele>1710.8</ele>
        <time>2012-06-16T11:17:38Z</time>
      </trkpt>
      <trkpt lat="46.330974558368325" lon="7.080110125243664">
        <ele>1710.3199999999999</ele>
        <time>2012-06-16T11:17:39Z</time>
      </trkpt>
      <trkpt lat="46.330976821482182" lon="7.080184137448669">
        <ele>1709.3599999999999</ele>
        <time>2012-06-16T11:17:40Z</time>
      </trkpt>
      <trkpt lat="46.330976402387023" lon="7.080269549041987">
        <ele>1708.4000000000001</ele>
        <time>2012-06-16T11:17:41Z</time>
      </trkpt>
      <trkpt lat="46.330986293032765" lon="7.0804588124156">
        <ele>1706.48</ele>
        <time>2012-06-16T11:17:43Z</time>
      </trkpt>
      <trkpt lat="46.331012612208724" lon="7.080541206523776">
        <ele>1706</ele>
        <time>2012-06-16T11:17:44Z</time>
      </trkpt>
      <trkpt lat="46.331043876707554" lon="7.080609519034624">
        <ele>1705.04</ele>
        <time>2012-06-16T11:17:45Z</time>
      </trkpt>
      <trkpt lat="46.331067094579339" lon="7.080679591745138">
        <ele>1704.55</ele>
        <time>2012-06-16T11:17:46Z</time>
      </trkpt>
      <trkpt lat="46.331072207540274" lon="7.080756286159158">
        <ele>1703.5899999999999</ele>
        <time>2012-06-16T11:17:47Z</time>
      </trkpt>
      <trkpt lat="46.331062149256468" lon="7.08083993755281">
        <ele>1703.1099999999999</ele>
        <time>2012-06-16T11:17:48Z</time>
      </trkpt>
      <trkpt lat="46.331050666049123" lon="7.080928953364492">
        <ele>1703.1099999999999</ele>
        <time>2012-06-16T11:17:49Z</time>
      </trkpt>
      <trkpt lat="46.331057539209723" lon="7.08101880736649">
        <ele>1702.6300000000001</ele>
        <time>2012-06-16T11:17:50Z</time>
      </trkpt>
      <trkpt lat="46.331081846728921" lon="7.081100530922413">
        <ele>1702.6300000000001</ele>
        <time>2012-06-16T11:17:51Z</time>
      </trkpt>
      <trkpt lat="46.331115206703544" lon="7.081168172881007">
        <ele>1702.6300000000001</ele>
        <time>2012-06-16T11:17:52Z</time>
      </trkpt>
      <trkpt lat="46.33115166798234" lon="7.08122793585062">
        <ele>1702.6300000000001</ele>
        <time>2012-06-16T11:17:53Z</time>
      </trkpt>
      <trkpt lat="46.33118980564177" lon="7.081286357715726">
        <ele>1702.6300000000001</ele>
        <time>2012-06-16T11:17:54Z</time>
      </trkpt>
      <trkpt lat="46.33122886531055" lon="7.081341678276658">
        <ele>1702.6300000000001</ele>
        <time>2012-06-16T11:17:55Z</time>
      </trkpt>
      <trkpt lat="46.331269349902868" lon="7.081391718238592">
        <ele>1702.1500000000001</ele>
        <time>2012-06-16T11:17:56Z</time>
      </trkpt>
      <trkpt lat="46.331313103437424" lon="7.081434046849608">
        <ele>1702.1500000000001</ele>
        <time>2012-06-16T11:17:57Z</time>
      </trkpt>
      <trkpt lat="46.331357276067138" lon="7.081470005214214">
        <ele>1702.1500000000001</ele>
        <time>2012-06-16T11:17:58Z</time>
      </trkpt>
      <trkpt lat="46.331401700153947" lon="7.081503449007869">
        <ele>1702.6300000000001</ele>
        <time>2012-06-16T11:17:59Z</time>
      </trkpt>
      <trkpt lat="46.33144679479301" lon="7.081531612202525">
        <ele>1702.6300000000001</ele>
        <time>2012-06-16T11:18:00Z</time>
      </trkpt>
      <trkpt lat="46.331492308527231" lon="7.081560362130404">
        <ele>1702.6300000000001</ele>
        <time>2012-06-16T11:18:01Z</time>
      </trkpt>
      <trkpt lat="46.331533044576645" lon="7.081599337980151">
        <ele>1702.6300000000001</ele>
        <time>2012-06-16T11:18:02Z</time>
      </trkpt>
      <trkpt lat="46.331746699288487" lon="7.081854399293661">
        <ele>1706</ele>
        <time>2012-06-16T11:18:12Z</time>
      </trkpt>
      <trkpt lat="46.331883827224374" lon="7.082112142816186">
        <ele>1709.3599999999999</ele>
        <time>2012-06-16T11:18:28Z</time>
      </trkpt>
      <trkpt lat="46.331942668184638" lon="7.082169810310006">
        <ele>1710.3199999999999</ele>
        <time>2012-06-16T11:18:33Z</time>
      </trkpt>
      <trkpt lat="46.33195105008781" lon="7.082186071202159">
        <ele>1710.8</ele>
        <time>2012-06-16T11:18:34Z</time>
      </trkpt>
      <trkpt lat="46.331960437819362" lon="7.082201326265931">
        <ele>1710.8</ele>
        <time>2012-06-16T11:18:35Z</time>
      </trkpt>
      <trkpt lat="46.331968568265438" lon="7.082217838615179">
        <ele>1711.28</ele>
        <time>2012-06-16T11:18:36Z</time>
      </trkpt>
      <trkpt lat="46.331978542730212" lon="7.082233848050237">
        <ele>1711.28</ele>
        <time>2012-06-16T11:18:37Z</time>
      </trkpt>
      <trkpt lat="46.331987092271447" lon="7.082252791151404">
        <ele>1711.76</ele>
        <time>2012-06-16T11:18:38Z</time>
      </trkpt>
      <trkpt lat="46.332078706473112" lon="7.082358067855239">
        <ele>1712.73</ele>
        <time>2012-06-16T11:18:47Z</time>
      </trkpt>
      <trkpt lat="46.332094380632043" lon="7.082358403131366">
        <ele>1712.73</ele>
        <time>2012-06-16T11:18:48Z</time>
      </trkpt>
      <trkpt lat="46.332108210772276" lon="7.082357481122017">
        <ele>1713.21</ele>
        <time>2012-06-16T11:18:49Z</time>
      </trkpt>
      <trkpt lat="46.332121537998319" lon="7.08235614001751">
        <ele>1713.21</ele>
        <time>2012-06-16T11:18:50Z</time>
      </trkpt>
      <trkpt lat="46.332137295976281" lon="7.082357564941049">
        <ele>1713.6900000000001</ele>
        <time>2012-06-16T11:18:51Z</time>
      </trkpt>
      <trkpt lat="46.3321518804878" lon="7.082362258806825">
        <ele>1713.6900000000001</ele>
        <time>2012-06-16T11:18:52Z</time>
      </trkpt>
      <trkpt lat="46.332165123894811" lon="7.082373239099979">
        <ele>1714.1700000000001</ele>
        <time>2012-06-16T11:18:53Z</time>
      </trkpt>
      <trkpt lat="46.332180546596646" lon="7.082386817783117">
        <ele>1714.6500000000001</ele>
        <time>2012-06-16T11:18:54Z</time>
      </trkpt>
      <trkpt lat="46.332195047289133" lon="7.082402743399143">
        <ele>1715.1300000000001</ele>
        <time>2012-06-16T11:18:55Z</time>
      </trkpt>
      <trkpt lat="46.332209128886461" lon="7.082418669015169">
        <ele>1715.1300000000001</ele>
        <time>2012-06-16T11:18:56Z</time>
      </trkpt>
      <trkpt lat="46.332227988168597" lon="7.082434678450227">
        <ele>1715.1300000000001</ele>
        <time>2012-06-16T11:18:57Z</time>
      </trkpt>
      <trkpt lat="46.33238548412919" lon="7.082362258806825">
        <ele>1715.1300000000001</ele>
        <time>2012-06-16T11:19:04Z</time>
      </trkpt>
      <trkpt lat="46.332463016733527" lon="7.082192525267601">
        <ele>1715.1300000000001</ele>
        <time>2012-06-16T11:19:10Z</time>
      </trkpt>
      <trkpt lat="46.332539459690452" lon="7.082097306847572">
        <ele>1715.1300000000001</ele>
        <time>2012-06-16T11:19:12Z</time>
      </trkpt>
      <trkpt lat="46.332644149661064" lon="7.082022372633219">
        <ele>1715.1300000000001</ele>
        <time>2012-06-16T11:19:14Z</time>
      </trkpt>
      <trkpt lat="46.332692261785269" lon="7.082006614655256">
        <ele>1714.6500000000001</ele>
        <time>2012-06-16T11:19:15Z</time>
      </trkpt>
      <trkpt lat="46.332741212099791" lon="7.081988258287311">
        <ele>1714.1700000000001</ele>
        <time>2012-06-16T11:19:16Z</time>
      </trkpt>
      <trkpt lat="46.332795359194279" lon="7.0819525513798">
        <ele>1713.21</ele>
        <time>2012-06-16T11:19:17Z</time>
      </trkpt>
      <trkpt lat="46.332856379449368" lon="7.081897314637899">
        <ele>1712.73</ele>
        <time>2012-06-16T11:19:18Z</time>
      </trkpt>
      <trkpt lat="46.3329151365906" lon="7.081832187250257">
        <ele>1712.25</ele>
        <time>2012-06-16T11:19:19Z</time>
      </trkpt>
      <trkpt lat="46.332967020571232" lon="7.081761779263616">
        <ele>1711.76</ele>
        <time>2012-06-16T11:19:20Z</time>
      </trkpt>
      <trkpt lat="46.333207162097096" lon="7.081455923616886">
        <ele>1709.3599999999999</ele>
        <time>2012-06-16T11:19:24Z</time>
      </trkpt>
      <trkpt lat="46.333318557590246" lon="7.081300355494022">
        <ele>1708.4000000000001</ele>
        <time>2012-06-16T11:19:26Z</time>
      </trkpt>
      <trkpt lat="46.333378655835986" lon="7.081238832324743">
        <ele>1708.4000000000001</ele>
        <time>2012-06-16T11:19:27Z</time>
      </trkpt>
      <trkpt lat="46.333551071584225" lon="7.081054765731096">
        <ele>1706.96</ele>
        <time>2012-06-16T11:19:30Z</time>
      </trkpt>
      <trkpt lat="46.333733797073364" lon="7.080773888155818">
        <ele>1706</ele>
        <time>2012-06-16T11:19:34Z</time>
      </trkpt>
      <trkpt lat="46.33379322476685" lon="7.080747568979859">
        <ele>1705.52</ele>
        <time>2012-06-16T11:19:35Z</time>
      </trkpt>
      <trkpt lat="46.333852987736464" lon="7.080748993903399">
        <ele>1705.52</ele>
        <time>2012-06-16T11:19:36Z</time>
      </trkpt>
      <trkpt lat="46.333907805383205" lon="7.080776151269674">
        <ele>1705.52</ele>
        <time>2012-06-16T11:19:37Z</time>
      </trkpt>
      <trkpt lat="46.333958767354488" lon="7.080815881490707">
        <ele>1706</ele>
        <time>2012-06-16T11:19:38Z</time>
      </trkpt>
      <trkpt lat="46.334003861993551" lon="7.080856114625931">
        <ele>1706.48</ele>
        <time>2012-06-16T11:19:39Z</time>
      </trkpt>
      <trkpt lat="46.334123723208904" lon="7.081214440986514">
        <ele>1708.4000000000001</ele>
        <time>2012-06-16T11:19:47Z</time>
      </trkpt>
      <trkpt lat="46.334140654653311" lon="7.081375541165471">
        <ele>1707.9200000000001</ele>
        <time>2012-06-16T11:19:50Z</time>
      </trkpt>
      <trkpt lat="46.33413914591074" lon="7.081438824534416">
        <ele>1707.9200000000001</ele>
        <time>2012-06-16T11:19:51Z</time>
      </trkpt>
      <trkpt lat="46.334137553349137" lon="7.081512585282326">
        <ele>1707.4400000000001</ele>
        <time>2012-06-16T11:19:52Z</time>
      </trkpt>
      <trkpt lat="46.334139397367835" lon="7.081594727933407">
        <ele>1706.96</ele>
        <time>2012-06-16T11:19:53Z</time>
      </trkpt>
      <trkpt lat="46.334146689623594" lon="7.081681229174137">
        <ele>1706</ele>
        <time>2012-06-16T11:19:54Z</time>
      </trkpt>
      <trkpt lat="46.334158340469003" lon="7.081763120368123">
        <ele>1706</ele>
        <time>2012-06-16T11:19:55Z</time>
      </trkpt>
      <trkpt lat="46.334175020456314" lon="7.081836126744747">
        <ele>1705.52</ele>
        <time>2012-06-16T11:19:56Z</time>
      </trkpt>
      <trkpt lat="46.334196478128433" lon="7.081900332123041">
        <ele>1705.52</ele>
        <time>2012-06-16T11:19:57Z</time>
      </trkpt>
      <trkpt lat="46.334219109266996" lon="7.081957161426544">
        <ele>1705.52</ele>
        <time>2012-06-16T11:19:58Z</time>
      </trkpt>
      <trkpt lat="46.334294211119413" lon="7.082178192213178">
        <ele>1705.52</ele>
        <time>2012-06-16T11:20:02Z</time>
      </trkpt>
      <trkpt lat="46.334305861964822" lon="7.082258071750403">
        <ele>1704.55</ele>
        <time>2012-06-16T11:20:03Z</time>
      </trkpt>
      <trkpt lat="46.334312483668327" lon="7.082348512485623">
        <ele>1704.0699999999999</ele>
        <time>2012-06-16T11:20:04Z</time>
      </trkpt>
      <trkpt lat="46.334313405677676" lon="7.082447167485952">
        <ele>1703.5899999999999</ele>
        <time>2012-06-16T11:20:05Z</time>
      </trkpt>
      <trkpt lat="46.33431164547801" lon="7.082549510523677">
        <ele>1703.1099999999999</ele>
        <time>2012-06-16T11:20:06Z</time>
      </trkpt>
      <trkpt lat="46.334294294938445" lon="7.083153342828155">
        <ele>1702.6300000000001</ele>
        <time>2012-06-16T11:20:13Z</time>
      </trkpt>
      <trkpt lat="46.334283566102386" lon="7.083221403881908">
        <ele>1703.1099999999999</ele>
        <time>2012-06-16T11:20:14Z</time>
      </trkpt>
      <trkpt lat="46.334214163944125" lon="7.083574868738651">
        <ele>1704.55</ele>
        <time>2012-06-16T11:20:20Z</time>
      </trkpt>
      <trkpt lat="46.334231346845627" lon="7.083622897043824">
        <ele>1705.04</ele>
        <time>2012-06-16T11:20:21Z</time>
      </trkpt>
      <trkpt lat="46.334259426221251" lon="7.083653742447496">
        <ele>1705.52</ele>
        <time>2012-06-16T11:20:22Z</time>
      </trkpt>
      <trkpt lat="46.33428817614913" lon="7.083662962540984">
        <ele>1706.48</ele>
        <time>2012-06-16T11:20:23Z</time>
      </trkpt>
      <trkpt lat="46.33431650698185" lon="7.083655502647162">
        <ele>1707.4400000000001</ele>
        <time>2012-06-16T11:20:24Z</time>
      </trkpt>
      <trkpt lat="46.334340311586857" lon="7.083641085773706">
        <ele>1708.4000000000001</ele>
        <time>2012-06-16T11:20:25Z</time>
      </trkpt>
      <trkpt lat="46.334360595792532" lon="7.083626082167029">
        <ele>1708.8800000000001</ele>
        <time>2012-06-16T11:20:26Z</time>
      </trkpt>
      <trkpt lat="46.334420023486018" lon="7.083564894273877">
        <ele>1711.76</ele>
        <time>2012-06-16T11:20:30Z</time>
      </trkpt>
      <trkpt lat="46.334478193894029" lon="7.083514435216785">
        <ele>1713.6900000000001</ele>
        <time>2012-06-16T11:20:33Z</time>
      </trkpt>
      <trkpt lat="46.334500070661306" lon="7.083498425781727">
        <ele>1714.1700000000001</ele>
        <time>2012-06-16T11:20:34Z</time>
      </trkpt>
      <trkpt lat="46.334883961826563" lon="7.083330787718296">
        <ele>1720.9000000000001</ele>
        <time>2012-06-16T11:20:51Z</time>
      </trkpt>
      <trkpt lat="46.335179591551423" lon="7.083310168236494">
        <ele>1722.8199999999999</ele>
        <time>2012-06-16T11:21:05Z</time>
      </trkpt>
      <trkpt lat="46.335224770009518" lon="7.083330368623138">
        <ele>1722.8199999999999</ele>
        <time>2012-06-16T11:21:07Z</time>
      </trkpt>
      <trkpt lat="46.335242791101336" lon="7.083349144086242">
        <ele>1722.8199999999999</ele>
        <time>2012-06-16T11:21:08Z</time>
      </trkpt>
      <trkpt lat="46.335261398926377" lon="7.083366913720965">
        <ele>1723.3</ele>
        <time>2012-06-16T11:21:09Z</time>
      </trkpt>
      <trkpt lat="46.335450829938054" lon="7.083593057468534">
        <ele>1720.9000000000001</ele>
        <time>2012-06-16T11:21:19Z</time>
      </trkpt>
      <trkpt lat="46.335655264556408" lon="7.08410887978971">
        <ele>1720.4200000000001</ele>
        <time>2012-06-16T11:21:34Z</time>
      </trkpt>
      <trkpt lat="46.335961204022169" lon="7.084465948864818">
        <ele>1720.9000000000001</ele>
        <time>2012-06-16T11:21:47Z</time>
      </trkpt>
      <trkpt lat="46.336124232038856" lon="7.084918990731239">
        <ele>1718.01</ele>
        <time>2012-06-16T11:21:53Z</time>
      </trkpt>
      <trkpt lat="46.336145689710975" lon="7.085011946037412">
        <ele>1718.01</ele>
        <time>2012-06-16T11:21:54Z</time>
      </trkpt>
      <trkpt lat="46.336158514022827" lon="7.085107499733567">
        <ele>1718.01</ele>
        <time>2012-06-16T11:21:55Z</time>
      </trkpt>
      <trkpt lat="46.336164800450206" lon="7.085205735638738">
        <ele>1717.53</ele>
        <time>2012-06-16T11:21:56Z</time>
      </trkpt>
      <trkpt lat="46.336167566478252" lon="7.085305228829384">
        <ele>1717.53</ele>
        <time>2012-06-16T11:21:57Z</time>
      </trkpt>
      <trkpt lat="46.336172511801124" lon="7.085498934611678">
        <ele>1717.05</ele>
        <time>2012-06-16T11:21:59Z</time>
      </trkpt>
      <trkpt lat="46.336188605055213" lon="7.085586525499821">
        <ele>1717.53</ele>
        <time>2012-06-16T11:22:00Z</time>
      </trkpt>
      <trkpt lat="46.336219199001789" lon="7.085663806647062">
        <ele>1717.53</ele>
        <time>2012-06-16T11:22:01Z</time>
      </trkpt>
      <trkpt lat="46.3362583424896" lon="7.085728431120515">
        <ele>1717.53</ele>
        <time>2012-06-16T11:22:02Z</time>
      </trkpt>
      <trkpt lat="46.336304023861885" lon="7.085790121927857">
        <ele>1717.05</ele>
        <time>2012-06-16T11:22:03Z</time>
      </trkpt>
      <trkpt lat="46.336466548964381" lon="7.086019031703472">
        <ele>1715.1300000000001</ele>
        <time>2012-06-16T11:22:06Z</time>
      </trkpt>
      <trkpt lat="46.336522875353694" lon="7.086104778572917">
        <ele>1714.1700000000001</ele>
        <time>2012-06-16T11:22:07Z</time>
      </trkpt>
      <trkpt lat="46.336632175371051" lon="7.086252551525831">
        <ele>1712.25</ele>
        <time>2012-06-16T11:22:09Z</time>
      </trkpt>
      <trkpt lat="46.336671486496925" lon="7.086331844329834">
        <ele>1711.76</ele>
        <time>2012-06-16T11:22:10Z</time>
      </trkpt>
      <trkpt lat="46.336694452911615" lon="7.086426056921482">
        <ele>1710.8</ele>
        <time>2012-06-16T11:22:11Z</time>
      </trkpt>
      <trkpt lat="46.336707109585404" lon="7.086531417444348">
        <ele>1710.3199999999999</ele>
        <time>2012-06-16T11:22:12Z</time>
      </trkpt>
      <trkpt lat="46.33672596886754" lon="7.086640717461705">
        <ele>1709.3599999999999</ele>
        <time>2012-06-16T11:22:13Z</time>
      </trkpt>
      <trkpt lat="46.336765866726637" lon="7.086745323613286">
        <ele>1708.8800000000001</ele>
        <time>2012-06-16T11:22:14Z</time>
      </trkpt>
      <trkpt lat="46.336820349097252" lon="7.086843308061361">
        <ele>1707.9200000000001</ele>
        <time>2012-06-16T11:22:15Z</time>
      </trkpt>
      <trkpt lat="46.336882626637816" lon="7.086930898949504">
        <ele>1707.4400000000001</ele>
        <time>2012-06-16T11:22:16Z</time>
      </trkpt>
      <trkpt lat="46.336948927491903" lon="7.08700935356319">
        <ele>1706.96</ele>
        <time>2012-06-16T11:22:17Z</time>
      </trkpt>
      <trkpt lat="46.337015479803085" lon="7.08708118647337">
        <ele>1706.48</ele>
        <time>2012-06-16T11:22:18Z</time>
      </trkpt>
      <trkpt lat="46.337435329332948" lon="7.087422916665673">
        <ele>1708.4000000000001</ele>
        <time>2012-06-16T11:22:27Z</time>
      </trkpt>
      <trkpt lat="46.337781082838774" lon="7.08730204962194">
        <ele>1710.8</ele>
        <time>2012-06-16T11:22:41Z</time>
      </trkpt>
      <trkpt lat="46.338189616799355" lon="7.086960319429636">
        <ele>1713.21</ele>
        <time>2012-06-16T11:22:59Z</time>
      </trkpt>
      <trkpt lat="46.338536962866783" lon="7.086903154850006">
        <ele>1716.5699999999999</ele>
        <time>2012-06-16T11:23:15Z</time>
      </trkpt>
      <trkpt lat="46.338717509061098" lon="7.08728495053947">
        <ele>1719.9400000000001</ele>
        <time>2012-06-16T11:23:30Z</time>
      </trkpt>
      <trkpt lat="46.338819768279791" lon="7.087732795625925">
        <ele>1723.78</ele>
        <time>2012-06-16T11:23:47Z</time>
      </trkpt>
      <trkpt lat="46.338611477985978" lon="7.087988862767816">
        <ele>1726.6700000000001</ele>
        <time>2012-06-16T11:24:03Z</time>
      </trkpt>
      <trkpt lat="46.338321296498179" lon="7.088194973766804">
        <ele>1728.5899999999999</ele>
        <time>2012-06-16T11:24:21Z</time>
      </trkpt>
      <trkpt lat="46.338048465549946" lon="7.088391948491335">
        <ele>1731.47</ele>
        <time>2012-06-16T11:24:38Z</time>
      </trkpt>
      <trkpt lat="46.337721236050129" lon="7.088695038110018">
        <ele>1734.8399999999999</ele>
        <time>2012-06-16T11:24:59Z</time>
      </trkpt>
      <trkpt lat="46.337473886087537" lon="7.089161323383451">
        <ele>1737.72</ele>
        <time>2012-06-16T11:25:20Z</time>
      </trkpt>
      <trkpt lat="46.337214214727283" lon="7.089416803792119">
        <ele>1740.1199999999999</ele>
        <time>2012-06-16T11:25:37Z</time>
      </trkpt>
      <trkpt lat="46.33692579343915" lon="7.089692652225494">
        <ele>1743.49</ele>
        <time>2012-06-16T11:25:56Z</time>
      </trkpt>
      <trkpt lat="46.336695626378059" lon="7.090034214779735">
        <ele>1745.4100000000001</ele>
        <time>2012-06-16T11:26:13Z</time>
      </trkpt>
      <trkpt lat="46.336441403254867" lon="7.090294389054179">
        <ele>1748.78</ele>
        <time>2012-06-16T11:26:30Z</time>
      </trkpt>
      <trkpt lat="46.336155496537685" lon="7.090513240545988">
        <ele>1751.1800000000001</ele>
        <time>2012-06-16T11:26:47Z</time>
      </trkpt>
      <trkpt lat="46.335848635062575" lon="7.09061055444181">
        <ele>1754.0599999999999</ele>
        <time>2012-06-16T11:27:04Z</time>
      </trkpt>
      <trkpt lat="46.335521070286632" lon="7.09067995660007">
        <ele>1756.95</ele>
        <time>2012-06-16T11:27:22Z</time>
      </trkpt>
      <trkpt lat="46.33517112582922" lon="7.090775761753321">
        <ele>1759.8299999999999</ele>
        <time>2012-06-16T11:27:41Z</time>
      </trkpt>
      <trkpt lat="46.334833670407534" lon="7.090933341532946">
        <ele>1763.2</ele>
        <time>2012-06-16T11:28:00Z</time>
      </trkpt>
      <trkpt lat="46.33455840870738" lon="7.091081030666828">
        <ele>1766.5599999999999</ele>
        <time>2012-06-16T11:28:15Z</time>
      </trkpt>
      <trkpt lat="46.334274681285024" lon="7.091220170259476">
        <ele>1769.4400000000001</ele>
        <time>2012-06-16T11:28:32Z</time>
      </trkpt>
      <trkpt lat="46.334032947197556" lon="7.091444218531251">
        <ele>1772.3299999999999</ele>
        <time>2012-06-16T11:28:47Z</time>
      </trkpt>
      <trkpt lat="46.333765732124448" lon="7.09150817245245">
        <ele>1775.6900000000001</ele>
        <time>2012-06-16T11:29:02Z</time>
      </trkpt>
      <trkpt lat="46.33351419121027" lon="7.091403063386679">
        <ele>1779.54</ele>
        <time>2012-06-16T11:29:16Z</time>
      </trkpt>
      <trkpt lat="46.333261895924807" lon="7.0915971044451">
        <ele>1782.4200000000001</ele>
        <time>2012-06-16T11:29:31Z</time>
      </trkpt>
      <trkpt lat="46.332986885681748" lon="7.091932380571961">
        <ele>1784.8199999999999</ele>
        <time>2012-06-16T11:29:50Z</time>
      </trkpt>
      <trkpt lat="46.332746325060725" lon="7.09224209189415">
        <ele>1787.71</ele>
        <time>2012-06-16T11:30:07Z</time>
      </trkpt>
      <trkpt lat="46.332563851028681" lon="7.092463793233037">
        <ele>1787.71</ele>
        <time>2012-06-16T11:30:19Z</time>
      </trkpt>
      <trkpt lat="46.332339132204652" lon="7.092724638059735">
        <ele>1791.55</ele>
        <time>2012-06-16T11:30:33Z</time>
      </trkpt>
      <trkpt lat="46.332049202173948" lon="7.092952458187938">
        <ele>1794.4400000000001</ele>
        <time>2012-06-16T11:30:51Z</time>
      </trkpt>
      <trkpt lat="46.33170478977263" lon="7.093164855614305">
        <ele>1796.3599999999999</ele>
        <time>2012-06-16T11:31:09Z</time>
      </trkpt>
      <trkpt lat="46.331351827830076" lon="7.09338940680027">
        <ele>1799.24</ele>
        <time>2012-06-16T11:31:25Z</time>
      </trkpt>
      <trkpt lat="46.330894008278847" lon="7.093647150322795">
        <ele>1802.6099999999999</ele>
        <time>2012-06-16T11:31:44Z</time>
      </trkpt>
      <trkpt lat="46.330537274479866" lon="7.094042608514428">
        <ele>1802.1300000000001</ele>
        <time>2012-06-16T11:31:59Z</time>
      </trkpt>
      <trkpt lat="46.330347592011094" lon="7.094280906021595">
        <ele>1800.6900000000001</ele>
        <time>2012-06-16T11:32:04Z</time>
      </trkpt>
      <trkpt lat="46.330312974750996" lon="7.094352068379521">
        <ele>1800.21</ele>
        <time>2012-06-16T11:32:05Z</time>
      </trkpt>
      <trkpt lat="46.330288331955671" lon="7.094435133039951">
        <ele>1799.73</ele>
        <time>2012-06-16T11:32:06Z</time>
      </trkpt>
      <trkpt lat="46.330276932567358" lon="7.094531608745456">
        <ele>1799.24</ele>
        <time>2012-06-16T11:32:07Z</time>
      </trkpt>
      <trkpt lat="46.330278106033802" lon="7.09463931620121">
        <ele>1798.76</ele>
        <time>2012-06-16T11:32:08Z</time>
      </trkpt>
      <trkpt lat="46.330290930345654" lon="7.094753310084343">
        <ele>1797.8</ele>
        <time>2012-06-16T11:32:09Z</time>
      </trkpt>
      <trkpt lat="46.330319428816438" lon="7.094870572909713">
        <ele>1796.8399999999999</ele>
        <time>2012-06-16T11:32:10Z</time>
      </trkpt>
      <trkpt lat="46.330368546769023" lon="7.094983896240592">
        <ele>1795.4000000000001</ele>
        <time>2012-06-16T11:32:11Z</time>
      </trkpt>
      <trkpt lat="46.330432165414095" lon="7.095082467421889">
        <ele>1793.96</ele>
        <time>2012-06-16T11:32:12Z</time>
      </trkpt>
      <trkpt lat="46.330504668876529" lon="7.095164693892002">
        <ele>1792.52</ele>
        <time>2012-06-16T11:32:13Z</time>
      </trkpt>
      <trkpt lat="46.33057507686317" lon="7.095241220667958">
        <ele>1791.0699999999999</ele>
        <time>2012-06-16T11:32:14Z</time>
      </trkpt>
      <trkpt lat="46.330633498728275" lon="7.095326129347086">
        <ele>1789.6300000000001</ele>
        <time>2012-06-16T11:32:15Z</time>
      </trkpt>
      <trkpt lat="46.330672139301896" lon="7.095431825146079">
        <ele>1788.6700000000001</ele>
        <time>2012-06-16T11:32:16Z</time>
      </trkpt>
      <trkpt lat="46.330689657479525" lon="7.095556296408176">
        <ele>1787.71</ele>
        <time>2012-06-16T11:32:17Z</time>
      </trkpt>
      <trkpt lat="46.330690579488873" lon="7.09569183178246">
        <ele>1786.75</ele>
        <time>2012-06-16T11:32:18Z</time>
      </trkpt>
      <trkpt lat="46.330683203414083" lon="7.095836335793138">
        <ele>1785.3099999999999</ele>
        <time>2012-06-16T11:32:19Z</time>
      </trkpt>
      <trkpt lat="46.330668954178691" lon="7.096263477578759">
        <ele>1782.4200000000001</ele>
        <time>2012-06-16T11:32:22Z</time>
      </trkpt>
      <trkpt lat="46.330690160393715" lon="7.09639742039144">
        <ele>1781.46</ele>
        <time>2012-06-16T11:32:23Z</time>
      </trkpt>
      <trkpt lat="46.330729639157653" lon="7.096531949937344">
        <ele>1780.02</ele>
        <time>2012-06-16T11:32:24Z</time>
      </trkpt>
      <trkpt lat="46.330941366031766" lon="7.097057662904263">
        <ele>1775.21</ele>
        <time>2012-06-16T11:32:28Z</time>
      </trkpt>
      <trkpt lat="46.331009343266487" lon="7.09717433899641">
        <ele>1774.25</ele>
        <time>2012-06-16T11:32:29Z</time>
      </trkpt>
      <trkpt lat="46.331197433173656" lon="7.097501819953322">
        <ele>1770.4100000000001</ele>
        <time>2012-06-16T11:32:32Z</time>
      </trkpt>
      <trkpt lat="46.33123280480504" lon="7.097640205174685">
        <ele>1769.4400000000001</ele>
        <time>2012-06-16T11:32:33Z</time>
      </trkpt>
      <trkpt lat="46.331250742077827" lon="7.097793342545629">
        <ele>1768.48</ele>
        <time>2012-06-16T11:32:34Z</time>
      </trkpt>
      <trkpt lat="46.331340009346604" lon="7.098480323329568">
        <ele>1762.71</ele>
        <time>2012-06-16T11:32:39Z</time>
      </trkpt>
      <trkpt lat="46.33137253113091" lon="7.098575457930565">
        <ele>1761.75</ele>
        <time>2012-06-16T11:32:40Z</time>
      </trkpt>
      <trkpt lat="46.331414356827736" lon="7.098654499277473">
        <ele>1760.79</ele>
        <time>2012-06-16T11:32:41Z</time>
      </trkpt>
      <trkpt lat="46.331470683217049" lon="7.098720297217369">
        <ele>1759.3499999999999</ele>
        <time>2012-06-16T11:32:42Z</time>
      </trkpt>
      <trkpt lat="46.331542516127229" lon="7.098778719082475">
        <ele>1758.3900000000001</ele>
        <time>2012-06-16T11:32:43Z</time>
      </trkpt>
      <trkpt lat="46.331626586616039" lon="7.098834626376629">
        <ele>1757.4300000000001</ele>
        <time>2012-06-16T11:32:44Z</time>
      </trkpt>
      <trkpt lat="46.332512386143208" lon="7.099327063187957">
        <ele>1747.3299999999999</ele>
        <time>2012-06-16T11:32:52Z</time>
      </trkpt>
      <trkpt lat="46.333043798804283" lon="7.099495707079768">
        <ele>1740.5999999999999</ele>
        <time>2012-06-16T11:32:57Z</time>
      </trkpt>
      <trkpt lat="46.333130970597267" lon="7.099577765911818">
        <ele>1739.1600000000001</ele>
        <time>2012-06-16T11:32:58Z</time>
      </trkpt>
      <trkpt lat="46.333212610334158" lon="7.099682288244367">
        <ele>1738.2</ele>
        <time>2012-06-16T11:32:59Z</time>
      </trkpt>
      <trkpt lat="46.333369016647339" lon="7.099922429770231">
        <ele>1735.8</ele>
        <time>2012-06-16T11:33:01Z</time>
      </trkpt>
      <trkpt lat="46.333424588665366" lon="7.100070202723146">
        <ele>1734.8399999999999</ele>
        <time>2012-06-16T11:33:02Z</time>
      </trkpt>
      <trkpt lat="46.333627849817276" lon="7.100685769692063">
        <ele>1730.51</ele>
        <time>2012-06-16T11:33:06Z</time>
      </trkpt>
      <trkpt lat="46.33401115424931" lon="7.101513650268316">
        <ele>1723.3</ele>
        <time>2012-06-16T11:33:12Z</time>
      </trkpt>
      <trkpt lat="46.334047028794885" lon="7.101669972762466">
        <ele>1721.8599999999999</ele>
        <time>2012-06-16T11:33:13Z</time>
      </trkpt>
      <trkpt lat="46.334209972992539" lon="7.102291826158762">
        <ele>1715.1300000000001</ele>
        <time>2012-06-16T11:33:18Z</time>
      </trkpt>
      <trkpt lat="46.334257666021585" lon="7.102368688210845">
        <ele>1713.6900000000001</ele>
        <time>2012-06-16T11:33:19Z</time>
      </trkpt>
      <trkpt lat="46.334322709590197" lon="7.102419147267938">
        <ele>1712.25</ele>
        <time>2012-06-16T11:33:20Z</time>
      </trkpt>
      <trkpt lat="46.334406947717071" lon="7.102446975186467">
        <ele>1711.28</ele>
        <time>2012-06-16T11:33:21Z</time>
      </trkpt>
      <trkpt lat="46.334499064832926" lon="7.102462984621525">
        <ele>1710.3199999999999</ele>
        <time>2012-06-16T11:33:22Z</time>
      </trkpt>
      <trkpt lat="46.33479243144393" lon="7.102550743147731">
        <ele>1707.4400000000001</ele>
        <time>2012-06-16T11:33:25Z</time>
      </trkpt>
      <trkpt lat="46.334893517196178" lon="7.102609165012837">
        <ele>1706.48</ele>
        <time>2012-06-16T11:33:26Z</time>
      </trkpt>
      <trkpt lat="46.335115050897002" lon="7.10274369455874">
        <ele>1704.0699999999999</ele>
        <time>2012-06-16T11:33:28Z</time>
      </trkpt>
      <trkpt lat="46.335236085578799" lon="7.102791639044881">
        <ele>1703.1099999999999</ele>
        <time>2012-06-16T11:33:29Z</time>
      </trkpt>
      <trkpt lat="46.335689797997475" lon="7.102911835536361">
        <ele>1698.79</ele>
        <time>2012-06-16T11:33:33Z</time>
      </trkpt>
      <trkpt lat="46.335797421634197" lon="7.102971095591784">
        <ele>1697.8299999999999</ele>
        <time>2012-06-16T11:33:34Z</time>
      </trkpt>
      <trkpt lat="46.335900686681271" lon="7.103052316233516">
        <ele>1696.8599999999999</ele>
        <time>2012-06-16T11:33:35Z</time>
      </trkpt>
      <trkpt lat="46.335998335853219" lon="7.103153988718987">
        <ele>1695.9000000000001</ele>
        <time>2012-06-16T11:33:36Z</time>
      </trkpt>
      <trkpt lat="46.336089111864567" lon="7.103273011744022">
        <ele>1694.9400000000001</ele>
        <time>2012-06-16T11:33:37Z</time>
      </trkpt>
      <trkpt lat="46.336170667782426" lon="7.103406954556704">
        <ele>1693.5</ele>
        <time>2012-06-16T11:33:38Z</time>
      </trkpt>
      <trkpt lat="46.336248200386763" lon="7.103550033643842">
        <ele>1692.54</ele>
        <time>2012-06-16T11:33:39Z</time>
      </trkpt>
      <trkpt lat="46.336568389087915" lon="7.104187728837133">
        <ele>1687.25</ele>
        <time>2012-06-16T11:33:44Z</time>
      </trkpt>
      <trkpt lat="46.336582889780402" lon="7.104305494576693">
        <ele>1686.29</ele>
        <time>2012-06-16T11:33:45Z</time>
      </trkpt>
      <trkpt lat="46.336567215621471" lon="7.104428540915251">
        <ele>1685.3299999999999</ele>
        <time>2012-06-16T11:33:46Z</time>
      </trkpt>
      <trkpt lat="46.336524887010455" lon="7.104551587253809">
        <ele>1684.3699999999999</ele>
        <time>2012-06-16T11:33:47Z</time>
      </trkpt>
      <trkpt lat="46.336471578106284" lon="7.104677148163319">
        <ele>1683.4100000000001</ele>
        <time>2012-06-16T11:33:48Z</time>
      </trkpt>
      <trkpt lat="46.336253061890602" lon="7.105443924665451">
        <ele>1678.1199999999999</ele>
        <time>2012-06-16T11:33:53Z</time>
      </trkpt>
      <trkpt lat="46.336233615875244" lon="7.105612568557262">
        <ele>1676.6800000000001</ele>
        <time>2012-06-16T11:33:54Z</time>
      </trkpt>
      <trkpt lat="46.336222970858216" lon="7.105771573260427">
        <ele>1675.72</ele>
        <time>2012-06-16T11:33:55Z</time>
      </trkpt>
      <trkpt lat="46.336213164031506" lon="7.106149345636368">
        <ele>1671.8699999999999</ele>
        <time>2012-06-16T11:33:58Z</time>
      </trkpt>
      <trkpt lat="46.336230430752039" lon="7.10624422878027">
        <ele>1670.9100000000001</ele>
        <time>2012-06-16T11:33:59Z</time>
      </trkpt>
      <trkpt lat="46.336267897859216" lon="7.106328969821334">
        <ele>1669.95</ele>
        <time>2012-06-16T11:34:00Z</time>
      </trkpt>
      <trkpt lat="46.336326068267226" lon="7.106399377807975">
        <ele>1668.99</ele>
        <time>2012-06-16T11:34:01Z</time>
      </trkpt>
      <trkpt lat="46.336400751024485" lon="7.106455871835351">
        <ele>1668.02</ele>
        <time>2012-06-16T11:34:02Z</time>
      </trkpt>
      <trkpt lat="46.336489012464881" lon="7.106494847685099">
        <ele>1666.5799999999999</ele>
        <time>2012-06-16T11:34:03Z</time>
      </trkpt>
      <trkpt lat="46.336590349674225" lon="7.106511360034347">
        <ele>1665.6199999999999</ele>
        <time>2012-06-16T11:34:04Z</time>
      </trkpt>
      <trkpt lat="46.336697302758694" lon="7.106521502137184">
        <ele>1664.6600000000001</ele>
        <time>2012-06-16T11:34:05Z</time>
      </trkpt>
      <trkpt lat="46.337015898898244" lon="7.106574894860387">
        <ele>1661.78</ele>
        <time>2012-06-16T11:34:08Z</time>
      </trkpt>
      <trkpt lat="46.337133496999741" lon="7.106573218479753">
        <ele>1660.8099999999999</ele>
        <time>2012-06-16T11:34:09Z</time>
      </trkpt>
      <trkpt lat="46.338313166052103" lon="7.106368616223335">
        <ele>1652.1600000000001</ele>
        <time>2012-06-16T11:34:19Z</time>
      </trkpt>
      <trkpt lat="46.338516846299171" lon="7.106299130246043">
        <ele>1652.1600000000001</ele>
        <time>2012-06-16T11:34:21Z</time>
      </trkpt>
      <trkpt lat="46.338728321716189" lon="7.106171809136868">
        <ele>1652.6400000000001</ele>
        <time>2012-06-16T11:34:23Z</time>
      </trkpt>
      <trkpt lat="46.339548574760556" lon="7.105472506955266">
        <ele>1650.72</ele>
        <time>2012-06-16T11:34:31Z</time>
      </trkpt>
      <trkpt lat="46.339710596948862" lon="7.105312496423721">
        <ele>1649.76</ele>
        <time>2012-06-16T11:34:33Z</time>
      </trkpt>
      <trkpt lat="46.339806653559208" lon="7.105249632149935">
        <ele>1649.28</ele>
        <time>2012-06-16T11:34:34Z</time>
      </trkpt>
      <trkpt lat="46.340119633823633" lon="7.105133626610041">
        <ele>1647.8399999999999</ele>
        <time>2012-06-16T11:34:37Z</time>
      </trkpt>
      <trkpt lat="46.340221557766199" lon="7.105137733742595">
        <ele>1647.3599999999999</ele>
        <time>2012-06-16T11:34:38Z</time>
      </trkpt>
      <trkpt lat="46.340323062613606" lon="7.105167154222727">
        <ele>1647.3599999999999</ele>
        <time>2012-06-16T11:34:39Z</time>
      </trkpt>
      <trkpt lat="46.340430937707424" lon="7.105198921635747">
        <ele>1647.3599999999999</ele>
        <time>2012-06-16T11:34:40Z</time>
      </trkpt>
      <trkpt lat="46.340549206361175" lon="7.10520445369184">
        <ele>1646.8800000000001</ele>
        <time>2012-06-16T11:34:41Z</time>
      </trkpt>
      <trkpt lat="46.340668564662337" lon="7.10519808344543">
        <ele>1645.9100000000001</ele>
        <time>2012-06-16T11:34:42Z</time>
      </trkpt>
      <trkpt lat="46.340900659561157" lon="7.105224234983325">
        <ele>1643.99</ele>
        <time>2012-06-16T11:34:44Z</time>
      </trkpt>
      <trkpt lat="46.341011803597212" lon="7.105272682383657">
        <ele>1642.55</ele>
        <time>2012-06-16T11:34:45Z</time>
      </trkpt>
      <trkpt lat="46.341112302616239" lon="7.105332780629396">
        <ele>1641.1099999999999</ele>
        <time>2012-06-16T11:34:46Z</time>
      </trkpt>
      <trkpt lat="46.341195702552795" lon="7.105415929108858">
        <ele>1639.1900000000001</ele>
        <time>2012-06-16T11:34:47Z</time>
      </trkpt>
      <trkpt lat="46.341259488835931" lon="7.105534616857767">
        <ele>1637.74</ele>
        <time>2012-06-16T11:34:48Z</time>
      </trkpt>
      <trkpt lat="46.341306762769818" lon="7.105676857754588">
        <ele>1635.8199999999999</ele>
        <time>2012-06-16T11:34:49Z</time>
      </trkpt>
      <trkpt lat="46.341349426656961" lon="7.10583183914423">
        <ele>1633.9000000000001</ele>
        <time>2012-06-16T11:34:50Z</time>
      </trkpt>
      <trkpt lat="46.34150474332273" lon="7.106516137719154">
        <ele>1625.25</ele>
        <time>2012-06-16T11:34:55Z</time>
      </trkpt>
      <trkpt lat="46.341560818254948" lon="7.106616552919149">
        <ele>1623.3199999999999</ele>
        <time>2012-06-16T11:34:56Z</time>
      </trkpt>
      <trkpt lat="46.341633992269635" lon="7.106710262596607">
        <ele>1621.4000000000001</ele>
        <time>2012-06-16T11:34:57Z</time>
      </trkpt>
      <trkpt lat="46.341707920655608" lon="7.106805481016636">
        <ele>1619.48</ele>
        <time>2012-06-16T11:34:58Z</time>
      </trkpt>
      <trkpt lat="46.34177640080452" lon="7.106897095218301">
        <ele>1617.5599999999999</ele>
        <time>2012-06-16T11:34:59Z</time>
      </trkpt>
      <trkpt lat="46.341839767992496" lon="7.106975549831986">
        <ele>1615.6300000000001</ele>
        <time>2012-06-16T11:35:00Z</time>
      </trkpt>
      <trkpt lat="46.341905063018203" lon="7.107030786573887">
        <ele>1613.23</ele>
        <time>2012-06-16T11:35:01Z</time>
      </trkpt>
      <trkpt lat="46.341982847079635" lon="7.107059955596924">
        <ele>1611.79</ele>
        <time>2012-06-16T11:35:02Z</time>
      </trkpt>
      <trkpt lat="46.342077562585473" lon="7.107057189568877">
        <ele>1610.3499999999999</ele>
        <time>2012-06-16T11:35:03Z</time>
      </trkpt>
      <trkpt lat="46.34218049235642" lon="7.107050819322467">
        <ele>1608.9000000000001</ele>
        <time>2012-06-16T11:35:04Z</time>
      </trkpt>
      <trkpt lat="46.342491712421179" lon="7.107056183740497">
        <ele>1606.02</ele>
        <time>2012-06-16T11:35:07Z</time>
      </trkpt>
      <trkpt lat="46.342579973861575" lon="7.107036067172885">
        <ele>1605.54</ele>
        <time>2012-06-16T11:35:08Z</time>
      </trkpt>
      <trkpt lat="46.34265691973269" lon="7.106993906199932">
        <ele>1604.5799999999999</ele>
        <time>2012-06-16T11:35:09Z</time>
      </trkpt>
      <trkpt lat="46.342784827575088" lon="7.106906482949853">
        <ele>1602.6600000000001</ele>
        <time>2012-06-16T11:35:11Z</time>
      </trkpt>
      <trkpt lat="46.34284408763051" lon="7.106911092996597">
        <ele>1601.6900000000001</ele>
        <time>2012-06-16T11:35:12Z</time>
      </trkpt>
      <trkpt lat="46.342894714325666" lon="7.106961468234658">
        <ele>1600.73</ele>
        <time>2012-06-16T11:35:13Z</time>
      </trkpt>
      <trkpt lat="46.34292078204453" lon="7.107050400227308">
        <ele>1600.25</ele>
        <time>2012-06-16T11:35:14Z</time>
      </trkpt>
      <trkpt lat="46.342915585264564" lon="7.107148552313447">
        <ele>1599.77</ele>
        <time>2012-06-16T11:35:15Z</time>
      </trkpt>
      <trkpt lat="46.34288021363318" lon="7.107235891744494">
        <ele>1599.77</ele>
        <time>2012-06-16T11:35:16Z</time>
      </trkpt>
      <trkpt lat="46.342824306339025" lon="7.107298923656344">
        <ele>1599.29</ele>
        <time>2012-06-16T11:35:17Z</time>
      </trkpt>
      <trkpt lat="46.342759933322668" lon="7.10734561085701">
        <ele>1599.29</ele>
        <time>2012-06-16T11:35:18Z</time>
      </trkpt>
      <trkpt lat="46.342692961916327" lon="7.107383161783218">
        <ele>1598.8099999999999</ele>
        <time>2012-06-16T11:35:19Z</time>
      </trkpt>
      <trkpt lat="46.342622637748718" lon="7.10740327835083">
        <ele>1597.8499999999999</ele>
        <time>2012-06-16T11:35:20Z</time>
      </trkpt>
      <trkpt lat="46.342545440420508" lon="7.107405122369528">
        <ele>1596.8900000000001</ele>
        <time>2012-06-16T11:35:21Z</time>
      </trkpt>
      <trkpt lat="46.342465141788125" lon="7.107398668304086">
        <ele>1596.4100000000001</ele>
        <time>2012-06-16T11:35:22Z</time>
      </trkpt>
      <trkpt lat="46.342217288911343" lon="7.107432195916772">
        <ele>1594</ele>
        <time>2012-06-16T11:35:25Z</time>
      </trkpt>
      <trkpt lat="46.34213849902153" lon="7.107486007735133">
        <ele>1592.5599999999999</ele>
        <time>2012-06-16T11:35:26Z</time>
      </trkpt>
      <trkpt lat="46.341979997232556" lon="7.107608132064343">
        <ele>1590.6400000000001</ele>
        <time>2012-06-16T11:35:28Z</time>
      </trkpt>
      <trkpt lat="46.341892322525382" lon="7.107645431533456">
        <ele>1589.6800000000001</ele>
        <time>2012-06-16T11:35:29Z</time>
      </trkpt>
      <trkpt lat="46.341647654771805" lon="7.107734112069011">
        <ele>1586.79</ele>
        <time>2012-06-16T11:35:32Z</time>
      </trkpt>
      <trkpt lat="46.341590071097016" lon="7.107798149809241">
        <ele>1585.8299999999999</ele>
        <time>2012-06-16T11:35:33Z</time>
      </trkpt>
      <trkpt lat="46.341552771627903" lon="7.107882052659988">
        <ele>1584.8699999999999</ele>
        <time>2012-06-16T11:35:34Z</time>
      </trkpt>
      <trkpt lat="46.341545814648271" lon="7.107979785650969">
        <ele>1583.9100000000001</ele>
        <time>2012-06-16T11:35:35Z</time>
      </trkpt>
      <trkpt lat="46.341557465493679" lon="7.108062179759145">
        <ele>1581.03</ele>
        <time>2012-06-16T11:35:36Z</time>
      </trkpt>
      <trkpt lat="46.341595100238919" lon="7.108130240812898">
        <ele>1578.1400000000001</ele>
        <time>2012-06-16T11:35:37Z</time>
      </trkpt>
      <trkpt lat="46.341656539589167" lon="7.108171982690692">
        <ele>1575.74</ele>
        <time>2012-06-16T11:35:38Z</time>
      </trkpt>
      <trkpt lat="46.341729797422886" lon="7.108175838366151">
        <ele>1573.3299999999999</ele>
        <time>2012-06-16T11:35:39Z</time>
      </trkpt>
      <trkpt lat="46.341807497665286" lon="7.108145663514733">
        <ele>1571.4100000000001</ele>
        <time>2012-06-16T11:35:40Z</time>
      </trkpt>
      <trkpt lat="46.34188829921186" lon="7.10810056887567">
        <ele>1570.45</ele>
        <time>2012-06-16T11:35:41Z</time>
      </trkpt>
      <trkpt lat="46.342863868921995" lon="7.107518780976534">
        <ele>1558.9200000000001</ele>
        <time>2012-06-16T11:35:52Z</time>
      </trkpt>
      <trkpt lat="46.34294668212533" lon="7.107438901439309">
        <ele>1558.4300000000001</ele>
        <time>2012-06-16T11:35:53Z</time>
      </trkpt>
      <trkpt lat="46.343179028481245" lon="7.107182834297419">
        <ele>1556.99</ele>
        <time>2012-06-16T11:35:56Z</time>
      </trkpt>
      <trkpt lat="46.343239462003112" lon="7.10709884762764">
        <ele>1556.03</ele>
        <time>2012-06-16T11:35:57Z</time>
      </trkpt>
      <trkpt lat="46.343413051217794" lon="7.106863567605615">
        <ele>1555.55</ele>
        <time>2012-06-16T11:36:00Z</time>
      </trkpt>
      <trkpt lat="46.343484967947006" lon="7.106810426339507">
        <ele>1555.55</ele>
        <time>2012-06-16T11:36:01Z</time>
      </trkpt>
      <trkpt lat="46.343564428389072" lon="7.106769438832998">
        <ele>1555.55</ele>
        <time>2012-06-16T11:36:02Z</time>
      </trkpt>
      <trkpt lat="46.344390800222754" lon="7.106448160484433">
        <ele>1555.55</ele>
        <time>2012-06-16T11:36:11Z</time>
      </trkpt>
      <trkpt lat="46.344492305070162" lon="7.106445729732513">
        <ele>1555.55</ele>
        <time>2012-06-16T11:36:12Z</time>
      </trkpt>
      <trkpt lat="46.344593055546284" lon="7.106455871835351">
        <ele>1555.55</ele>
        <time>2012-06-16T11:36:13Z</time>
      </trkpt>
      <trkpt lat="46.345030423253775" lon="7.106564417481422">
        <ele>1556.03</ele>
        <time>2012-06-16T11:36:18Z</time>
      </trkpt>
      <trkpt lat="46.345103261992335" lon="7.106552347540855">
        <ele>1556.03</ele>
        <time>2012-06-16T11:36:19Z</time>
      </trkpt>
      <trkpt lat="46.345175430178642" lon="7.10651496425271">
        <ele>1556.03</ele>
        <time>2012-06-16T11:36:20Z</time>
      </trkpt>
      <trkpt lat="46.345991240814328" lon="7.105842316523194">
        <ele>1551.22</ele>
        <time>2012-06-16T11:36:30Z</time>
      </trkpt>
      <trkpt lat="46.346062235534191" lon="7.105744583532214">
        <ele>1550.26</ele>
        <time>2012-06-16T11:36:31Z</time>
      </trkpt>
      <trkpt lat="46.34627178311348" lon="7.105348957702518">
        <ele>1546.9000000000001</ele>
        <time>2012-06-16T11:36:35Z</time>
      </trkpt>
      <trkpt lat="46.346300449222326" lon="7.105236891657114">
        <ele>1545.46</ele>
        <time>2012-06-16T11:36:36Z</time>
      </trkpt>
      <trkpt lat="46.346320817247033" lon="7.10512725636363">
        <ele>1544.5</ele>
        <time>2012-06-16T11:36:37Z</time>
      </trkpt>
      <trkpt lat="46.346325846388936" lon="7.105009406805039">
        <ele>1543.05</ele>
        <time>2012-06-16T11:36:38Z</time>
      </trkpt>
      <trkpt lat="46.34631771594286" lon="7.104881331324577">
        <ele>1541.6099999999999</ele>
        <time>2012-06-16T11:36:39Z</time>
      </trkpt>
      <trkpt lat="46.346304891631007" lon="7.104744957759976">
        <ele>1540.1700000000001</ele>
        <time>2012-06-16T11:36:40Z</time>
      </trkpt>
      <trkpt lat="46.346242027357221" lon="7.104077003896236">
        <ele>1534.4000000000001</ele>
        <time>2012-06-16T11:36:45Z</time>
      </trkpt>
      <trkpt lat="46.346240686252713" lon="7.103951694443822">
        <ele>1533.4400000000001</ele>
        <time>2012-06-16T11:36:46Z</time>
      </trkpt>
      <trkpt lat="46.346255354583263" lon="7.103823116049171">
        <ele>1532</ele>
        <time>2012-06-16T11:36:47Z</time>
      </trkpt>
      <trkpt lat="46.346280248835683" lon="7.103695878759027">
        <ele>1531.04</ele>
        <time>2012-06-16T11:36:48Z</time>
      </trkpt>
      <trkpt lat="46.346308747306466" lon="7.103573083877564">
        <ele>1530.0799999999999</ele>
        <time>2012-06-16T11:36:49Z</time>
      </trkpt>
      <trkpt lat="46.346331546083093" lon="7.103446014225483">
        <ele>1529.1099999999999</ele>
        <time>2012-06-16T11:36:50Z</time>
      </trkpt>
      <trkpt lat="46.346346214413643" lon="7.103315005078912">
        <ele>1528.1500000000001</ele>
        <time>2012-06-16T11:36:51Z</time>
      </trkpt>
      <trkpt lat="46.346310758963227" lon="7.102432977408171">
        <ele>1521.4200000000001</ele>
        <time>2012-06-16T11:36:58Z</time>
      </trkpt>
      <trkpt lat="46.346289720386267" lon="7.102324264124036">
        <ele>1520.46</ele>
        <time>2012-06-16T11:36:59Z</time>
      </trkpt>
      <trkpt lat="46.346285529434681" lon="7.102203313261271">
        <ele>1519.5</ele>
        <time>2012-06-16T11:37:00Z</time>
      </trkpt>
      <trkpt lat="46.346299778670073" lon="7.102066352963448">
        <ele>1518.0599999999999</ele>
        <time>2012-06-16T11:37:01Z</time>
      </trkpt>
      <trkpt lat="46.346319308504462" lon="7.101929057389498">
        <ele>1516.6199999999999</ele>
        <time>2012-06-16T11:37:02Z</time>
      </trkpt>
      <trkpt lat="46.346364319324493" lon="7.101559247821569">
        <ele>1513.73</ele>
        <time>2012-06-16T11:37:05Z</time>
      </trkpt>
      <trkpt lat="46.346366330981255" lon="7.101429412141442">
        <ele>1512.29</ele>
        <time>2012-06-16T11:37:06Z</time>
      </trkpt>
      <trkpt lat="46.346359960734844" lon="7.101294714957476">
        <ele>1511.3299999999999</ele>
        <time>2012-06-16T11:37:07Z</time>
      </trkpt>
      <trkpt lat="46.346301203593612" lon="7.100745029747486">
        <ele>1507</ele>
        <time>2012-06-16T11:37:11Z</time>
      </trkpt>
      <trkpt lat="46.346273124217987" lon="7.100463900715113">
        <ele>1504.1199999999999</ele>
        <time>2012-06-16T11:37:13Z</time>
      </trkpt>
      <trkpt lat="46.346244206652045" lon="7.100321324542165">
        <ele>1503.1600000000001</ele>
        <time>2012-06-16T11:37:14Z</time>
      </trkpt>
      <trkpt lat="46.346176899969578" lon="7.100053858011961">
        <ele>1500.27</ele>
        <time>2012-06-16T11:37:16Z</time>
      </trkpt>
      <trkpt lat="46.346160052344203" lon="7.099917400628328">
        <ele>1499.3099999999999</ele>
        <time>2012-06-16T11:37:17Z</time>
      </trkpt>
      <trkpt lat="46.34615695104003" lon="7.099771052598953">
        <ele>1498.3499999999999</ele>
        <time>2012-06-16T11:37:18Z</time>
      </trkpt>
      <trkpt lat="46.346220569685102" lon="7.098991954699159">
        <ele>1491.6199999999999</ele>
        <time>2012-06-16T11:37:23Z</time>
      </trkpt>
      <trkpt lat="46.346276728436351" lon="7.098681991919875">
        <ele>1488.74</ele>
        <time>2012-06-16T11:37:25Z</time>
      </trkpt>
      <trkpt lat="46.346291564404964" lon="7.098518628627062">
        <ele>1487.78</ele>
        <time>2012-06-16T11:37:26Z</time>
      </trkpt>
      <trkpt lat="46.346294833347201" lon="7.098353756591678">
        <ele>1486.3399999999999</ele>
        <time>2012-06-16T11:37:27Z</time>
      </trkpt>
      <trkpt lat="46.346299694851041" lon="7.098194835707545">
        <ele>1484.8900000000001</ele>
        <time>2012-06-16T11:37:28Z</time>
      </trkpt>
      <trkpt lat="46.346317632123828" lon="7.098038177937269">
        <ele>1483.45</ele>
        <time>2012-06-16T11:37:29Z</time>
      </trkpt>
      <trkpt lat="46.346346465870738" lon="7.097879927605391">
        <ele>1482.01</ele>
        <time>2012-06-16T11:37:30Z</time>
      </trkpt>
      <trkpt lat="46.346526592969894" lon="7.096404545009136">
        <ele>1470.95</ele>
        <time>2012-06-16T11:37:39Z</time>
      </trkpt>
      <trkpt lat="46.346557773649693" lon="7.095521427690983">
        <ele>1464.23</ele>
        <time>2012-06-16T11:37:44Z</time>
      </trkpt>
      <trkpt lat="46.34656498208642" lon="7.094858754426241">
        <ele>1458.46</ele>
        <time>2012-06-16T11:37:48Z</time>
      </trkpt>
      <trkpt lat="46.346577219665051" lon="7.094707461073995">
        <ele>1457.02</ele>
        <time>2012-06-16T11:37:49Z</time>
      </trkpt>
      <trkpt lat="46.346619380638003" lon="7.094159619882703">
        <ele>1452.6900000000001</ele>
        <time>2012-06-16T11:37:53Z</time>
      </trkpt>
      <trkpt lat="46.346608148887753" lon="7.09401972591877">
        <ele>1451.73</ele>
        <time>2012-06-16T11:37:54Z</time>
      </trkpt>
      <trkpt lat="46.346524162217975" lon="7.092551048845053">
        <ele>1443.0799999999999</ele>
        <time>2012-06-16T11:38:03Z</time>
      </trkpt>
      <trkpt lat="46.346667408943176" lon="7.090983800590038">
        <ele>1432.5</ele>
        <time>2012-06-16T11:38:12Z</time>
      </trkpt>
      <trkpt lat="46.3467853423208" lon="7.090323138982058">
        <ele>1427.7</ele>
        <time>2012-06-16T11:38:17Z</time>
      </trkpt>
      <trkpt lat="46.346790790557861" lon="7.090196404606104">
        <ele>1426.73</ele>
        <time>2012-06-16T11:38:18Z</time>
      </trkpt>
      <trkpt lat="46.346787605434656" lon="7.090062629431486">
        <ele>1426.25</ele>
        <time>2012-06-16T11:38:19Z</time>
      </trkpt>
      <trkpt lat="46.346775367856026" lon="7.089926255866885">
        <ele>1425.29</ele>
        <time>2012-06-16T11:38:20Z</time>
      </trkpt>
      <trkpt lat="46.34675357490778" lon="7.089788457378745">
        <ele>1424.8099999999999</ele>
        <time>2012-06-16T11:38:21Z</time>
      </trkpt>
      <trkpt lat="46.346724573522806" lon="7.089649066329002">
        <ele>1423.8499999999999</ele>
        <time>2012-06-16T11:38:22Z</time>
      </trkpt>
      <trkpt lat="46.346691884100437" lon="7.089509088546038">
        <ele>1423.3699999999999</ele>
        <time>2012-06-16T11:38:23Z</time>
      </trkpt>
      <trkpt lat="46.346666822209954" lon="7.089363411068916">
        <ele>1422.8900000000001</ele>
        <time>2012-06-16T11:38:24Z</time>
      </trkpt>
      <trkpt lat="46.346648884937167" lon="7.089213039726019">
        <ele>1422.4100000000001</ele>
        <time>2012-06-16T11:38:25Z</time>
      </trkpt>
      <trkpt lat="46.346639497205615" lon="7.089057890698314">
        <ele>1421.45</ele>
        <time>2012-06-16T11:38:26Z</time>
      </trkpt>
      <trkpt lat="46.346638323739171" lon="7.088901065289974">
        <ele>1420.49</ele>
        <time>2012-06-16T11:38:27Z</time>
      </trkpt>
      <trkpt lat="46.346641760319471" lon="7.088757986202836">
        <ele>1419.52</ele>
        <time>2012-06-16T11:38:28Z</time>
      </trkpt>
      <trkpt lat="46.346666570752859" lon="7.088294383138418">
        <ele>1415.2</ele>
        <time>2012-06-16T11:38:34Z</time>
      </trkpt>
      <trkpt lat="46.346684256568551" lon="7.088267561048269">
        <ele>1415.2</ele>
        <time>2012-06-16T11:38:35Z</time>
      </trkpt>
      <trkpt lat="46.346713006496429" lon="7.088392451405525">
        <ele>1415.6800000000001</ele>
        <time>2012-06-16T11:38:39Z</time>
      </trkpt>
      <trkpt lat="46.346706636250019" lon="7.088597640395165">
        <ele>1415.2</ele>
        <time>2012-06-16T11:38:43Z</time>
      </trkpt>
      <trkpt lat="46.346772937104106" lon="7.088932329788804">
        <ele>1415.6800000000001</ele>
        <time>2012-06-16T11:38:48Z</time>
      </trkpt>
      <trkpt lat="46.346818953752518" lon="7.089090496301651">
        <ele>1415.6800000000001</ele>
        <time>2012-06-16T11:38:50Z</time>
      </trkpt>
      <trkpt lat="46.347185326740146" lon="7.089766915887594">
        <ele>1412.79</ele>
        <time>2012-06-16T11:38:58Z</time>
      </trkpt>
      <trkpt lat="46.347241485491395" lon="7.089868420735002">
        <ele>1411.8299999999999</ele>
        <time>2012-06-16T11:38:59Z</time>
      </trkpt>
      <trkpt lat="46.347347181290388" lon="7.090086853131652">
        <ele>1409.9100000000001</ele>
        <time>2012-06-16T11:39:01Z</time>
      </trkpt>
      <trkpt lat="46.347386324778199" lon="7.09021333605051">
        <ele>1409.4300000000001</ele>
        <time>2012-06-16T11:39:02Z</time>
      </trkpt>
      <trkpt lat="46.347417086362839" lon="7.090349793434143">
        <ele>1408.47</ele>
        <time>2012-06-16T11:39:03Z</time>
      </trkpt>
      <trkpt lat="46.347438795492053" lon="7.09049572236836">
        <ele>1407.51</ele>
        <time>2012-06-16T11:39:04Z</time>
      </trkpt>
      <trkpt lat="46.347456648945808" lon="7.090648775920272">
        <ele>1407.03</ele>
        <time>2012-06-16T11:39:05Z</time>
      </trkpt>
      <trkpt lat="46.347582377493382" lon="7.092541325837374">
        <ele>1396.45</ele>
        <time>2012-06-16T11:39:16Z</time>
      </trkpt>
      <trkpt lat="46.347728557884693" lon="7.094311332330108">
        <ele>1384.9200000000001</ele>
        <time>2012-06-16T11:39:26Z</time>
      </trkpt>
      <trkpt lat="46.347768874838948" lon="7.094841152429581">
        <ele>1381.55</ele>
        <time>2012-06-16T11:39:29Z</time>
      </trkpt>
      <trkpt lat="46.347800139337778" lon="7.096405299380422">
        <ele>1370.02</ele>
        <time>2012-06-16T11:39:38Z</time>
      </trkpt>
      <trkpt lat="46.347797457128763" lon="7.096576960757375">
        <ele>1368.5699999999999</ele>
        <time>2012-06-16T11:39:39Z</time>
      </trkpt>
      <trkpt lat="46.347787482663989" lon="7.097074175253511">
        <ele>1366.1700000000001</ele>
        <time>2012-06-16T11:39:42Z</time>
      </trkpt>
      <trkpt lat="46.347819669172168" lon="7.097724191844463">
        <ele>1363.29</ele>
        <time>2012-06-16T11:39:46Z</time>
      </trkpt>
      <trkpt lat="46.347840372473001" lon="7.097879089415073">
        <ele>1362.8099999999999</ele>
        <time>2012-06-16T11:39:47Z</time>
      </trkpt>
      <trkpt lat="46.347894771024585" lon="7.098184190690517">
        <ele>1361.3599999999999</ele>
        <time>2012-06-16T11:39:49Z</time>
      </trkpt>
      <trkpt lat="46.347910361364484" lon="7.098340261727572">
        <ele>1360.8800000000001</ele>
        <time>2012-06-16T11:39:50Z</time>
      </trkpt>
      <trkpt lat="46.347948918119073" lon="7.098796740174294">
        <ele>1359.4400000000001</ele>
        <time>2012-06-16T11:39:53Z</time>
      </trkpt>
      <trkpt lat="46.347994012758136" lon="7.099098572507501">
        <ele>1358.48</ele>
        <time>2012-06-16T11:39:55Z</time>
      </trkpt>
      <trkpt lat="46.347999963909388" lon="7.09925539791584">
        <ele>1357.52</ele>
        <time>2012-06-16T11:39:56Z</time>
      </trkpt>
      <trkpt lat="46.348021505400538" lon="7.099881945177913">
        <ele>1355.1199999999999</ele>
        <time>2012-06-16T11:40:00Z</time>
      </trkpt>
      <trkpt lat="46.347991414368153" lon="7.100821137428284">
        <ele>1351.27</ele>
        <time>2012-06-16T11:40:06Z</time>
      </trkpt>
      <trkpt lat="46.348003735765815" lon="7.100976873189211">
        <ele>1350.3099999999999</ele>
        <time>2012-06-16T11:40:07Z</time>
      </trkpt>
      <trkpt lat="46.348048998042941" lon="7.101415330544114">
        <ele>1348.3900000000001</ele>
        <time>2012-06-16T11:40:10Z</time>
      </trkpt>
      <trkpt lat="46.348078083246946" lon="7.101549189537764">
        <ele>1347.4300000000001</ele>
        <time>2012-06-16T11:40:11Z</time>
      </trkpt>
      <trkpt lat="46.348105911165476" lon="7.101680198684335">
        <ele>1346.9400000000001</ele>
        <time>2012-06-16T11:40:12Z</time>
      </trkpt>
      <trkpt lat="46.348125608637929" lon="7.101817075163126">
        <ele>1346.46</ele>
        <time>2012-06-16T11:40:13Z</time>
      </trkpt>
      <trkpt lat="46.34813541546464" lon="7.10195361636579">
        <ele>1345.5</ele>
        <time>2012-06-16T11:40:14Z</time>
      </trkpt>
      <trkpt lat="46.348140779882669" lon="7.102079931646586">
        <ele>1345.02</ele>
        <time>2012-06-16T11:40:15Z</time>
      </trkpt>
      <trkpt lat="46.348133236169815" lon="7.102319151163101">
        <ele>1343.5799999999999</ele>
        <time>2012-06-16T11:40:17Z</time>
      </trkpt>
      <trkpt lat="46.348114712163806" lon="7.102439096197486">
        <ele>1343.0999999999999</ele>
        <time>2012-06-16T11:40:18Z</time>
      </trkpt>
      <trkpt lat="46.348114041611552" lon="7.102565411478281">
        <ele>1342.6199999999999</ele>
        <time>2012-06-16T11:40:19Z</time>
      </trkpt>
      <trkpt lat="46.348172128200531" lon="7.102952990680933">
        <ele>1341.6600000000001</ele>
        <time>2012-06-16T11:40:22Z</time>
      </trkpt>
      <trkpt lat="46.348221329972148" lon="7.103074360638857">
        <ele>1341.1800000000001</ele>
        <time>2012-06-16T11:40:23Z</time>
      </trkpt>
      <trkpt lat="46.348286205902696" lon="7.103175111114979">
        <ele>1340.7</ele>
        <time>2012-06-16T11:40:24Z</time>
      </trkpt>
      <trkpt lat="46.348405228927732" lon="7.103324225172401">
        <ele>1339.25</ele>
        <time>2012-06-16T11:40:26Z</time>
      </trkpt>
      <trkpt lat="46.348446719348431" lon="7.103400500491262">
        <ele>1338.77</ele>
        <time>2012-06-16T11:40:27Z</time>
      </trkpt>
      <trkpt lat="46.34847161360085" lon="7.10348591208458">
        <ele>1338.29</ele>
        <time>2012-06-16T11:40:28Z</time>
      </trkpt>
      <trkpt lat="46.348485527560115" lon="7.103580208495259">
        <ele>1337.8099999999999</ele>
        <time>2012-06-16T11:40:29Z</time>
      </trkpt>
      <trkpt lat="46.348497429862618" lon="7.103679785504937">
        <ele>1337.8099999999999</ele>
        <time>2012-06-16T11:40:30Z</time>
      </trkpt>
      <trkpt lat="46.348504051566124" lon="7.103783972561359">
        <ele>1337.8099999999999</ele>
        <time>2012-06-16T11:40:31Z</time>
      </trkpt>
      <trkpt lat="46.34849944151938" lon="7.103890590369701">
        <ele>1337.3299999999999</ele>
        <time>2012-06-16T11:40:32Z</time>
      </trkpt>
      <trkpt lat="46.348481755703688" lon="7.103997124359012">
        <ele>1336.8499999999999</ele>
        <time>2012-06-16T11:40:33Z</time>
      </trkpt>
      <trkpt lat="46.348463231697679" lon="7.104107178747654">
        <ele>1336.3699999999999</ele>
        <time>2012-06-16T11:40:34Z</time>
      </trkpt>
      <trkpt lat="46.348449988290668" lon="7.104221927002072">
        <ele>1335.8900000000001</ele>
        <time>2012-06-16T11:40:35Z</time>
      </trkpt>
      <trkpt lat="46.348439594730735" lon="7.104338854551315">
        <ele>1335.4100000000001</ele>
        <time>2012-06-16T11:40:36Z</time>
      </trkpt>
      <trkpt lat="46.348451329395175" lon="7.105819182470441">
        <ele>1328.6800000000001</ele>
        <time>2012-06-16T11:40:47Z</time>
      </trkpt>
      <trkpt lat="46.348427105695009" lon="7.106392085552216">
        <ele>1326.28</ele>
        <time>2012-06-16T11:40:51Z</time>
      </trkpt>
      <trkpt lat="46.34835627861321" lon="7.106790561228991">
        <ele>1324.3499999999999</ele>
        <time>2012-06-16T11:40:54Z</time>
      </trkpt>
      <trkpt lat="46.348322667181492" lon="7.106915954500437">
        <ele>1323.8699999999999</ele>
        <time>2012-06-16T11:40:55Z</time>
      </trkpt>
      <trkpt lat="46.348281176760793" lon="7.107033804059029">
        <ele>1323.3900000000001</ele>
        <time>2012-06-16T11:40:56Z</time>
      </trkpt>
      <trkpt lat="46.348233399912715" lon="7.107148552313447">
        <ele>1322.4300000000001</ele>
        <time>2012-06-16T11:40:57Z</time>
      </trkpt>
      <trkpt lat="46.348179504275322" lon="7.107264474034309">
        <ele>1321.95</ele>
        <time>2012-06-16T11:40:58Z</time>
      </trkpt>
      <trkpt lat="46.347617413848639" lon="7.108054468408227">
        <ele>1315.7</ele>
        <time>2012-06-16T11:41:06Z</time>
      </trkpt>
      <trkpt lat="46.347548263147473" lon="7.108161086216569">
        <ele>1314.74</ele>
        <time>2012-06-16T11:41:07Z</time>
      </trkpt>
      <trkpt lat="46.347423288971186" lon="7.108385134488344">
        <ele>1313.3</ele>
        <time>2012-06-16T11:41:09Z</time>
      </trkpt>
      <trkpt lat="46.347369560971856" lon="7.108505917713046">
        <ele>1312.3399999999999</ele>
        <time>2012-06-16T11:41:10Z</time>
      </trkpt>
      <trkpt lat="46.347111063078046" lon="7.10906557738781">
        <ele>1308.01</ele>
        <time>2012-06-16T11:41:15Z</time>
      </trkpt>
      <trkpt lat="46.347076110541821" lon="7.109170937910676">
        <ele>1307.05</ele>
        <time>2012-06-16T11:41:16Z</time>
      </trkpt>
      <trkpt lat="46.347057586535811" lon="7.109288787469268">
        <ele>1306.5699999999999</ele>
        <time>2012-06-16T11:41:17Z</time>
      </trkpt>
      <trkpt lat="46.347063537687063" lon="7.109412420541048">
        <ele>1305.6099999999999</ele>
        <time>2012-06-16T11:41:18Z</time>
      </trkpt>
      <trkpt lat="46.347095221281052" lon="7.109535131603479">
        <ele>1305.1300000000001</ele>
        <time>2012-06-16T11:41:19Z</time>
      </trkpt>
      <trkpt lat="46.347151882946491" lon="7.109649796038866">
        <ele>1304.6500000000001</ele>
        <time>2012-06-16T11:41:20Z</time>
      </trkpt>
      <trkpt lat="46.34722069837153" lon="7.109751803800464">
        <ele>1304.1700000000001</ele>
        <time>2012-06-16T11:41:21Z</time>
      </trkpt>
      <trkpt lat="46.347705675289035" lon="7.110455632209778">
        <ele>1300.3199999999999</ele>
        <time>2012-06-16T11:41:27Z</time>
      </trkpt>
      <trkpt lat="46.347778178751469" lon="7.110576583072543">
        <ele>1299.3599999999999</ele>
        <time>2012-06-16T11:41:28Z</time>
      </trkpt>
      <trkpt lat="46.347865015268326" lon="7.11067515425384">
        <ele>1297.9200000000001</ele>
        <time>2012-06-16T11:41:29Z</time>
      </trkpt>
      <trkpt lat="46.347971130162477" lon="7.110748160630465">
        <ele>1295.99</ele>
        <time>2012-06-16T11:41:30Z</time>
      </trkpt>
      <trkpt lat="46.348088476806879" lon="7.110801469534636">
        <ele>1294.55</ele>
        <time>2012-06-16T11:41:31Z</time>
      </trkpt>
      <trkpt lat="46.348213031888008" lon="7.110835667699575">
        <ele>1293.1099999999999</ele>
        <time>2012-06-16T11:41:32Z</time>
      </trkpt>
      <trkpt lat="46.348338760435581" lon="7.110852180048823">
        <ele>1291.6700000000001</ele>
        <time>2012-06-16T11:41:33Z</time>
      </trkpt>
      <trkpt lat="46.34846281260252" lon="7.11086274124682">
        <ele>1290.23</ele>
        <time>2012-06-16T11:41:34Z</time>
      </trkpt>
      <trkpt lat="46.349042756482959" lon="7.110913367941976">
        <ele>1282.54</ele>
        <time>2012-06-16T11:41:40Z</time>
      </trkpt>
      <trkpt lat="46.349130012094975" lon="7.110945302993059">
        <ele>1281.0899999999999</ele>
        <time>2012-06-16T11:41:41Z</time>
      </trkpt>
      <trkpt lat="46.349217938259244" lon="7.111000120639801">
        <ele>1280.1300000000001</ele>
        <time>2012-06-16T11:41:42Z</time>
      </trkpt>
      <trkpt lat="46.349445339292288" lon="7.111194999888539">
        <ele>1275.8099999999999</ele>
        <time>2012-06-16T11:41:45Z</time>
      </trkpt>
      <trkpt lat="46.34950602427125" lon="7.111281333491206">
        <ele>1274.8499999999999</ele>
        <time>2012-06-16T11:41:46Z</time>
      </trkpt>
      <trkpt lat="46.349559584632516" lon="7.111388118937612">
        <ele>1273.8800000000001</ele>
        <time>2012-06-16T11:41:47Z</time>
      </trkpt>
      <trkpt lat="46.349604343995452" lon="7.111508063971996">
        <ele>1272.9200000000001</ele>
        <time>2012-06-16T11:41:48Z</time>
      </trkpt>
      <trkpt lat="46.349642146378756" lon="7.111636893823743">
        <ele>1271.96</ele>
        <time>2012-06-16T11:41:49Z</time>
      </trkpt>
      <trkpt lat="46.349676344543695" lon="7.111771171912551">
        <ele>1271</ele>
        <time>2012-06-16T11:41:50Z</time>
      </trkpt>
      <trkpt lat="46.349703585729003" lon="7.111911317333579">
        <ele>1270.04</ele>
        <time>2012-06-16T11:41:51Z</time>
      </trkpt>
      <trkpt lat="46.349723283201456" lon="7.112061185762286">
        <ele>1269.0799999999999</ele>
        <time>2012-06-16T11:41:52Z</time>
      </trkpt>
      <trkpt lat="46.349797463044524" lon="7.113031893968582">
        <ele>1261.8699999999999</ele>
        <time>2012-06-16T11:41:58Z</time>
      </trkpt>
      <trkpt lat="46.349820345640182" lon="7.113635558634996">
        <ele>1256.5799999999999</ele>
        <time>2012-06-16T11:42:02Z</time>
      </trkpt>
      <trkpt lat="46.349849263206124" lon="7.113766986876726">
        <ele>1255.1400000000001</ele>
        <time>2012-06-16T11:42:03Z</time>
      </trkpt>
      <trkpt lat="46.349892932921648" lon="7.113896571099758">
        <ele>1254.1800000000001</ele>
        <time>2012-06-16T11:42:04Z</time>
      </trkpt>
      <trkpt lat="46.349945403635502" lon="7.114016013219953">
        <ele>1252.74</ele>
        <time>2012-06-16T11:42:05Z</time>
      </trkpt>
      <trkpt lat="46.350001478567719" lon="7.114120703190565">
        <ele>1250.8099999999999</ele>
        <time>2012-06-16T11:42:06Z</time>
      </trkpt>
      <trkpt lat="46.350084962323308" lon="7.114306949079037">
        <ele>1248.4100000000001</ele>
        <time>2012-06-16T11:42:08Z</time>
      </trkpt>
      <trkpt lat="46.350099546834826" lon="7.114398563280702">
        <ele>1247.9300000000001</ele>
        <time>2012-06-16T11:42:09Z</time>
      </trkpt>
      <trkpt lat="46.350086973980069" lon="7.114487579092383">
        <ele>1247.45</ele>
        <time>2012-06-16T11:42:10Z</time>
      </trkpt>
      <trkpt lat="46.350052775815129" lon="7.114572655409575">
        <ele>1246.49</ele>
        <time>2012-06-16T11:42:11Z</time>
      </trkpt>
      <trkpt lat="46.349999215453863" lon="7.114648846909404">
        <ele>1245.53</ele>
        <time>2012-06-16T11:42:12Z</time>
      </trkpt>
      <trkpt lat="46.349929645657539" lon="7.114718332886696">
        <ele>1244.5599999999999</ele>
        <time>2012-06-16T11:42:13Z</time>
      </trkpt>
      <trkpt lat="46.349796457216144" lon="7.114864429458976">
        <ele>1242.6400000000001</ele>
        <time>2012-06-16T11:42:15Z</time>
      </trkpt>
      <trkpt lat="46.349745914340019" lon="7.114940704777837">
        <ele>1241.6800000000001</ele>
        <time>2012-06-16T11:42:16Z</time>
      </trkpt>
      <trkpt lat="46.349715236574411" lon="7.115020332857966">
        <ele>1240.72</ele>
        <time>2012-06-16T11:42:17Z</time>
      </trkpt>
      <trkpt lat="46.349709033966064" lon="7.115112282335758">
        <ele>1239.76</ele>
        <time>2012-06-16T11:42:18Z</time>
      </trkpt>
      <trkpt lat="46.349730156362057" lon="7.115214625373483">
        <ele>1238.8</ele>
        <time>2012-06-16T11:42:19Z</time>
      </trkpt>
      <trkpt lat="46.349773155525327" lon="7.115305317565799">
        <ele>1237.8299999999999</ele>
        <time>2012-06-16T11:42:20Z</time>
      </trkpt>
      <trkpt lat="46.349835181608796" lon="7.11538553237915">
        <ele>1236.8699999999999</ele>
        <time>2012-06-16T11:42:21Z</time>
      </trkpt>
      <trkpt lat="46.349909026175737" lon="7.115455437451601">
        <ele>1235.9100000000001</ele>
        <time>2012-06-16T11:42:22Z</time>
      </trkpt>
      <trkpt lat="46.34999074973166" lon="7.115513775497675">
        <ele>1234.95</ele>
        <time>2012-06-16T11:42:23Z</time>
      </trkpt>
      <trkpt lat="46.350069288164377" lon="7.115559624508023">
        <ele>1233.99</ele>
        <time>2012-06-16T11:42:24Z</time>
      </trkpt>
      <trkpt lat="46.350140031427145" lon="7.115608658641577">
        <ele>1233.51</ele>
        <time>2012-06-16T11:42:25Z</time>
      </trkpt>
      <trkpt lat="46.350205829367042" lon="7.115678312256932">
        <ele>1232.55</ele>
        <time>2012-06-16T11:42:26Z</time>
      </trkpt>
      <trkpt lat="46.350263832136989" lon="7.115768333896995">
        <ele>1232.0699999999999</ele>
        <time>2012-06-16T11:42:27Z</time>
      </trkpt>
      <trkpt lat="46.350418645888567" lon="7.116083996370435">
        <ele>1229.6600000000001</ele>
        <time>2012-06-16T11:42:30Z</time>
      </trkpt>
      <trkpt lat="46.350454771891236" lon="7.116197319701314">
        <ele>1228.7</ele>
        <time>2012-06-16T11:42:31Z</time>
      </trkpt>
      <trkpt lat="46.350481258705258" lon="7.116315336897969">
        <ele>1227.74</ele>
        <time>2012-06-16T11:42:32Z</time>
      </trkpt>
      <trkpt lat="46.350499698892236" lon="7.116433354094625">
        <ele>1227.26</ele>
        <time>2012-06-16T11:42:33Z</time>
      </trkpt>
      <trkpt lat="46.350507158786058" lon="7.11655531078577">
        <ele>1226.3</ele>
        <time>2012-06-16T11:42:34Z</time>
      </trkpt>
      <trkpt lat="46.350501794368029" lon="7.116679195314646">
        <ele>1225.3399999999999</ele>
        <time>2012-06-16T11:42:35Z</time>
      </trkpt>
      <trkpt lat="46.350485617294908" lon="7.116804672405124">
        <ele>1224.3800000000001</ele>
        <time>2012-06-16T11:42:36Z</time>
      </trkpt>
      <trkpt lat="46.350461142137647" lon="7.11693836376071">
        <ele>1223.4200000000001</ele>
        <time>2012-06-16T11:42:37Z</time>
      </trkpt>
      <trkpt lat="46.350391991436481" lon="7.117382436990738">
        <ele>1220.05</ele>
        <time>2012-06-16T11:42:40Z</time>
      </trkpt>
      <trkpt lat="46.350282020866871" lon="7.118702502921224">
        <ele>1216.6900000000001</ele>
        <time>2012-06-16T11:42:49Z</time>
      </trkpt>
      <trkpt lat="46.350250421091914" lon="7.11881130002439">
        <ele>1217.1700000000001</ele>
        <time>2012-06-16T11:42:50Z</time>
      </trkpt>
      <trkpt lat="46.350237848237157" lon="7.118921773508191">
        <ele>1217.6500000000001</ele>
        <time>2012-06-16T11:42:51Z</time>
      </trkpt>
      <trkpt lat="46.350247655063868" lon="7.119030570611358">
        <ele>1217.6500000000001</ele>
        <time>2012-06-16T11:42:52Z</time>
      </trkpt>
      <trkpt lat="46.350271459668875" lon="7.11912889033556">
        <ele>1218.1300000000001</ele>
        <time>2012-06-16T11:42:53Z</time>
      </trkpt>
      <trkpt lat="46.350298784673214" lon="7.119211871176958">
        <ele>1218.6099999999999</ele>
        <time>2012-06-16T11:42:54Z</time>
      </trkpt>
      <trkpt lat="46.350327199324965" lon="7.119286805391312">
        <ele>1218.6099999999999</ele>
        <time>2012-06-16T11:42:55Z</time>
      </trkpt>
      <trkpt lat="46.350352680310607" lon="7.119361152872443">
        <ele>1219.0899999999999</ele>
        <time>2012-06-16T11:42:56Z</time>
      </trkpt>
      <trkpt lat="46.350399618968368" lon="7.119508255273104">
        <ele>1219.5699999999999</ele>
        <time>2012-06-16T11:42:58Z</time>
      </trkpt>
      <trkpt lat="46.350434655323625" lon="7.119585452601314">
        <ele>1219.5699999999999</ele>
        <time>2012-06-16T11:42:59Z</time>
      </trkpt>
      <trkpt lat="46.350479330867529" lon="7.11965711787343">
        <ele>1219.5699999999999</ele>
        <time>2012-06-16T11:43:00Z</time>
      </trkpt>
      <trkpt lat="46.350533897057176" lon="7.119713695719838">
        <ele>1219.5699999999999</ele>
        <time>2012-06-16T11:43:01Z</time>
      </trkpt>
      <trkpt lat="46.350593911483884" lon="7.119761640205979">
        <ele>1219.0899999999999</ele>
        <time>2012-06-16T11:43:02Z</time>
      </trkpt>
      <trkpt lat="46.350885853171349" lon="7.120043355971575">
        <ele>1218.6099999999999</ele>
        <time>2012-06-16T11:43:07Z</time>
      </trkpt>
      <trkpt lat="46.350916111841798" lon="7.120136646553874">
        <ele>1218.1300000000001</ele>
        <time>2012-06-16T11:43:08Z</time>
      </trkpt>
      <trkpt lat="46.350933713838458" lon="7.120239660143852">
        <ele>1218.1300000000001</ele>
        <time>2012-06-16T11:43:09Z</time>
      </trkpt>
      <trkpt lat="46.350971264764667" lon="7.120658084750176">
        <ele>1217.1700000000001</ele>
        <time>2012-06-16T11:43:13Z</time>
      </trkpt>
      <trkpt lat="46.351027591153979" lon="7.121290834620595">
        <ele>1215.72</ele>
        <time>2012-06-16T11:43:19Z</time>
      </trkpt>
      <trkpt lat="46.351027172058821" lon="7.121398458257318">
        <ele>1215.24</ele>
        <time>2012-06-16T11:43:20Z</time>
      </trkpt>
      <trkpt lat="46.351018790155649" lon="7.121510272845626">
        <ele>1214.76</ele>
        <time>2012-06-16T11:43:21Z</time>
      </trkpt>
      <trkpt lat="46.35100319981575" lon="7.121626613661647">
        <ele>1214.28</ele>
        <time>2012-06-16T11:43:22Z</time>
      </trkpt>
      <trkpt lat="46.350985346361995" lon="7.1217499114573">
        <ele>1213.8</ele>
        <time>2012-06-16T11:43:23Z</time>
      </trkpt>
      <trkpt lat="46.350921811535954" lon="7.122147884219885">
        <ele>1211.8800000000001</ele>
        <time>2012-06-16T11:43:26Z</time>
      </trkpt>
      <trkpt lat="46.350674545392394" lon="7.123210122808814">
        <ele>1205.1500000000001</ele>
        <time>2012-06-16T11:43:33Z</time>
      </trkpt>
      <trkpt lat="46.350771188735962" lon="7.124152164906263">
        <ele>1197.9400000000001</ele>
        <time>2012-06-16T11:43:40Z</time>
      </trkpt>
      <trkpt lat="46.350773703306913" lon="7.124749962240458">
        <ele>1193.6099999999999</ele>
        <time>2012-06-16T11:43:44Z</time>
      </trkpt>
      <trkpt lat="46.350881913676858" lon="7.125627128407359">
        <ele>1187.3699999999999</ele>
        <time>2012-06-16T11:43:50Z</time>
      </trkpt>
      <trkpt lat="46.350906724110246" lon="7.125894343480468">
        <ele>1184.96</ele>
        <time>2012-06-16T11:43:52Z</time>
      </trkpt>
      <trkpt lat="46.350843943655491" lon="7.126473616808653">
        <ele>1180.6400000000001</ele>
        <time>2012-06-16T11:43:56Z</time>
      </trkpt>
      <trkpt lat="46.350844781845808" lon="7.127065295353532">
        <ele>1175.8299999999999</ele>
        <time>2012-06-16T11:44:00Z</time>
      </trkpt>
      <trkpt lat="46.350958188995719" lon="7.127600144594908">
        <ele>1170.54</ele>
        <time>2012-06-16T11:44:04Z</time>
      </trkpt>
      <trkpt lat="46.351207047700882" lon="7.128036422654986">
        <ele>1165.26</ele>
        <time>2012-06-16T11:44:08Z</time>
      </trkpt>
      <trkpt lat="46.351349288597703" lon="7.128199953585863">
        <ele>1162.8499999999999</ele>
        <time>2012-06-16T11:44:10Z</time>
      </trkpt>
      <trkpt lat="46.351509131491184" lon="7.128619886934757">
        <ele>1159.01</ele>
        <time>2012-06-16T11:44:14Z</time>
      </trkpt>
      <trkpt lat="46.351632513105869" lon="7.1293187700212">
        <ele>1154.2</ele>
        <time>2012-06-16T11:44:19Z</time>
      </trkpt>
      <trkpt lat="46.351891178637743" lon="7.130225440487266">
        <ele>1146.99</ele>
        <time>2012-06-16T11:44:25Z</time>
      </trkpt>
      <trkpt lat="46.352354614064097" lon="7.130738832056522">
        <ele>1140.74</ele>
        <time>2012-06-16T11:44:31Z</time>
      </trkpt>
      <trkpt lat="46.352730793878436" lon="7.131121046841145">
        <ele>1136.9000000000001</ele>
        <time>2012-06-16T11:44:36Z</time>
      </trkpt>
      <trkpt lat="46.352804554626346" lon="7.131176618859172">
        <ele>1135.9400000000001</ele>
        <time>2012-06-16T11:44:37Z</time>
      </trkpt>
      <trkpt lat="46.352928942069411" lon="7.131270999088883">
        <ele>1134.49</ele>
        <time>2012-06-16T11:44:39Z</time>
      </trkpt>
      <trkpt lat="46.352974958717823" lon="7.131338389590383">
        <ele>1134.01</ele>
        <time>2012-06-16T11:44:40Z</time>
      </trkpt>
      <trkpt lat="46.353009240701795" lon="7.131423885002732">
        <ele>1133.53</ele>
        <time>2012-06-16T11:44:41Z</time>
      </trkpt>
      <trkpt lat="46.353036314249039" lon="7.131522037088871">
        <ele>1133.05</ele>
        <time>2012-06-16T11:44:42Z</time>
      </trkpt>
      <trkpt lat="46.353058023378253" lon="7.131628571078181">
        <ele>1132.5699999999999</ele>
        <time>2012-06-16T11:44:43Z</time>
      </trkpt>
      <trkpt lat="46.353079229593277" lon="7.131736362352967">
        <ele>1132.0899999999999</ele>
        <time>2012-06-16T11:44:44Z</time>
      </trkpt>
      <trkpt lat="46.35322792455554" lon="7.132280012592673">
        <ele>1130.1700000000001</ele>
        <time>2012-06-16T11:44:49Z</time>
      </trkpt>
      <trkpt lat="46.353268409147859" lon="7.132379924878478">
        <ele>1130.1700000000001</ele>
        <time>2012-06-16T11:44:50Z</time>
      </trkpt>
      <trkpt lat="46.353318449109793" lon="7.132465420290828">
        <ele>1129.6900000000001</ele>
        <time>2012-06-16T11:44:51Z</time>
      </trkpt>
      <trkpt lat="46.353375026956201" lon="7.132524428889155">
        <ele>1129.21</ele>
        <time>2012-06-16T11:44:52Z</time>
      </trkpt>
      <trkpt lat="46.353436717763543" lon="7.132553681731224">
        <ele>1128.73</ele>
        <time>2012-06-16T11:44:53Z</time>
      </trkpt>
      <trkpt lat="46.3534976541996" lon="7.132556950673461">
        <ele>1128.24</ele>
        <time>2012-06-16T11:44:54Z</time>
      </trkpt>
      <trkpt lat="46.353553980588913" lon="7.132556280121207">
        <ele>1127.76</ele>
        <time>2012-06-16T11:44:55Z</time>
      </trkpt>
      <trkpt lat="46.353601841256022" lon="7.132564997300506">
        <ele>1127.28</ele>
        <time>2012-06-16T11:44:56Z</time>
      </trkpt>
      <trkpt lat="46.353642493486404" lon="7.132588550448418">
        <ele>1126.8</ele>
        <time>2012-06-16T11:44:57Z</time>
      </trkpt>
      <trkpt lat="46.353675434365869" lon="7.132631381973624">
        <ele>1126.3199999999999</ele>
        <time>2012-06-16T11:44:58Z</time>
      </trkpt>
      <trkpt lat="46.353694461286068" lon="7.13269030675292">
        <ele>1126.3199999999999</ele>
        <time>2012-06-16T11:44:59Z</time>
      </trkpt>
      <trkpt lat="46.353695467114449" lon="7.132757864892483">
        <ele>1126.3199999999999</ele>
        <time>2012-06-16T11:45:00Z</time>
      </trkpt>
      <trkpt lat="46.353688426315784" lon="7.132826177403331">
        <ele>1126.3199999999999</ele>
        <time>2012-06-16T11:45:01Z</time>
      </trkpt>
      <trkpt lat="46.353662190958858" lon="7.133123483508825">
        <ele>1125.8399999999999</ele>
        <time>2012-06-16T11:45:05Z</time>
      </trkpt>
      <trkpt lat="46.353656994178891" lon="7.133201770484448">
        <ele>1125.8399999999999</ele>
        <time>2012-06-16T11:45:06Z</time>
      </trkpt>
      <trkpt lat="46.353645594790578" lon="7.133654309436679">
        <ele>1126.3199999999999</ele>
        <time>2012-06-16T11:45:12Z</time>
      </trkpt>
      <trkpt lat="46.353658000007272" lon="7.133720777928829">
        <ele>1126.3199999999999</ele>
        <time>2012-06-16T11:45:13Z</time>
      </trkpt>
      <trkpt lat="46.353677362203598" lon="7.133782636374235">
        <ele>1126.8</ele>
        <time>2012-06-16T11:45:14Z</time>
      </trkpt>
      <trkpt lat="46.353732598945498" lon="7.133887745440006">
        <ele>1126.8</ele>
        <time>2012-06-16T11:45:16Z</time>
      </trkpt>
      <trkpt lat="46.353766713291407" lon="7.133929319679737">
        <ele>1126.8</ele>
        <time>2012-06-16T11:45:17Z</time>
      </trkpt>
      <trkpt lat="46.353806694969535" lon="7.133958823978901">
        <ele>1127.28</ele>
        <time>2012-06-16T11:45:18Z</time>
      </trkpt>
      <trkpt lat="46.353850197046995" lon="7.133973157033324">
        <ele>1127.28</ele>
        <time>2012-06-16T11:45:19Z</time>
      </trkpt>
      <trkpt lat="46.353894453495741" lon="7.133977767080069">
        <ele>1127.28</ele>
        <time>2012-06-16T11:45:20Z</time>
      </trkpt>
      <trkpt lat="46.354249007999897" lon="7.133983634412289">
        <ele>1130.6500000000001</ele>
        <time>2012-06-16T11:45:32Z</time>
      </trkpt>
      <trkpt lat="46.354542206972837" lon="7.13398614898324">
        <ele>1135.45</ele>
        <time>2012-06-16T11:45:49Z</time>
      </trkpt>
      <trkpt lat="46.354780672118068" lon="7.133864695206285">
        <ele>1139.3</ele>
        <time>2012-06-16T11:46:04Z</time>
      </trkpt>
      <trkpt lat="46.354910004884005" lon="7.133618770167232">
        <ele>1143.1400000000001</ele>
        <time>2012-06-16T11:46:19Z</time>
      </trkpt>
      <trkpt lat="46.355002373456955" lon="7.133396314457059">
        <ele>1146.03</ele>
        <time>2012-06-16T11:46:31Z</time>
      </trkpt>
      <trkpt lat="46.355013269931078" lon="7.133379718288779">
        <ele>1145.55</ele>
        <time>2012-06-16T11:46:32Z</time>
      </trkpt>
      <trkpt lat="46.355022992938757" lon="7.133365133777261">
        <ele>1146.03</ele>
        <time>2012-06-16T11:46:33Z</time>
      </trkpt>
      <trkpt lat="46.355030285194516" lon="7.133344179019332">
        <ele>1146.03</ele>
        <time>2012-06-16T11:46:34Z</time>
      </trkpt>
      <trkpt lat="46.355034811422229" lon="7.133322637528181">
        <ele>1146.51</ele>
        <time>2012-06-16T11:46:35Z</time>
      </trkpt>
      <trkpt lat="46.35504218749702" lon="7.133301682770252">
        <ele>1146.51</ele>
        <time>2012-06-16T11:46:36Z</time>
      </trkpt>
      <trkpt lat="46.355050234124064" lon="7.13328299112618">
        <ele>1146.51</ele>
        <time>2012-06-16T11:46:37Z</time>
      </trkpt>
      <trkpt lat="46.355143440887332" lon="7.132982583716512">
        <ele>1148.9100000000001</ele>
        <time>2012-06-16T11:46:52Z</time>
      </trkpt>
      <trkpt lat="46.355327172204852" lon="7.132667591795325">
        <ele>1154.2</ele>
        <time>2012-06-16T11:47:11Z</time>
      </trkpt>
      <trkpt lat="46.355338487774134" lon="7.132673040032387">
        <ele>1154.2</ele>
        <time>2012-06-16T11:47:12Z</time>
      </trkpt>
      <trkpt lat="46.35534611530602" lon="7.132684104144573">
        <ele>1154.2</ele>
        <time>2012-06-16T11:47:13Z</time>
      </trkpt>
      <trkpt lat="46.355345528572798" lon="7.13270153850317">
        <ele>1153.72</ele>
        <time>2012-06-16T11:47:14Z</time>
      </trkpt>
      <trkpt lat="46.355330524966121" lon="7.132738502696157">
        <ele>1153.72</ele>
        <time>2012-06-16T11:47:16Z</time>
      </trkpt>
      <trkpt lat="46.355322813615203" lon="7.13275384157896">
        <ele>1153.72</ele>
        <time>2012-06-16T11:47:17Z</time>
      </trkpt>
      <trkpt lat="46.355186859145761" lon="7.133140247315168">
        <ele>1154.6800000000001</ele>
        <time>2012-06-16T11:47:33Z</time>
      </trkpt>
      <trkpt lat="46.355141177773476" lon="7.133680796250701">
        <ele>1156.1199999999999</ele>
        <time>2012-06-16T11:47:49Z</time>
      </trkpt>
      <trkpt lat="46.355134975165129" lon="7.133967624977231">
        <ele>1157.0799999999999</ele>
        <time>2012-06-16T11:47:58Z</time>
      </trkpt>
      <trkpt lat="46.355138495564461" lon="7.133999643847346">
        <ele>1157.0799999999999</ele>
        <time>2012-06-16T11:47:59Z</time>
      </trkpt>
      <trkpt lat="46.355179818347096" lon="7.134147081524134">
        <ele>1157.0799999999999</ele>
        <time>2012-06-16T11:48:04Z</time>
      </trkpt>
      <trkpt lat="46.355235390365124" lon="7.134122606366873">
        <ele>1157.5599999999999</ele>
        <time>2012-06-16T11:48:07Z</time>
      </trkpt>
      <trkpt lat="46.355243101716042" lon="7.13409268297255">
        <ele>1157.5599999999999</ele>
        <time>2012-06-16T11:48:08Z</time>
      </trkpt>
      <trkpt lat="46.355250896885991" lon="7.134061837568879">
        <ele>1157.5599999999999</ele>
        <time>2012-06-16T11:48:09Z</time>
      </trkpt>
      <trkpt lat="46.355255087837577" lon="7.134030656889081">
        <ele>1158.05</ele>
        <time>2012-06-16T11:48:10Z</time>
      </trkpt>
      <trkpt lat="46.355377798900008" lon="7.133666463196278">
        <ele>1160.45</ele>
        <time>2012-06-16T11:48:24Z</time>
      </trkpt>
      <trkpt lat="46.355604948475957" lon="7.133688172325492">
        <ele>1163.8099999999999</ele>
        <time>2012-06-16T11:48:38Z</time>
      </trkpt>
      <trkpt lat="46.355902841314673" lon="7.133711557835341">
        <ele>1166.22</ele>
        <time>2012-06-16T11:48:55Z</time>
      </trkpt>
      <trkpt lat="46.356147760525346" lon="7.133480552583933">
        <ele>1168.1400000000001</ele>
        <time>2012-06-16T11:49:11Z</time>
      </trkpt>
      <trkpt lat="46.356153544038534" lon="7.133331019431353">
        <ele>1167.6600000000001</ele>
        <time>2012-06-16T11:49:14Z</time>
      </trkpt>
      <trkpt lat="46.356134433299303" lon="7.133197747170925">
        <ele>1166.7</ele>
        <time>2012-06-16T11:49:16Z</time>
      </trkpt>
      <trkpt lat="46.356113813817501" lon="7.133129853755236">
        <ele>1166.22</ele>
        <time>2012-06-16T11:49:17Z</time>
      </trkpt>
      <trkpt lat="46.356064025312662" lon="7.132992558181286">
        <ele>1164.29</ele>
        <time>2012-06-16T11:49:19Z</time>
      </trkpt>
      <trkpt lat="46.35604340583086" lon="7.132917707785964">
        <ele>1163.3299999999999</ele>
        <time>2012-06-16T11:49:20Z</time>
      </trkpt>
      <trkpt lat="46.356029575690627" lon="7.132840845733881">
        <ele>1162.3699999999999</ele>
        <time>2012-06-16T11:49:21Z</time>
      </trkpt>
      <trkpt lat="46.356025049462914" lon="7.132759373635054">
        <ele>1161.8900000000001</ele>
        <time>2012-06-16T11:49:22Z</time>
      </trkpt>
      <trkpt lat="46.356027815490961" lon="7.132667256519198">
        <ele>1161.4100000000001</ele>
        <time>2012-06-16T11:49:23Z</time>
      </trkpt>
      <trkpt lat="46.356034772470593" lon="7.132569858804345">
        <ele>1160.45</ele>
        <time>2012-06-16T11:49:24Z</time>
      </trkpt>
      <trkpt lat="46.356054469943047" lon="7.132368441671133">
        <ele>1159.49</ele>
        <time>2012-06-16T11:49:26Z</time>
      </trkpt>
      <trkpt lat="46.356071904301643" lon="7.132270960137248">
        <ele>1159.49</ele>
        <time>2012-06-16T11:49:27Z</time>
      </trkpt>
      <trkpt lat="46.356093948706985" lon="7.132176496088505">
        <ele>1159.01</ele>
        <time>2012-06-16T11:49:28Z</time>
      </trkpt>
      <trkpt lat="46.356279021129012" lon="7.131495717912912">
        <ele>1156.5999999999999</ele>
        <time>2012-06-16T11:49:35Z</time>
      </trkpt>
      <trkpt lat="46.356286481022835" lon="7.131400667130947">
        <ele>1156.1199999999999</ele>
        <time>2012-06-16T11:49:36Z</time>
      </trkpt>
      <trkpt lat="46.356285475194454" lon="7.13130452670157">
        <ele>1156.1199999999999</ele>
        <time>2012-06-16T11:49:37Z</time>
      </trkpt>
      <trkpt lat="46.35627600364387" lon="7.131209978833795">
        <ele>1156.1199999999999</ele>
        <time>2012-06-16T11:49:38Z</time>
      </trkpt>
      <trkpt lat="46.356262592598796" lon="7.131116604432464">
        <ele>1155.6400000000001</ele>
        <time>2012-06-16T11:49:39Z</time>
      </trkpt>
      <trkpt lat="46.356210457161069" lon="7.130605978891254">
        <ele>1154.6800000000001</ele>
        <time>2012-06-16T11:49:45Z</time>
      </trkpt>
      <trkpt lat="46.356216575950384" lon="7.130532301962376">
        <ele>1154.2</ele>
        <time>2012-06-16T11:49:46Z</time>
      </trkpt>
      <trkpt lat="46.356229400262237" lon="7.130461474880576">
        <ele>1153.72</ele>
        <time>2012-06-16T11:49:47Z</time>
      </trkpt>
      <trkpt lat="46.356247588992119" lon="7.130389390513301">
        <ele>1152.76</ele>
        <time>2012-06-16T11:49:48Z</time>
      </trkpt>
      <trkpt lat="46.356266615912318" lon="7.130314959213138">
        <ele>1152.28</ele>
        <time>2012-06-16T11:49:49Z</time>
      </trkpt>
      <trkpt lat="46.356280781328678" lon="7.130233235657215">
        <ele>1151.3199999999999</ele>
        <time>2012-06-16T11:49:50Z</time>
      </trkpt>
      <trkpt lat="46.35629553347826" lon="7.130150925368071">
        <ele>1150.3499999999999</ele>
        <time>2012-06-16T11:49:51Z</time>
      </trkpt>
      <trkpt lat="46.356318583711982" lon="7.130079008638859">
        <ele>1149.8699999999999</ele>
        <time>2012-06-16T11:49:52Z</time>
      </trkpt>
      <trkpt lat="46.356346746906638" lon="7.130022598430514">
        <ele>1149.3900000000001</ele>
        <time>2012-06-16T11:49:53Z</time>
      </trkpt>
      <trkpt lat="46.35637566447258" lon="7.129972977563739">
        <ele>1148.9100000000001</ele>
        <time>2012-06-16T11:49:54Z</time>
      </trkpt>
      <trkpt lat="46.356398882344365" lon="7.129927799105644">
        <ele>1148.9100000000001</ele>
        <time>2012-06-16T11:49:55Z</time>
      </trkpt>
      <trkpt lat="46.356412209570408" lon="7.129889242351055">
        <ele>1148.4300000000001</ele>
        <time>2012-06-16T11:49:56Z</time>
      </trkpt>
      <trkpt lat="46.356422854587436" lon="7.129859235137701">
        <ele>1148.4300000000001</ele>
        <time>2012-06-16T11:49:57Z</time>
      </trkpt>
      <trkpt lat="46.356430985033512" lon="7.129830904304981">
        <ele>1148.4300000000001</ele>
        <time>2012-06-16T11:49:58Z</time>
      </trkpt>
      <trkpt lat="46.356432158499956" lon="7.129795951768756">
        <ele>1148.4300000000001</ele>
        <time>2012-06-16T11:49:59Z</time>
      </trkpt>
      <trkpt lat="46.356429141014814" lon="7.129757646471262">
        <ele>1147.95</ele>
        <time>2012-06-16T11:50:00Z</time>
      </trkpt>
      <trkpt lat="46.356424363330007" lon="7.129721269011498">
        <ele>1147.95</ele>
        <time>2012-06-16T11:50:01Z</time>
      </trkpt>
      <trkpt lat="46.356452777981758" lon="7.129238722845912">
        <ele>1142.1800000000001</ele>
        <time>2012-06-16T11:50:11Z</time>
      </trkpt>
      <trkpt lat="46.356402318924665" lon="7.129179881885648">
        <ele>1139.78</ele>
        <time>2012-06-16T11:50:19Z</time>
      </trkpt>
      <trkpt lat="46.356410952284932" lon="7.129186922684312">
        <ele>1136.9000000000001</ele>
        <time>2012-06-16T11:50:36Z</time>
      </trkpt>
      <trkpt lat="46.356401816010475" lon="7.129204692319036">
        <ele>1133.53</ele>
        <time>2012-06-16T11:51:06Z</time>
      </trkpt>
      <trkpt lat="46.35640642605722" lon="7.129193376749754">
        <ele>1134.01</ele>
        <time>2012-06-16T11:51:40Z</time>
      </trkpt>
      <trkpt lat="46.356390584260225" lon="7.129172924906015">
        <ele>1136.9000000000001</ele>
        <time>2012-06-16T11:52:22Z</time>
      </trkpt>
      <trkpt lat="46.356390668079257" lon="7.129186587408185">
        <ele>1135.45</ele>
        <time>2012-06-16T11:52:55Z</time>
      </trkpt>
      <trkpt lat="46.356403660029173" lon="7.129209721460939">
        <ele>1132.5699999999999</ele>
        <time>2012-06-16T11:53:40Z</time>
      </trkpt>
      <trkpt lat="46.356398211792111" lon="7.129215504974127">
        <ele>1132.0899999999999</ele>
        <time>2012-06-16T11:54:15Z</time>
      </trkpt>
      <trkpt lat="46.35639519430697" lon="7.129195220768452">
        <ele>1133.05</ele>
        <time>2012-06-16T11:54:47Z</time>
      </trkpt>
      <trkpt lat="46.356402570381761" lon="7.12918440811336">
        <ele>1135.9400000000001</ele>
        <time>2012-06-16T11:55:28Z</time>
      </trkpt>
      <trkpt lat="46.356387231498957" lon="7.129189437255263">
        <ele>1135.45</ele>
        <time>2012-06-16T11:56:05Z</time>
      </trkpt>
      <trkpt lat="46.356369378045201" lon="7.129203686490655">
        <ele>1133.53</ele>
        <time>2012-06-16T11:56:32Z</time>
      </trkpt>
      <trkpt lat="46.356363007798791" lon="7.129220198839903">
        <ele>1131.6099999999999</ele>
        <time>2012-06-16T11:56:57Z</time>
      </trkpt>
      <trkpt lat="46.356366612017155" lon="7.129224641248584">
        <ele>1131.6099999999999</ele>
        <time>2012-06-16T11:57:34Z</time>
      </trkpt>
      <trkpt lat="46.356371892616153" lon="7.129181558266282">
        <ele>1134.49</ele>
        <time>2012-06-16T11:58:11Z</time>
      </trkpt>
      <trkpt lat="46.35637616738677" lon="7.129192287102342">
        <ele>1132.5699999999999</ele>
        <time>2012-06-16T11:58:41Z</time>
      </trkpt>
      <trkpt lat="46.356386644765735" lon="7.129196729511023">
        <ele>1133.53</ele>
        <time>2012-06-16T11:59:16Z</time>
      </trkpt>
      <trkpt lat="46.356389913707972" lon="7.129238303750753">
        <ele>1128.73</ele>
        <time>2012-06-16T11:59:43Z</time>
      </trkpt>
      <trkpt lat="46.356418747454882" lon="7.129285410046578">
        <ele>1126.3199999999999</ele>
        <time>2012-06-16T12:00:16Z</time>
      </trkpt>
      <trkpt lat="46.356411203742027" lon="7.129295971244574">
        <ele>1123.4400000000001</ele>
        <time>2012-06-16T12:00:44Z</time>
      </trkpt>
      <trkpt lat="46.356428219005466" lon="7.129299910739064">
        <ele>1123.4400000000001</ele>
        <time>2012-06-16T12:01:23Z</time>
      </trkpt>
      <trkpt lat="46.35641623288393" lon="7.129188431426883">
        <ele>1134.01</ele>
        <time>2012-06-16T12:02:10Z</time>
      </trkpt>
      <trkpt lat="46.35641279630363" lon="7.129187844693661">
        <ele>1134.97</ele>
        <time>2012-06-16T12:02:49Z</time>
      </trkpt>
      <trkpt lat="46.356399049982429" lon="7.129138642922044">
        <ele>1138.8199999999999</ele>
        <time>2012-06-16T12:03:22Z</time>
      </trkpt>
      <trkpt lat="46.356406090781093" lon="7.129211984574795">
        <ele>1132.5699999999999</ele>
        <time>2012-06-16T12:03:52Z</time>
      </trkpt>
      <trkpt lat="46.356411119922996" lon="7.12922740727663">
        <ele>1130.6500000000001</ele>
        <time>2012-06-16T12:04:22Z</time>
      </trkpt>
      <trkpt lat="46.356401983648539" lon="7.129156664013863">
        <ele>1136.4200000000001</ele>
        <time>2012-06-16T12:04:57Z</time>
      </trkpt>
      <trkpt lat="46.356399217620492" lon="7.129125986248255">
        <ele>1138.8199999999999</ele>
        <time>2012-06-16T12:05:36Z</time>
      </trkpt>
      <trkpt lat="46.356376670300961" lon="7.129103019833565">
        <ele>1141.22</ele>
        <time>2012-06-16T12:06:18Z</time>
      </trkpt>
      <trkpt lat="46.35638102889061" lon="7.12914040312171">
        <ele>1139.3</ele>
        <time>2012-06-16T12:06:47Z</time>
      </trkpt>
      <trkpt lat="46.356385722756386" lon="7.129161274060607">
        <ele>1136.4200000000001</ele>
        <time>2012-06-16T12:07:21Z</time>
      </trkpt>
      <trkpt lat="46.35638689622283" lon="7.129161944612861">
        <ele>1134.97</ele>
        <time>2012-06-16T12:07:51Z</time>
      </trkpt>
      <trkpt lat="46.356390584260225" lon="7.129207206889987">
        <ele>1131.6099999999999</ele>
        <time>2012-06-16T12:08:25Z</time>
      </trkpt>
      <trkpt lat="46.356393601745367" lon="7.12924157269299">
        <ele>1128.24</ele>
        <time>2012-06-16T12:08:58Z</time>
      </trkpt>
      <trkpt lat="46.356395781040192" lon="7.129267388954759">
        <ele>1125.3599999999999</ele>
        <time>2012-06-16T12:09:28Z</time>
      </trkpt>
      <trkpt lat="46.356396703049541" lon="7.129268730059266">
        <ele>1124.4000000000001</ele>
        <time>2012-06-16T12:09:58Z</time>
      </trkpt>
      <trkpt lat="46.356390919536352" lon="7.129277363419533">
        <ele>1121.52</ele>
        <time>2012-06-16T12:10:23Z</time>
      </trkpt>
      <trkpt lat="46.356399636715651" lon="7.129301419481635">
        <ele>1119.5899999999999</ele>
        <time>2012-06-16T12:10:50Z</time>
      </trkpt>
      <trkpt lat="46.356400223448873" lon="7.1292669698596">
        <ele>1120.55</ele>
        <time>2012-06-16T12:11:20Z</time>
      </trkpt>
      <trkpt lat="46.356408521533012" lon="7.129290858283639">
        <ele>1118.6300000000001</ele>
        <time>2012-06-16T12:11:49Z</time>
      </trkpt>
      <trkpt lat="46.356400391086936" lon="7.12927283719182">
        <ele>1118.6300000000001</ele>
        <time>2012-06-16T12:12:17Z</time>
      </trkpt>
      <trkpt lat="46.356408772990108" lon="7.129297899082303">
        <ele>1117.1900000000001</ele>
        <time>2012-06-16T12:12:49Z</time>
      </trkpt>
      <trkpt lat="46.356418076902628" lon="7.129259677603841">
        <ele>1119.5899999999999</ele>
        <time>2012-06-16T12:13:12Z</time>
      </trkpt>
      <trkpt lat="46.356441713869572" lon="7.129282644018531">
        <ele>1122.48</ele>
        <time>2012-06-16T12:13:25Z</time>
      </trkpt>
      <trkpt lat="46.3564367685467" lon="7.129450114443898">
        <ele>1132.0899999999999</ele>
        <time>2012-06-16T12:13:38Z</time>
      </trkpt>
      <trkpt lat="46.356425788253546" lon="7.12973459623754">
        <ele>1141.22</ele>
        <time>2012-06-16T12:13:56Z</time>
      </trkpt>
      <trkpt lat="46.356434673070908" lon="7.129738451912999">
        <ele>1141.7</ele>
        <time>2012-06-16T12:13:57Z</time>
      </trkpt>
      <trkpt lat="46.356445653364062" lon="7.129722610116005">
        <ele>1142.1800000000001</ele>
        <time>2012-06-16T12:13:58Z</time>
      </trkpt>
      <trkpt lat="46.356450850144029" lon="7.129702912643552">
        <ele>1142.6600000000001</ele>
        <time>2012-06-16T12:13:59Z</time>
      </trkpt>
      <trkpt lat="46.356455124914646" lon="7.129681371152401">
        <ele>1142.6600000000001</ele>
        <time>2012-06-16T12:14:00Z</time>
      </trkpt>
      <trkpt lat="46.356556210666895" lon="7.12941356934607">
        <ele>1147.47</ele>
        <time>2012-06-16T12:14:16Z</time>
      </trkpt>
      <trkpt lat="46.356567861512303" lon="7.129375096410513">
        <ele>1148.4300000000001</ele>
        <time>2012-06-16T12:14:18Z</time>
      </trkpt>
      <trkpt lat="46.356570543721318" lon="7.12935196235776">
        <ele>1148.9100000000001</ele>
        <time>2012-06-16T12:14:19Z</time>
      </trkpt>
      <trkpt lat="46.356581188738346" lon="7.129158340394497">
        <ele>1156.5999999999999</ele>
        <time>2012-06-16T12:14:31Z</time>
      </trkpt>
      <trkpt lat="46.356578757986426" lon="7.129037221893668">
        <ele>1155.6400000000001</ele>
        <time>2012-06-16T12:14:44Z</time>
      </trkpt>
      <trkpt lat="46.356593761593103" lon="7.128887269645929">
        <ele>1154.2</ele>
        <time>2012-06-16T12:14:59Z</time>
      </trkpt>
      <trkpt lat="46.356588061898947" lon="7.128678895533085">
        <ele>1152.28</ele>
        <time>2012-06-16T12:15:02Z</time>
      </trkpt>
      <trkpt lat="46.356574147939682" lon="7.128600776195526">
        <ele>1151.8</ele>
        <time>2012-06-16T12:15:03Z</time>
      </trkpt>
      <trkpt lat="46.356549337506294" lon="7.128525758162141">
        <ele>1151.3199999999999</ele>
        <time>2012-06-16T12:15:04Z</time>
      </trkpt>
      <trkpt lat="46.356498375535011" lon="7.128378823399544">
        <ele>1150.3499999999999</ele>
        <time>2012-06-16T12:15:06Z</time>
      </trkpt>
      <trkpt lat="46.356489323079586" lon="7.128305565565825">
        <ele>1149.8699999999999</ele>
        <time>2012-06-16T12:15:07Z</time>
      </trkpt>
      <trkpt lat="46.356485467404127" lon="7.128237504512072">
        <ele>1149.3900000000001</ele>
        <time>2012-06-16T12:15:08Z</time>
      </trkpt>
      <trkpt lat="46.356489323079586" lon="7.128181345760822">
        <ele>1148.9100000000001</ele>
        <time>2012-06-16T12:15:09Z</time>
      </trkpt>
      <trkpt lat="46.356499632820487" lon="7.128141280263662">
        <ele>1148.9100000000001</ele>
        <time>2012-06-16T12:15:10Z</time>
      </trkpt>
      <trkpt lat="46.356506673619151" lon="7.128119571134448">
        <ele>1148.9100000000001</ele>
        <time>2012-06-16T12:15:11Z</time>
      </trkpt>
      <trkpt lat="46.356509439647198" lon="7.128102472051978">
        <ele>1148.9100000000001</ele>
        <time>2012-06-16T12:15:12Z</time>
      </trkpt>
      <trkpt lat="46.356511786580086" lon="7.128081684932113">
        <ele>1148.9100000000001</ele>
        <time>2012-06-16T12:15:13Z</time>
      </trkpt>
      <trkpt lat="46.356515977531672" lon="7.128061149269342">
        <ele>1148.9100000000001</ele>
        <time>2012-06-16T12:15:14Z</time>
      </trkpt>
      <trkpt lat="46.356519162654877" lon="7.12804195471108">
        <ele>1148.9100000000001</ele>
        <time>2012-06-16T12:15:15Z</time>
      </trkpt>
      <trkpt lat="46.35653642937541" lon="7.127665858715773">
        <ele>1149.3900000000001</ele>
        <time>2012-06-16T12:15:31Z</time>
      </trkpt>
      <trkpt lat="46.356579093262553" lon="7.127225557342172">
        <ele>1153.72</ele>
        <time>2012-06-16T12:15:46Z</time>
      </trkpt>
      <trkpt lat="46.356717646121979" lon="7.126695904880762">
        <ele>1156.5999999999999</ele>
        <time>2012-06-16T12:16:01Z</time>
      </trkpt>
      <trkpt lat="46.356712449342012" lon="7.126109842211008">
        <ele>1154.6800000000001</ele>
        <time>2012-06-16T12:16:13Z</time>
      </trkpt>
      <trkpt lat="46.356747569516301" lon="7.125560576096177">
        <ele>1156.1199999999999</ele>
        <time>2012-06-16T12:16:26Z</time>
      </trkpt>
      <trkpt lat="46.356751676648855" lon="7.125389249995351">
        <ele>1156.1199999999999</ele>
        <time>2012-06-16T12:16:30Z</time>
      </trkpt>
      <trkpt lat="46.356764500960708" lon="7.125326218083501">
        <ele>1156.1199999999999</ele>
        <time>2012-06-16T12:16:31Z</time>
      </trkpt>
      <trkpt lat="46.356779672205448" lon="7.12525094859302">
        <ele>1156.1199999999999</ele>
        <time>2012-06-16T12:16:32Z</time>
      </trkpt>
      <trkpt lat="46.356784868985415" lon="7.125156233087182">
        <ele>1156.1199999999999</ele>
        <time>2012-06-16T12:16:33Z</time>
      </trkpt>
      <trkpt lat="46.356781767681241" lon="7.12504668161273">
        <ele>1156.1199999999999</ele>
        <time>2012-06-16T12:16:34Z</time>
      </trkpt>
      <trkpt lat="46.356775481253862" lon="7.124948110431433">
        <ele>1156.1199999999999</ele>
        <time>2012-06-16T12:16:35Z</time>
      </trkpt>
      <trkpt lat="46.356712365522981" lon="7.12438409216702">
        <ele>1158.05</ele>
        <time>2012-06-16T12:16:44Z</time>
      </trkpt>
      <trkpt lat="46.356711275875568" lon="7.124321395531297">
        <ele>1158.05</ele>
        <time>2012-06-16T12:16:45Z</time>
      </trkpt>
      <trkpt lat="46.356726111844182" lon="7.124188961461186">
        <ele>1158.05</ele>
        <time>2012-06-16T12:16:47Z</time>
      </trkpt>
      <trkpt lat="46.356739355251193" lon="7.124132635071874">
        <ele>1158.53</ele>
        <time>2012-06-16T12:16:48Z</time>
      </trkpt>
      <trkpt lat="46.35691269300878" lon="7.123774643987417">
        <ele>1159.49</ele>
        <time>2012-06-16T12:16:58Z</time>
      </trkpt>
      <trkpt lat="46.356938928365707" lon="7.12358370423317">
        <ele>1159.49</ele>
        <time>2012-06-16T12:17:02Z</time>
      </trkpt>
      <trkpt lat="46.356930295005441" lon="7.123517068102956">
        <ele>1159.01</ele>
        <time>2012-06-16T12:17:03Z</time>
      </trkpt>
      <trkpt lat="46.356883272528648" lon="7.123130075633526">
        <ele>1158.05</ele>
        <time>2012-06-16T12:17:08Z</time>
      </trkpt>
      <trkpt lat="46.356866508722305" lon="7.123058242723346">
        <ele>1158.05</ele>
        <time>2012-06-16T12:17:09Z</time>
      </trkpt>
      <trkpt lat="46.35684815235436" lon="7.122998144477606">
        <ele>1158.05</ele>
        <time>2012-06-16T12:17:10Z</time>
      </trkpt>
      <trkpt lat="46.356831807643175" lon="7.122941482812166">
        <ele>1158.53</ele>
        <time>2012-06-16T12:17:11Z</time>
      </trkpt>
      <trkpt lat="46.356820575892925" lon="7.122882725670934">
        <ele>1159.01</ele>
        <time>2012-06-16T12:17:12Z</time>
      </trkpt>
      <trkpt lat="46.35681445710361" lon="7.12282681837678">
        <ele>1159.49</ele>
        <time>2012-06-16T12:17:13Z</time>
      </trkpt>
      <trkpt lat="46.356786210089922" lon="7.122657587751746">
        <ele>1161.4100000000001</ele>
        <time>2012-06-16T12:17:17Z</time>
      </trkpt>
      <trkpt lat="46.356770033016801" lon="7.122617354616523">
        <ele>1161.4100000000001</ele>
        <time>2012-06-16T12:17:18Z</time>
      </trkpt>
      <trkpt lat="46.356661571189761" lon="7.122075380757451">
        <ele>1159.97</ele>
        <time>2012-06-16T12:17:29Z</time>
      </trkpt>
      <trkpt lat="46.35666886344552" lon="7.121958788484335">
        <ele>1159.97</ele>
        <time>2012-06-16T12:17:31Z</time>
      </trkpt>
      <trkpt lat="46.356665762141347" lon="7.121874717995524">
        <ele>1159.49</ele>
        <time>2012-06-16T12:17:32Z</time>
      </trkpt>
      <trkpt lat="46.356656458228827" lon="7.121776482090354">
        <ele>1159.01</ele>
        <time>2012-06-16T12:17:33Z</time>
      </trkpt>
      <trkpt lat="46.356680346652865" lon="7.120412327349186">
        <ele>1153.24</ele>
        <time>2012-06-16T12:17:45Z</time>
      </trkpt>
      <trkpt lat="46.356682106852531" lon="7.12031819857657">
        <ele>1152.76</ele>
        <time>2012-06-16T12:17:46Z</time>
      </trkpt>
      <trkpt lat="46.356678586453199" lon="7.120230440050364">
        <ele>1152.76</ele>
        <time>2012-06-16T12:17:47Z</time>
      </trkpt>
      <trkpt lat="46.356629719957709" lon="7.119742361828685">
        <ele>1153.24</ele>
        <time>2012-06-16T12:17:53Z</time>
      </trkpt>
      <trkpt lat="46.356626534834504" lon="7.119605401530862">
        <ele>1153.24</ele>
        <time>2012-06-16T12:17:55Z</time>
      </trkpt>
      <trkpt lat="46.356619577854872" lon="7.119547398760915">
        <ele>1153.24</ele>
        <time>2012-06-16T12:17:56Z</time>
      </trkpt>
      <trkpt lat="46.356609016656876" lon="7.119427621364594">
        <ele>1153.72</ele>
        <time>2012-06-16T12:17:58Z</time>
      </trkpt>
      <trkpt lat="46.356609519571066" lon="7.119361320510507">
        <ele>1153.72</ele>
        <time>2012-06-16T12:17:59Z</time>
      </trkpt>
      <trkpt lat="46.356604993343353" lon="7.11929208599031">
        <ele>1153.72</ele>
        <time>2012-06-16T12:18:00Z</time>
      </trkpt>
      <trkpt lat="46.356591582298279" lon="7.119219414889813">
        <ele>1153.72</ele>
        <time>2012-06-16T12:18:01Z</time>
      </trkpt>
      <trkpt lat="46.356567861512303" lon="7.119150934740901">
        <ele>1153.72</ele>
        <time>2012-06-16T12:18:02Z</time>
      </trkpt>
      <trkpt lat="46.356543889269233" lon="7.119086729362607">
        <ele>1154.2</ele>
        <time>2012-06-16T12:18:03Z</time>
      </trkpt>
      <trkpt lat="46.356527041643858" lon="7.119021937251091">
        <ele>1154.2</ele>
        <time>2012-06-16T12:18:04Z</time>
      </trkpt>
      <trkpt lat="46.356517318636179" lon="7.11895689368248">
        <ele>1154.2</ele>
        <time>2012-06-16T12:18:05Z</time>
      </trkpt>
      <trkpt lat="46.356516145169735" lon="7.118895454332233">
        <ele>1154.2</ele>
        <time>2012-06-16T12:18:06Z</time>
      </trkpt>
      <trkpt lat="46.35651882737875" lon="7.118846755474806">
        <ele>1154.6800000000001</ele>
        <time>2012-06-16T12:18:07Z</time>
      </trkpt>
      <trkpt lat="46.356523185968399" lon="7.118814820423722">
        <ele>1154.6800000000001</ele>
        <time>2012-06-16T12:18:08Z</time>
      </trkpt>
      <trkpt lat="46.35652813129127" lon="7.118791602551937">
        <ele>1155.1600000000001</ele>
        <time>2012-06-16T12:18:09Z</time>
      </trkpt>
      <trkpt lat="46.356531735509634" lon="7.118772659450769">
        <ele>1155.6400000000001</ele>
        <time>2012-06-16T12:18:10Z</time>
      </trkpt>
      <trkpt lat="46.356534501537681" lon="7.118759835138917">
        <ele>1155.6400000000001</ele>
        <time>2012-06-16T12:18:11Z</time>
      </trkpt>
      <trkpt lat="46.356533663347363" lon="7.118740472942591">
        <ele>1156.1199999999999</ele>
        <time>2012-06-16T12:18:12Z</time>
      </trkpt>
      <trkpt lat="46.356535423547029" lon="7.118726978078485">
        <ele>1156.1199999999999</ele>
        <time>2012-06-16T12:18:13Z</time>
      </trkpt>
      <trkpt lat="46.356537854298949" lon="7.118712393566966">
        <ele>1156.1199999999999</ele>
        <time>2012-06-16T12:18:14Z</time>
      </trkpt>
      <trkpt lat="46.356543386355042" lon="7.11869839578867">
        <ele>1156.5999999999999</ele>
        <time>2012-06-16T12:18:15Z</time>
      </trkpt>
      <trkpt lat="46.356550259515643" lon="7.118678698316217">
        <ele>1156.5999999999999</ele>
        <time>2012-06-16T12:18:16Z</time>
      </trkpt>
      <trkpt lat="46.356554534286261" lon="7.118657911196351">
        <ele>1156.5999999999999</ele>
        <time>2012-06-16T12:18:17Z</time>
      </trkpt>
      <trkpt lat="46.356576578691602" lon="7.118296986445785">
        <ele>1154.2</ele>
        <time>2012-06-16T12:18:32Z</time>
      </trkpt>
      <trkpt lat="46.35659409686923" lon="7.118050893768668">
        <ele>1152.28</ele>
        <time>2012-06-16T12:18:37Z</time>
      </trkpt>
      <trkpt lat="46.356610776856542" lon="7.11799724958837">
        <ele>1152.76</ele>
        <time>2012-06-16T12:18:38Z</time>
      </trkpt>
      <trkpt lat="46.356628546491265" lon="7.117956932634115">
        <ele>1152.76</ele>
        <time>2012-06-16T12:18:39Z</time>
      </trkpt>
      <trkpt lat="46.356643801555037" lon="7.117923572659493">
        <ele>1153.24</ele>
        <time>2012-06-16T12:18:40Z</time>
      </trkpt>
      <trkpt lat="46.356655117124319" lon="7.117892727255821">
        <ele>1153.24</ele>
        <time>2012-06-16T12:18:41Z</time>
      </trkpt>
      <trkpt lat="46.356661738827825" lon="7.117859786376357">
        <ele>1153.72</ele>
        <time>2012-06-16T12:18:42Z</time>
      </trkpt>
      <trkpt lat="46.356667689979076" lon="7.117819637060165">
        <ele>1153.72</ele>
        <time>2012-06-16T12:18:43Z</time>
      </trkpt>
      <trkpt lat="46.356674395501614" lon="7.117781080305576">
        <ele>1153.72</ele>
        <time>2012-06-16T12:18:44Z</time>
      </trkpt>
      <trkpt lat="46.356722339987755" lon="7.117497520521283">
        <ele>1154.2</ele>
        <time>2012-06-16T12:18:52Z</time>
      </trkpt>
      <trkpt lat="46.356749245896935" lon="7.1172686945647">
        <ele>1154.6800000000001</ele>
        <time>2012-06-16T12:18:59Z</time>
      </trkpt>
      <trkpt lat="46.356774056330323" lon="7.11679469794035">
        <ele>1155.1600000000001</ele>
        <time>2012-06-16T12:19:09Z</time>
      </trkpt>
      <trkpt lat="46.356774307787418" lon="7.116643404588103">
        <ele>1155.6400000000001</ele>
        <time>2012-06-16T12:19:11Z</time>
      </trkpt>
      <trkpt lat="46.356699457392097" lon="7.116059018298984">
        <ele>1155.6400000000001</ele>
        <time>2012-06-16T12:19:23Z</time>
      </trkpt>
      <trkpt lat="46.356617482379079" lon="7.115803034976125">
        <ele>1159.97</ele>
        <time>2012-06-16T12:19:37Z</time>
      </trkpt>
      <trkpt lat="46.356578757986426" lon="7.115685185417533">
        <ele>1163.3299999999999</ele>
        <time>2012-06-16T12:19:50Z</time>
      </trkpt>
      <trkpt lat="46.356587978079915" lon="7.115648640319705">
        <ele>1164.29</ele>
        <time>2012-06-16T12:20:01Z</time>
      </trkpt>
      <trkpt lat="46.356593929231167" lon="7.115615950897336">
        <ele>1164.29</ele>
        <time>2012-06-16T12:20:06Z</time>
      </trkpt>
      <trkpt lat="46.356615386903286" lon="7.115413192659617">
        <ele>1168.1400000000001</ele>
        <time>2012-06-16T12:20:22Z</time>
      </trkpt>
      <trkpt lat="46.356666516512632" lon="7.115187803283334">
        <ele>1171.5</ele>
        <time>2012-06-16T12:20:39Z</time>
      </trkpt>
      <trkpt lat="46.356681939214468" lon="7.115090489387512">
        <ele>1173.9100000000001</ele>
        <time>2012-06-16T12:20:50Z</time>
      </trkpt>
      <trkpt lat="46.356819486245513" lon="7.114942884072661">
        <ele>1178.23</ele>
        <time>2012-06-16T12:21:04Z</time>
      </trkpt>
      <trkpt lat="46.356827700510621" lon="7.114933747798204">
        <ele>1178.71</ele>
        <time>2012-06-16T12:21:05Z</time>
      </trkpt>
      <trkpt lat="46.356857037171721" lon="7.114526554942131">
        <ele>1184.48</ele>
        <time>2012-06-16T12:21:19Z</time>
      </trkpt>
      <trkpt lat="46.356878830119967" lon="7.113914676010609">
        <ele>1181.5999999999999</ele>
        <time>2012-06-16T12:21:34Z</time>
      </trkpt>
      <trkpt lat="46.356801213696599" lon="7.113425424322486">
        <ele>1181.1199999999999</ele>
        <time>2012-06-16T12:21:44Z</time>
      </trkpt>
      <trkpt lat="46.356898443773389" lon="7.112908344715834">
        <ele>1183.52</ele>
        <time>2012-06-16T12:21:57Z</time>
      </trkpt>
      <trkpt lat="46.357223829254508" lon="7.112567871809006">
        <ele>1179.1900000000001</ele>
        <time>2012-06-16T12:22:09Z</time>
      </trkpt>
      <trkpt lat="46.357574611902237" lon="7.112367125228047">
        <ele>1180.1600000000001</ele>
        <time>2012-06-16T12:22:24Z</time>
      </trkpt>
      <trkpt lat="46.357601517811418" lon="7.112343152984977">
        <ele>1180.1600000000001</ele>
        <time>2012-06-16T12:22:25Z</time>
      </trkpt>
      <trkpt lat="46.357929166406393" lon="7.112188339233398">
        <ele>1181.5999999999999</ele>
        <time>2012-06-16T12:22:36Z</time>
      </trkpt>
      <trkpt lat="46.358086746186018" lon="7.111993795260787">
        <ele>1182.5599999999999</ele>
        <time>2012-06-16T12:22:47Z</time>
      </trkpt>
      <trkpt lat="46.358156315982342" lon="7.111674612388015">
        <ele>1185.9200000000001</ele>
        <time>2012-06-16T12:22:59Z</time>
      </trkpt>
      <trkpt lat="46.358218174427748" lon="7.111362721771002">
        <ele>1184.96</ele>
        <time>2012-06-16T12:23:09Z</time>
      </trkpt>
      <trkpt lat="46.358244242146611" lon="7.111227689310908">
        <ele>1180.6400000000001</ele>
        <time>2012-06-16T12:23:22Z</time>
      </trkpt>
      <trkpt lat="46.358264526352286" lon="7.111114952713251">
        <ele>1179.1900000000001</ele>
        <time>2012-06-16T12:23:35Z</time>
      </trkpt>
      <trkpt lat="46.358260503038764" lon="7.110737850889564">
        <ele>1177.27</ele>
        <time>2012-06-16T12:23:46Z</time>
      </trkpt>
      <trkpt lat="46.358352871611714" lon="7.110538193956018">
        <ele>1182.0799999999999</ele>
        <time>2012-06-16T12:23:59Z</time>
      </trkpt>
      <trkpt lat="46.358362678438425" lon="7.110492344945669">
        <ele>1184.96</ele>
        <time>2012-06-16T12:24:15Z</time>
      </trkpt>
      <trkpt lat="46.358380699530244" lon="7.110387152060866">
        <ele>1187.3699999999999</ele>
        <time>2012-06-16T12:24:30Z</time>
      </trkpt>
      <trkpt lat="46.358381453901529" lon="7.110271062701941">
        <ele>1190.73</ele>
        <time>2012-06-16T12:24:40Z</time>
      </trkpt>
      <trkpt lat="46.358384974300861" lon="7.110257986932993">
        <ele>1190.25</ele>
        <time>2012-06-16T12:24:41Z</time>
      </trkpt>
      <trkpt lat="46.358376173302531" lon="7.110026059672236">
        <ele>1193.1300000000001</ele>
        <time>2012-06-16T12:24:56Z</time>
      </trkpt>
      <trkpt lat="46.358395954594016" lon="7.109686676412821">
        <ele>1187.3699999999999</ele>
        <time>2012-06-16T12:25:12Z</time>
      </trkpt>
      <trkpt lat="46.35839176364243" lon="7.109635630622506">
        <ele>1186.8800000000001</ele>
        <time>2012-06-16T12:25:16Z</time>
      </trkpt>
      <trkpt lat="46.358386566862464" lon="7.109559774398804">
        <ele>1186.8800000000001</ele>
        <time>2012-06-16T12:25:21Z</time>
      </trkpt>
      <trkpt lat="46.358402911573648" lon="7.109335223212838">
        <ele>1188.8099999999999</ele>
        <time>2012-06-16T12:25:32Z</time>
      </trkpt>
      <trkpt lat="46.358405845239758" lon="7.109320387244225">
        <ele>1188.8099999999999</ele>
        <time>2012-06-16T12:25:33Z</time>
      </trkpt>
      <trkpt lat="46.358477175235748" lon="7.109079575166106">
        <ele>1187.8499999999999</ele>
        <time>2012-06-16T12:25:47Z</time>
      </trkpt>
      <trkpt lat="46.358468625694513" lon="7.108793584629893">
        <ele>1187.3699999999999</ele>
        <time>2012-06-16T12:26:01Z</time>
      </trkpt>
      <trkpt lat="46.358473906293511" lon="7.108757542446256">
        <ele>1185.4400000000001</ele>
        <time>2012-06-16T12:26:14Z</time>
      </trkpt>
      <trkpt lat="46.358486479148269" lon="7.108683697879314">
        <ele>1184.96</ele>
        <time>2012-06-16T12:26:27Z</time>
      </trkpt>
      <trkpt lat="46.358485724776983" lon="7.108609518036246">
        <ele>1185.4400000000001</ele>
        <time>2012-06-16T12:26:32Z</time>
      </trkpt>
      <trkpt lat="46.358487568795681" lon="7.10858722217381">
        <ele>1185.9200000000001</ele>
        <time>2012-06-16T12:26:33Z</time>
      </trkpt>
      <trkpt lat="46.358488826081157" lon="7.108565848320723">
        <ele>1185.9200000000001</ele>
        <time>2012-06-16T12:26:34Z</time>
      </trkpt>
      <trkpt lat="46.358491089195013" lon="7.108546569943428">
        <ele>1186.4000000000001</ele>
        <time>2012-06-16T12:26:35Z</time>
      </trkpt>
      <trkpt lat="46.358492681756616" lon="7.10852762684226">
        <ele>1186.8800000000001</ele>
        <time>2012-06-16T12:26:36Z</time>
      </trkpt>
      <trkpt lat="46.358508439734578" lon="7.108464930206537">
        <ele>1188.3299999999999</ele>
        <time>2012-06-16T12:26:40Z</time>
      </trkpt>
      <trkpt lat="46.358578260987997" lon="7.108122613281012">
        <ele>1191.6900000000001</ele>
        <time>2012-06-16T12:26:55Z</time>
      </trkpt>
      <trkpt lat="46.358609860762954" lon="7.107996800914407">
        <ele>1187.3699999999999</ele>
        <time>2012-06-16T12:27:07Z</time>
      </trkpt>
      <trkpt lat="46.358610615134239" lon="7.107795551419258">
        <ele>1186.4000000000001</ele>
        <time>2012-06-16T12:27:17Z</time>
      </trkpt>
      <trkpt lat="46.358711365610361" lon="7.107485421001911">
        <ele>1184</ele>
        <time>2012-06-16T12:27:28Z</time>
      </trkpt>
      <trkpt lat="46.358799962326884" lon="7.107187444344163">
        <ele>1180.6400000000001</ele>
        <time>2012-06-16T12:27:40Z</time>
      </trkpt>
      <trkpt lat="46.358792083337903" lon="7.107161711901426">
        <ele>1179.1900000000001</ele>
        <time>2012-06-16T12:27:54Z</time>
      </trkpt>
      <trkpt lat="46.358824437484145" lon="7.107056602835655">
        <ele>1179.6700000000001</ele>
        <time>2012-06-16T12:28:07Z</time>
      </trkpt>
      <trkpt lat="46.358990985900164" lon="7.106762314215303">
        <ele>1183.04</ele>
        <time>2012-06-16T12:28:21Z</time>
      </trkpt>
      <trkpt lat="46.359144626185298" lon="7.106453608721495">
        <ele>1185.9200000000001</ele>
        <time>2012-06-16T12:28:35Z</time>
      </trkpt>
      <trkpt lat="46.359334141016006" lon="7.106019593775272">
        <ele>1189.77</ele>
        <time>2012-06-16T12:28:55Z</time>
      </trkpt>
      <trkpt lat="46.359512843191624" lon="7.105577448382974">
        <ele>1193.6099999999999</ele>
        <time>2012-06-16T12:29:16Z</time>
      </trkpt>
      <trkpt lat="46.359590711072087" lon="7.105158269405365">
        <ele>1196.5</ele>
        <time>2012-06-16T12:29:33Z</time>
      </trkpt>
      <trkpt lat="46.359704872593284" lon="7.104709250852466">
        <ele>1197.9400000000001</ele>
        <time>2012-06-16T12:29:51Z</time>
      </trkpt>
      <trkpt lat="46.359820542857051" lon="7.104310858994722">
        <ele>1200.8199999999999</ele>
        <time>2012-06-16T12:30:09Z</time>
      </trkpt>
      <trkpt lat="46.359946858137846" lon="7.103873575106263">
        <ele>1204.1900000000001</ele>
        <time>2012-06-16T12:30:29Z</time>
      </trkpt>
      <trkpt lat="46.360031515359879" lon="7.10349035449326">
        <ele>1207.55</ele>
        <time>2012-06-16T12:30:46Z</time>
      </trkpt>
      <trkpt lat="46.360044591128826" lon="7.103072432801127">
        <ele>1209.48</ele>
        <time>2012-06-16T12:31:03Z</time>
      </trkpt>
      <trkpt lat="46.359985750168562" lon="7.102641435340047">
        <ele>1212.8399999999999</ele>
        <time>2012-06-16T12:31:21Z</time>
      </trkpt>
      <trkpt lat="46.360035203397274" lon="7.102186297997832">
        <ele>1215.24</ele>
        <time>2012-06-16T12:31:35Z</time>
      </trkpt>
      <trkpt lat="46.360289510339499" lon="7.101646922528744">
        <ele>1215.72</ele>
        <time>2012-06-16T12:31:53Z</time>
      </trkpt>
      <trkpt lat="46.360596958547831" lon="7.10120502859354">
        <ele>1219.5699999999999</ele>
        <time>2012-06-16T12:32:08Z</time>
      </trkpt>
      <trkpt lat="46.36107967235148" lon="7.100432468578219">
        <ele>1222.9300000000001</ele>
        <time>2012-06-16T12:32:31Z</time>
      </trkpt>
      <trkpt lat="46.361342780292034" lon="7.100015971809626">
        <ele>1226.3</ele>
        <time>2012-06-16T12:32:45Z</time>
      </trkpt>
      <trkpt lat="46.361475717276335" lon="7.099532503634691">
        <ele>1230.1400000000001</ele>
        <time>2012-06-16T12:32:59Z</time>
      </trkpt>
      <trkpt lat="46.361437328159809" lon="7.098953649401665">
        <ele>1231.1099999999999</ele>
        <time>2012-06-16T12:33:14Z</time>
      </trkpt>
      <trkpt lat="46.361704291775823" lon="7.098583336919546">
        <ele>1231.5899999999999</ele>
        <time>2012-06-16T12:33:27Z</time>
      </trkpt>
      <trkpt lat="46.361846951767802" lon="7.098161894828081">
        <ele>1234.95</ele>
        <time>2012-06-16T12:33:40Z</time>
      </trkpt>
      <trkpt lat="46.361926747485995" lon="7.097684126347303">
        <ele>1239.28</ele>
        <time>2012-06-16T12:33:56Z</time>
      </trkpt>
      <trkpt lat="46.3620784599334" lon="7.097360836341977">
        <ele>1241.2</ele>
        <time>2012-06-16T12:34:08Z</time>
      </trkpt>
      <trkpt lat="46.362338634207845" lon="7.097167717292905">
        <ele>1244.0799999999999</ele>
        <time>2012-06-16T12:34:19Z</time>
      </trkpt>
      <trkpt lat="46.36236185207963" lon="7.097146008163691">
        <ele>1244.5599999999999</ele>
        <time>2012-06-16T12:34:29Z</time>
      </trkpt>
      <trkpt lat="46.362360930070281" lon="7.097132680937648">
        <ele>1244.5599999999999</ele>
        <time>2012-06-16T12:34:32Z</time>
      </trkpt>
      <trkpt lat="46.36231835000217" lon="7.096826657652855">
        <ele>1246.97</ele>
        <time>2012-06-16T12:34:45Z</time>
      </trkpt>
      <trkpt lat="46.362380292266607" lon="7.096472941339016">
        <ele>1250.3299999999999</ele>
        <time>2012-06-16T12:35:02Z</time>
      </trkpt>
      <trkpt lat="46.362431757152081" lon="7.096418626606464">
        <ele>1250.8099999999999</ele>
        <time>2012-06-16T12:35:06Z</time>
      </trkpt>
      <trkpt lat="46.362446341663599" lon="7.0964081492275">
        <ele>1250.8099999999999</ele>
        <time>2012-06-16T12:35:07Z</time>
      </trkpt>
      <trkpt lat="46.362460339441895" lon="7.096398510038853">
        <ele>1251.29</ele>
        <time>2012-06-16T12:35:08Z</time>
      </trkpt>
      <trkpt lat="46.362537452951074" lon="7.096355091780424">
        <ele>1252.25</ele>
        <time>2012-06-16T12:35:13Z</time>
      </trkpt>
      <trkpt lat="46.362544409930706" lon="7.096341010183096">
        <ele>1251.77</ele>
        <time>2012-06-16T12:35:23Z</time>
      </trkpt>
      <trkpt lat="46.362539799883962" lon="7.096322402358055">
        <ele>1249.8499999999999</ele>
        <time>2012-06-16T12:36:02Z</time>
      </trkpt>
      <trkpt lat="46.362576428800821" lon="7.096328604966402">
        <ele>1250.3299999999999</ele>
        <time>2012-06-16T12:36:30Z</time>
      </trkpt>
      <trkpt lat="46.362590258941054" lon="7.096333801746368">
        <ele>1250.8099999999999</ele>
        <time>2012-06-16T12:36:31Z</time>
      </trkpt>
      <trkpt lat="46.362606352195144" lon="7.096341177821159">
        <ele>1250.8099999999999</ele>
        <time>2012-06-16T12:36:32Z</time>
      </trkpt>
      <trkpt lat="46.362624540925026" lon="7.096343608573079">
        <ele>1251.29</ele>
        <time>2012-06-16T12:36:33Z</time>
      </trkpt>
      <trkpt lat="46.362638622522354" lon="7.096339669078589">
        <ele>1251.29</ele>
        <time>2012-06-16T12:36:34Z</time>
      </trkpt>
      <trkpt lat="46.362651363015175" lon="7.096336064860225">
        <ele>1251.29</ele>
        <time>2012-06-16T12:36:35Z</time>
      </trkpt>
      <trkpt lat="46.362666953355074" lon="7.096335310488939">
        <ele>1251.29</ele>
        <time>2012-06-16T12:36:36Z</time>
      </trkpt>
      <trkpt lat="46.362822102382779" lon="7.096356684342027">
        <ele>1253.22</ele>
        <time>2012-06-16T12:36:45Z</time>
      </trkpt>
      <trkpt lat="46.362836435437202" lon="7.096371771767736">
        <ele>1253.22</ele>
        <time>2012-06-16T12:36:46Z</time>
      </trkpt>
      <trkpt lat="46.363095017150044" lon="7.096563465893269">
        <ele>1257.0599999999999</ele>
        <time>2012-06-16T12:37:04Z</time>
      </trkpt>
      <trkpt lat="46.363154863938689" lon="7.096565393730998">
        <ele>1258.02</ele>
        <time>2012-06-16T12:37:08Z</time>
      </trkpt>
      <trkpt lat="46.363168777897954" lon="7.096551898866892">
        <ele>1258.5</ele>
        <time>2012-06-16T12:37:09Z</time>
      </trkpt>
      <trkpt lat="46.363181099295616" lon="7.096536559984088">
        <ele>1258.5</ele>
        <time>2012-06-16T12:37:10Z</time>
      </trkpt>
      <trkpt lat="46.363194175064564" lon="7.096524154767394">
        <ele>1258.98</ele>
        <time>2012-06-16T12:37:11Z</time>
      </trkpt>
      <trkpt lat="46.36320766992867" lon="7.096513509750366">
        <ele>1258.98</ele>
        <time>2012-06-16T12:37:12Z</time>
      </trkpt>
      <trkpt lat="46.363221500068903" lon="7.096501775085926">
        <ele>1258.98</ele>
        <time>2012-06-16T12:37:13Z</time>
      </trkpt>
      <trkpt lat="46.363231055438519" lon="7.096482245251536">
        <ele>1259.46</ele>
        <time>2012-06-16T12:37:14Z</time>
      </trkpt>
      <trkpt lat="46.363238263875246" lon="7.096458608284593">
        <ele>1259.46</ele>
        <time>2012-06-16T12:37:15Z</time>
      </trkpt>
      <trkpt lat="46.363359382376075" lon="7.096064575016499">
        <ele>1264.75</ele>
        <time>2012-06-16T12:37:33Z</time>
      </trkpt>
      <trkpt lat="46.36350816115737" lon="7.095815548673272">
        <ele>1267.6400000000001</ele>
        <time>2012-06-16T12:37:47Z</time>
      </trkpt>
      <trkpt lat="46.363579407334328" lon="7.095455881208181">
        <ele>1270.52</ele>
        <time>2012-06-16T12:38:03Z</time>
      </trkpt>
      <trkpt lat="46.363525511696935" lon="7.095027398318052">
        <ele>1272.4400000000001</ele>
        <time>2012-06-16T12:38:20Z</time>
      </trkpt>
      <trkpt lat="46.363437585532665" lon="7.094625737518072">
        <ele>1275.8099999999999</ele>
        <time>2012-06-16T12:38:37Z</time>
      </trkpt>
      <trkpt lat="46.363295512273908" lon="7.0943324547261">
        <ele>1277.73</ele>
        <time>2012-06-16T12:38:49Z</time>
      </trkpt>
      <trkpt lat="46.363280760124326" lon="7.093875808641315">
        <ele>1279.6500000000001</ele>
        <time>2012-06-16T12:39:04Z</time>
      </trkpt>
      <trkpt lat="46.363188726827502" lon="7.093518571928144">
        <ele>1281.5699999999999</ele>
        <time>2012-06-16T12:39:19Z</time>
      </trkpt>
      <trkpt lat="46.36304397135973" lon="7.093134177848697">
        <ele>1285.9000000000001</ele>
        <time>2012-06-16T12:39:37Z</time>
      </trkpt>
      <trkpt lat="46.363163413479924" lon="7.092685913667083">
        <ele>1290.23</ele>
        <time>2012-06-16T12:39:57Z</time>
      </trkpt>
      <trkpt lat="46.3633390981704" lon="7.092241421341896">
        <ele>1294.0699999999999</ele>
        <time>2012-06-16T12:40:18Z</time>
      </trkpt>
      <trkpt lat="46.363571276888251" lon="7.091932715848088">
        <ele>1296.48</ele>
        <time>2012-06-16T12:40:36Z</time>
      </trkpt>
      <trkpt lat="46.363828433677554" lon="7.091648485511541">
        <ele>1298.8800000000001</ele>
        <time>2012-06-16T12:40:55Z</time>
      </trkpt>
      <trkpt lat="46.364071173593402" lon="7.091366015374661">
        <ele>1303.6900000000001</ele>
        <time>2012-06-16T12:41:13Z</time>
      </trkpt>
      <trkpt lat="46.364295892417431" lon="7.09113341756165">
        <ele>1308.01</ele>
        <time>2012-06-16T12:41:28Z</time>
      </trkpt>
      <trkpt lat="46.364585570991039" lon="7.09088078700006">
        <ele>1309.9300000000001</ele>
        <time>2012-06-16T12:41:45Z</time>
      </trkpt>
      <trkpt lat="46.364852786064148" lon="7.090629329904914">
        <ele>1312.3399999999999</ele>
        <time>2012-06-16T12:42:01Z</time>
      </trkpt>
      <trkpt lat="46.365079935640097" lon="7.090291790664196">
        <ele>1315.22</ele>
        <time>2012-06-16T12:42:18Z</time>
      </trkpt>
      <trkpt lat="46.365218153223395" lon="7.089818632230163">
        <ele>1318.5899999999999</ele>
        <time>2012-06-16T12:42:37Z</time>
      </trkpt>
      <trkpt lat="46.365262158215046" lon="7.089203651994467">
        <ele>1320.99</ele>
        <time>2012-06-16T12:42:56Z</time>
      </trkpt>
      <trkpt lat="46.365298619493842" lon="7.088617421686649">
        <ele>1323.8699999999999</ele>
        <time>2012-06-16T12:43:13Z</time>
      </trkpt>
      <trkpt lat="46.365254865959287" lon="7.088073268532753">
        <ele>1326.28</ele>
        <time>2012-06-16T12:43:29Z</time>
      </trkpt>
      <trkpt lat="46.365242293104529" lon="7.087424006313086">
        <ele>1329.1600000000001</ele>
        <time>2012-06-16T12:43:48Z</time>
      </trkpt>
      <trkpt lat="46.365359472110868" lon="7.086835345253348">
        <ele>1334.9300000000001</ele>
        <time>2012-06-16T12:44:06Z</time>
      </trkpt>
      <trkpt lat="46.365491822361946" lon="7.086300160735846">
        <ele>1338.77</ele>
        <time>2012-06-16T12:44:23Z</time>
      </trkpt>
      <trkpt lat="46.36557312682271" lon="7.08588844165206">
        <ele>1342.1400000000001</ele>
        <time>2012-06-16T12:44:38Z</time>
      </trkpt>
      <trkpt lat="46.365583771839738" lon="7.085831360891461">
        <ele>1341.6600000000001</ele>
        <time>2012-06-16T12:44:51Z</time>
      </trkpt>
      <trkpt lat="46.365621909499168" lon="7.085645031183958">
        <ele>1343.0999999999999</ele>
        <time>2012-06-16T12:45:10Z</time>
      </trkpt>
      <trkpt lat="46.365617802366614" lon="7.08564268425107">
        <ele>1342.6199999999999</ele>
        <time>2012-06-16T12:45:26Z</time>
      </trkpt>
      <trkpt lat="46.365613443776965" lon="7.08561921492219">
        <ele>1343.0999999999999</ele>
        <time>2012-06-16T12:46:03Z</time>
      </trkpt>
      <trkpt lat="46.36561076156795" lon="7.085626255720854">
        <ele>1345.02</ele>
        <time>2012-06-16T12:46:31Z</time>
      </trkpt>
      <trkpt lat="46.365601625293493" lon="7.085648970678449">
        <ele>1343.5799999999999</ele>
        <time>2012-06-16T12:47:16Z</time>
      </trkpt>
      <trkpt lat="46.365647809579968" lon="7.085632206872106">
        <ele>1344.0599999999999</ele>
        <time>2012-06-16T12:47:45Z</time>
      </trkpt>
      <trkpt lat="46.365658286958933" lon="7.08563975058496">
        <ele>1344.0599999999999</ele>
        <time>2012-06-16T12:47:46Z</time>
      </trkpt>
      <trkpt lat="46.365670524537563" lon="7.085647126659751">
        <ele>1344.0599999999999</ele>
        <time>2012-06-16T12:47:47Z</time>
      </trkpt>
      <trkpt lat="46.365683432668447" lon="7.085653496906161">
        <ele>1344.0599999999999</ele>
        <time>2012-06-16T12:47:48Z</time>
      </trkpt>
      <trkpt lat="46.365699358284473" lon="7.085658442229033">
        <ele>1344.0599999999999</ele>
        <time>2012-06-16T12:47:49Z</time>
      </trkpt>
      <trkpt lat="46.365963472053409" lon="7.085581077262759">
        <ele>1345.98</ele>
        <time>2012-06-16T12:48:04Z</time>
      </trkpt>
      <trkpt lat="46.366130104288459" lon="7.085512345656753">
        <ele>1347.4300000000001</ele>
        <time>2012-06-16T12:48:17Z</time>
      </trkpt>
      <trkpt lat="46.366128763183951" lon="7.085518212988973">
        <ele>1347.4300000000001</ele>
        <time>2012-06-16T12:48:23Z</time>
      </trkpt>
      <trkpt lat="46.36614577844739" lon="7.085512178018689">
        <ele>1347.9100000000001</ele>
        <time>2012-06-16T12:48:24Z</time>
      </trkpt>
      <trkpt lat="46.366482898592949" lon="7.085406482219696">
        <ele>1351.75</ele>
        <time>2012-06-16T12:48:41Z</time>
      </trkpt>
      <trkpt lat="46.366756903007627" lon="7.085511591285467">
        <ele>1354.1500000000001</ele>
        <time>2012-06-16T12:48:56Z</time>
      </trkpt>
      <trkpt lat="46.367031410336494" lon="7.085713008418679">
        <ele>1358.96</ele>
        <time>2012-06-16T12:49:14Z</time>
      </trkpt>
      <trkpt lat="46.367291836068034" lon="7.085892967879772">
        <ele>1360.4000000000001</ele>
        <time>2012-06-16T12:49:31Z</time>
      </trkpt>
      <trkpt lat="46.367564247921109" lon="7.085922891274095">
        <ele>1363.77</ele>
        <time>2012-06-16T12:49:47Z</time>
      </trkpt>
      <trkpt lat="46.367856860160828" lon="7.085988353937864">
        <ele>1367.1300000000001</ele>
        <time>2012-06-16T12:50:05Z</time>
      </trkpt>
      <trkpt lat="46.368090379983187" lon="7.086142664775252">
        <ele>1369.54</ele>
        <time>2012-06-16T12:50:20Z</time>
      </trkpt>
      <trkpt lat="46.368326498195529" lon="7.08630527369678">
        <ele>1371.9400000000001</ele>
        <time>2012-06-16T12:50:35Z</time>
      </trkpt>
      <trkpt lat="46.368590444326401" lon="7.086472576484084">
        <ele>1375.3</ele>
        <time>2012-06-16T12:50:52Z</time>
      </trkpt>
      <trkpt lat="46.368866711854935" lon="7.086627054959536">
        <ele>1378.1900000000001</ele>
        <time>2012-06-16T12:51:09Z</time>
      </trkpt>
      <trkpt lat="46.36911666020751" lon="7.086654296144843">
        <ele>1380.5899999999999</ele>
        <time>2012-06-16T12:51:24Z</time>
      </trkpt>
      <trkpt lat="46.369386725127697" lon="7.086610626429319">
        <ele>1384.4400000000001</ele>
        <time>2012-06-16T12:51:40Z</time>
      </trkpt>
      <trkpt lat="46.369612868875265" lon="7.086518174037337">
        <ele>1387.3199999999999</ele>
        <time>2012-06-16T12:51:54Z</time>
      </trkpt>
      <trkpt lat="46.369826942682266" lon="7.086286833509803">
        <ele>1390.6800000000001</ele>
        <time>2012-06-16T12:52:11Z</time>
      </trkpt>
      <trkpt lat="46.369995921850204" lon="7.08608633838594">
        <ele>1393.0899999999999</ele>
        <time>2012-06-16T12:52:26Z</time>
      </trkpt>
      <trkpt lat="46.370204463601112" lon="7.085886597633362">
        <ele>1397.4100000000001</ele>
        <time>2012-06-16T12:52:42Z</time>
      </trkpt>
      <trkpt lat="46.370433708652854" lon="7.085784254595637">
        <ele>1399.3399999999999</ele>
        <time>2012-06-16T12:52:55Z</time>
      </trkpt>
      <trkpt lat="46.370691200718284" lon="7.08563388325274">
        <ele>1401.26</ele>
        <time>2012-06-16T12:53:08Z</time>
      </trkpt>
      <trkpt lat="46.371017508208752" lon="7.085288381204009">
        <ele>1403.1800000000001</ele>
        <time>2012-06-16T12:53:24Z</time>
      </trkpt>
      <trkpt lat="46.371357059106231" lon="7.084932485595346">
        <ele>1405.5799999999999</ele>
        <time>2012-06-16T12:53:41Z</time>
      </trkpt>
      <trkpt lat="46.371563756838441" lon="7.084680944681168">
        <ele>1409.9100000000001</ele>
        <time>2012-06-16T12:53:53Z</time>
      </trkpt>
      <trkpt lat="46.371855530887842" lon="7.084434600546956">
        <ele>1412.3099999999999</ele>
        <time>2012-06-16T12:54:06Z</time>
      </trkpt>
      <trkpt lat="46.37212953530252" lon="7.084266627207398">
        <ele>1416.6400000000001</ele>
        <time>2012-06-16T12:54:18Z</time>
      </trkpt>
      <trkpt lat="46.372565561905503" lon="7.084426218643785">
        <ele>1412.79</ele>
        <time>2012-06-16T12:54:29Z</time>
      </trkpt>
      <trkpt lat="46.372609985992312" lon="7.084444742649794">
        <ele>1412.3099999999999</ele>
        <time>2012-06-16T12:54:30Z</time>
      </trkpt>
      <trkpt lat="46.372654661536217" lon="7.08445580676198">
        <ele>1412.3099999999999</ele>
        <time>2012-06-16T12:54:31Z</time>
      </trkpt>
      <trkpt lat="46.373131508007646" lon="7.084516827017069">
        <ele>1409.4300000000001</ele>
        <time>2012-06-16T12:54:42Z</time>
      </trkpt>
      <trkpt lat="46.37316201813519" lon="7.084466619417071">
        <ele>1408.95</ele>
        <time>2012-06-16T12:54:43Z</time>
      </trkpt>
      <trkpt lat="46.373179787769914" lon="7.084390763193369">
        <ele>1409.4300000000001</ele>
        <time>2012-06-16T12:54:44Z</time>
      </trkpt>
      <trkpt lat="46.373183391988277" lon="7.084314823150635">
        <ele>1409.4300000000001</ele>
        <time>2012-06-16T12:54:45Z</time>
      </trkpt>
      <trkpt lat="46.373178781941533" lon="7.084238883107901">
        <ele>1408.95</ele>
        <time>2012-06-16T12:54:46Z</time>
      </trkpt>
      <trkpt lat="46.373169897124171" lon="7.084014248102903">
        <ele>1408.47</ele>
        <time>2012-06-16T12:54:49Z</time>
      </trkpt>
      <trkpt lat="46.373183140531182" lon="7.083940822631121">
        <ele>1407.99</ele>
        <time>2012-06-16T12:54:50Z</time>
      </trkpt>
      <trkpt lat="46.373212393373251" lon="7.083875695243478">
        <ele>1407.99</ele>
        <time>2012-06-16T12:54:51Z</time>
      </trkpt>
      <trkpt lat="46.373253045603633" lon="7.08382842130959">
        <ele>1407.99</ele>
        <time>2012-06-16T12:54:52Z</time>
      </trkpt>
      <trkpt lat="46.373304594308138" lon="7.083807131275535">
        <ele>1407.51</ele>
        <time>2012-06-16T12:54:53Z</time>
      </trkpt>
      <trkpt lat="46.373358741402626" lon="7.083808053284884">
        <ele>1407.03</ele>
        <time>2012-06-16T12:54:54Z</time>
      </trkpt>
      <trkpt lat="46.373416911810637" lon="7.083818949759007">
        <ele>1406.55</ele>
        <time>2012-06-16T12:54:55Z</time>
      </trkpt>
      <trkpt lat="46.37347424402833" lon="7.083832109346986">
        <ele>1405.5799999999999</ele>
        <time>2012-06-16T12:54:56Z</time>
      </trkpt>
      <trkpt lat="46.37442609295249" lon="7.084181718528271">
        <ele>1400.78</ele>
        <time>2012-06-16T12:55:14Z</time>
      </trkpt>
      <trkpt lat="46.374829094856977" lon="7.084489334374666">
        <ele>1399.3399999999999</ele>
        <time>2012-06-16T12:55:23Z</time>
      </trkpt>
      <trkpt lat="46.374864550307393" lon="7.084537865594029">
        <ele>1399.3399999999999</ele>
        <time>2012-06-16T12:55:24Z</time>
      </trkpt>
      <trkpt lat="46.375208292156458" lon="7.085148235782981">
        <ele>1397.8900000000001</ele>
        <time>2012-06-16T12:55:35Z</time>
      </trkpt>
      <trkpt lat="46.37579184025526" lon="7.085955999791622">
        <ele>1395.97</ele>
        <time>2012-06-16T12:55:48Z</time>
      </trkpt>
      <trkpt lat="46.376017145812511" lon="7.086231848224998">
        <ele>1395.97</ele>
        <time>2012-06-16T12:55:53Z</time>
      </trkpt>
      <trkpt lat="46.376105155795813" lon="7.086298735812306">
        <ele>1396.45</ele>
        <time>2012-06-16T12:55:55Z</time>
      </trkpt>
      <trkpt lat="46.376147400587797" lon="7.086320612579584">
        <ele>1396.45</ele>
        <time>2012-06-16T12:55:56Z</time>
      </trkpt>
      <trkpt lat="46.376192243769765" lon="7.08633117377758">
        <ele>1395.97</ele>
        <time>2012-06-16T12:55:57Z</time>
      </trkpt>
      <trkpt lat="46.376876877620816" lon="7.086177533492446">
        <ele>1395.01</ele>
        <time>2012-06-16T12:56:09Z</time>
      </trkpt>
      <trkpt lat="46.377949761226773" lon="7.08584695123136">
        <ele>1388.28</ele>
        <time>2012-06-16T12:56:22Z</time>
      </trkpt>
      <trkpt lat="46.378032406792045" lon="7.085848543792963">
        <ele>1387.3199999999999</ele>
        <time>2012-06-16T12:56:23Z</time>
      </trkpt>
      <trkpt lat="46.378118321299553" lon="7.085869750007987">
        <ele>1386.3599999999999</ele>
        <time>2012-06-16T12:56:24Z</time>
      </trkpt>
      <trkpt lat="46.37820859439671" lon="7.085910569876432">
        <ele>1385.4000000000001</ele>
        <time>2012-06-16T12:56:25Z</time>
      </trkpt>
      <trkpt lat="46.378301968798041" lon="7.085967650637031">
        <ele>1383.96</ele>
        <time>2012-06-16T12:56:26Z</time>
      </trkpt>
      <trkpt lat="46.378396516665816" lon="7.086037388071418">
        <ele>1382.99</ele>
        <time>2012-06-16T12:56:27Z</time>
      </trkpt>
      <trkpt lat="46.378491651266813" lon="7.086113914847374">
        <ele>1382.51</ele>
        <time>2012-06-16T12:56:28Z</time>
      </trkpt>
      <trkpt lat="46.379131693392992" lon="7.086643567308784">
        <ele>1379.6300000000001</ele>
        <time>2012-06-16T12:56:35Z</time>
      </trkpt>
      <trkpt lat="46.379213836044073" lon="7.086742725223303">
        <ele>1378.6700000000001</ele>
        <time>2012-06-16T12:56:36Z</time>
      </trkpt>
      <trkpt lat="46.37929086573422" lon="7.086855713278055">
        <ele>1378.1900000000001</ele>
        <time>2012-06-16T12:56:37Z</time>
      </trkpt>
      <trkpt lat="46.379358423873782" lon="7.086982112377882">
        <ele>1377.71</ele>
        <time>2012-06-16T12:56:38Z</time>
      </trkpt>
      <trkpt lat="46.379419444128871" lon="7.087116558104754">
        <ele>1376.75</ele>
        <time>2012-06-16T12:56:39Z</time>
      </trkpt>
      <trkpt lat="46.379889165982604" lon="7.088020211085677">
        <ele>1371.9400000000001</ele>
        <time>2012-06-16T12:56:46Z</time>
      </trkpt>
      <trkpt lat="46.379974409937859" lon="7.088109226897359">
        <ele>1371.46</ele>
        <time>2012-06-16T12:56:47Z</time>
      </trkpt>
      <trkpt lat="46.380057977512479" lon="7.088189776986837">
        <ele>1370.98</ele>
        <time>2012-06-16T12:56:48Z</time>
      </trkpt>
      <trkpt lat="46.380143808200955" lon="7.088256496936083">
        <ele>1370.98</ele>
        <time>2012-06-16T12:56:49Z</time>
      </trkpt>
      <trkpt lat="46.380230812355876" lon="7.088302178308368">
        <ele>1370.98</ele>
        <time>2012-06-16T12:56:50Z</time>
      </trkpt>
      <trkpt lat="46.380320079624653" lon="7.088318774476647">
        <ele>1370.5</ele>
        <time>2012-06-16T12:56:51Z</time>
      </trkpt>
      <trkpt lat="46.38041035272181" lon="7.088304189965129">
        <ele>1370.5</ele>
        <time>2012-06-16T12:56:52Z</time>
      </trkpt>
      <trkpt lat="46.380499871447682" lon="7.08826513029635">
        <ele>1370.5</ele>
        <time>2012-06-16T12:56:53Z</time>
      </trkpt>
      <trkpt lat="46.380588384345174" lon="7.088216431438923">
        <ele>1370.5</ele>
        <time>2012-06-16T12:56:54Z</time>
      </trkpt>
      <trkpt lat="46.380761135369539" lon="7.088130181655288">
        <ele>1369.54</ele>
        <time>2012-06-16T12:56:56Z</time>
      </trkpt>
      <trkpt lat="46.380844451487064" lon="7.088108723983169">
        <ele>1369.54</ele>
        <time>2012-06-16T12:56:57Z</time>
      </trkpt>
      <trkpt lat="46.380931790918112" lon="7.088103024289012">
        <ele>1369.05</ele>
        <time>2012-06-16T12:56:58Z</time>
      </trkpt>
      <trkpt lat="46.381018711254001" lon="7.088116016238928">
        <ele>1368.5699999999999</ele>
        <time>2012-06-16T12:56:59Z</time>
      </trkpt>
      <trkpt lat="46.381103368476033" lon="7.088140994310379">
        <ele>1368.5699999999999</ele>
        <time>2012-06-16T12:57:00Z</time>
      </trkpt>
      <trkpt lat="46.381184672936797" lon="7.088175611570478">
        <ele>1368.0899999999999</ele>
        <time>2012-06-16T12:57:01Z</time>
      </trkpt>
      <trkpt lat="46.381264636293054" lon="7.088214922696352">
        <ele>1367.6099999999999</ele>
        <time>2012-06-16T12:57:02Z</time>
      </trkpt>
      <trkpt lat="46.38134409673512" lon="7.088260604068637">
        <ele>1367.6099999999999</ele>
        <time>2012-06-16T12:57:03Z</time>
      </trkpt>
      <trkpt lat="46.381421210244298" lon="7.088315924629569">
        <ele>1367.1300000000001</ele>
        <time>2012-06-16T12:57:04Z</time>
      </trkpt>
      <trkpt lat="46.382234506309032" lon="7.089118072763085">
        <ele>1363.29</ele>
        <time>2012-06-16T12:57:16Z</time>
      </trkpt>
      <trkpt lat="46.382544301450253" lon="7.089287051931024">
        <ele>1362.8099999999999</ele>
        <time>2012-06-16T12:57:20Z</time>
      </trkpt>
      <trkpt lat="46.383509980514646" lon="7.089315885677934">
        <ele>1361.3599999999999</ele>
        <time>2012-06-16T12:57:32Z</time>
      </trkpt>
      <trkpt lat="46.383590446785092" lon="7.089329464361072">
        <ele>1360.8800000000001</ele>
        <time>2012-06-16T12:57:33Z</time>
      </trkpt>
      <trkpt lat="46.383785912767053" lon="7.08939241245389">
        <ele>1359.4400000000001</ele>
        <time>2012-06-16T12:57:36Z</time>
      </trkpt>
      <trkpt lat="46.383851626887918" lon="7.089372128248215">
        <ele>1358.48</ele>
        <time>2012-06-16T12:57:37Z</time>
      </trkpt>
      <trkpt lat="46.383913904428482" lon="7.089312449097633">
        <ele>1358</ele>
        <time>2012-06-16T12:57:38Z</time>
      </trkpt>
      <trkpt lat="46.383970649912953" lon="7.089229971170425">
        <ele>1357.52</ele>
        <time>2012-06-16T12:57:39Z</time>
      </trkpt>
      <trkpt lat="46.384024880826473" lon="7.089147828519344">
        <ele>1357.04</ele>
        <time>2012-06-16T12:57:40Z</time>
      </trkpt>
      <trkpt lat="46.384080871939659" lon="7.089074738323689">
        <ele>1357.04</ele>
        <time>2012-06-16T12:57:41Z</time>
      </trkpt>
      <trkpt lat="46.384138874709606" lon="7.089033080264926">
        <ele>1357.04</ele>
        <time>2012-06-16T12:57:42Z</time>
      </trkpt>
      <trkpt lat="46.384190423414111" lon="7.089027464389801">
        <ele>1357.04</ele>
        <time>2012-06-16T12:57:43Z</time>
      </trkpt>
      <trkpt lat="46.384230991825461" lon="7.089048335328698">
        <ele>1357.52</ele>
        <time>2012-06-16T12:57:44Z</time>
      </trkpt>
      <trkpt lat="46.384264938533306" lon="7.089075995609164">
        <ele>1358</ele>
        <time>2012-06-16T12:57:45Z</time>
      </trkpt>
      <trkpt lat="46.384605327621102" lon="7.089363746345043">
        <ele>1363.29</ele>
        <time>2012-06-16T12:57:59Z</time>
      </trkpt>
      <trkpt lat="46.384918559342623" lon="7.089731208980084">
        <ele>1368.0899999999999</ele>
        <time>2012-06-16T12:58:16Z</time>
      </trkpt>
      <trkpt lat="46.385214775800705" lon="7.090038657188416">
        <ele>1371.46</ele>
        <time>2012-06-16T12:58:35Z</time>
      </trkpt>
      <trkpt lat="46.385484086349607" lon="7.090281900018454">
        <ele>1374.3399999999999</ele>
        <time>2012-06-16T12:58:51Z</time>
      </trkpt>
      <trkpt lat="46.385796396061778" lon="7.090794118121266">
        <ele>1375.3</ele>
        <time>2012-06-16T12:59:09Z</time>
      </trkpt>
      <trkpt lat="46.386184813454747" lon="7.091381521895528">
        <ele>1377.71</ele>
        <time>2012-06-16T12:59:28Z</time>
      </trkpt>
      <trkpt lat="46.386558897793293" lon="7.091666338965297">
        <ele>1382.51</ele>
        <time>2012-06-16T12:59:46Z</time>
      </trkpt>
      <trkpt lat="46.386839020997286" lon="7.091755857691169">
        <ele>1386.3599999999999</ele>
        <time>2012-06-16T13:00:01Z</time>
      </trkpt>
      <trkpt lat="46.38710992410779" lon="7.09191762842238">
        <ele>1389.24</ele>
        <time>2012-06-16T13:00:16Z</time>
      </trkpt>
      <trkpt lat="46.38730488717556" lon="7.092115860432386">
        <ele>1392.1300000000001</ele>
        <time>2012-06-16T13:00:31Z</time>
      </trkpt>
      <trkpt lat="46.387449726462364" lon="7.092238571494818">
        <ele>1393.5699999999999</ele>
        <time>2012-06-16T13:00:40Z</time>
      </trkpt>
      <trkpt lat="46.387466825544834" lon="7.092247540131211">
        <ele>1393.0899999999999</ele>
        <time>2012-06-16T13:00:41Z</time>
      </trkpt>
      <trkpt lat="46.387672265991569" lon="7.092400006949902">
        <ele>1395.01</ele>
        <time>2012-06-16T13:00:53Z</time>
      </trkpt>
      <trkpt lat="46.387700513005257" lon="7.092422051355243">
        <ele>1395.49</ele>
        <time>2012-06-16T13:00:55Z</time>
      </trkpt>
      <trkpt lat="46.387714510783553" lon="7.092433283105493">
        <ele>1395.49</ele>
        <time>2012-06-16T13:00:56Z</time>
      </trkpt>
      <trkpt lat="46.387750972062349" lon="7.092458261176944">
        <ele>1395.97</ele>
        <time>2012-06-16T13:00:58Z</time>
      </trkpt>
      <trkpt lat="46.387768490239978" lon="7.092476701363921">
        <ele>1395.97</ele>
        <time>2012-06-16T13:00:59Z</time>
      </trkpt>
      <trkpt lat="46.387782488018274" lon="7.092497320845723">
        <ele>1395.97</ele>
        <time>2012-06-16T13:01:00Z</time>
      </trkpt>
      <trkpt lat="46.388055738061666" lon="7.092921864241362">
        <ele>1393.5699999999999</ele>
        <time>2012-06-16T13:01:10Z</time>
      </trkpt>
      <trkpt lat="46.388418339192867" lon="7.093486385419965">
        <ele>1394.53</ele>
        <time>2012-06-16T13:01:25Z</time>
      </trkpt>
      <trkpt lat="46.388810779899359" lon="7.094242600724101">
        <ele>1395.49</ele>
        <time>2012-06-16T13:01:42Z</time>
      </trkpt>
      <trkpt lat="46.389180840924382" lon="7.094722632318735">
        <ele>1397.4100000000001</ele>
        <time>2012-06-16T13:01:56Z</time>
      </trkpt>
      <trkpt lat="46.389440931379795" lon="7.094996552914381">
        <ele>1399.3399999999999</ele>
        <time>2012-06-16T13:02:07Z</time>
      </trkpt>
      <trkpt lat="46.389619298279285" lon="7.095365440472961">
        <ele>1400.3</ele>
        <time>2012-06-16T13:02:20Z</time>
      </trkpt>
      <trkpt lat="46.389911994338036" lon="7.095874473452568">
        <ele>1401.26</ele>
        <time>2012-06-16T13:02:39Z</time>
      </trkpt>
      <trkpt lat="46.390099329873919" lon="7.096386104822159">
        <ele>1402.7</ele>
        <time>2012-06-16T13:02:54Z</time>
      </trkpt>
      <trkpt lat="46.390232183039188" lon="7.096923971548677">
        <ele>1402.7</ele>
        <time>2012-06-16T13:03:08Z</time>
      </trkpt>
      <trkpt lat="46.390433013439178" lon="7.097316915169358">
        <ele>1401.26</ele>
        <time>2012-06-16T13:03:19Z</time>
      </trkpt>
      <trkpt lat="46.390652284026146" lon="7.097616819664836">
        <ele>1405.5799999999999</ele>
        <time>2012-06-16T13:03:35Z</time>
      </trkpt>
      <trkpt lat="46.390720177441835" lon="7.097646575421095">
        <ele>1407.03</ele>
        <time>2012-06-16T13:03:39Z</time>
      </trkpt>
      <trkpt lat="46.390739372000098" lon="7.09764925763011">
        <ele>1407.51</ele>
        <time>2012-06-16T13:03:40Z</time>
      </trkpt>
      <trkpt lat="46.391047155484557" lon="7.097835168242455">
        <ele>1410.8699999999999</ele>
        <time>2012-06-16T13:03:55Z</time>
      </trkpt>
      <trkpt lat="46.391278747469187" lon="7.098098862916231">
        <ele>1411.8299999999999</ele>
        <time>2012-06-16T13:04:07Z</time>
      </trkpt>
      <trkpt lat="46.391559708863497" lon="7.098466074094176">
        <ele>1414.24</ele>
        <time>2012-06-16T13:04:23Z</time>
      </trkpt>
      <trkpt lat="46.391801275312901" lon="7.098707389086485">
        <ele>1417.1199999999999</ele>
        <time>2012-06-16T13:04:36Z</time>
      </trkpt>
      <trkpt lat="46.392091456800699" lon="7.099060267210007">
        <ele>1420.49</ele>
        <time>2012-06-16T13:04:52Z</time>
      </trkpt>
      <trkpt lat="46.39244626276195" lon="7.099477350711823">
        <ele>1423.8499999999999</ele>
        <time>2012-06-16T13:05:11Z</time>
      </trkpt>
      <trkpt lat="46.392800649628043" lon="7.099860403686762">
        <ele>1425.77</ele>
        <time>2012-06-16T13:05:28Z</time>
      </trkpt>
      <trkpt lat="46.39317867346108" lon="7.100044302642345">
        <ele>1426.73</ele>
        <time>2012-06-16T13:05:42Z</time>
      </trkpt>
      <trkpt lat="46.393696842715144" lon="7.100160978734493">
        <ele>1426.73</ele>
        <time>2012-06-16T13:05:56Z</time>
      </trkpt>
      <trkpt lat="46.393736992031336" lon="7.100175898522139">
        <ele>1426.73</ele>
        <time>2012-06-16T13:05:57Z</time>
      </trkpt>
      <trkpt lat="46.394198080524802" lon="7.100456189364195">
        <ele>1428.6600000000001</ele>
        <time>2012-06-16T13:06:11Z</time>
      </trkpt>
      <trkpt lat="46.394432773813605" lon="7.100587198510766">
        <ele>1432.02</ele>
        <time>2012-06-16T13:06:22Z</time>
      </trkpt>
      <trkpt lat="46.39444425702095" lon="7.100614607334137">
        <ele>1432.5</ele>
        <time>2012-06-16T13:06:23Z</time>
      </trkpt>
      <trkpt lat="46.394453896209598" lon="7.100650733336806">
        <ele>1432.98</ele>
        <time>2012-06-16T13:06:24Z</time>
      </trkpt>
      <trkpt lat="46.394459428265691" lon="7.100688870996237">
        <ele>1433.46</ele>
        <time>2012-06-16T13:06:25Z</time>
      </trkpt>
      <trkpt lat="46.394465211778879" lon="7.100726924836636">
        <ele>1433.46</ele>
        <time>2012-06-16T13:06:26Z</time>
      </trkpt>
      <trkpt lat="46.394609631970525" lon="7.10131298750639">
        <ele>1435.8699999999999</ele>
        <time>2012-06-16T13:06:42Z</time>
      </trkpt>
      <trkpt lat="46.394800571724772" lon="7.101790253072977">
        <ele>1437.3099999999999</ele>
        <time>2012-06-16T13:06:56Z</time>
      </trkpt>
      <trkpt lat="46.3951410446316" lon="7.102155955508351">
        <ele>1438.75</ele>
        <time>2012-06-16T13:07:09Z</time>
      </trkpt>
      <trkpt lat="46.39559299685061" lon="7.10229660384357">
        <ele>1441.6300000000001</ele>
        <time>2012-06-16T13:07:22Z</time>
      </trkpt>
      <trkpt lat="46.395971355959773" lon="7.102273134514689">
        <ele>1444.52</ele>
        <time>2012-06-16T13:07:36Z</time>
      </trkpt>
      <trkpt lat="46.395963644608855" lon="7.102273302152753">
        <ele>1444.52</ele>
        <time>2012-06-16T13:07:39Z</time>
      </trkpt>
    </trkseg>
  </trk>

</gpx>